# Wetter Temperatur Luftdruck Luftfeuchtigkeit Sichtweite Windgeschwindigkeit Windrichtung Zeit
1 Clear 20 1021 61 10000 5.29 1 13:44 01.02.2023
2 Clouds 20 1022 62 10000 5.87 353 13:19 01.02.2023
3 Clear 19 1022 62 10000 5.96 347 12:26 01.02.2023
4 Clear 16 1022 64 10000 6.08 344 10:35 01.02.2023
5 Clouds 15 1020 64 10000 6.54 353 06:54 01.02.2023
6 Clear 15 1021 65 10000 5.78 2 22:41 31.01.2023
7 Clear 16 1021 63 10000 5.23 9 20:53 31.01.2023
8 Clouds 18 1021 62 10000 5 13 19:24 31.01.2023
9 Clouds 18 1020 63 10000 4.97 18 17:31 31.01.2023
10 Clouds 18 1021 66 10000 5.21 41 15:36 31.01.2023
11 Clouds 18 1021 64 10000 5.17 25 15:18 31.01.2023
12 Clouds 19 1023 58 10000 4.39 29 12:56 31.01.2023
13 Clouds 17 1023 57 10000 5.38 30 11:28 31.01.2023
14 Clouds 16 1022 58 10000 5.63 23 10:18 31.01.2023
15 Clouds 16 1022 58 10000 5.63 23 09:44 31.01.2023
16 Clouds 15 1022 62 10000 5.27 23 08:36 31.01.2023
17 Clouds 17 1021 71 10000 5.84 47 06:23 31.01.2023
18 Clouds 15 1021 61 10000 3.36 16 00:54 31.01.2023
19 Clouds 16 1022 56 10000 4.91 29 23:24 30.01.2023
20 Clouds 16 1022 56 10000 4.91 29 22:47 30.01.2023
21 Clouds 17 1022 56 10000 5.15 23 21:30 30.01.2023
22 Clouds 17 1021 59 10000 5.5 31 20:42 30.01.2023
23 Clouds 18 1020 67 10000 4.7 47 18:26 30.01.2023
24 Clouds 18 1020 68 10000 4.78 49 16:56 30.01.2023
25 Clouds 18 1020 66 10000 4.46 50 14:33 30.01.2023
26 Clouds 16 1021 63 10000 4.03 54 13:37 30.01.2023
27 Clouds 17 1021 64 10000 3.84 42 11:28 30.01.2023
28 Clouds 15 1021 67 10000 3.67 30 10:18 30.01.2023
29 Clouds 14 1021 67 10000 3.67 30 09:49 30.01.2023
30 Clouds 14 1020 61 10000 3.72 29 08:18 30.01.2023
31 Clouds 15 1020 70 10000 3.05 46 01:46 30.01.2023
32 Clouds 15 1021 70 10000 2.95 32 23:35 29.01.2023
33 Clouds 15 1020 70 10000 3.09 33 22:37 29.01.2023
34 Clouds 16 1020 71 10000 3.9 26 21:41 29.01.2023
35 Clouds 15 1020 70 10000 3.08 39 20:50 29.01.2023
36 Clouds 16 1019 68 10000 3.54 31 19:50 29.01.2023
37 Clouds 16 1019 67 10000 3.54 29 19:27 29.01.2023
38 Clouds 18 1018 68 10000 3.98 40 17:50 29.01.2023
39 Clouds 18 1018 69 10000 3.98 33 16:21 29.01.2023
40 Clouds 18 1019 67 10000 4.3 28 15:29 29.01.2023
41 Clouds 18 1020 64 10000 4.1 34 13:34 29.01.2023
42 Clouds 18 1020 64 10000 4.12 34 12:52 29.01.2023
43 Clouds 18 1021 65 10000 4.03 32 12:24 29.01.2023
44 Clouds 16 1021 65 10000 4.03 32 11:58 29.01.2023
45 Clouds 17 1021 68 10000 4.65 28 11:28 29.01.2023
46 Clouds 16 1020 69 10000 5.33 17 10:19 29.01.2023
47 Clouds 15 1019 67 10000 6.42 19 07:20 29.01.2023
48 Clouds 15 1019 64 10000 5.8 9 03:41 29.01.2023
49 Clouds 16 1021 65 10000 7.49 1 23:39 28.01.2023
50 Clouds 16 1021 66 10000 7.47 359 20:45 28.01.2023
51 Clouds 17 1020 65 10000 7.69 2 19:53 28.01.2023
52 Clouds 19 1020 63 10000 7.14 0 18:39 28.01.2023
53 Clouds 20 1020 65 10000 7.88 9 17:21 28.01.2023
54 Clouds 18 1020 66 10000 7.75 9 16:27 28.01.2023
55 Clouds 18 1020 66 10000 7.75 9 15:49 28.01.2023
56 Clouds 18 1021 66 10000 7.63 8 15:22 28.01.2023
57 Clouds 18 1021 68 10000 7.34 7 13:44 28.01.2023
58 Clouds 18 1023 66 10000 6.76 4 11:55 28.01.2023
59 Clouds 18 1023 66 10000 6.94 4 10:34 28.01.2023
60 Clouds 17 1022 66 10000 7.35 9 08:39 28.01.2023
61 Clouds 17 1023 60 10000 7.69 4 01:48 28.01.2023
62 Clouds 17 1024 67 10000 9.37 9 00:27 28.01.2023
63 Clouds 17 1024 70 10000 8.15 2 21:54 27.01.2023
64 Clouds 17 1023 64 10000 8.36 355 18:54 27.01.2023
65 Clouds 20 1023 65 10000 8.69 355 17:58 27.01.2023
66 Clouds 20 1023 65 10000 7.76 351 17:19 27.01.2023
67 Clouds 21 1023 65 10000 7.76 351 16:35 27.01.2023
68 Clouds 21 1023 59 10000 7.12 0 15:24 27.01.2023
69 Clouds 20 1024 57 10000 6.31 2 14:25 27.01.2023
70 Clouds 19 1024 57 10000 6.31 2 13:31 27.01.2023
71 Clouds 17 1024 65 10000 6.17 26 08:47 27.01.2023
72 Clouds 18 1023 65 10000 6.29 35 06:21 27.01.2023
73 Clouds 18 1025 61 10000 7.88 53 00:24 27.01.2023
74 Clouds 18 1024 62 10000 8.32 51 21:52 26.01.2023
75 Clouds 17 1024 62 10000 8.21 50 20:40 26.01.2023
76 Clouds 18 1024 62 10000 8.22 48 19:57 26.01.2023
77 Clouds 20 1023 61 10000 8.14 46 17:56 26.01.2023
78 Clouds 20 1023 59 10000 7.86 48 16:30 26.01.2023
79 Clouds 20 1023 58 10000 7.64 52 15:58 26.01.2023
80 Clouds 19 1023 58 10000 7.64 52 15:38 26.01.2023
81 Clouds 19 1023 58 10000 7.82 53 15:20 26.01.2023
82 Clouds 19 1024 57 10000 7.66 53 13:32 26.01.2023
83 Clouds 19 1026 58 10000 7.89 60 12:24 26.01.2023
84 Clouds 18 1025 58 10000 8.15 59 10:33 26.01.2023
85 Clouds 18 1024 59 10000 8.38 58 09:44 26.01.2023
86 Clouds 18 1024 61 10000 8.29 57 08:40 26.01.2023
87 Clouds 18 1021 65 10000 8.64 57 06:27 26.01.2023
88 Clouds 18 1022 64 10000 7.75 51 23:41 25.01.2023
89 Clouds 18 1022 65 10000 7.81 50 22:43 25.01.2023
90 Clouds 18 1021 65 10000 7.97 48 21:25 25.01.2023
91 Clouds 18 1021 65 10000 7.97 48 20:59 25.01.2023
92 Clouds 19 1020 63 10000 7.17 45 18:29 25.01.2023
93 Clouds 20 1019 61 10000 6.89 48 16:22 25.01.2023
94 Clouds 21 1020 61 10000 6.67 53 14:57 25.01.2023
95 Clouds 20 1022 63 10000 6.77 60 12:29 25.01.2023
96 Clouds 18 1021 65 10000 6.65 58 09:53 25.01.2023
97 Clouds 18 1020 66 10000 6.35 56 09:20 25.01.2023
98 Clouds 17 1019 68 10000 5.75 46 06:26 25.01.2023
99 Clouds 18 1020 69 10000 6.06 49 00:30 25.01.2023
100 Clouds 18 1019 69 10000 6.26 49 21:55 24.01.2023
101 Clouds 18 1019 69 10000 6.32 48 21:27 24.01.2023
102 Clouds 19 1018 69 10000 6.23 48 19:37 24.01.2023
103 Clear 20 1018 68 10000 6.05 48 18:30 24.01.2023
104 Clear 21 1017 66 10000 5.78 51 17:18 24.01.2023
105 Clear 21 1017 66 10000 5.78 51 16:52 24.01.2023
106 Clear 21 1018 65 10000 5.62 57 14:27 24.01.2023
107 Clouds 20 1019 65 10000 5.63 52 12:24 24.01.2023
108 Clouds 18 1019 67 10000 5.59 48 10:29 24.01.2023
109 Clouds 17 1018 68 10000 5.79 44 08:20 24.01.2023
110 Clouds 17 1018 68 10000 5.79 44 07:50 24.01.2023
111 Clouds 18 1018 67 10000 5.88 39 02:57 24.01.2023
112 Clouds 18 1019 66 10000 6.53 39 00:41 24.01.2023
113 Clouds 18 1019 66 10000 6.29 37 23:34 23.01.2023
114 Clouds 18 1019 65 10000 6.91 29 21:39 23.01.2023
115 Clouds 19 1018 71 10000 7.49 28 19:30 23.01.2023
116 Clouds 20 1017 67 10000 6.18 23 17:41 23.01.2023
117 Clouds 21 1018 62 10000 6.55 27 15:33 23.01.2023
118 Clouds 21 1019 67 10000 6.56 32 13:58 23.01.2023
119 Clouds 21 1020 68 10000 6.62 34 13:21 23.01.2023
120 Clouds 21 1020 68 10000 6.62 34 12:44 23.01.2023
121 Clouds 21 1020 68 10000 6.62 34 12:44 23.01.2023
122 Clouds 20 1021 69 10000 6.81 35 11:34 23.01.2023
123 Clouds 18 1019 72 10000 8.12 30 08:25 23.01.2023
124 Clouds 19 1020 75 10000 6.44 29 02:43 23.01.2023
125 Rain 18 1021 74 10000 8.89 27 22:55 22.01.2023
126 Clouds 19 1021 75 10000 8 29 21:19 22.01.2023
127 Clouds 19 1020 75 10000 7.8 31 20:24 22.01.2023
128 Rain 19 1020 75 10000 7.8 31 19:46 22.01.2023
129 Clouds 20 1020 74 10000 7.66 32 18:53 22.01.2023
130 Clouds 21 1020 72 10000 7.36 33 17:57 22.01.2023
131 Clouds 21 1020 70 10000 7.3 33 17:26 22.01.2023
132 Clouds 22 1020 71 10000 7.56 35 16:21 22.01.2023
133 Clouds 22 1021 72 10000 7.18 37 14:54 22.01.2023
134 Rain 21 1021 73 10000 6.98 39 13:40 22.01.2023
135 Clouds 21 1023 74 10000 7.16 42 12:47 22.01.2023
136 Clouds 19 1023 75 10000 7.9 46 11:36 22.01.2023
137 Clouds 18 1022 75 10000 6.74 40 09:36 22.01.2023
138 Clouds 18 1021 73 10000 7.73 39 07:39 22.01.2023
139 Rain 18 1022 76 10000 7.83 42 02:37 22.01.2023
140 Clouds 19 1023 76 10000 6.8 44 23:33 21.01.2023
141 Clouds 19 1023 74 10000 7.27 43 22:34 21.01.2023
142 Clouds 19 1022 70 10000 7.48 34 20:21 21.01.2023
143 Clouds 21 1022 67 10000 6.62 29 17:51 21.01.2023
144 Clouds 21 1022 70 10000 7.08 28 14:42 21.01.2023
145 Rain 20 1023 71 10000 6.76 39 12:58 21.01.2023
146 Rain 21 1023 71 10000 6.76 39 12:36 21.01.2023
147 Clouds 19 1023 69 10000 6.57 41 11:27 21.01.2023
148 Clouds 18 1023 71 10000 6.41 38 09:35 21.01.2023
149 Clouds 18 1022 71 10000 6.44 40 04:41 21.01.2023
150 Clouds 18 1023 69 10000 7.52 43 22:31 20.01.2023
151 Clouds 18 1023 69 10000 7.46 44 21:57 20.01.2023
152 Clouds 18 1023 69 10000 7.46 44 21:33 20.01.2023
153 Clouds 19 1022 70 10000 7.23 43 19:55 20.01.2023
154 Clouds 20 1021 70 10000 7.36 48 17:20 20.01.2023
155 Clouds 21 1022 70 10000 7.35 51 14:47 20.01.2023
156 Clouds 20 1023 70 10000 7.31 55 13:51 20.01.2023
157 Clouds 18 1023 72 10000 7.74 57 10:36 20.01.2023
158 Clouds 18 1022 74 10000 8.07 57 08:58 20.01.2023
159 Clouds 18 1021 72 10000 8.3 52 06:39 20.01.2023
160 Clouds 18 1022 75 10000 8.7 44 02:32 20.01.2023
161 Clouds 18 1023 66 10000 9.35 29 22:37 19.01.2023
162 Clouds 18 1023 69 10000 8.74 27 21:37 19.01.2023
163 Clouds 19 1023 71 10000 8.46 22 19:29 19.01.2023
164 Clouds 19 1023 70 10000 8.28 24 17:39 19.01.2023
165 Clouds 19 1024 70 10000 7.84 30 14:25 19.01.2023
166 Clouds 18 1024 74 10000 8.32 30 10:22 19.01.2023
167 Clouds 17 1024 74 10000 8.39 29 08:55 19.01.2023
168 Clouds 18 1025 74 10000 7.23 23 22:41 18.01.2023
169 Rain 18 1023 74 10000 7.62 19 20:21 18.01.2023
170 Clouds 19 1023 74 10000 7.62 19 19:45 18.01.2023
171 Clouds 19 1023 74 10000 7.85 17 19:27 18.01.2023
172 Clouds 19 1022 74 10000 8.6 19 16:22 18.01.2023
173 Rain 22 1023 73 10000 6.41 0 14:20 18.01.2023
174 Clouds 20 1024 68 10000 5.6 354 12:25 18.01.2023
175 Clouds 17 1023 65 10000 5.37 4 09:37 18.01.2023
176 Clouds 16 1022 76 10000 7.53 355 06:44 18.01.2023
177 Clouds 17 1024 71 10000 5.99 1 00:59 18.01.2023
178 Clouds 18 1024 69 10000 7.53 0 21:38 17.01.2023
179 Clouds 17 1024 70 10000 6.7 3 19:42 17.01.2023
180 Clouds 18 1023 72 10000 7 8 18:51 17.01.2023
181 Clouds 19 1023 72 10000 7.02 11 17:40 17.01.2023
182 Clouds 21 1024 67 10000 5.52 20 15:27 17.01.2023
183 Clouds 21 1024 67 10000 5.52 20 14:45 17.01.2023
184 Clouds 21 1025 65 10000 4.85 27 13:33 17.01.2023
185 Clouds 18 1026 64 10000 4.71 29 11:47 17.01.2023
186 Clouds 17 1025 68 10000 5.18 31 09:36 17.01.2023
187 Clouds 17 1024 71 10000 6.01 30 08:45 17.01.2023
188 Clouds 19 1024 75 10000 7.45 33 07:28 17.01.2023
189 Clouds 18 1024 74 10000 5.36 47 03:47 17.01.2023
190 Clouds 19 1026 64 10000 4.66 52 00:48 17.01.2023
191 Clouds 19 1026 72 10000 5.24 43 22:38 16.01.2023
192 Clouds 20 1026 73 10000 6.04 39 21:43 16.01.2023
193 Clouds 20 1024 70 10000 6.09 38 19:55 16.01.2023
194 Clouds 21 1024 68 10000 6 40 18:57 16.01.2023
195 Clouds 21 1024 68 10000 6 40 18:37 16.01.2023
196 Clouds 21 1024 66 10000 5.47 38 18:18 16.01.2023
197 Clouds 22 1024 66 10000 5.3 37 17:20 16.01.2023
198 Clouds 22 1026 68 10000 5.79 54 14:18 16.01.2023
199 Clouds 22 1026 68 10000 5.79 54 13:35 16.01.2023
200 Clouds 18 1027 74 10000 5.07 54 10:23 16.01.2023
201 Clouds 18 1026 74 10000 5.06 58 08:20 16.01.2023
202 Clouds 19 1027 79 10000 5.59 48 22:44 15.01.2023
203 Clouds 20 1026 80 10000 5.35 51 21:23 15.01.2023
204 Clouds 20 1025 79 10000 5.55 52 20:26 15.01.2023
205 Clouds 20 1025 78 10000 6.08 50 18:57 15.01.2023
206 Clouds 21 1025 76 10000 6.4 51 17:23 15.01.2023
207 Clouds 22 1026 74 10000 6.07 57 13:46 15.01.2023
208 Clear 21 1027 74 10000 5.59 60 12:21 15.01.2023
209 Clear 20 1026 74 10000 5.18 61 11:28 15.01.2023
210 Clear 18 1025 78 10000 4.81 64 10:21 15.01.2023
211 Clear 19 1024 79 10000 4.86 60 07:45 15.01.2023
212 Clouds 19 1025 82 10000 5.56 61 23:34 14.01.2023
213 Clear 20 1025 82 10000 5.82 63 22:43 14.01.2023
214 Clear 20 1024 81 10000 6.13 61 21:36 14.01.2023
215 Clear 20 1024 81 10000 6.13 61 21:36 14.01.2023
216 Clear 20 1024 80 10000 5.9 59 21:18 14.01.2023
217 Clear 20 1024 80 10000 5.9 59 20:42 14.01.2023
218 Clear 20 1024 78 10000 5.47 56 20:21 14.01.2023
219 Clear 22 1023 71 10000 4.77 66 17:50 14.01.2023
220 Clear 23 1023 65 10000 4.58 76 15:36 14.01.2023
221 Clear 23 1024 64 10000 4.71 83 15:18 14.01.2023
222 Clear 23 1025 64 10000 4.66 87 13:59 14.01.2023
223 Clear 22 1026 64 10000 4.39 92 12:49 14.01.2023
224 Clear 19 1026 69 10000 4.07 93 10:49 14.01.2023
225 Clear 18 1025 78 10000 4.01 78 08:22 14.01.2023
226 Clear 18 1025 77 10000 5.18 67 02:35 14.01.2023
227 Clouds 19 1025 68 10000 6.19 51 22:59 13.01.2023
228 Clouds 19 1025 68 10000 6.19 51 22:41 13.01.2023
229 Clouds 19 1025 67 10000 6.36 44 21:57 13.01.2023
230 Clouds 20 1025 69 10000 6.02 34 20:33 13.01.2023
231 Clouds 20 1024 66 10000 6.23 35 19:27 13.01.2023
232 Clouds 22 1024 65 10000 5.58 41 16:58 13.01.2023
233 Clouds 21 1024 64 10000 5.69 49 14:53 13.01.2023
234 Clouds 21 1027 64 10000 6.14 50 12:24 13.01.2023
235 Clouds 21 1027 64 10000 6.14 50 12:24 13.01.2023
236 Clouds 19 1026 65 10000 6.51 49 10:41 13.01.2023
237 Clouds 19 1026 66 10000 7.08 47 10:22 13.01.2023
238 Clouds 19 1026 66 10000 7.08 47 09:41 13.01.2023
239 Clouds 18 1025 68 10000 7.15 44 08:51 13.01.2023
240 Clouds 19 1025 70 10000 6.34 41 06:56 13.01.2023
241 Clouds 19 1025 69 10000 7.06 40 06:18 13.01.2023
242 Clouds 20 1025 67 10000 7.18 40 01:42 13.01.2023
243 Clouds 19 1026 71 10000 7.69 36 22:48 12.01.2023
244 Clouds 20 1026 75 10000 8.07 32 21:56 12.01.2023
245 Clouds 20 1026 75 10000 8.22 29 20:52 12.01.2023
246 Clouds 20 1025 74 10000 8.45 30 18:26 12.01.2023
247 Clouds 21 1025 75 10000 8.18 32 16:59 12.01.2023
248 Clouds 21 1025 74 10000 8.01 36 14:58 12.01.2023
249 Clouds 21 1025 74 10000 8.01 36 14:38 12.01.2023
250 Clouds 21 1026 74 10000 7.72 37 14:18 12.01.2023
251 Clouds 20 1027 77 10000 7.95 45 12:19 12.01.2023
252 Clouds 18 1027 78 10000 7.68 47 10:25 12.01.2023
253 Clouds 19 1026 76 10000 7.57 46 07:27 12.01.2023
254 Rain 20 1028 79 10000 6.54 48 00:32 12.01.2023
255 Clouds 20 1028 77 10000 7.02 47 23:57 11.01.2023
256 Clouds 20 1028 77 10000 7.02 47 23:37 11.01.2023
257 Clouds 20 1028 75 10000 7.12 42 23:19 11.01.2023
258 Clouds 20 1028 74 10000 7.2 39 21:22 11.01.2023
259 Clouds 21 1027 74 10000 6.54 36 18:51 11.01.2023
260 Clouds 22 1026 73 10000 6.56 38 17:37 11.01.2023
261 Clouds 22 1026 71 10000 5.71 49 15:43 11.01.2023
262 Clouds 22 1028 72 10000 5.98 50 13:57 11.01.2023
263 Clouds 22 1029 72 10000 5.86 53 12:33 11.01.2023
264 Clouds 21 1030 72 10000 5.53 54 11:39 11.01.2023
265 Clouds 20 1028 79 10000 3.23 57 09:29 11.01.2023
266 Clouds 20 1028 79 10000 3.6 66 07:30 11.01.2023
267 Clouds 20 1028 76 10000 4.62 56 06:24 11.01.2023
268 Clouds 20 1029 77 10000 4.85 57 23:45 10.01.2023
269 Clouds 20 1029 75 10000 4.66 56 22:19 10.01.2023
270 Clouds 20 1029 74 10000 4.25 54 21:20 10.01.2023
271 Clouds 20 1028 74 10000 4.04 61 19:54 10.01.2023
272 Clouds 20 1028 74 10000 3.78 62 19:27 10.01.2023
273 Clouds 21 1028 74 10000 3.78 62 18:37 10.01.2023
274 Clouds 21 1027 71 10000 3.84 64 17:26 10.01.2023
275 Clouds 21 1027 71 10000 3.78 70 15:33 10.01.2023
276 Clouds 21 1028 72 10000 4 68 14:47 10.01.2023
277 Clouds 21 1030 73 10000 4.92 84 13:25 10.01.2023
278 Clouds 20 1029 78 10000 5.93 82 10:36 10.01.2023
279 Clouds 20 1029 81 10000 5.64 84 08:39 10.01.2023
280 Clouds 19 1028 82 10000 5.35 88 07:57 10.01.2023
281 Clouds 19 1028 83 10000 4.47 86 07:24 10.01.2023
282 Clouds 19 1029 78 10000 5.15 78 00:47 10.01.2023
283 Clouds 19 1029 77 10000 5.73 74 22:41 09.01.2023
284 Clouds 20 1029 77 10000 5.29 69 20:55 09.01.2023
285 Clouds 20 1028 76 10000 5.05 72 20:18 09.01.2023
286 Clear 21 1027 76 10000 5.08 62 18:30 09.01.2023
287 Clear 21 1027 73 10000 4.71 66 17:49 09.01.2023
288 Clear 21 1027 70 10000 4.39 73 16:34 09.01.2023
289 Clear 21 1027 70 10000 4.5 81 15:43 09.01.2023
290 Clear 22 1028 70 10000 4.97 86 14:59 09.01.2023
291 Clear 22 1028 70 10000 4.99 87 14:59 09.01.2023
292 Clear 22 1028 70 10000 4.99 87 14:41 09.01.2023
293 Clear 21 1030 70 10000 5.48 85 12:54 09.01.2023
294 Clear 21 1030 70 10000 5.48 85 12:54 09.01.2023
295 Clear 21 1030 71 10000 5.53 84 11:54 09.01.2023
296 Clear 20 1030 72 10000 5.33 86 11:19 09.01.2023
297 Clear 18 1028 78 10000 4.9 77 06:58 09.01.2023
298 Clear 18 1029 77 10000 4.16 76 02:55 09.01.2023
299 Clear 18 1029 76 10000 4.06 76 01:49 09.01.2023
300 Clear 19 1030 71 10000 4.35 57 22:29 08.01.2023
301 Clear 18 1030 71 10000 4.4 55 21:22 08.01.2023
302 Clear 20 1030 71 10000 4.4 55 20:37 08.01.2023
303 Clear 21 1028 66 10000 3.89 52 18:51 08.01.2023
304 Clear 21 1027 64 10000 3.01 70 17:23 08.01.2023
305 Clear 21 1027 64 10000 3.01 70 16:46 08.01.2023
306 Clear 21 1028 65 10000 3.54 78 15:36 08.01.2023
307 Clear 21 1029 64 10000 3.98 86 13:58 08.01.2023
308 Clear 22 1029 64 10000 3.98 86 13:31 08.01.2023
309 Clear 21 1030 64 10000 3.99 92 12:49 08.01.2023
310 Clear 18 1029 68 10000 3.53 90 10:37 08.01.2023
311 Clear 17 1029 72 10000 3.48 95 09:36 08.01.2023
312 Clouds 17 1028 74 10000 4.17 87 07:49 08.01.2023
313 Clear 18 1028 77 10000 4.24 58 00:30 08.01.2023
314 Clear 17 1028 75 10000 3.6 60 22:48 07.01.2023
315 Clear 17 1028 74 10000 3.62 52 22:24 07.01.2023
316 Clear 18 1028 74 10000 3.62 52 21:48 07.01.2023
317 Clear 20 1028 73 10000 3.26 62 20:46 07.01.2023
318 Clear 20 1027 73 10000 3.79 42 20:22 07.01.2023
319 Clear 21 1026 70 10000 3.11 56 18:52 07.01.2023
320 Clear 21 1026 68 10000 3.26 74 17:51 07.01.2023
321 Clear 21 1026 67 10000 3.7 69 17:28 07.01.2023
322 Clear 22 1026 67 10000 3.7 69 16:37 07.01.2023
323 Clear 22 1026 67 10000 3.82 72 15:49 07.01.2023
324 Clear 22 1027 67 10000 3.95 69 15:27 07.01.2023
325 Clear 22 1028 68 10000 4.14 63 14:28 07.01.2023
326 Clear 21 1028 68 10000 4.14 63 13:54 07.01.2023
327 Clear 22 1028 69 10000 4.18 56 13:24 07.01.2023
328 Clear 21 1029 70 10000 4.07 54 12:22 07.01.2023
329 Clear 19 1029 70 10000 4.07 54 11:36 07.01.2023
330 Clouds 18 1027 75 10000 3.3 70 10:25 07.01.2023
331 Clear 17 1026 76 10000 3.76 81 08:25 07.01.2023
332 Clear 16 1026 76 10000 3.76 81 07:44 07.01.2023
333 Clouds 17 1026 75 10000 3.72 71 06:55 07.01.2023
334 Clouds 18 1027 72 10000 3.99 39 00:43 07.01.2023
335 Clouds 17 1026 65 10000 3.43 37 22:23 06.01.2023
336 Clouds 18 1026 65 10000 3.43 37 21:58 06.01.2023
337 Clouds 18 1026 65 10000 3.02 42 21:18 06.01.2023
338 Clouds 20 1025 64 10000 2.62 58 19:57 06.01.2023
339 Clouds 20 1025 64 10000 2.62 58 19:39 06.01.2023
340 Clouds 20 1025 60 10000 2.77 71 19:21 06.01.2023
341 Clouds 21 1025 59 10000 2.72 78 18:34 06.01.2023
342 Clouds 21 1024 58 10000 3.62 90 16:56 06.01.2023
343 Clouds 21 1024 58 10000 3.98 97 16:24 06.01.2023
344 Clouds 21 1024 58 10000 3.98 97 15:55 06.01.2023
345 Clouds 21 1024 58 10000 3.98 97 15:37 06.01.2023
346 Clouds 22 1025 59 10000 4.09 107 14:40 06.01.2023
347 Clouds 21 1027 62 10000 4.24 107 12:25 06.01.2023
348 Clouds 18 1026 65 10000 4.26 101 10:58 06.01.2023
349 Clouds 17 1026 73 10000 4.31 82 08:55 06.01.2023
350 Clouds 18 1025 72 10000 4.27 65 05:33 06.01.2023
351 Clear 19 1026 71 10000 4.19 45 00:18 06.01.2023
352 Clear 18 1026 71 10000 4.12 47 22:55 05.01.2023
353 Clear 18 1026 70 10000 4.02 47 21:42 05.01.2023
354 Clear 21 1025 60 10000 3.08 67 19:19 05.01.2023
355 Clear 22 1024 59 10000 3.76 88 17:28 05.01.2023
356 Clear 22 1024 58 10000 4.24 92 15:59 05.01.2023
357 Clear 22 1024 58 10000 4.24 92 15:40 05.01.2023
358 Clear 22 1025 58 10000 4.73 98 14:35 05.01.2023
359 Clear 22 1026 59 10000 5.4 100 12:43 05.01.2023
360 Clear 22 1027 62 10000 5.36 99 11:50 05.01.2023
361 Clear 17 1026 71 10000 4.71 99 09:52 05.01.2023
362 Clear 17 1025 73 10000 4.66 96 08:28 05.01.2023
363 Clear 17 1025 69 10000 4.7 98 07:18 05.01.2023
364 Clear 19 1025 56 10000 4.58 87 03:39 05.01.2023
365 Clear 20 1027 63 10000 4.88 64 22:53 04.01.2023
366 Clear 19 1026 67 10000 4.72 61 21:33 04.01.2023
367 Clear 20 1025 71 10000 4.84 62 20:26 04.01.2023
368 Clear 21 1025 71 10000 4.84 62 19:56 04.01.2023
369 Clear 21 1025 71 10000 4.84 62 19:31 04.01.2023
370 Clear 22 1025 64 10000 4.89 76 18:25 04.01.2023
371 Clear 22 1025 63 10000 5.17 79 16:31 04.01.2023
372 Clear 22 1025 64 10000 5.19 84 15:34 04.01.2023
373 Clear 22 1027 67 10000 5.48 84 13:44 04.01.2023
374 Clear 21 1027 65 10000 5.7 84 11:40 04.01.2023
375 Clear 21 1027 66 10000 5.58 82 11:19 04.01.2023
376 Clear 20 1027 66 10000 5.58 82 10:42 04.01.2023
377 Clear 18 1027 69 10000 5.29 83 10:21 04.01.2023
378 Clear 19 1025 76 10000 5.01 64 06:18 04.01.2023
379 Clear 19 1026 73 10000 5.07 54 01:43 04.01.2023
380 Clear 20 1026 75 10000 5.2 54 23:52 03.01.2023
381 Clear 20 1026 75 10000 5.2 54 23:31 03.01.2023
382 Clear 20 1026 74 10000 5.64 52 21:43 03.01.2023
383 Clear 20 1026 72 10000 5.84 50 20:51 03.01.2023
384 Clear 22 1024 64 10000 4.96 48 18:40 03.01.2023
385 Clear 22 1024 61 10000 5.04 53 16:43 03.01.2023
386 Clear 23 1024 59 10000 4.93 61 15:43 03.01.2023
387 Clear 23 1025 56 10000 4.82 68 13:50 03.01.2023
388 Clear 23 1025 54 10000 4.57 75 13:29 03.01.2023
389 Clear 22 1026 59 10000 4.72 67 12:57 03.01.2023
390 Clear 22 1026 59 10000 4.72 67 12:57 03.01.2023
391 Clear 22 1026 58 10000 4.54 66 12:28 03.01.2023
392 Clear 18 1025 58 10000 4.38 66 09:58 03.01.2023
393 Clouds 18 1024 74 10000 4.28 34 04:29 03.01.2023
394 Clouds 18 1024 74 10000 4.28 34 03:54 03.01.2023
395 Clouds 18 1024 74 10000 4.28 34 03:34 03.01.2023
396 Clouds 19 1024 73 10000 3.51 17 23:21 02.01.2023
397 Clouds 19 1024 73 10000 3.51 17 22:40 02.01.2023
398 Clouds 20 1024 71 10000 3.35 15 21:30 02.01.2023
399 Clouds 21 1024 69 10000 3.24 11 20:35 02.01.2023
400 Clouds 21 1022 62 10000 2.83 27 19:20 02.01.2023
401 Clouds 22 1022 61 10000 3.46 39 16:54 02.01.2023
402 Clouds 23 1024 59 10000 3.28 56 14:27 02.01.2023
403 Clear 22 1024 60 10000 2.78 71 12:57 02.01.2023
404 Clear 22 1025 61 10000 2.41 82 11:39 02.01.2023
405 Clear 18 1024 66 10000 2.08 80 09:35 02.01.2023
406 Clear 18 1022 71 10000 2.07 67 06:59 02.01.2023
407 Clouds 18 1023 69 10000 1.27 77 00:38 02.01.2023
408 Clouds 20 1023 72 10000 1.7 40 21:55 01.01.2023
409 Clouds 20 1022 72 10000 1.68 28 20:56 01.01.2023
410 Clouds 21 1022 72 10000 1.68 28 20:37 01.01.2023
411 Clouds 21 1022 71 10000 1.74 24 19:34 01.01.2023
412 Clouds 22 1021 63 10000 1 27 17:39 01.01.2023
413 Clouds 22 1020 62 10000 0.71 35 17:19 01.01.2023
414 Clear 23 1020 62 10000 0.94 71 15:53 01.01.2023
415 Clear 23 1022 62 10000 1.28 88 14:18 01.01.2023
416 Clear 23 1022 62 10000 1.6 107 13:20 01.01.2023
417 Clear 23 1022 61 10000 1.57 125 12:24 01.01.2023
418 Clear 22 1022 61 10000 1.57 125 11:35 01.01.2023
419 Clear 18 1022 65 10000 1.08 157 09:39 01.01.2023
420 Clear 18 1022 68 10000 1.4 166 08:44 01.01.2023
421 Clear 18 1021 65 10000 1.09 180 08:18 01.01.2023
422 Clear 18 1021 64 10000 1.32 171 06:50 01.01.2023
423 Clear 18 1023 63 10000 2.24 136 23:58 31.12.2022
424 Clear 18 1023 63 10000 2.24 136 23:38 31.12.2022
425 Clear 18 1023 65 10000 2.28 171 22:29 31.12.2022
426 Clear 19 1022 65 10000 2.97 160 21:25 31.12.2022
427 Clear 20 1022 65 10000 2.97 160 20:33 31.12.2022
428 Clear 21 1021 61 10000 3.21 149 18:57 31.12.2022
429 Clear 21 1021 61 10000 3.26 149 18:38 31.12.2022
430 Clear 22 1021 58 10000 2.91 157 17:58 31.12.2022
431 Clear 22 1021 58 10000 2.91 157 17:34 31.12.2022
432 Clear 23 1021 57 10000 3.52 165 16:32 31.12.2022
433 Clear 23 1021 56 10000 4.74 168 15:37 31.12.2022
434 Clear 23 1023 58 10000 6.38 162 13:59 31.12.2022
435 Clear 23 1023 60 10000 6.6 158 13:27 31.12.2022
436 Clear 23 1024 64 10000 6.58 161 12:24 31.12.2022
437 Clear 22 1024 64 10000 6.58 161 11:55 31.12.2022
438 Clear 21 1024 64 10000 6.58 161 11:37 31.12.2022
439 Clear 19 1024 67 10000 5.04 170 09:57 31.12.2022
440 Clear 19 1024 67 10000 5.04 170 09:39 31.12.2022
441 Clear 20 1023 69 10000 5.37 167 08:22 31.12.2022
442 Clear 19 1022 62 10000 2.63 184 02:26 31.12.2022
443 Clouds 18 1023 61 10000 3.76 167 00:32 31.12.2022
444 Clouds 19 1023 62 10000 3.65 163 23:20 30.12.2022
445 Clouds 20 1023 64 10000 3.76 158 22:18 30.12.2022
446 Clouds 21 1023 64 10000 3.76 158 21:38 30.12.2022
447 Clouds 21 1023 68 10000 4.06 151 21:18 30.12.2022
448 Clouds 22 1022 61 10000 4.29 140 18:28 30.12.2022
449 Clouds 22 1022 61 10000 4.29 140 17:34 30.12.2022
450 Clouds 23 1022 61 10000 5.55 136 16:46 30.12.2022
451 Clouds 24 1023 63 10000 7.37 138 14:55 30.12.2022
452 Clouds 24 1023 63 10000 7.37 138 14:55 30.12.2022
453 Clouds 23 1024 65 10000 5.75 134 12:54 30.12.2022
454 Clouds 20 1023 75 10000 5.3 161 08:24 30.12.2022
455 Clouds 21 1023 74 10000 5.9 157 03:55 30.12.2022
456 Clouds 20 1024 74 10000 6.09 144 02:26 30.12.2022
457 Clouds 21 1024 67 10000 7.34 137 23:45 29.12.2022
458 Clouds 21 1024 72 10000 7.12 134 21:55 29.12.2022
459 Clouds 21 1023 70 10000 6.91 122 21:20 29.12.2022
460 Clouds 22 1023 70 10000 6.91 122 20:45 29.12.2022
461 Clouds 22 1023 65 10000 5.9 128 18:49 29.12.2022
462 Clouds 22 1023 61 10000 5.52 122 17:53 29.12.2022
463 Clouds 22 1023 58 10000 4.72 115 17:25 29.12.2022
464 Clouds 23 1023 58 10000 4.72 115 16:54 29.12.2022
465 Clouds 23 1023 58 10000 3.96 114 15:49 29.12.2022
466 Clouds 22 1025 64 10000 4.93 105 13:37 29.12.2022
467 Clouds 22 1025 61 10000 4.04 83 11:51 29.12.2022
468 Clear 20 1023 66 10000 3.44 108 09:36 29.12.2022
469 Clouds 21 1022 73 10000 4.48 65 03:34 29.12.2022
470 Clouds 21 1023 70 10000 4.24 77 23:28 28.12.2022
471 Clouds 22 1023 70 10000 4.04 81 21:55 28.12.2022
472 Clouds 21 1022 71 10000 4.29 75 21:19 28.12.2022
473 Clouds 23 1022 70 10000 5.3 74 19:52 28.12.2022
474 Clouds 23 1021 65 10000 6.11 84 17:54 28.12.2022
475 Clouds 23 1021 68 10000 6.92 66 16:20 28.12.2022
476 Clouds 22 1023 70 10000 7.62 82 12:59 28.12.2022
477 Clouds 22 1023 70 10000 7.62 82 12:32 28.12.2022
478 Clouds 22 1023 70 10000 7.56 69 11:32 28.12.2022
479 Clouds 21 1022 75 10000 7.12 78 09:19 28.12.2022
480 Clouds 21 1021 75 10000 6.5 81 07:28 28.12.2022
481 Clouds 21 1021 74 10000 5.14 78 06:43 28.12.2022
482 Clouds 22 1023 61 10000 6.75 124 00:29 28.12.2022
483 Clouds 22 1021 64 10000 8.25 105 20:59 27.12.2022
484 Clouds 21 1021 65 10000 7.4 108 19:41 27.12.2022
485 Clouds 22 1019 58 10000 8.29 117 17:58 27.12.2022
486 Clouds 22 1018 54 10000 7.86 109 16:43 27.12.2022
487 Clouds 22 1019 51 10000 8.39 114 15:49 27.12.2022
488 Clouds 21 1019 51 10000 9.31 105 13:57 27.12.2022
489 Clouds 21 1020 56 10000 10.39 106 11:30 27.12.2022
490 Clouds 21 1018 62 10000 10.3 109 09:47 27.12.2022
491 Clouds 21 1017 65 10000 10.2 109 09:23 27.12.2022
492 Clouds 21 1017 65 10000 10.3 109 08:21 27.12.2022
493 Clouds 22 1016 65 10000 10.14 106 04:32 27.12.2022
494 Clouds 19 1015 55 10000 4.57 102 22:48 26.12.2022
495 Clouds 20 1014 56 10000 4.45 128 21:25 26.12.2022
496 Clouds 20 1014 56 10000 4.45 128 20:42 26.12.2022
497 Clouds 22 1013 56 10000 3.75 149 18:44 26.12.2022
498 Clouds 23 1013 55 10000 4.67 138 17:51 26.12.2022
499 Clouds 22 1013 54 10000 2.8 136 16:21 26.12.2022
500 Clouds 23 1013 53 10000 5.02 158 14:34 26.12.2022
501 Clouds 23 1014 50 10000 3.59 166 12:51 26.12.2022
502 Clear 17 1013 63 10000 3.8 185 08:27 26.12.2022
503 Clear 18 1015 60 10000 2.19 185 23:59 25.12.2022
504 Clear 18 1015 60 10000 2.19 185 23:38 25.12.2022
505 Clear 18 1016 60 10000 3.05 238 22:29 25.12.2022
506 Clear 20 1016 60 10000 3.05 238 21:49 25.12.2022
507 Clouds 22 1015 56 10000 2.92 226 18:50 25.12.2022
508 Clouds 23 1015 53 10000 2.77 213 17:52 25.12.2022
509 Clouds 24 1015 53 10000 2.77 213 17:34 25.12.2022
510 Clouds 25 1017 51 10000 2.52 200 15:23 25.12.2022
511 Clouds 23 1019 50 10000 2.28 199 12:42 25.12.2022
512 Clouds 17 1020 53 10000 1.85 200 08:44 25.12.2022
513 Clouds 18 1022 63 10000 1.82 333 23:51 24.12.2022
514 Clouds 20 1023 65 10000 1.45 329 21:50 24.12.2022
515 Clear 23 1022 59 10000 1.56 303 18:32 24.12.2022
516 Clear 23 1021 53 10000 1.55 212 16:45 24.12.2022
517 Clear 22 1021 54 10000 3.79 157 14:53 24.12.2022
518 Clear 23 1023 54 10000 4.34 152 12:43 24.12.2022
519 Clear 22 1024 51 10000 3.84 149 11:26 24.12.2022
520 Clear 21 1023 50 10000 3.09 154 10:21 24.12.2022
521 Clear 17 1023 50 10000 3.09 154 09:36 24.12.2022
522 Clear 17 1022 47 10000 1.45 143 06:21 24.12.2022
523 Clear 17 1024 52 10000 1.27 127 02:24 24.12.2022
524 Clear 19 1024 52 10000 1.35 149 23:37 23.12.2022
525 Clear 19 1024 57 10000 2.44 140 22:27 23.12.2022
526 Clear 20 1024 58 10000 2.99 135 20:41 23.12.2022
527 Clear 21 1024 58 10000 3.31 133 19:39 23.12.2022
528 Clear 21 1023 57 10000 3.77 129 19:21 23.12.2022
529 Clear 21 1023 57 10000 3.77 129 18:46 23.12.2022
530 Clear 22 1023 56 10000 4.42 130 18:19 23.12.2022
531 Clear 22 1023 57 10000 4.94 127 16:34 23.12.2022
532 Clear 23 1023 59 10000 4.95 125 15:30 23.12.2022
533 Clear 22 1026 59 10000 3.81 131 11:57 23.12.2022
534 Clear 17 1026 61 10000 3.1 137 09:37 23.12.2022
535 Clear 17 1025 61 10000 3.01 135 07:59 23.12.2022
536 Clear 17 1025 60 10000 2.89 130 06:52 23.12.2022
537 Clear 17 1024 62 10000 3.15 121 06:23 23.12.2022
538 Clear 19 1026 64 10000 2.69 67 23:23 22.12.2022
539 Clear 19 1026 64 10000 2.69 67 22:38 22.12.2022
540 Clear 20 1026 69 10000 2.73 90 21:20 22.12.2022
541 Clear 21 1025 68 10000 3.21 90 19:24 22.12.2022
542 Clear 22 1025 68 10000 3.21 90 18:40 22.12.2022
543 Clear 22 1025 64 10000 3.86 90 17:23 22.12.2022
544 Clear 22 1025 64 10000 3.86 90 16:38 22.12.2022
545 Clear 22 1025 63 10000 3.89 91 15:33 22.12.2022
546 Clear 22 1025 62 10000 3.74 99 14:51 22.12.2022
547 Clear 22 1026 62 10000 3.81 106 13:33 22.12.2022
548 Clear 22 1027 62 10000 3.68 107 12:46 22.12.2022
549 Clear 20 1028 65 10000 3.93 109 10:44 22.12.2022
550 Clear 19 1027 68 10000 3.86 106 10:21 22.12.2022
551 Clear 18 1027 69 10000 4.14 98 09:20 22.12.2022
552 Clear 19 1027 68 10000 4.42 91 08:26 22.12.2022
553 Clear 19 1026 65 10000 4.42 77 05:27 22.12.2022
554 Clear 19 1026 64 10000 4.63 75 04:18 22.12.2022
555 Clear 20 1027 63 10000 4.89 60 23:49 21.12.2022
556 Clear 20 1027 61 10000 4.24 74 21:57 21.12.2022
557 Clear 20 1027 60 10000 3.45 83 21:22 21.12.2022
558 Clear 20 1027 60 10000 3.45 83 20:49 21.12.2022
559 Clear 21 1026 59 10000 3.18 101 19:59 21.12.2022
560 Clear 21 1026 59 10000 3.18 101 19:41 21.12.2022
561 Clouds 21 1025 61 10000 3.87 112 19:22 21.12.2022
562 Clouds 22 1025 61 10000 3.87 112 18:44 21.12.2022
563 Clouds 23 1025 59 10000 4.74 113 17:35 21.12.2022
564 Clouds 22 1026 59 10000 5.96 111 14:32 21.12.2022
565 Clouds 23 1028 61 10000 5.92 106 12:57 21.12.2022
566 Clouds 23 1028 61 10000 5.64 107 11:42 21.12.2022
567 Clouds 22 1028 63 10000 5.54 109 11:19 21.12.2022
568 Clouds 19 1027 59 10000 5.02 114 08:53 21.12.2022
569 Clear 18 1026 51 10000 3.91 104 06:59 21.12.2022
570 Clear 20 1027 44 10000 3.12 92 00:48 21.12.2022
571 Clear 19 1026 46 10000 2.89 88 22:42 20.12.2022
572 Clear 20 1026 50 10000 2.38 103 21:19 20.12.2022
573 Clear 20 1025 53 10000 3.21 112 20:19 20.12.2022
574 Clouds 22 1024 53 10000 3.99 114 18:49 20.12.2022
575 Clouds 22 1024 51 10000 3.97 114 18:28 20.12.2022
576 Clouds 22 1024 51 10000 3.97 114 17:51 20.12.2022
577 Clouds 23 1024 51 10000 4.55 119 17:28 20.12.2022
578 Clouds 23 1024 51 10000 4.55 119 17:28 20.12.2022
579 Clouds 23 1024 51 10000 4.55 119 16:32 20.12.2022
580 Clouds 23 1024 52 10000 5.58 125 15:27 20.12.2022
581 Clouds 23 1024 52 10000 5.58 125 14:36 20.12.2022
582 Clouds 23 1025 52 10000 5.03 122 13:56 20.12.2022
583 Clouds 23 1025 53 10000 5.59 134 12:40 20.12.2022
584 Clouds 23 1025 54 10000 5.28 135 11:56 20.12.2022
585 Clouds 22 1025 56 10000 4.33 131 10:47 20.12.2022
586 Clouds 18 1024 57 10000 2.64 78 07:41 20.12.2022
587 Clouds 19 1023 61 10000 1.56 87 00:23 20.12.2022
588 Clouds 20 1023 63 10000 0.99 57 22:36 19.12.2022
589 Clear 20 1023 64 10000 1.09 91 21:33 19.12.2022
590 Clear 21 1023 66 10000 1 92 19:50 19.12.2022
591 Clear 22 1023 66 10000 1 92 19:31 19.12.2022
592 Clear 22 1022 62 10000 1.99 86 18:23 19.12.2022
593 Clear 23 1022 61 10000 2.34 95 16:31 19.12.2022
594 Clouds 23 1023 59 10000 2.04 105 13:22 19.12.2022
595 Clouds 22 1024 61 10000 2.23 114 11:55 19.12.2022
596 Clouds 18 1022 71 10000 2.28 72 08:27 19.12.2022
597 Clouds 18 1022 71 10000 2.21 58 07:22 19.12.2022
598 Clouds 18 1022 74 10000 1.24 74 00:54 19.12.2022
599 Clear 19 1022 76 10000 1.93 108 21:50 18.12.2022
600 Clear 19 1022 76 10000 1.93 108 21:31 18.12.2022
601 Clear 20 1022 77 10000 1.91 104 20:56 18.12.2022
602 Clear 20 1021 76 10000 1.71 105 19:45 18.12.2022
603 Clear 21 1021 73 10000 1.96 110 19:23 18.12.2022
604 Clear 21 1020 71 10000 2.83 115 17:52 18.12.2022
605 Clear 22 1020 70 10000 4.15 119 16:18 18.12.2022
606 Clear 22 1020 70 10000 4.15 119 15:37 18.12.2022
607 Clear 22 1021 70 10000 4.29 123 15:18 18.12.2022
608 Clouds 22 1022 70 10000 4.01 130 13:29 18.12.2022
609 Clouds 22 1022 70 10000 4.01 130 12:51 18.12.2022
610 Clouds 21 1023 73 10000 4.08 135 11:51 18.12.2022
611 Clear 20 1022 78 10000 3.75 137 09:47 18.12.2022
612 Clear 20 1021 79 10000 3.28 135 08:46 18.12.2022
613 Clear 19 1020 79 10000 1.96 146 06:52 18.12.2022
614 Clear 19 1020 79 10000 2.18 143 06:18 18.12.2022
615 Clear 19 1020 79 10000 2.85 99 01:57 18.12.2022
616 Clouds 18 1021 76 10000 2.99 88 23:32 17.12.2022
617 Clouds 19 1020 75 10000 2.52 63 21:18 17.12.2022
618 Clear 21 1019 73 10000 2.88 84 17:55 17.12.2022
619 Clear 23 1018 70 10000 2.9 80 15:48 17.12.2022
620 Clear 22 1020 68 10000 2.95 79 13:20 17.12.2022
621 Clear 21 1020 70 10000 3.33 52 11:23 17.12.2022
622 Clear 20 1020 70 10000 3.33 52 10:41 17.12.2022
623 Clear 19 1020 71 10000 3.04 47 09:40 17.12.2022
624 Clouds 19 1019 73 10000 3.04 24 07:23 17.12.2022
625 Clouds 19 1019 73 10000 3.04 24 07:23 17.12.2022
626 Clouds 19 1019 73 10000 3.04 24 06:44 17.12.2022
627 Clouds 19 1020 71 10000 4.37 345 23:20 16.12.2022
628 Clear 20 1019 70 10000 4.22 346 20:30 16.12.2022
629 Clouds 21 1018 69 10000 5.66 333 18:41 16.12.2022
630 Clouds 23 1017 67 10000 4.51 333 15:37 16.12.2022
631 Clouds 23 1017 66 10000 4.55 337 14:46 16.12.2022
632 Clouds 23 1018 63 10000 4.24 325 13:22 16.12.2022
633 Clouds 22 1019 61 10000 4.61 314 11:57 16.12.2022
634 Clouds 19 1018 63 10000 5.01 302 09:41 16.12.2022
635 Clouds 18 1018 65 10000 5.13 304 08:50 16.12.2022
636 Clouds 18 1018 65 10000 5.55 306 07:55 16.12.2022
637 Clouds 18 1017 68 10000 5.46 315 06:58 16.12.2022
638 Clouds 19 1019 64 10000 6.4 325 23:19 15.12.2022
639 Clouds 21 1019 63 10000 6.82 324 21:41 15.12.2022
640 Clouds 21 1019 66 10000 6.33 327 20:24 15.12.2022
641 Clouds 22 1017 68 10000 6.22 328 19:21 15.12.2022
642 Clouds 23 1017 66 10000 5.81 337 17:28 15.12.2022
643 Clouds 23 1017 66 10000 5.81 337 16:31 15.12.2022
644 Clouds 23 1018 65 10000 6.36 328 14:57 15.12.2022
645 Clouds 23 1019 64 10000 5.78 317 12:59 15.12.2022
646 Clouds 23 1019 64 10000 5.96 314 12:25 15.12.2022
647 Clouds 20 1018 70 10000 6.96 316 09:19 15.12.2022
648 Clouds 19 1018 70 10000 6.96 316 08:41 15.12.2022
649 Clouds 20 1017 70 10000 6.95 317 05:45 15.12.2022
650 Clouds 20 1018 70 10000 6.75 321 02:38 15.12.2022
651 Clouds 22 1019 76 10000 8.63 327 21:24 14.12.2022
652 Clouds 22 1019 76 10000 8.63 327 20:51 14.12.2022
653 Clouds 23 1018 79 10000 8.37 327 19:59 14.12.2022
654 Clouds 25 1017 78 10000 8.27 329 17:52 14.12.2022
655 Clouds 23 1017 77 10000 8.43 327 16:56 14.12.2022
656 Clouds 24 1017 78 10000 8.59 329 15:30 14.12.2022
657 Clouds 23 1018 79 10000 5.85 328 13:31 14.12.2022
658 Clear 23 1019 78 10000 1.97 330 11:20 14.12.2022
659 Clear 22 1018 77 10000 1.32 351 10:25 14.12.2022
660 Clear 20 1018 76 10000 1.14 11 08:46 14.12.2022
661 Clear 22 1019 73 10000 0.62 49 22:46 13.12.2022
662 Clear 22 1019 73 10000 0.9 22 21:46 13.12.2022
663 Clear 22 1019 73 10000 1.25 14 20:48 13.12.2022
664 Clear 23 1018 74 10000 0.27 88 19:51 13.12.2022
665 Clear 24 1018 70 10000 1.48 130 16:50 13.12.2022
666 Clear 24 1018 69 10000 1.68 128 15:34 13.12.2022
667 Clear 23 1019 68 10000 1.77 135 13:54 13.12.2022
668 Clouds 22 1020 68 10000 2.06 167 10:55 13.12.2022
669 Clouds 21 1020 68 10000 2.06 167 10:35 13.12.2022
670 Clouds 20 1019 74 10000 1.56 187 09:21 13.12.2022
671 Clear 21 1020 79 10000 1.3 149 22:50 12.12.2022
672 Clear 21 1020 80 10000 0.6 163 22:21 12.12.2022
673 Clear 22 1020 81 10000 1.39 148 20:43 12.12.2022
674 Clouds 22 1019 78 10000 0.83 267 18:32 12.12.2022
675 Clear 23 1017 73 10000 2.85 142 15:46 12.12.2022
676 Clear 24 1018 72 10000 3.59 140 14:26 12.12.2022
677 Clear 21 1019 80 10000 3.02 145 10:19 12.12.2022
678 Clear 19 1019 83 10000 2.75 140 09:18 12.12.2022
679 Clear 20 1018 83 10000 2.69 135 04:53 12.12.2022
680 Clear 20 1019 84 10000 1.19 119 01:52 12.12.2022
681 Clear 21 1020 83 10000 0.85 100 22:19 11.12.2022
682 Clear 22 1019 83 10000 0.46 123 20:41 11.12.2022
683 Clear 23 1018 84 10000 1.04 129 19:40 11.12.2022
684 Clear 23 1018 83 10000 0.85 103 18:55 11.12.2022
685 Clear 23 1018 83 10000 0.85 103 18:55 11.12.2022
686 Clear 23 1017 81 10000 0.43 74 17:57 11.12.2022
687 Clear 23 1017 79 10000 0.51 35 17:28 11.12.2022
688 Clear 23 1017 79 10000 0.51 35 16:49 11.12.2022
689 Clear 23 1017 78 10000 0.93 55 15:45 11.12.2022
690 Clear 23 1019 79 10000 0.91 8 13:43 11.12.2022
691 Clouds 23 1019 78 10000 1.26 350 12:43 11.12.2022
692 Clouds 23 1019 79 10000 1.25 311 11:29 11.12.2022
693 Clouds 20 1018 83 10000 0.65 208 04:54 11.12.2022
694 Clouds 21 1018 86 10000 1.15 107 00:32 11.12.2022
695 Clouds 22 1019 86 10000 0.44 301 22:51 10.12.2022
696 Clouds 22 1019 86 10000 0.44 301 22:32 10.12.2022
697 Clouds 22 1019 86 10000 0.42 298 22:32 10.12.2022
698 Clouds 23 1018 85 10000 1.26 131 21:18 10.12.2022
699 Clouds 22 1018 84 10000 1.21 148 20:24 10.12.2022
700 Clouds 22 1017 83 10000 0.67 178 18:33 10.12.2022
701 Clouds 23 1017 79 10000 1.66 148 16:47 10.12.2022
702 Clouds 23 1017 79 10000 1.43 168 15:53 10.12.2022
703 Clouds 24 1017 79 10000 1.43 168 15:34 10.12.2022
704 Clouds 24 1018 78 10000 1.59 135 13:56 10.12.2022
705 Clouds 23 1019 78 10000 0.95 136 12:34 10.12.2022
706 Clouds 23 1019 80 10000 0.92 151 11:26 10.12.2022
707 Clouds 21 1019 80 10000 0.63 138 10:26 10.12.2022
708 Clouds 20 1017 84 10000 2.36 137 07:29 10.12.2022
709 Clouds 20 1017 84 10000 2.36 137 06:56 10.12.2022
710 Clouds 21 1018 85 10000 0.42 296 23:52 09.12.2022
711 Clouds 21 1018 85 10000 0.69 323 22:43 09.12.2022
712 Clouds 21 1017 85 10000 0.66 3 21:43 09.12.2022
713 Clouds 21 1017 84 10000 0.76 350 21:20 09.12.2022
714 Clouds 22 1017 83 10000 1.5 52 19:49 09.12.2022
715 Clouds 23 1016 82 10000 1.71 69 18:32 09.12.2022
716 Clouds 24 1015 80 10000 1.72 80 17:38 09.12.2022
717 Clouds 23 1014 79 10000 1.44 78 16:29 09.12.2022
718 Clouds 24 1014 79 10000 1.44 78 15:31 09.12.2022
719 Clouds 24 1015 77 10000 1.95 33 14:23 09.12.2022
720 Clouds 22 1016 79 10000 0.94 328 10:51 09.12.2022
721 Clouds 21 1015 80 10000 0.93 286 10:24 09.12.2022
722 Clouds 20 1013 83 10000 1.33 270 07:29 09.12.2022
723 Clouds 20 1012 82 10000 1.14 243 03:18 09.12.2022
724 Clouds 21 1013 81 10000 0.79 229 23:36 08.12.2022
725 Clouds 22 1011 78 10000 2.01 267 20:56 08.12.2022
726 Clouds 23 1010 77 10000 3.34 313 18:59 08.12.2022
727 Clouds 23 1009 74 10000 3.09 312 16:50 08.12.2022
728 Clouds 25 1009 73 10000 0.63 164 14:35 08.12.2022
729 Clouds 24 1010 74 10000 1.03 122 13:40 08.12.2022
730 Clouds 22 1011 77 10000 1.3 231 10:43 08.12.2022
731 Clouds 21 1010 79 10000 1.44 249 09:32 08.12.2022
732 Clouds 21 1009 82 10000 2.82 282 07:58 08.12.2022
733 Clouds 22 1010 87 10000 2.12 230 22:44 07.12.2022
734 Rain 22 1010 87 10000 2.24 216 22:18 07.12.2022
735 Rain 22 1010 87 10000 2.24 216 21:47 07.12.2022
736 Rain 21 1010 86 10000 2.29 195 20:35 07.12.2022
737 Rain 21 1009 83 10000 2.53 210 18:33 07.12.2022
738 Clouds 23 1010 75 10000 2.57 240 15:44 07.12.2022
739 Clouds 22 1011 71 10000 2.36 228 13:36 07.12.2022
740 Clouds 22 1012 73 10000 1.41 193 10:55 07.12.2022
741 Clouds 19 1012 74 10000 1.3 211 09:59 07.12.2022
742 Clouds 19 1012 74 10000 1.3 211 09:31 07.12.2022
743 Clouds 18 1012 75 10000 1.12 233 07:41 07.12.2022
744 Clouds 19 1012 75 10000 1.74 223 05:25 07.12.2022
745 Clouds 20 1014 73 10000 2.11 224 01:22 07.12.2022
746 Clouds 20 1015 73 10000 1.42 266 21:50 06.12.2022
747 Clouds 22 1015 70 10000 0.22 172 19:33 06.12.2022
748 Clouds 23 1015 66 10000 0.38 88 17:19 06.12.2022
749 Clouds 24 1015 66 10000 0.69 327 16:29 06.12.2022
750 Clouds 24 1015 66 10000 0.69 327 15:35 06.12.2022
751 Clouds 24 1016 66 10000 0.98 309 14:39 06.12.2022
752 Clouds 24 1016 66 10000 0.32 91 14:18 06.12.2022
753 Clouds 22 1017 65 10000 0.9 177 12:41 06.12.2022
754 Clouds 22 1018 68 10000 1.1 192 11:48 06.12.2022
755 Clouds 17 1017 77 10000 1.07 156 07:50 06.12.2022
756 Clouds 18 1016 75 10000 0.93 98 03:20 06.12.2022
757 Clouds 20 1017 73 10000 0.46 322 23:43 05.12.2022
758 Clouds 21 1017 74 10000 0.96 344 21:47 05.12.2022
759 Clouds 22 1016 74 10000 1.02 331 20:52 05.12.2022
760 Clouds 22 1016 74 10000 1.36 321 19:54 05.12.2022
761 Clouds 22 1016 74 10000 1.36 321 19:35 05.12.2022
762 Clouds 24 1014 69 10000 1.29 7 16:53 05.12.2022
763 Clouds 24 1014 66 10000 1.42 45 15:29 05.12.2022
764 Clouds 24 1014 66 10000 1.42 45 14:49 05.12.2022
765 Clouds 24 1015 69 10000 2.77 358 12:58 05.12.2022
766 Clouds 24 1015 69 10000 2.77 358 12:38 05.12.2022
767 Clouds 24 1015 70 10000 2.92 334 11:42 05.12.2022
768 Clouds 22 1012 74 10000 2.41 239 08:37 05.12.2022
769 Clouds 20 1010 73 10000 5.13 239 00:18 05.12.2022
770 Clouds 20 1010 72 10000 5.58 228 22:44 04.12.2022
771 Clouds 20 1010 71 10000 5.56 225 22:19 04.12.2022
772 Clouds 20 1010 71 10000 5.56 225 21:32 04.12.2022
773 Clouds 20 1009 67 10000 3.97 228 20:20 04.12.2022
774 Clouds 22 1008 63 10000 4.06 229 19:23 04.12.2022
775 Clouds 22 1008 63 10000 4.06 229 18:35 04.12.2022
776 Clouds 23 1008 61 10000 4.87 223 17:22 04.12.2022
777 Clouds 24 1008 61 10000 4.87 223 16:37 04.12.2022
778 Clouds 24 1008 58 10000 4.04 237 16:18 04.12.2022
779 Clouds 25 1008 55 10000 3.12 253 15:27 04.12.2022
780 Clouds 23 1008 56 10000 1.86 260 14:32 04.12.2022
781 Clear 22 1010 60 10000 1.75 213 12:51 04.12.2022
782 Clear 21 1010 60 10000 1.75 213 12:33 04.12.2022
783 Clear 20 1010 64 10000 1.79 195 11:35 04.12.2022
784 Clear 18 1010 77 10000 0.46 226 07:59 04.12.2022
785 Clouds 19 1010 77 10000 1.11 342 02:51 04.12.2022
786 Clouds 18 1010 80 10000 2.02 358 23:44 03.12.2022
787 Clouds 18 1010 81 10000 2.52 352 22:35 03.12.2022
788 Rain 18 1010 81 10000 2.81 346 21:52 03.12.2022
789 Rain 18 1010 80 10000 2.7 344 20:46 03.12.2022
790 Rain 18 1009 80 10000 2.2 358 18:41 03.12.2022
791 Rain 18 1009 79 10000 2 358 17:56 03.12.2022
792 Rain 19 1009 76 10000 1.8 353 15:52 03.12.2022
793 Rain 21 1010 72 10000 1.63 3 13:43 03.12.2022
794 Clouds 21 1011 68 10000 2.06 12 12:51 03.12.2022
795 Clouds 21 1012 70 10000 2.28 15 12:18 03.12.2022
796 Clouds 19 1011 79 10000 2.91 6 09:28 03.12.2022
797 Clouds 19 1011 80 10000 3.5 349 04:18 03.12.2022
798 Clouds 19 1012 75 10000 4.7 347 00:23 03.12.2022
799 Clouds 19 1013 73 10000 6.02 348 22:19 02.12.2022
800 Clouds 20 1012 73 10000 6.88 336 20:21 02.12.2022
801 Clear 23 1012 65 10000 7.49 341 17:40 02.12.2022
802 Clear 24 1012 65 10000 6.72 339 15:58 02.12.2022
803 Clear 24 1012 66 10000 6.4 335 14:38 02.12.2022
804 Clear 24 1013 66 10000 6.25 332 14:19 02.12.2022
805 Clouds 22 1014 67 10000 6.05 329 12:44 02.12.2022
806 Clouds 21 1014 68 10000 5.82 331 11:30 02.12.2022
807 Clouds 18 1013 75 10000 5.9 344 08:19 02.12.2022
808 Clouds 18 1013 76 10000 5.72 347 07:23 02.12.2022
809 Clouds 20 1016 78 10000 7.27 329 22:54 01.12.2022
810 Rain 20 1016 79 10000 7.31 327 21:44 01.12.2022
811 Clouds 21 1016 81 10000 6.48 316 20:56 01.12.2022
812 Clear 22 1015 71 10000 5.28 330 19:18 01.12.2022
813 Clear 23 1015 65 10000 5.15 332 17:31 01.12.2022
814 Clear 23 1016 60 10000 4.61 341 14:47 01.12.2022
815 Clouds 21 1018 62 10000 4.16 3 11:22 01.12.2022
816 Clouds 20 1018 64 10000 4.64 8 09:55 01.12.2022
817 Clouds 19 1018 64 10000 4.64 8 09:37 01.12.2022
818 Clouds 19 1017 74 10000 5.32 2 07:18 01.12.2022
819 Clouds 21 1018 68 10000 5.05 6 23:59 30.11.2022
820 Clouds 20 1018 66 10000 4.64 12 22:21 30.11.2022
821 Clouds 20 1018 65 10000 4.54 16 21:19 30.11.2022
822 Clouds 21 1018 65 10000 4.94 19 20:25 30.11.2022
823 Clouds 21 1017 67 10000 4.88 17 19:35 30.11.2022
824 Clouds 22 1017 67 10000 5.03 17 18:32 30.11.2022
825 Clouds 23 1017 64 10000 4.58 17 16:53 30.11.2022
826 Clouds 23 1017 64 10000 4 23 14:46 30.11.2022
827 Clouds 23 1018 65 10000 3.9 27 14:27 30.11.2022
828 Clouds 23 1019 65 10000 3.99 34 12:29 30.11.2022
829 Clouds 21 1018 68 10000 4.51 37 09:52 30.11.2022
830 Clouds 20 1018 70 10000 4.66 34 08:38 30.11.2022
831 Clouds 20 1017 72 10000 5.33 27 06:44 30.11.2022
832 Clouds 21 1019 75 10000 4.84 26 23:32 29.11.2022
833 Clouds 21 1019 75 10000 5.06 32 22:20 29.11.2022
834 Clouds 21 1019 76 10000 5.3 32 20:52 29.11.2022
835 Clouds 21 1018 77 10000 5.18 33 20:32 29.11.2022
836 Clouds 22 1018 77 10000 4.98 35 18:56 29.11.2022
837 Clouds 23 1017 74 10000 5.03 36 16:57 29.11.2022
838 Clear 23 1018 73 10000 4.91 36 15:38 29.11.2022
839 Clear 23 1018 72 10000 4.97 38 14:49 29.11.2022
840 Clouds 23 1020 72 10000 4.66 47 12:43 29.11.2022
841 Clouds 22 1020 76 10000 4.98 53 11:31 29.11.2022
842 Clouds 21 1020 76 10000 4.96 53 10:31 29.11.2022
843 Clouds 20 1020 77 10000 5.31 53 09:28 29.11.2022
844 Clouds 20 1020 76 10000 5.69 52 07:46 29.11.2022
845 Clouds 21 1020 81 10000 6.46 37 00:33 29.11.2022
846 Clouds 21 1021 80 10000 6.5 38 23:27 28.11.2022
847 Clouds 21 1021 80 10000 6.12 35 22:22 28.11.2022
848 Clouds 21 1021 80 10000 6.12 35 21:43 28.11.2022
849 Clouds 22 1020 81 10000 6.45 33 20:33 28.11.2022
850 Clouds 22 1020 81 10000 6.42 34 19:37 28.11.2022
851 Clear 22 1019 75 10000 5.91 29 18:29 28.11.2022
852 Clear 23 1019 75 10000 5.91 29 17:35 28.11.2022
853 Clear 24 1020 71 10000 5.58 43 15:19 28.11.2022
854 Clear 23 1021 69 10000 4.78 46 13:57 28.11.2022
855 Clear 24 1021 69 10000 4.76 46 13:32 28.11.2022
856 Clouds 23 1023 71 10000 5.2 52 11:49 28.11.2022
857 Clouds 21 1023 82 10000 5.72 49 08:49 28.11.2022
858 Clouds 21 1022 83 10000 5.49 31 04:58 28.11.2022
859 Clouds 21 1022 83 10000 5.68 31 04:39 28.11.2022
860 Clouds 21 1022 81 10000 5.8 21 03:23 28.11.2022
861 Clouds 21 1023 83 10000 4.96 24 00:35 28.11.2022
862 Clouds 21 1023 84 10000 5.14 29 22:24 27.11.2022
863 Clouds 21 1022 83 10000 5.25 27 20:49 27.11.2022
864 Clear 23 1021 78 10000 5.28 22 18:52 27.11.2022
865 Clear 24 1021 71 10000 4.93 32 16:39 27.11.2022
866 Clear 24 1022 68 10000 4.28 42 13:55 27.11.2022
867 Clear 25 1024 71 10000 4.32 38 12:27 27.11.2022
868 Clear 22 1024 74 10000 4.52 38 10:36 27.11.2022
869 Clear 19 1023 80 10000 4.44 17 07:55 27.11.2022
870 Clouds 20 1023 72 10000 3.66 36 23:39 26.11.2022
871 Clouds 21 1023 70 10000 3.48 24 21:44 26.11.2022
872 Clouds 21 1023 72 10000 3.4 24 20:20 26.11.2022
873 Clear 23 1022 68 10000 2.79 36 18:57 26.11.2022
874 Clear 24 1021 64 10000 3.35 57 16:47 26.11.2022
875 Clear 24 1021 64 10000 4.23 66 15:37 26.11.2022
876 Clouds 23 1023 67 10000 4.04 68 12:54 26.11.2022
877 Clouds 22 1024 75 10000 3.75 63 10:54 26.11.2022
878 Clouds 19 1023 78 10000 3.7 57 09:43 26.11.2022
879 Clouds 19 1022 81 10000 4.07 41 08:21 26.11.2022
880 Clouds 21 1023 82 10000 4.68 39 22:59 25.11.2022
881 Clouds 21 1023 81 10000 4.21 35 21:38 25.11.2022
882 Clouds 22 1022 79 10000 3.9 44 20:33 25.11.2022
883 Clear 23 1020 74 10000 4.47 32 16:59 25.11.2022
884 Clouds 24 1020 72 10000 3.15 66 15:40 25.11.2022
885 Clouds 21 1022 76 10000 4.61 77 10:29 25.11.2022
886 Clouds 20 1022 75 10000 4.69 52 08:44 25.11.2022
887 Clouds 20 1020 76 10000 4.48 54 07:27 25.11.2022
888 Clouds 20 1021 76 10000 4.49 53 06:42 25.11.2022
889 Clouds 21 1021 83 10000 5.19 53 01:25 25.11.2022
890 Clouds 21 1021 83 10000 4.52 49 23:22 24.11.2022
891 Clouds 21 1021 83 10000 4.02 41 22:29 24.11.2022
892 Clouds 21 1021 83 10000 4.02 41 21:35 24.11.2022
893 Clouds 21 1020 81 10000 3.2 46 19:40 24.11.2022
894 Clouds 22 1018 78 10000 3.16 75 17:47 24.11.2022
895 Clouds 23 1018 77 10000 3.56 82 17:23 24.11.2022
896 Clouds 23 1018 77 10000 3.58 82 16:39 24.11.2022
897 Clouds 23 1019 77 10000 3.15 72 14:23 24.11.2022
898 Clouds 23 1020 73 10000 3.6 58 12:39 24.11.2022
899 Clouds 22 1020 72 10000 3.31 40 10:52 24.11.2022
900 Clouds 21 1020 74 10000 3.35 27 08:45 24.11.2022
901 Clouds 21 1019 80 10000 3.8 14 04:42 24.11.2022
902 Clouds 22 1021 74 10000 5.11 37 23:49 23.11.2022
903 Clouds 21 1021 74 10000 5.11 37 23:31 23.11.2022
904 Clouds 22 1021 76 10000 4.73 33 21:44 23.11.2022
905 Clouds 22 1021 76 10000 4.99 35 20:49 23.11.2022
906 Clouds 22 1021 74 10000 5.06 29 19:34 23.11.2022
907 Clouds 22 1020 73 10000 4.94 33 18:54 23.11.2022
908 Clouds 24 1020 74 10000 4.7 30 17:29 23.11.2022
909 Clouds 24 1020 74 10000 4.7 30 17:29 23.11.2022
910 Clouds 24 1022 73 10000 5.35 48 13:42 23.11.2022
911 Clouds 24 1023 75 10000 5.51 41 13:21 23.11.2022
912 Clouds 24 1023 76 10000 5.08 40 12:22 23.11.2022
913 Clouds 24 1023 76 10000 5.08 40 11:45 23.11.2022
914 Clouds 23 1023 75 10000 4.39 43 10:46 23.11.2022
915 Clouds 22 1023 77 10000 3.44 38 09:45 23.11.2022
916 Clouds 21 1023 81 10000 2.89 33 09:26 23.11.2022
917 Clouds 21 1023 81 10000 2.89 33 08:57 23.11.2022
918 Clouds 21 1023 81 10000 2.89 33 08:30 23.11.2022
919 Clouds 21 1022 78 10000 4.22 35 05:19 23.11.2022
920 Clouds 21 1025 77 10000 5.19 49 01:21 23.11.2022
921 Clouds 22 1025 71 10000 5.64 37 22:37 22.11.2022
922 Clouds 22 1025 71 10000 5.79 32 21:34 22.11.2022
923 Clouds 22 1025 71 10000 6.37 28 20:51 22.11.2022
924 Clouds 22 1025 71 10000 6.37 28 20:30 22.11.2022
925 Clouds 22 1024 72 10000 6.39 25 19:44 22.11.2022
926 Clouds 23 1024 75 10000 5.66 31 17:48 22.11.2022
927 Clouds 24 1023 73 10000 5.21 32 16:32 22.11.2022
928 Clouds 24 1025 71 10000 4.94 49 14:20 22.11.2022
929 Clouds 23 1026 71 10000 4.03 53 12:30 22.11.2022
930 Clouds 21 1025 75 10000 4.16 63 09:28 22.11.2022
931 Clouds 21 1025 76 10000 4.57 54 07:59 22.11.2022
932 Clouds 21 1024 78 10000 5.46 40 06:38 22.11.2022
933 Clouds 21 1026 77 10000 5.39 41 00:23 22.11.2022
934 Clouds 21 1026 76 10000 6.43 39 22:52 21.11.2022
935 Clouds 21 1026 76 10000 6.18 42 22:22 21.11.2022
936 Clouds 22 1026 76 10000 6.18 42 21:31 21.11.2022
937 Clouds 22 1026 77 10000 6.35 38 19:51 21.11.2022
938 Clouds 22 1026 77 10000 6.35 38 19:31 21.11.2022
939 Clouds 21 1025 77 10000 6.43 37 19:31 21.11.2022
940 Clouds 23 1025 77 10000 6.5 38 18:50 21.11.2022
941 Clouds 24 1024 76 10000 6.06 43 17:26 21.11.2022
942 Clouds 24 1024 76 10000 6.06 43 16:41 21.11.2022
943 Clouds 24 1025 76 10000 6.36 37 15:58 21.11.2022
944 Clouds 24 1025 75 10000 5.64 40 15:23 21.11.2022
945 Clouds 24 1025 75 10000 5.04 50 13:53 21.11.2022
946 Clouds 24 1026 75 10000 5.19 56 12:50 21.11.2022
947 Clouds 21 1026 73 10000 5.87 49 09:34 21.11.2022
948 Clouds 21 1026 77 10000 6.5 39 07:52 21.11.2022
949 Clouds 21 1025 76 10000 7.14 38 23:47 20.11.2022
950 Clouds 22 1025 73 10000 7.49 33 21:37 20.11.2022
951 Clouds 22 1025 75 10000 7.43 28 20:47 20.11.2022
952 Clouds 22 1023 69 10000 8.06 27 18:59 20.11.2022
953 Clouds 23 1023 70 10000 7.17 24 17:18 20.11.2022
954 Clouds 24 1023 71 10000 7.4 27 15:43 20.11.2022
955 Clouds 24 1024 72 10000 7.61 29 14:55 20.11.2022
956 Rain 24 1024 74 10000 7.97 28 13:58 20.11.2022
957 Rain 24 1025 75 10000 7.93 28 13:25 20.11.2022
958 Clouds 23 1025 76 10000 7.7 27 11:41 20.11.2022
959 Clouds 21 1025 73 10000 7.66 30 10:57 20.11.2022
960 Clouds 19 1025 73 10000 7.44 30 09:43 20.11.2022
961 Clouds 20 1025 75 10000 7.84 28 08:52 20.11.2022
962 Clouds 20 1025 75 10000 7.84 28 08:52 20.11.2022
963 Rain 20 1024 75 10000 8.41 29 07:58 20.11.2022
964 Rain 20 1024 76 10000 8.43 28 07:22 20.11.2022
965 Clouds 21 1025 70 10000 8.85 27 01:26 20.11.2022
966 Clouds 21 1025 70 10000 8.85 27 00:45 20.11.2022
967 Clouds 22 1025 75 10000 9.34 25 00:27 20.11.2022
968 Clouds 21 1025 75 10000 9.34 25 23:57 19.11.2022
969 Clouds 21 1025 72 10000 9.38 24 23:26 19.11.2022
970 Clouds 21 1025 72 10000 9.38 24 22:43 19.11.2022
971 Clouds 21 1025 72 10000 9.38 24 22:43 19.11.2022
972 Clouds 21 1025 66 10000 9.57 25 21:47 19.11.2022
973 Clouds 21 1025 69 10000 9.37 20 21:23 19.11.2022
974 Clouds 20 1025 67 10000 9.35 22 20:40 19.11.2022
975 Clouds 22 1024 68 10000 9.19 22 19:35 19.11.2022
976 Clouds 22 1023 64 10000 9.4 18 17:47 19.11.2022
977 Clouds 22 1023 64 10000 9.26 16 17:26 19.11.2022
978 Clouds 22 1023 64 10000 9.26 16 16:51 19.11.2022
979 Clouds 22 1023 67 10000 9.33 19 14:43 19.11.2022
980 Clouds 22 1025 69 10000 10.13 19 12:54 19.11.2022
981 Clouds 21 1025 64 10000 9.47 15 11:20 19.11.2022
982 Clouds 21 1025 65 10000 9.63 14 09:45 19.11.2022
983 Clouds 20 1024 67 10000 8.43 13 07:52 19.11.2022
984 Clouds 21 1023 67 10000 8.12 15 04:44 19.11.2022
985 Clouds 22 1024 70 10000 9.11 16 00:43 19.11.2022
986 Clouds 22 1024 74 10000 9.23 18 23:30 18.11.2022
987 Rain 22 1024 74 10000 9.23 18 23:30 18.11.2022
988 Clouds 22 1023 82 10000 8.33 15 22:22 18.11.2022
989 Rain 22 1023 82 10000 8.33 15 21:35 18.11.2022
990 Clouds 22 1023 80 10000 6.91 5 20:56 18.11.2022
991 Clouds 22 1023 78 10000 6.44 11 20:20 18.11.2022
992 Clouds 23 1023 78 10000 6.44 11 19:34 18.11.2022
993 Clouds 24 1022 74 10000 6.65 17 17:45 18.11.2022
994 Clouds 24 1022 75 10000 6.99 20 14:47 18.11.2022
995 Clouds 24 1023 77 10000 5.97 8 11:49 18.11.2022
996 Clouds 23 1023 83 10000 4.68 350 10:22 18.11.2022
997 Clouds 20 1022 85 10000 4.2 354 07:52 18.11.2022
998 Clouds 20 1020 77 10000 4.25 355 05:27 18.11.2022
999 Clouds 20 1021 76 10000 4.5 355 01:57 18.11.2022
1000 Clouds 20 1022 75 10000 3.54 13 22:51 17.11.2022
1001 Clouds 22 1021 75 10000 4.08 15 20:47 17.11.2022
1002 Clouds 22 1021 74 10000 4.17 12 19:51 17.11.2022
1003 Clouds 22 1020 72 10000 4.01 17 19:18 17.11.2022
1004 Clouds 23 1020 68 10000 4.24 20 18:27 17.11.2022
1005 Clouds 24 1020 66 10000 4.45 24 16:56 17.11.2022
1006 Clouds 25 1020 63 10000 3.6 36 15:21 17.11.2022
1007 Clouds 24 1022 61 10000 2.82 42 11:45 17.11.2022
1008 Clouds 22 1022 70 10000 2.92 35 10:28 17.11.2022
1009 Clouds 19 1019 69 10000 3.03 20 06:19 17.11.2022
1010 Clouds 20 1021 62 10000 1.61 27 00:50 17.11.2022
1011 Clouds 21 1021 66 10000 2.51 21 22:38 16.11.2022
1012 Clouds 22 1021 64 10000 2.87 15 21:41 16.11.2022
1013 Clouds 23 1020 58 10000 2.76 21 20:19 16.11.2022
1014 Clouds 26 1019 53 10000 2.33 40 18:48 16.11.2022
1015 Clouds 27 1019 50 10000 2.27 53 17:57 16.11.2022
1016 Clear 28 1020 45 10000 2.52 83 14:23 16.11.2022
1017 Clouds 25 1021 46 10000 2.61 109 10:24 16.11.2022
1018 Clouds 23 1020 52 10000 2.39 89 06:48 16.11.2022
1019 Clouds 22 1020 52 10000 1.46 46 01:34 16.11.2022
1020 Clear 22 1020 52 10000 0.84 53 22:54 15.11.2022
1021 Clear 22 1020 50 10000 2.18 48 20:56 15.11.2022
1022 Clouds 24 1019 52 10000 1.83 51 19:42 15.11.2022
1023 Clouds 24 1019 53 10000 1.49 79 18:51 15.11.2022
1024 Clouds 25 1019 52 10000 2.06 79 17:32 15.11.2022
1025 Clouds 25 1019 52 10000 2.67 85 16:20 15.11.2022
1026 Clouds 25 1019 52 10000 2.67 85 16:20 15.11.2022
1027 Clouds 26 1019 52 10000 2.57 87 15:21 15.11.2022
1028 Clouds 26 1020 56 10000 2.54 50 13:39 15.11.2022
1029 Clouds 26 1020 57 10000 1.8 48 12:26 15.11.2022
1030 Clouds 25 1020 59 10000 1.71 52 11:20 15.11.2022
1031 Clouds 22 1020 58 10000 2.18 5 09:28 15.11.2022
1032 Clear 22 1020 52 10000 1.94 43 00:40 15.11.2022
1033 Clear 22 1020 50 10000 2.02 50 00:18 15.11.2022
1034 Clear 25 1020 46 10000 1.63 75 21:48 14.11.2022
1035 Clear 26 1020 46 10000 1.58 107 20:42 14.11.2022
1036 Clouds 24 1019 48 10000 3.5 135 18:57 14.11.2022
1037 Clouds 27 1018 50 10000 5.16 129 17:28 14.11.2022
1038 Clouds 27 1020 51 10000 5.19 133 12:55 14.11.2022
1039 Clouds 26 1020 48 10000 4.58 132 11:42 14.11.2022
1040 Clouds 24 1019 50 10000 3.23 128 09:54 14.11.2022
1041 Clouds 23 1019 51 10000 2.73 94 08:29 14.11.2022
1042 Clouds 22 1019 51 10000 2.73 94 07:50 14.11.2022
1043 Clouds 23 1019 56 10000 2.41 38 00:19 14.11.2022
1044 Clouds 22 1019 57 10000 2.32 358 22:39 13.11.2022
1045 Clouds 22 1019 58 10000 2.53 333 21:40 13.11.2022
1046 Clouds 23 1019 61 10000 2.79 342 20:45 13.11.2022
1047 Clouds 26 1018 56 10000 1.68 309 18:35 13.11.2022
1048 Clouds 27 1017 52 10000 0.96 299 17:49 13.11.2022
1049 Clouds 28 1017 48 10000 3.32 166 15:20 13.11.2022
1050 Clouds 30 1017 48 10000 3.32 166 14:30 13.11.2022
1051 Clouds 29 1018 49 10000 4.13 156 12:52 13.11.2022
1052 Clouds 27 1019 48 10000 3.89 149 11:34 13.11.2022
1053 Clouds 22 1018 52 10000 1.47 200 09:44 13.11.2022
1054 Clouds 21 1016 62 10000 0.66 279 05:52 13.11.2022
1055 Clouds 21 1016 62 10000 2.09 333 23:35 12.11.2022
1056 Clouds 21 1016 63 10000 1.17 260 21:24 12.11.2022
1057 Clouds 22 1015 63 10000 1.2 178 20:23 12.11.2022
1058 Clouds 23 1015 66 10000 0.27 235 18:45 12.11.2022
1059 Clouds 24 1014 61 10000 2.62 128 16:28 12.11.2022
1060 Clouds 24 1014 61 10000 3.4 131 15:24 12.11.2022
1061 Clear 24 1015 65 10000 4.04 123 13:28 12.11.2022
1062 Clear 21 1015 67 10000 2.44 110 09:30 12.11.2022
1063 Clear 19 1014 73 10000 2.95 149 07:47 12.11.2022
1064 Clouds 22 1016 79 10000 4.23 42 23:23 11.11.2022
1065 Clouds 22 1015 76 10000 4.12 35 20:52 11.11.2022
1066 Clouds 22 1015 72 10000 3.65 44 20:23 11.11.2022
1067 Clouds 23 1014 69 10000 3.11 48 19:25 11.11.2022
1068 Clouds 24 1014 70 10000 3.38 69 17:58 11.11.2022
1069 Clouds 23 1014 69 10000 3.37 72 16:55 11.11.2022
1070 Clouds 24 1015 72 10000 3.66 77 14:29 11.11.2022
1071 Clouds 23 1015 72 10000 3.66 77 13:31 11.11.2022
1072 Clouds 22 1017 78 10000 3.94 71 10:32 11.11.2022
1073 Clouds 21 1015 82 10000 4.52 62 08:28 11.11.2022
1074 Clouds 21 1015 82 10000 4.52 62 07:38 11.11.2022
1075 Clouds 22 1018 83 10000 4.41 49 23:58 10.11.2022
1076 Clouds 22 1018 83 10000 4.29 50 22:49 10.11.2022
1077 Clouds 22 1018 82 10000 3.88 51 21:38 10.11.2022
1078 Clouds 22 1018 81 10000 3.92 50 21:19 10.11.2022
1079 Clouds 23 1017 80 10000 4.11 51 20:23 10.11.2022
1080 Clouds 23 1017 80 10000 4.11 51 19:46 10.11.2022
1081 Clouds 23 1017 77 10000 4.09 55 18:44 10.11.2022
1082 Clouds 25 1017 74 10000 4 65 16:26 10.11.2022
1083 Clouds 25 1018 74 10000 4.63 64 14:43 10.11.2022
1084 Clouds 24 1019 75 10000 4.96 65 13:18 10.11.2022
1085 Clouds 22 1019 79 10000 4.82 64 09:19 10.11.2022
1086 Clouds 21 1018 80 10000 5.12 53 06:40 10.11.2022
1087 Clouds 21 1020 79 10000 5.06 51 00:56 10.11.2022
1088 Clouds 22 1021 79 10000 5.07 48 22:46 09.11.2022
1089 Clouds 22 1021 79 10000 5.14 39 20:50 09.11.2022
1090 Clouds 22 1021 79 10000 5.14 39 20:31 09.11.2022
1091 Clouds 22 1020 79 10000 5.26 36 19:48 09.11.2022
1092 Clear 22 1020 78 10000 5.02 32 19:24 09.11.2022
1093 Clear 24 1019 70 10000 4.67 37 16:57 09.11.2022
1094 Clear 24 1020 68 10000 4.28 47 14:51 09.11.2022
1095 Clear 24 1020 68 10000 3.95 50 14:26 09.11.2022
1096 Clear 24 1020 68 10000 3.95 50 14:26 09.11.2022
1097 Clear 24 1020 68 10000 3.95 50 13:34 09.11.2022
1098 Clouds 24 1021 69 10000 3.71 54 12:51 09.11.2022
1099 Clouds 21 1021 79 10000 4.23 27 09:28 09.11.2022
1100 Clouds 21 1020 81 10000 4.14 20 07:47 09.11.2022
1101 Clouds 21 1019 81 10000 4 15 02:33 09.11.2022
1102 Clouds 22 1020 81 10000 3.48 25 22:23 08.11.2022
1103 Clouds 22 1020 81 10000 3.48 25 21:36 08.11.2022
1104 Clouds 22 1020 80 10000 3.57 22 20:41 08.11.2022
1105 Clouds 23 1019 80 10000 4.11 20 20:18 08.11.2022
1106 Clear 23 1018 77 10000 4.75 19 19:21 08.11.2022
1107 Clear 24 1018 75 10000 4.71 26 17:35 08.11.2022
1108 Clear 24 1018 69 10000 3.58 48 15:22 08.11.2022
1109 Clear 24 1018 69 10000 3.58 48 14:31 08.11.2022
1110 Clouds 23 1019 68 10000 2.85 51 13:28 08.11.2022
1111 Clouds 23 1020 74 10000 2.76 55 10:58 08.11.2022
1112 Clouds 21 1019 83 10000 3.61 52 07:39 08.11.2022
1113 Clouds 21 1018 84 10000 3.99 37 04:27 08.11.2022
1114 Clear 22 1020 81 10000 3.19 27 22:56 07.11.2022
1115 Clear 22 1020 81 10000 3.14 30 21:42 07.11.2022
1116 Clear 22 1019 81 10000 3.18 27 20:48 07.11.2022
1117 Clear 23 1019 80 10000 3.41 28 19:40 07.11.2022
1118 Clear 25 1018 73 10000 3.43 38 17:41 07.11.2022
1119 Clear 25 1018 69 10000 2.7 60 15:38 07.11.2022
1120 Clear 25 1018 68 10000 2.71 67 14:55 07.11.2022
1121 Clouds 25 1019 67 10000 2.55 61 13:21 07.11.2022
1122 Clouds 25 1020 68 10000 2.27 69 12:22 07.11.2022
1123 Clouds 22 1020 71 10000 2.44 82 10:45 07.11.2022
1124 Clouds 21 1019 82 10000 3.14 94 08:30 07.11.2022
1125 Clouds 22 1018 82 10000 3.92 82 06:31 07.11.2022
1126 Clouds 22 1019 84 10000 4.05 55 01:45 07.11.2022
1127 Clouds 22 1020 82 10000 4.1 54 23:23 06.11.2022
1128 Clouds 23 1020 81 10000 3.86 53 21:22 06.11.2022
1129 Clouds 23 1020 81 10000 3.86 53 20:43 06.11.2022
1130 Clouds 23 1019 79 10000 3.92 50 19:56 06.11.2022
1131 Clouds 23 1019 78 10000 3.86 47 18:50 06.11.2022
1132 Clouds 24 1018 75 10000 3.84 50 18:20 06.11.2022
1133 Clouds 25 1018 75 10000 3.83 53 17:23 06.11.2022
1134 Clouds 24 1018 75 10000 3.83 53 16:58 06.11.2022
1135 Clouds 24 1018 74 10000 3.87 59 16:18 06.11.2022
1136 Clouds 25 1019 73 10000 3.92 65 14:45 06.11.2022
1137 Clouds 24 1020 72 10000 4.23 68 12:44 06.11.2022
1138 Clouds 24 1021 74 10000 4.83 58 10:52 06.11.2022
1139 Clouds 23 1021 76 10000 5.04 56 09:51 06.11.2022
1140 Clouds 22 1019 85 10000 5.22 47 06:40 06.11.2022
1141 Clouds 23 1021 80 10000 3.5 44 23:23 05.11.2022
1142 Clear 23 1020 78 10000 3.61 34 20:40 05.11.2022
1143 Clouds 24 1019 72 10000 3.92 39 18:22 05.11.2022
1144 Clouds 25 1019 70 10000 3.93 41 16:23 05.11.2022
1145 Clouds 25 1020 70 10000 4.15 42 14:34 05.11.2022
1146 Clouds 25 1021 72 10000 4.26 45 13:21 05.11.2022
1147 Clouds 23 1022 75 10000 4.43 41 10:43 05.11.2022
1148 Clouds 21 1021 76 10000 4.98 35 08:49 05.11.2022
1149 Clouds 22 1021 77 10000 5.06 32 07:22 05.11.2022
1150 Clouds 22 1021 77 10000 5.06 32 06:54 05.11.2022
1151 Clouds 22 1022 81 10000 5.1 32 23:36 04.11.2022
1152 Clouds 23 1023 81 10000 5.25 33 22:44 04.11.2022
1153 -273 0 0 0 0 0 20:31 04.11.2022
1154 Clouds 22 1022 80 10000 5.31 29 20:30 04.11.2022
1155 Clouds 22 1022 79 10000 5.22 30 20:29 04.11.2022
1156 Clouds 24 1021 78 10000 5.25 33 17:56 04.11.2022
1157 Clouds 24 1021 77 10000 5.02 37 17:21 04.11.2022
1158 Clouds 25 1022 74 10000 4.8 42 13:47 04.11.2022
1159 Clouds 25 1023 76 10000 4.45 44 12:26 04.11.2022
1160 Clouds 24 1023 77 10000 4.49 45 10:39 04.11.2022
1161 Clouds 22 1023 80 10000 4.75 44 08:45 04.11.2022
1162 Clouds 22 1022 80 10000 5.01 42 07:42 04.11.2022
1163 Clouds 22 1022 84 10000 4.7 33 02:29 04.11.2022
1164 Clouds 22 1023 82 10000 4.65 29 22:50 03.11.2022
1165 Clouds 23 1023 83 10000 4.64 27 20:50 03.11.2022
1166 Clouds 23 1022 82 10000 4.44 28 19:53 03.11.2022
1167 Clouds 23 1022 79 10000 4.24 30 19:27 03.11.2022
1168 Clouds 24 1021 77 10000 4.01 39 17:43 03.11.2022
1169 Clouds 26 1021 75 10000 4.09 42 16:51 03.11.2022
1170 Clear 26 1023 75 10000 4.15 54 14:19 03.11.2022
1171 Clouds 25 1023 76 10000 3.98 58 12:38 03.11.2022
1172 Clouds 24 1024 78 10000 3.78 53 11:44 03.11.2022
1173 Clouds 22 1023 84 10000 3.83 46 09:19 03.11.2022
1174 Clouds 21 1022 84 10000 3.9 45 07:34 03.11.2022
1175 Clouds 23 1022 83 10000 3.16 38 21:29 02.11.2022
1176 Clouds 23 1022 83 10000 3.16 38 20:39 02.11.2022
1177 Clouds 23 1022 80 10000 2.84 41 19:54 02.11.2022
1178 Clear 26 1021 69 10000 3.3 50 16:37 02.11.2022
1179 Clear 26 1021 67 10000 3.76 55 15:36 02.11.2022
1180 Clear 26 1021 67 10000 3.1 67 14:29 02.11.2022
1181 Clouds 26 1022 68 10000 3.35 73 12:43 02.11.2022
1182 Clouds 24 1023 70 10000 3.5 56 10:45 02.11.2022
1183 Clouds 21 1022 79 10000 2.19 64 08:49 02.11.2022
1184 Clouds 21 1021 80 10000 3.13 39 04:48 02.11.2022
1185 Clouds 22 1022 79 10000 3.42 36 23:52 01.11.2022
1186 Clouds 22 1023 83 10000 3.06 42 22:19 01.11.2022
1187 Clouds 23 1022 85 10000 3.55 40 21:26 01.11.2022
1188 Clouds 23 1022 84 10000 3.34 37 20:25 01.11.2022
1189 Clouds 23 1022 84 10000 3.34 37 19:42 01.11.2022
1190 Clouds 25 1021 81 10000 3.4 41 18:33 01.11.2022
1191 Clouds 25 1021 73 10000 4.03 42 17:21 01.11.2022
1192 Clouds 25 1021 72 10000 3.68 49 15:53 01.11.2022
1193 Clouds 25 1022 70 10000 4.12 39 13:35 01.11.2022
1194 Clouds 25 1023 72 10000 3.36 41 12:27 01.11.2022
1195 Clouds 24 1023 78 10000 3.13 38 11:21 01.11.2022
1196 Clouds 22 1023 80 10000 3.7 40 09:49 01.11.2022
1197 Clouds 21 1022 83 10000 3.4 46 08:38 01.11.2022
1198 Clouds 21 1021 80 10000 3.6 29 07:29 01.11.2022
1199 Clouds 21 1021 80 10000 3.6 29 06:46 01.11.2022
1200 Clouds 21 1021 80 10000 3.56 29 05:52 01.11.2022
1201 Clouds 22 1022 82 10000 3.77 19 23:47 31.10.2022
1202 Clouds 23 1021 81 10000 4.23 10 21:34 31.10.2022
1203 Clouds 23 1020 81 10000 3.23 20 20:25 31.10.2022
1204 Clouds 24 1019 78 10000 3.1 29 18:47 31.10.2022
1205 Clouds 25 1019 72 10000 3.4 42 16:45 31.10.2022
1206 Clouds 25 1019 72 10000 3.84 41 15:52 31.10.2022
1207 Clear 26 1020 70 10000 3.98 27 13:22 31.10.2022
1208 Clear 22 1020 79 10000 4.15 19 09:53 31.10.2022
1209 Clear 21 1018 74 10000 3.87 14 08:20 31.10.2022
1210 Clouds 22 1017 77 10000 2.89 21 02:51 31.10.2022
1211 Clouds 22 1017 78 10000 3.54 9 01:49 31.10.2022
1212 Clouds 23 1018 77 10000 3.34 5 22:33 30.10.2022
1213 Clouds 23 1017 78 10000 4.39 5 20:45 30.10.2022
1214 Clouds 24 1017 76 10000 4.27 4 19:54 30.10.2022
1215 Clouds 26 1015 66 10000 2.99 32 16:48 30.10.2022
1216 Clear 26 1016 65 10000 2.89 48 15:28 30.10.2022
1217 Clear 25 1017 65 10000 3.49 42 13:51 30.10.2022
1218 Clear 25 1017 64 10000 3.46 35 12:30 30.10.2022
1219 Clear 24 1018 66 10000 3.37 23 10:49 30.10.2022
1220 Clear 24 1018 66 10000 3.37 23 10:49 30.10.2022
1221 Clear 22 1017 66 10000 3.04 18 09:36 30.10.2022
1222 Clear 21 1016 72 10000 3.4 20 08:18 30.10.2022
1223 Clouds 23 1018 76 10000 4.52 360 00:30 30.10.2022
1224 Clouds 23 1018 77 10000 4.33 358 23:48 29.10.2022
1225 Clouds 23 1018 77 10000 4.3 359 22:52 29.10.2022
1226 Clouds 24 1017 75 10000 3.51 7 20:52 29.10.2022
1227 Clouds 27 1016 64 10000 3.73 18 17:24 29.10.2022
1228 Clouds 27 1016 64 10000 3.31 13 15:51 29.10.2022
1229 Clouds 27 1017 66 10000 3.34 19 15:23 29.10.2022
1230 Clouds 27 1017 66 10000 3.34 19 14:41 29.10.2022
1231 Clouds 27 1018 71 10000 4.01 25 12:34 29.10.2022
1232 Clouds 24 1017 68 10000 3.55 359 09:57 29.10.2022
1233 Clouds 23 1017 72 10000 3.25 351 07:31 29.10.2022
1234 Clouds 23 1017 73 10000 3.26 357 05:55 29.10.2022
1235 Clouds 24 1018 74 10000 4.15 342 02:45 29.10.2022
1236 Clouds 24 1019 72 10000 4.04 346 22:30 28.10.2022
1237 Clouds 25 1018 65 10000 3.54 347 20:46 28.10.2022
1238 Clouds 27 1017 65 10000 3 4 18:51 28.10.2022
1239 Clouds 27 1017 65 10000 3 4 18:30 28.10.2022
1240 Clouds 28 1018 60 10000 1.93 44 15:29 28.10.2022
1241 Clouds 28 1018 60 10000 1.93 44 14:36 28.10.2022
1242 Clouds 26 1020 64 10000 1.97 32 12:26 28.10.2022
1243 Clouds 25 1020 64 10000 1.97 32 11:34 28.10.2022
1244 Clouds 23 1020 68 10000 1.67 31 10:45 28.10.2022
1245 Clouds 23 1019 75 10000 1.97 27 09:47 28.10.2022
1246 Clouds 22 1018 72 10000 2.98 30 08:21 28.10.2022
1247 Clouds 22 1019 71 10000 3.07 359 03:42 28.10.2022
1248 Clear 23 1020 72 10000 2.4 6 23:48 27.10.2022
1249 Clear 23 1020 72 10000 2.72 7 22:40 27.10.2022
1250 Clear 23 1020 72 10000 2.49 6 21:35 27.10.2022
1251 Clear 24 1019 68 10000 2.05 21 19:55 27.10.2022
1252 Clear 25 1018 63 10000 2.18 49 18:22 27.10.2022
1253 Clear 25 1020 62 10000 2.39 54 13:58 27.10.2022
1254 Clear 22 1018 71 10000 1.74 115 08:59 27.10.2022
1255 Clear 22 1017 72 10000 1.07 25 03:40 27.10.2022
1256 Clear 22 1018 74 10000 1.13 46 23:54 26.10.2022
1257 Clear 23 1018 74 10000 1.41 28 22:47 26.10.2022
1258 Clear 23 1017 75 10000 1.78 24 21:56 26.10.2022
1259 Clear 25 1016 65 10000 1.51 8 19:27 26.10.2022
1260 Clear 24 1016 63 10000 1.13 33 16:35 26.10.2022
1261 Clear 24 1016 64 10000 2.13 103 14:33 26.10.2022
1262 Clear 24 1017 64 10000 1.38 81 12:37 26.10.2022
1263 Clear 20 1016 74 10000 0.82 98 09:31 26.10.2022
1264 Clear 21 1016 79 10000 0.94 111 08:53 26.10.2022
1265 Clear 21 1016 79 10000 0.94 111 08:53 26.10.2022
1266 Clouds 21 1015 78 10000 1.43 69 08:22 26.10.2022
1267 Clouds 23 1016 78 10000 2.94 11 00:45 26.10.2022
1268 Clouds 23 1017 78 10000 2.63 8 00:20 26.10.2022
1269 Clouds 23 1016 79 10000 2.78 7 21:47 25.10.2022
1270 Clouds 23 1016 78 10000 3.07 12 20:53 25.10.2022
1271 Clouds 24 1015 75 10000 3.19 32 19:19 25.10.2022
1272 Clouds 25 1015 73 10000 3.01 42 17:51 25.10.2022
1273 Clouds 25 1015 73 10000 3.01 42 17:51 25.10.2022
1274 Clouds 26 1016 71 10000 3.02 56 14:37 25.10.2022
1275 Clouds 23 1017 75 10000 3.08 13 11:38 25.10.2022
1276 Clouds 22 1017 78 10000 2.36 35 10:37 25.10.2022
1277 Clouds 22 1016 80 10000 2.28 38 09:44 25.10.2022
1278 Clouds 21 1015 81 10000 2.3 47 08:18 25.10.2022
1279 Clouds 21 1015 82 10000 2.89 56 07:54 25.10.2022
1280 Clouds 22 1015 82 10000 2.9 60 06:56 25.10.2022
1281 Clouds 22 1015 80 10000 2.98 25 03:46 25.10.2022
1282 Clouds 22 1016 78 10000 3.2 8 00:37 25.10.2022
1283 Clouds 23 1016 78 10000 3.88 359 23:47 24.10.2022
1284 Clouds 23 1016 77 10000 3.24 12 22:24 24.10.2022
1285 Clouds 23 1016 77 10000 3.24 12 21:33 24.10.2022
1286 Clouds 23 1015 77 10000 3.71 6 20:42 24.10.2022
1287 Clouds 25 1014 72 10000 3.15 19 18:52 24.10.2022
1288 Clouds 26 1014 71 10000 2.75 40 17:45 24.10.2022
1289 Clouds 25 1015 70 10000 2.62 50 16:33 24.10.2022
1290 Clouds 24 1017 70 10000 2.84 59 14:22 24.10.2022
1291 Clouds 24 1017 71 10000 2.74 54 13:27 24.10.2022
1292 Clouds 23 1017 72 10000 2.86 66 11:32 24.10.2022
1293 Clouds 21 1016 81 10000 3.24 29 07:57 24.10.2022
1294 Clouds 22 1017 81 10000 3.04 37 00:50 24.10.2022
1295 Clouds 23 1016 79 10000 3.75 16 20:43 23.10.2022
1296 Clouds 24 1016 77 10000 3.51 25 19:42 23.10.2022
1297 Clouds 25 1016 74 10000 3.74 37 17:42 23.10.2022
1298 Clouds 25 1016 74 10000 3.74 37 17:42 23.10.2022
1299 Clouds 25 1016 73 10000 3.68 41 17:21 23.10.2022
1300 Clouds 25 1017 74 10000 3.91 40 15:19 23.10.2022
1301 Clouds 25 1019 74 10000 3.97 23 12:58 23.10.2022
1302 Clouds 23 1018 79 10000 3.47 14 10:58 23.10.2022
1303 Clouds 22 1017 83 10000 4.45 11 07:53 23.10.2022
1304 Clouds 23 1018 87 10000 4.93 357 23:39 22.10.2022
1305 Clouds 24 1018 85 10000 4.47 357 22:31 22.10.2022
1306 Clouds 24 1017 85 10000 4.61 356 21:41 22.10.2022
1307 Clouds 25 1017 84 10000 4.84 353 20:36 22.10.2022
1308 Clouds 25 1016 82 10000 4.21 3 19:32 22.10.2022
1309 Clouds 25 1016 79 10000 4.33 360 18:46 22.10.2022
1310 Clouds 26 1016 77 10000 4.96 357 17:35 22.10.2022
1311 Clouds 26 1017 75 10000 4.76 357 15:26 22.10.2022
1312 Clouds 26 1017 75 10000 4.76 357 14:36 22.10.2022
1313 Clouds 25 1018 75 10000 3.81 6 13:33 22.10.2022
1314 Clouds 21 1017 83 10000 3.07 20 09:50 22.10.2022
1315 Clouds 21 1017 85 10000 3.49 18 09:18 22.10.2022
1316 Clouds 22 1016 85 10000 3.9 11 06:59 22.10.2022
1317 Clouds 23 1017 82 10000 4.45 6 01:53 22.10.2022
1318 Clouds 23 1017 80 10000 4.84 354 23:33 21.10.2022
1319 Clouds 23 1017 83 10000 4.59 4 21:34 21.10.2022
1320 Clouds 24 1017 80 10000 3.84 11 20:49 21.10.2022
1321 Clouds 25 1016 75 10000 4.54 12 18:32 21.10.2022
1322 Clouds 26 1017 69 10000 3.41 37 15:26 21.10.2022
1323 Clouds 25 1018 69 10000 3.25 52 13:53 21.10.2022
1324 Clouds 23 1019 75 10000 3.08 45 11:56 21.10.2022
1325 Clouds 21 1018 81 10000 3.69 26 10:27 21.10.2022
1326 Clouds 20 1018 81 10000 3.69 26 09:37 21.10.2022
1327 Clouds 21 1017 80 10000 3.85 25 08:26 21.10.2022
1328 Clouds 21 1016 77 10000 3.45 26 05:57 21.10.2022
1329 Clear 22 1018 72 10000 4.24 355 23:59 20.10.2022
1330 Clear 22 1018 72 10000 4.24 355 23:59 20.10.2022
1331 Clear 23 1016 70 10000 3.37 359 21:23 20.10.2022
1332 Clouds 25 1016 69 10000 3.49 4 19:45 20.10.2022
1333 Clouds 25 1016 70 10000 2.88 21 19:45 20.10.2022
1334 Clouds 25 1016 69 10000 3.34 19 18:51 20.10.2022
1335 Clouds 25 1015 68 10000 3.58 18 17:48 20.10.2022
1336 Clouds 26 1016 67 10000 3.17 37 15:46 20.10.2022
1337 Clouds 24 1018 69 10000 3.35 18 12:33 20.10.2022
1338 Clouds 23 1018 70 10000 2.82 18 11:53 20.10.2022
1339 Clouds 22 1018 74 10000 2.55 9 10:56 20.10.2022
1340 Clouds 21 1018 78 10000 2.54 4 09:35 20.10.2022
1341 Clouds 21 1017 80 10000 4.07 353 07:44 20.10.2022
1342 Clouds 22 1017 85 10000 2.77 19 03:31 20.10.2022
1343 Clouds 22 1019 82 10000 4.2 6 23:53 19.10.2022
1344 Clouds 23 1019 80 10000 4.14 3 22:32 19.10.2022
1345 Clouds 23 1019 81 10000 3.5 2 21:39 19.10.2022
1346 Clouds 24 1019 80 10000 5.04 5 20:23 19.10.2022
1347 Clouds 26 1018 75 10000 4.57 10 17:52 19.10.2022
1348 Clouds 26 1019 73 10000 4.34 13 16:49 19.10.2022
1349 Clear 25 1020 73 10000 3.52 21 14:34 19.10.2022
1350 Clouds 25 1022 72 10000 4.48 20 12:40 19.10.2022
1351 Clouds 22 1021 79 10000 4.5 360 09:26 19.10.2022
1352 Clear 22 1020 77 10000 4.72 354 07:31 19.10.2022
1353 Clear 22 1021 74 10000 3.72 2 02:46 19.10.2022
1354 Clear 23 1022 74 10000 2.7 20 23:47 18.10.2022
1355 Clear 23 1022 75 10000 2.37 36 22:35 18.10.2022
1356 Clear 23 1022 77 10000 2.72 41 21:32 18.10.2022
1357 Clear 24 1022 73 10000 2.93 35 20:31 18.10.2022
1358 Clear 25 1021 68 10000 3.55 34 19:20 18.10.2022
1359 Clouds 26 1021 66 10000 3.97 48 16:58 18.10.2022
1360 Clear 26 1021 64 10000 3.28 42 15:36 18.10.2022
1361 Clouds 25 1023 68 10000 3.81 48 13:45 18.10.2022
1362 Clouds 23 1023 68 10000 3.37 53 11:48 18.10.2022
1363 Clouds 23 1022 68 10000 2.06 52 11:18 18.10.2022
1364 Clouds 22 1020 73 10000 4.11 2 09:26 18.10.2022
1365 Clouds 22 1020 72 10000 2.17 359 06:56 18.10.2022
1366 Clouds 23 1020 76 10000 1.75 52 23:40 17.10.2022
1367 Clouds 24 1019 75 10000 2.35 33 21:35 17.10.2022
1368 Clouds 24 1019 74 10000 2.52 17 20:49 17.10.2022
1369 Clouds 25 1018 72 10000 2.17 25 20:29 17.10.2022
1370 Clouds 25 1018 72 10000 2.17 25 19:42 17.10.2022
1371 Clouds 24 1018 71 10000 2.88 91 17:53 17.10.2022
1372 Clouds 24 1018 68 10000 2.86 80 16:22 17.10.2022
1373 Clouds 25 1018 67 10000 2.8 79 15:20 17.10.2022
1374 Clouds 24 1019 69 10000 2.46 85 12:52 17.10.2022
1375 Clouds 20 1017 79 10000 1.08 52 09:28 17.10.2022
1376 Clouds 22 1016 78 10000 1.21 21 02:37 17.10.2022
1377 Clouds 23 1016 77 10000 3.33 331 22:54 16.10.2022
1378 Clouds 23 1016 77 10000 3.33 331 22:54 16.10.2022
1379 Clouds 23 1014 75 10000 3.63 331 21:22 16.10.2022
1380 Clouds 23 1014 75 10000 3.63 331 21:22 16.10.2022
1381 Clouds 25 1013 72 10000 3.39 339 19:52 16.10.2022
1382 Clouds 25 1013 72 10000 3.39 339 19:33 16.10.2022
1383 Clouds 26 1012 69 10000 3.61 338 17:46 16.10.2022
1384 Clouds 25 1012 69 10000 3.81 341 16:32 16.10.2022
1385 Clear 26 1013 68 10000 3.85 342 15:55 16.10.2022
1386 Clear 24 1014 71 10000 2.78 330 12:34 16.10.2022
1387 Clear 24 1014 73 10000 2.31 324 11:38 16.10.2022
1388 Clear 22 1013 79 10000 1.52 333 10:26 16.10.2022
1389 Clouds 21 1012 81 10000 2.82 328 07:20 16.10.2022
1390 Clouds 23 1014 86 10000 4.38 353 23:43 15.10.2022
1391 Clear 23 1013 85 10000 4.33 1 21:54 15.10.2022
1392 Clear 23 1013 83 10000 3.77 8 21:19 15.10.2022
1393 Clouds 25 1013 77 10000 3.16 11 19:32 15.10.2022
1394 Clouds 25 1014 77 10000 4.01 41 17:24 15.10.2022
1395 Clouds 25 1014 77 10000 4.01 41 17:24 15.10.2022
1396 Clouds 25 1014 78 10000 4.02 30 15:45 15.10.2022
1397 Clouds 25 1016 77 10000 4.03 31 13:27 15.10.2022
1398 Clouds 24 1016 77 10000 4.06 37 11:43 15.10.2022
1399 Clouds 22 1016 81 10000 3.46 32 09:43 15.10.2022
1400 Clouds 22 1015 84 10000 4.54 36 07:38 15.10.2022
1401 Clouds 23 1017 86 10000 5.31 6 00:40 15.10.2022
1402 Clouds 23 1017 85 10000 6 4 22:58 14.10.2022
1403 Clouds 23 1017 84 10000 6.22 5 22:22 14.10.2022
1404 Clouds 24 1017 85 10000 6.6 6 20:51 14.10.2022
1405 Clouds 25 1016 85 10000 7.07 2 18:51 14.10.2022
1406 Clouds 26 1017 81 10000 7.11 7 16:19 14.10.2022
1407 Clouds 25 1019 80 10000 6.33 5 12:57 14.10.2022
1408 Clouds 24 1019 82 10000 6.28 13 11:26 14.10.2022
1409 Clouds 23 1018 85 10000 7.72 10 08:29 14.10.2022
1410 Clouds 23 1018 85 10000 8 10 06:47 14.10.2022
1411 Clouds 23 1018 86 10000 8.14 10 06:18 14.10.2022
1412 Clouds 23 1018 86 10000 8.14 10 05:42 14.10.2022
1413 Clouds 23 1020 85 10000 8.36 6 03:19 14.10.2022
1414 Clouds 23 1021 84 10000 8.16 8 23:42 13.10.2022
1415 Clouds 23 1021 83 10000 8.27 2 21:43 13.10.2022
1416 Clouds 24 1020 82 10000 7.94 3 20:44 13.10.2022
1417 Clouds 24 1020 79 10000 7.55 2 19:43 13.10.2022
1418 Clouds 25 1019 77 10000 7.41 7 18:52 13.10.2022
1419 Clouds 25 1019 76 10000 7.33 12 18:21 13.10.2022
1420 Clouds 26 1020 74 10000 7.02 15 15:50 13.10.2022
1421 Clouds 26 1021 75 10000 6.74 15 15:28 13.10.2022
1422 Clouds 25 1021 76 10000 7.37 19 13:54 13.10.2022
1423 Clouds 25 1022 77 10000 7.62 20 12:42 13.10.2022
1424 Clouds 23 1021 80 10000 7.16 24 10:58 13.10.2022
1425 Clouds 22 1020 79 10000 6.66 18 08:34 13.10.2022
1426 Clouds 22 1020 79 10000 6.57 20 07:37 13.10.2022
1427 Clouds 23 1020 77 10000 7.17 24 04:25 13.10.2022
1428 Clouds 23 1020 79 10000 7.44 21 01:40 13.10.2022
1429 Clouds 23 1021 80 10000 7.6 18 00:34 13.10.2022
1430 Clouds 23 1020 80 10000 7.15 7 22:45 12.10.2022
1431 Clouds 23 1020 79 10000 7.29 5 21:46 12.10.2022
1432 Clouds 23 1019 78 10000 7.38 6 21:19 12.10.2022
1433 Clouds 24 1019 78 10000 7.38 6 20:33 12.10.2022
1434 Clouds 25 1018 74 10000 8.09 1 19:22 12.10.2022
1435 Clouds 26 1018 73 10000 7.82 359 17:55 12.10.2022
1436 Clouds 27 1019 72 10000 7.54 357 16:59 12.10.2022
1437 Clouds 26 1020 73 10000 7.3 357 14:27 12.10.2022
1438 Clouds 25 1020 73 10000 7.3 357 13:53 12.10.2022
1439 Clouds 23 1021 75 10000 7.42 358 11:47 12.10.2022
1440 Clouds 21 1020 82 10000 7.41 351 09:27 12.10.2022
1441 Clouds 21 1019 82 10000 6.84 344 07:42 12.10.2022
1442 Clouds 21 1019 77 10000 6.23 346 06:44 12.10.2022
1443 Clouds 21 1020 72 10000 6.13 355 05:27 12.10.2022
1444 Clouds 22 1021 77 10000 6.15 6 23:56 11.10.2022
1445 Clouds 23 1020 79 10000 6.31 11 21:25 11.10.2022
1446 Clouds 24 1020 78 10000 5.92 10 20:26 11.10.2022
1447 Clouds 24 1019 79 10000 7.01 9 18:25 11.10.2022
1448 Clouds 25 1020 81 10000 6.52 13 16:24 11.10.2022
1449 Rain 26 1021 81 10000 5.68 10 13:44 11.10.2022
1450 Clouds 22 1021 83 10000 5.69 0 10:48 11.10.2022
1451 Clouds 22 1020 83 10000 5.33 360 10:26 11.10.2022
1452 Clouds 22 1019 84 10000 4.44 0 08:46 11.10.2022
1453 Clear 21 1020 80 10000 4.42 14 04:23 11.10.2022
1454 Clouds 22 1021 78 10000 5.01 13 00:47 11.10.2022
1455 Clouds 22 1021 77 10000 4.92 15 23:52 10.10.2022
1456 Clouds 23 1020 77 10000 5.75 12 21:18 10.10.2022
1457 Clouds 24 1020 76 10000 5.85 8 19:43 10.10.2022
1458 Clouds 25 1019 74 10000 5.42 14 17:52 10.10.2022
1459 Clouds 26 1019 73 10000 4.98 20 16:37 10.10.2022
1460 Clouds 25 1020 72 10000 5.03 26 14:31 10.10.2022
1461 Clouds 24 1021 75 10000 5.39 25 12:24 10.10.2022
1462 Clouds 23 1020 78 10000 5.09 27 10:20 10.10.2022
1463 Clouds 23 1019 79 10000 5.12 31 07:41 10.10.2022
1464 Clouds 22 1019 80 10000 5.5 27 05:37 10.10.2022
1465 Clouds 23 1020 81 10000 5.04 26 01:58 10.10.2022
1466 Clouds 23 1021 79 10000 5.17 27 00:24 10.10.2022
1467 Clouds 23 1020 80 10000 5.49 27 22:27 09.10.2022
1468 Clouds 24 1020 80 10000 5.49 27 21:49 09.10.2022
1469 Clouds 24 1019 82 10000 5.28 26 20:50 09.10.2022
1470 Clouds 24 1018 83 10000 5.16 21 19:53 09.10.2022
1471 Clouds 24 1018 83 10000 5.67 20 19:20 09.10.2022
1472 Clouds 25 1017 81 10000 5.24 23 18:27 09.10.2022
1473 Clouds 25 1017 79 10000 5.29 25 16:56 09.10.2022
1474 Clouds 26 1018 79 10000 5.47 27 16:25 09.10.2022
1475 Clouds 26 1018 79 10000 5.47 27 15:33 09.10.2022
1476 Clouds 26 1019 80 10000 5.34 18 14:28 09.10.2022
1477 Clouds 26 1019 80 10000 5.34 18 14:28 09.10.2022
1478 Clouds 25 1019 80 10000 5.55 14 12:57 09.10.2022
1479 Clouds 24 1019 81 10000 5.57 19 11:42 09.10.2022
1480 Clouds 23 1017 84 10000 5.07 19 09:57 09.10.2022
1481 Clouds 23 1016 86 10000 5.73 8 07:52 09.10.2022
1482 Clouds 23 1016 85 10000 5.97 8 03:33 09.10.2022
1483 Clouds 23 1016 86 10000 5.67 7 02:23 09.10.2022
1484 Clouds 23 1017 83 10000 6.61 4 23:56 08.10.2022
1485 Clouds 23 1017 82 10000 6.6 4 22:53 08.10.2022
1486 Clouds 24 1016 82 10000 6.43 2 21:43 08.10.2022
1487 Clouds 25 1015 81 10000 6.28 3 19:57 08.10.2022
1488 Clouds 24 1015 79 10000 6.27 2 18:24 08.10.2022
1489 Clouds 25 1015 79 10000 6.38 358 15:56 08.10.2022
1490 Clouds 25 1015 78 10000 7.19 355 14:32 08.10.2022
1491 Clouds 24 1016 76 10000 6.37 356 12:31 08.10.2022
1492 Clouds 23 1016 78 10000 5.91 357 10:37 08.10.2022
1493 Clouds 23 1016 78 10000 5.91 357 10:37 08.10.2022
1494 Clouds 23 1015 82 10000 6.05 355 09:50 08.10.2022
1495 Clouds 23 1014 85 10000 5.94 353 08:38 08.10.2022
1496 Clouds 23 1015 86 10000 6.46 1 03:50 08.10.2022
1497 Clouds 24 1016 84 10000 6.69 351 00:35 08.10.2022
1498 Clouds 24 1016 82 10000 6.87 348 23:21 07.10.2022
1499 Clouds 24 1016 82 10000 6.87 348 22:39 07.10.2022
1500 Clouds 24 1015 80 10000 6.82 346 20:50 07.10.2022
1501 Clouds 26 1015 78 10000 6.57 346 19:32 07.10.2022
1502 Clouds 27 1015 75 10000 6.71 345 17:47 07.10.2022
1503 Clouds 26 1015 73 10000 6.52 348 16:40 07.10.2022
1504 Clouds 27 1016 73 10000 6.84 346 14:54 07.10.2022
1505 Clouds 25 1017 74 10000 6.84 349 12:35 07.10.2022
1506 Clouds 22 1016 79 10000 7.69 354 09:28 07.10.2022
1507 Clouds 22 1016 79 10000 7.69 354 08:56 07.10.2022
1508 Clouds 22 1016 81 10000 7.9 350 06:58 07.10.2022
1509 Clouds 23 1018 78 10000 6.53 349 01:34 07.10.2022
1510 Clouds 24 1019 76 10000 6.86 351 22:51 06.10.2022
1511 Clouds 23 1018 75 10000 6.76 349 21:46 06.10.2022
1512 Clouds 24 1018 74 10000 6.59 348 21:25 06.10.2022
1513 Clouds 25 1018 70 10000 6.94 348 20:30 06.10.2022
1514 Clouds 26 1017 69 10000 6.65 354 18:38 06.10.2022
1515 Clouds 26 1017 68 10000 6.65 351 18:19 06.10.2022
1516 Clouds 27 1018 69 10000 7.21 357 15:33 06.10.2022
1517 Clouds 24 1020 75 10000 8.02 355 11:45 06.10.2022
1518 Clouds 23 1020 83 10000 7.92 353 07:35 06.10.2022
1519 Clouds 23 1021 86 10000 6.96 2 03:38 06.10.2022
1520 Clouds 23 1022 83 10000 5.47 0 00:39 06.10.2022
1521 Clouds 24 1021 77 10000 5.22 8 21:41 05.10.2022
1522 Clouds 27 1020 69 10000 4.79 12 19:30 05.10.2022
1523 Clouds 29 1020 66 10000 4.66 22 17:36 05.10.2022
1524 Clouds 29 1020 62 10000 4.21 29 16:20 05.10.2022
1525 Clouds 29 1021 67 10000 4.24 36 14:47 05.10.2022
1526 Clouds 28 1021 67 10000 4.28 41 14:19 05.10.2022
1527 Clouds 28 1021 66 10000 4.42 39 14:19 05.10.2022
1528 Clouds 27 1021 70 10000 4 34 12:25 05.10.2022
1529 Clouds 24 1021 71 10000 4.19 19 09:39 05.10.2022
1530 Clouds 24 1020 69 10000 3.65 25 07:44 05.10.2022
1531 Clouds 24 1020 70 10000 3.64 26 06:21 05.10.2022
1532 Clouds 24 1020 67 10000 2.98 17 04:27 05.10.2022
1533 Clouds 23 1022 70 10000 2.35 8 00:53 05.10.2022
1534 Clouds 24 1022 76 10000 3.53 17 00:27 05.10.2022
1535 Clouds 26 1022 76 10000 4.94 22 22:39 04.10.2022
1536 Clouds 27 1020 69 10000 4.12 14 20:40 04.10.2022
1537 Clouds 28 1019 68 10000 3.56 28 19:42 04.10.2022
1538 Clouds 28 1019 68 10000 3.42 22 18:39 04.10.2022
1539 Clouds 29 1019 68 10000 3.54 27 17:50 04.10.2022
1540 Clouds 28 1019 65 10000 4.05 42 16:36 04.10.2022
1541 Clouds 28 1020 64 10000 2.85 47 13:19 04.10.2022
1542 Clouds 23 1019 63 10000 1.96 50 09:47 04.10.2022
1543 Clouds 23 1018 73 10000 2.32 44 07:34 04.10.2022
1544 Clouds 24 1019 76 10000 3.69 26 02:32 04.10.2022
1545 Clouds 24 1020 76 10000 2.92 18 23:41 03.10.2022
1546 Clouds 24 1020 76 10000 3.1 27 21:55 03.10.2022
1547 Clouds 25 1019 77 10000 3.1 28 21:23 03.10.2022
1548 Clouds 25 1018 73 10000 3.24 44 20:29 03.10.2022
1549 Clouds 26 1018 69 10000 3.19 56 18:46 03.10.2022
1550 Clouds 27 1018 66 10000 3.48 64 17:28 03.10.2022
1551 Clouds 27 1019 66 10000 3.58 63 15:49 03.10.2022
1552 Clear 26 1020 65 10000 3.58 58 14:21 03.10.2022
1553 Clear 25 1020 66 10000 3.54 50 12:31 03.10.2022
1554 Clear 23 1019 70 10000 3.38 45 10:40 03.10.2022
1555 Clear 22 1019 73 10000 3.28 44 09:40 03.10.2022
1556 Clear 23 1018 77 10000 3.2 49 07:31 03.10.2022
1557 Clear 22 1018 80 10000 3.11 36 03:38 03.10.2022
1558 Clear 23 1018 78 10000 3.45 31 22:50 02.10.2022
1559 Clear 23 1017 76 10000 3.22 40 21:26 02.10.2022
1560 Clear 25 1016 70 10000 3.38 43 19:29 02.10.2022
1561 Clear 25 1016 70 10000 3.54 45 17:54 02.10.2022
1562 Clear 25 1017 70 10000 3.74 41 16:48 02.10.2022
1563 Clear 26 1017 68 10000 3.69 46 16:26 02.10.2022
1564 Clear 26 1017 67 10000 3.38 50 14:53 02.10.2022
1565 Clouds 24 1018 68 10000 2.57 50 13:45 02.10.2022
1566 Clouds 24 1018 71 10000 2.71 51 12:38 02.10.2022
1567 Clouds 23 1018 74 10000 3.21 50 11:41 02.10.2022
1568 Clouds 23 1017 75 10000 3.46 42 11:23 02.10.2022
1569 Clouds 22 1017 77 10000 3.57 35 09:45 02.10.2022
1570 Clouds 21 1016 77 10000 3.76 24 08:23 02.10.2022
1571 Clouds 22 1016 78 10000 4.79 26 03:52 02.10.2022
1572 Clouds 22 1017 77 10000 5.82 24 00:52 02.10.2022
1573 Clouds 23 1017 77 10000 5.82 24 00:32 02.10.2022
1574 Clouds 23 1017 75 10000 5.88 24 23:24 01.10.2022
1575 Clouds 23 1017 77 10000 6.09 27 20:55 01.10.2022
1576 Clouds 24 1016 74 10000 5.75 19 18:53 01.10.2022
1577 Clouds 25 1016 69 10000 6.09 24 17:22 01.10.2022
1578 Clouds 25 1017 68 10000 6.97 26 14:43 01.10.2022
1579 Clouds 25 1018 67 10000 7.34 27 13:35 01.10.2022
1580 Clouds 24 1018 67 10000 7.34 24 12:33 01.10.2022
1581 Clouds 23 1018 66 10000 8 19 11:21 01.10.2022
1582 Clouds 22 1018 66 10000 8 19 10:38 01.10.2022
1583 Clouds 22 1018 66 10000 7.81 17 10:20 01.10.2022
1584 Clouds 21 1018 66 10000 7.67 18 08:59 01.10.2022
1585 Clouds 21 1017 69 10000 6.85 16 07:30 01.10.2022
1586 Clouds 22 1017 73 10000 8.09 14 03:36 01.10.2022
1587 Clouds 22 1018 74 10000 7.65 6 01:22 01.10.2022
1588 Clouds 22 1018 74 10000 7.65 6 01:22 01.10.2022
1589 Clouds 22 1018 79 10000 8.35 7 22:56 30.09.2022
1590 Clouds 23 1018 78 10000 8.11 4 21:44 30.09.2022
1591 Clouds 23 1017 79 10000 8.29 360 20:45 30.09.2022
1592 Clouds 23 1017 77 10000 8.28 3 20:20 30.09.2022
1593 Clouds 25 1016 76 10000 7.45 360 17:41 30.09.2022
1594 Clouds 25 1017 77 10000 7.21 355 16:29 30.09.2022
1595 Clouds 26 1018 72 10000 7.04 355 14:21 30.09.2022
1596 Clouds 24 1019 71 10000 6.7 357 12:24 30.09.2022
1597 Clouds 24 1019 71 10000 6.7 357 11:48 30.09.2022
1598 Clouds 21 1017 74 10000 6.89 352 08:38 30.09.2022
1599 Clouds 22 1017 70 10000 6.98 4 06:29 30.09.2022
1600 Clouds 22 1018 71 10000 7.26 360 02:45 30.09.2022
1601 Clouds 23 1019 72 10000 7.77 355 00:35 30.09.2022
1602 Clouds 23 1019 73 10000 7.14 4 21:39 29.09.2022
1603 Clouds 24 1018 71 10000 6.86 2 21:18 29.09.2022
1604 Clouds 25 1017 71 10000 6.63 8 18:48 29.09.2022
1605 Clouds 25 1017 70 10000 6.25 4 17:45 29.09.2022
1606 Clouds 26 1018 68 10000 5.44 19 16:28 29.09.2022
1607 Clouds 26 1018 68 10000 5.44 19 15:36 29.09.2022
1608 Clouds 26 1019 67 10000 5.46 21 14:54 29.09.2022
1609 Clouds 24 1020 73 10000 5.75 19 11:53 29.09.2022
1610 Clouds 22 1019 77 10000 5.86 13 07:31 29.09.2022
1611 Clouds 22 1020 79 10000 5.95 24 02:55 29.09.2022
1612 Clouds 23 1021 78 10000 5.71 18 00:28 29.09.2022
1613 Clouds 23 1021 78 10000 5.64 19 23:19 28.09.2022
1614 Clouds 23 1020 79 10000 5.57 23 21:30 28.09.2022
1615 Clouds 23 1020 79 10000 5.47 28 20:45 28.09.2022
1616 Clouds 25 1019 76 10000 5.65 28 18:53 28.09.2022
1617 Clouds 26 1020 75 10000 5.45 39 15:46 28.09.2022
1618 Clouds 25 1021 77 10000 5.35 59 13:28 28.09.2022
1619 Clouds 24 1021 78 10000 5.85 51 11:34 28.09.2022
1620 Clouds 23 1020 80 10000 5.84 48 09:26 28.09.2022
1621 Clouds 22 1020 80 10000 6.08 42 07:40 28.09.2022
1622 Clouds 22 1020 81 10000 5.86 51 05:31 28.09.2022
1623 Clouds 23 1022 81 10000 5.66 60 01:40 28.09.2022
1624 Clouds 23 1022 79 10000 6.57 63 23:30 27.09.2022
1625 Clouds 23 1021 77 10000 6.21 54 21:55 27.09.2022
1626 Clouds 23 1021 77 10000 6.43 48 20:49 27.09.2022
1627 Clouds 24 1021 77 10000 6.01 45 20:19 27.09.2022
1628 Clouds 24 1021 77 10000 6.01 45 19:36 27.09.2022
1629 Clouds 24 1019 78 10000 7.25 54 17:46 27.09.2022
1630 Clouds 25 1020 77 10000 6.75 49 16:20 27.09.2022
1631 Clouds 25 1020 77 10000 6.8 45 14:59 27.09.2022
1632 Clouds 25 1021 76 10000 6.51 60 13:32 27.09.2022
1633 Clouds 25 1021 79 10000 7.12 66 12:23 27.09.2022
1634 Clouds 21 1020 80 10000 6.57 58 09:49 27.09.2022
1635 Clouds 21 1018 80 10000 6.4 52 07:38 27.09.2022
1636 Clouds 21 1018 82 10000 6.14 68 02:59 27.09.2022
1637 Clouds 21 1018 81 10000 6.05 67 01:35 27.09.2022
1638 Clouds 21 1018 82 10000 6.93 58 23:39 26.09.2022
1639 Clouds 21 1018 83 10000 7.23 56 23:20 26.09.2022
1640 Clouds 22 1017 83 10000 6.38 61 20:48 26.09.2022
1641 Clouds 22 1017 83 10000 6.55 58 19:34 26.09.2022
1642 Clouds 22 1016 82 10000 6.4 55 18:35 26.09.2022
1643 Clouds 23 1015 84 10000 6 57 17:24 26.09.2022
1644 Clouds 24 1016 89 10000 6.2 71 14:48 26.09.2022
1645 Rain 23 1016 90 10000 6.68 73 11:37 26.09.2022
1646 Rain 22 1015 90 10000 6.71 72 10:41 26.09.2022
1647 Rain 22 1014 91 9012 6.5 69 10:22 26.09.2022
1648 Clouds 22 1014 91 9012 6.5 69 09:56 26.09.2022
1649 Rain 22 1014 91 9986 6.67 71 09:25 26.09.2022
1650 Rain 22 1014 91 10000 6.81 71 08:58 26.09.2022
1651 Clouds 21 1014 90 10000 6.03 63 02:59 26.09.2022
1652 Clouds 21 1014 90 10000 5.89 70 01:31 26.09.2022
1653 Clouds 22 1014 91 10000 5.91 68 23:20 25.09.2022
1654 Clouds 22 1014 92 10000 5.72 71 21:44 25.09.2022
1655 Clouds 22 1013 92 10000 5.82 80 20:57 25.09.2022
1656 Clouds 22 1013 91 10000 6.31 68 20:31 25.09.2022
1657 Clouds 21 1013 92 10000 5.86 65 18:44 25.09.2022
1658 Rain 21 1012 93 5409 5.71 65 18:21 25.09.2022
1659 Clouds 21 1012 95 8529 5.96 68 16:55 25.09.2022
1660 Clouds 21 1013 95 2792 5.23 68 15:46 25.09.2022
1661 Clouds 21 1013 93 6097 6.07 79 14:31 25.09.2022
1662 Clouds 21 1013 93 6097 6.07 79 14:31 25.09.2022
1663 Clouds 21 1013 92 7689 4.85 85 13:45 25.09.2022
1664 Clouds 22 1014 90 10000 3.36 89 10:37 25.09.2022
1665 Clouds 22 1013 92 10000 4.04 95 09:21 25.09.2022
1666 Clouds 22 1014 92 10000 3.56 79 06:28 25.09.2022
1667 Clouds 23 1014 92 10000 4.81 67 03:40 25.09.2022
1668 Clouds 22 1017 93 10000 3.5 71 23:36 24.09.2022
1669 Clouds 22 1016 94 3897 2.83 68 21:19 24.09.2022
1670 Clouds 22 1016 92 5537 3.51 71 19:24 24.09.2022
1671 Clouds 22 1016 91 5676 3.76 54 18:25 24.09.2022
1672 Clouds 23 1016 90 9008 4.54 43 16:37 24.09.2022
1673 Clouds 24 1017 85 10000 4.35 34 15:23 24.09.2022
1674 Clouds 23 1018 81 10000 4.17 31 14:18 24.09.2022
1675 Clouds 22 1018 81 10000 4.88 14 12:59 24.09.2022
1676 Clouds 22 1017 82 10000 5.46 9 12:22 24.09.2022
1677 Clouds 23 1017 84 10000 4.17 32 09:58 24.09.2022
1678 Clouds 23 1017 87 10000 3.71 27 08:51 24.09.2022
1679 Clouds 23 1017 89 9661 2.67 48 07:39 24.09.2022
1680 Clouds 23 1016 82 10000 5.2 48 04:50 24.09.2022
1681 Clouds 24 1016 82 10000 5.36 46 03:44 24.09.2022
1682 Clouds 24 1017 79 10000 5.88 21 22:48 23.09.2022
1683 Clouds 24 1017 79 10000 5.62 17 21:32 23.09.2022
1684 Clouds 24 1017 79 10000 5.27 22 20:57 23.09.2022
1685 Clouds 25 1017 80 10000 4.5 37 20:23 23.09.2022
1686 Clouds 26 1016 80 10000 4.72 48 18:51 23.09.2022
1687 Clouds 27 1018 78 10000 4.65 41 15:29 23.09.2022
1688 Clouds 25 1019 82 10000 4.73 46 11:28 23.09.2022
1689 Clouds 23 1018 82 10000 5.14 46 09:36 23.09.2022
1690 Clouds 23 1016 79 10000 6.21 36 06:39 23.09.2022
1691 Clouds 24 1018 81 10000 6.37 40 00:41 23.09.2022
1692 Clouds 24 1018 82 10000 6.39 32 23:22 22.09.2022
1693 Clouds 24 1018 81 10000 6.54 31 22:27 22.09.2022
1694 Clouds 25 1017 80 10000 6.47 31 21:18 22.09.2022
1695 Clouds 26 1017 79 10000 6.2 31 19:58 22.09.2022
1696 Clouds 28 1017 75 10000 5.5 39 17:28 22.09.2022
1697 Clouds 26 1018 76 10000 5.66 49 13:20 22.09.2022
1698 Clouds 24 1018 79 10000 5.89 44 10:36 22.09.2022
1699 Clouds 23 1018 81 10000 5.88 40 08:58 22.09.2022
1700 Clouds 23 1017 82 10000 6.08 35 06:57 22.09.2022
1701 Clouds 23 1017 82 10000 6.07 32 04:36 22.09.2022
1702 Clouds 24 1018 81 10000 5.3 25 23:32 21.09.2022
1703 Clouds 24 1018 80 10000 4.73 30 21:51 21.09.2022
1704 Clouds 25 1017 80 10000 4.45 33 20:40 21.09.2022
1705 Clouds 27 1016 76 10000 4.46 41 17:50 21.09.2022
1706 Clouds 27 1017 75 10000 4.51 48 16:55 21.09.2022
1707 Clouds 25 1018 74 10000 4.43 47 14:46 21.09.2022
1708 Clouds 26 1018 76 10000 4.67 44 13:24 21.09.2022
1709 Clouds 25 1018 77 10000 4.58 37 11:30 21.09.2022
1710 Clouds 24 1018 78 10000 4.57 34 10:33 21.09.2022
1711 Clouds 23 1017 80 10000 4.55 26 09:24 21.09.2022
1712 Clouds 23 1016 81 10000 4.61 29 07:58 21.09.2022
1713 Clouds 23 1017 81 10000 3.94 31 02:51 21.09.2022
1714 Clouds 23 1017 80 10000 3.77 35 02:29 21.09.2022
1715 Clouds 23 1017 80 10000 3.61 39 00:57 21.09.2022
1716 Clouds 24 1018 80 10000 3.81 49 23:19 20.09.2022
1717 Clouds 24 1016 79 10000 3.53 34 21:21 20.09.2022
1718 Clouds 26 1016 78 10000 3.56 31 19:43 20.09.2022
1719 Clouds 26 1016 77 10000 3.32 56 16:41 20.09.2022
1720 Clouds 26 1016 76 10000 3.43 61 14:51 20.09.2022
1721 Clouds 26 1017 75 10000 3.17 64 13:52 20.09.2022
1722 Clouds 22 1017 80 10000 2.93 67 10:41 20.09.2022
1723 Clouds 22 1015 83 10000 2.98 53 08:29 20.09.2022
1724 Clouds 22 1015 84 10000 2.51 45 06:22 20.09.2022
1725 Clouds 23 1015 83 10000 2.35 49 04:28 20.09.2022
1726 Clouds 24 1016 80 10000 2.45 26 23:32 19.09.2022
1727 Clouds 24 1016 77 10000 1.98 5 22:23 19.09.2022
1728 Clouds 23 1015 76 10000 1.73 20 20:57 19.09.2022
1729 Clouds 25 1015 76 10000 1.73 20 20:38 19.09.2022
1730 Rain 25 1014 74 10000 1.38 46 17:46 19.09.2022
1731 Clouds 25 1015 76 10000 1.35 65 15:37 19.09.2022
1732 Rain 25 1015 76 10000 1.47 46 13:35 19.09.2022
1733 Clouds 24 1015 79 10000 0.68 90 11:29 19.09.2022
1734 Clear 21 1014 85 10000 0.64 57 08:51 19.09.2022
1735 Clear 22 1013 86 10000 1.05 16 08:18 19.09.2022
1736 Clouds 22 1014 81 10000 2.36 340 02:18 19.09.2022
1737 Clouds 23 1014 81 10000 2.99 341 23:24 18.09.2022
1738 Clouds 23 1013 81 10000 3.38 344 21:45 18.09.2022
1739 Clouds 23 1012 79 10000 3.55 343 20:33 18.09.2022
1740 Clouds 22 1011 77 10000 3.02 353 18:34 18.09.2022
1741 Clouds 22 1011 76 10000 2.67 350 17:39 18.09.2022
1742 Clouds 25 1012 78 10000 2.47 335 15:56 18.09.2022
1743 Clouds 25 1012 79 10000 3.43 333 14:30 18.09.2022
1744 Clouds 25 1013 77 10000 3.58 325 12:36 18.09.2022
1745 Clouds 26 1013 78 10000 3.8 314 11:39 18.09.2022
1746 Clear 23 1012 87 10000 6.76 313 05:24 18.09.2022
1747 Clear 25 1014 84 10000 6.29 308 01:27 18.09.2022
1748 Clear 24 1015 83 10000 6.35 312 00:27 18.09.2022
1749 Clear 25 1014 80 10000 6.68 314 21:52 17.09.2022
1750 Clouds 26 1013 74 10000 7.09 324 19:51 17.09.2022
1751 Clouds 26 1013 72 10000 7.25 328 18:59 17.09.2022
1752 Clouds 30 1014 71 10000 7.1 331 16:52 17.09.2022
1753 Clouds 29 1016 73 10000 6.96 336 13:57 17.09.2022
1754 Clouds 26 1016 75 10000 7.52 337 11:55 17.09.2022
1755 Clouds 24 1016 81 10000 7.51 328 09:37 17.09.2022
1756 Clouds 24 1015 83 10000 6.89 338 06:27 17.09.2022
1757 Rain 24 1017 85 10000 8.11 341 02:34 17.09.2022
1758 Clouds 25 1019 82 10000 8.31 343 22:56 16.09.2022
1759 Clouds 25 1017 80 10000 8.15 343 21:29 16.09.2022
1760 Clouds 27 1017 77 10000 7.9 346 20:24 16.09.2022
1761 Clouds 28 1017 74 10000 7.61 343 17:50 16.09.2022
1762 Clouds 29 1018 72 10000 6.97 348 15:43 16.09.2022
1763 Clouds 28 1019 74 10000 6.76 353 14:28 16.09.2022
1764 Clouds 26 1019 78 10000 6.91 358 11:45 16.09.2022
1765 Rain 24 1018 88 10000 7.63 356 08:53 16.09.2022
1766 Rain 24 1017 87 10000 6.97 337 07:19 16.09.2022
1767 Rain 24 1017 87 10000 6.97 337 06:47 16.09.2022
1768 Clouds 25 1019 87 10000 7.05 348 02:59 16.09.2022
1769 Clear 24 1020 82 10000 7.16 348 23:48 15.09.2022
1770 Clear 25 1018 77 10000 6.74 352 21:19 15.09.2022
1771 Clouds 27 1018 73 10000 6.83 355 19:57 15.09.2022
1772 Clouds 28 1018 71 10000 6.84 354 18:30 15.09.2022
1773 Clouds 28 1019 70 10000 6.4 351 17:33 15.09.2022
1774 Clouds 28 1019 71 10000 5.92 353 16:51 15.09.2022
1775 Clouds 27 1020 69 10000 5.5 358 14:41 15.09.2022
1776 Clear 27 1021 71 10000 5.91 3 12:29 15.09.2022
1777 Clear 24 1020 75 10000 5.93 5 10:21 15.09.2022
1778 Clouds 23 1019 78 10000 5.41 358 07:51 15.09.2022
1779 Clouds 24 1019 79 10000 5.59 352 03:56 15.09.2022
1780 Clouds 24 1019 82 10000 5.7 354 01:20 15.09.2022
1781 Clouds 25 1018 82 10000 6.28 341 21:54 14.09.2022
1782 Clouds 27 1016 77 10000 6.39 344 19:55 14.09.2022
1783 Clouds 28 1016 75 10000 6.51 345 19:20 14.09.2022
1784 Clouds 26 1016 74 10000 4.72 352 16:57 14.09.2022
1785 Clouds 27 1016 73 10000 4 357 15:38 14.09.2022
1786 Clouds 27 1017 76 10000 4.26 340 13:54 14.09.2022
1787 Clouds 26 1017 79 10000 4.44 328 11:30 14.09.2022
1788 Clouds 23 1016 81 10000 3.38 328 09:48 14.09.2022
1789 Clear 22 1015 83 10000 3.28 337 07:29 14.09.2022
1790 Clear 22 1015 83 10000 3.28 337 06:46 14.09.2022
1791 Clear 22 1015 81 10000 4.48 331 04:24 14.09.2022
1792 Clouds 23 1016 81 10000 4.28 328 01:46 14.09.2022
1793 Clouds 23 1016 82 10000 4.24 328 01:27 14.09.2022
1794 Clouds 23 1016 82 10000 4.24 328 01:27 14.09.2022
1795 Clouds 24 1016 82 10000 4.24 328 00:42 14.09.2022
1796 Clouds 24 1016 81 10000 4.18 329 23:54 13.09.2022
1797 Clouds 25 1016 81 10000 4.18 329 23:36 13.09.2022
1798 Clouds 25 1016 81 10000 4.39 333 23:18 13.09.2022
1799 Clouds 26 1015 80 10000 4.55 336 21:45 13.09.2022
1800 Clouds 26 1014 78 10000 4.69 341 19:38 13.09.2022
1801 Clouds 27 1014 77 10000 4.71 350 17:41 13.09.2022
1802 Clouds 27 1015 76 10000 4.16 342 15:54 13.09.2022
1803 Clouds 26 1015 75 10000 4.04 340 14:31 13.09.2022
1804 Clouds 28 1016 76 10000 4.21 337 12:30 13.09.2022
1805 Clouds 24 1014 84 10000 4.45 329 08:34 13.09.2022
1806 Clouds 24 1013 85 10000 4.59 333 04:32 13.09.2022
1807 Clouds 25 1014 88 10000 4.28 331 23:37 12.09.2022
1808 Clouds 26 1014 87 10000 4.01 333 22:49 12.09.2022
1809 Clouds 26 1013 85 10000 3.42 327 21:36 12.09.2022
1810 Clouds 26 1013 81 10000 2.96 322 20:25 12.09.2022
1811 Clouds 26 1013 76 10000 2.58 321 18:43 12.09.2022
1812 Clouds 28 1014 71 10000 0.69 270 16:23 12.09.2022
1813 Clouds 26 1014 72 10000 0.74 178 13:41 12.09.2022
1814 Clouds 25 1014 78 10000 0.83 250 11:22 12.09.2022
1815 Clouds 22 1014 82 10000 1.22 255 09:45 12.09.2022
1816 Clouds 23 1013 86 10000 2.29 324 04:49 12.09.2022
1817 Clouds 23 1013 86 10000 2.1 304 03:33 12.09.2022
1818 Clear 25 1015 82 10000 3.79 326 23:22 11.09.2022
1819 Clear 26 1015 80 10000 3.49 333 21:58 11.09.2022
1820 Clear 26 1014 78 10000 3.71 337 20:46 11.09.2022
1821 Clouds 27 1014 75 10000 4.07 334 19:52 11.09.2022
1822 Clouds 27 1014 73 10000 4.29 337 19:22 11.09.2022
1823 Clouds 27 1014 73 10000 4.5 336 18:20 11.09.2022
1824 Clouds 27 1015 74 10000 3.79 350 16:28 11.09.2022
1825 Clouds 27 1016 72 10000 3.69 349 14:19 11.09.2022
1826 Clouds 26 1017 74 10000 3.01 357 12:33 11.09.2022
1827 Clouds 24 1017 91 10000 3.87 355 08:39 11.09.2022
1828 Clouds 24 1016 91 10000 4.76 356 06:44 11.09.2022
1829 Clouds 24 1018 90 10000 4.19 349 00:49 11.09.2022
1830 Clouds 24 1019 89 10000 4.88 349 22:54 10.09.2022
1831 Clouds 26 1017 83 10000 5.6 6 20:55 10.09.2022
1832 Clouds 27 1017 84 10000 5.5 4 19:46 10.09.2022
1833 Clouds 27 1017 81 10000 5.08 8 19:28 10.09.2022
1834 Clouds 28 1017 77 10000 4.94 18 18:22 10.09.2022
1835 Clouds 28 1018 74 10000 4.96 23 15:49 10.09.2022
1836 Clouds 27 1019 77 10000 4.1 17 14:40 10.09.2022
1837 Clouds 26 1020 77 10000 5.17 24 12:52 10.09.2022
1838 Clouds 24 1019 82 10000 5.87 8 10:35 10.09.2022
1839 Clouds 24 1018 86 10000 5.88 16 09:24 10.09.2022
1840 Clouds 24 1018 87 10000 5.31 14 08:27 10.09.2022
1841 Clouds 24 1018 87 10000 5.94 10 05:50 10.09.2022
1842 Clouds 25 1020 90 10000 5.82 359 23:56 09.09.2022
1843 Clouds 25 1020 90 10000 5.82 359 23:31 09.09.2022
1844 Clouds 25 1019 90 10000 6.04 1 21:38 09.09.2022
1845 Clouds 26 1019 87 10000 6.06 6 20:31 09.09.2022
1846 Clear 27 1018 81 10000 6.05 10 19:24 09.09.2022
1847 Clear 27 1018 81 10000 6.05 10 18:33 09.09.2022
1848 Clear 28 1019 76 10000 5.28 15 16:18 09.09.2022
1849 Clouds 27 1020 76 10000 5.68 16 13:47 09.09.2022
1850 Clouds 26 1020 78 10000 5.5 16 11:51 09.09.2022
1851 Clouds 23 1019 86 10000 5.82 12 08:19 09.09.2022
1852 Clouds 23 1019 86 10000 6.23 14 03:43 09.09.2022
1853 Clouds 24 1020 83 10000 6.33 9 00:40 09.09.2022
1854 Clear 24 1019 83 10000 6.41 9 21:52 08.09.2022
1855 Clear 25 1019 80 10000 6.36 11 20:50 08.09.2022
1856 Clear 25 1018 78 10000 6.1 14 20:29 08.09.2022
1857 Clear 26 1018 76 10000 6.28 17 19:28 08.09.2022
1858 Clouds 27 1018 75 10000 6.42 19 17:35 08.09.2022
1859 Clouds 28 1019 73 10000 6.27 20 16:19 08.09.2022
1860 Clouds 27 1019 75 10000 6.07 21 13:56 08.09.2022
1861 Clouds 26 1019 76 10000 6.24 19 12:50 08.09.2022
1862 Clouds 25 1019 78 10000 6.22 17 11:32 08.09.2022
1863 Clouds 23 1019 82 10000 5.97 14 09:58 08.09.2022
1864 Clouds 23 1018 84 10000 6.07 15 07:45 08.09.2022
1865 Clouds 23 1018 84 10000 6.02 13 05:30 08.09.2022
1866 Clouds 23 1019 81 10000 6.36 17 02:36 08.09.2022
1867 Clouds 23 1019 83 10000 5.96 20 02:18 08.09.2022
1868 Clouds 24 1020 82 10000 6.32 19 00:21 08.09.2022
1869 Clouds 24 1019 81 10000 6.63 17 21:58 07.09.2022
1870 Clouds 25 1019 81 10000 6.63 17 21:38 07.09.2022
1871 Clouds 25 1019 79 10000 6.57 16 20:30 07.09.2022
1872 Clouds 26 1018 75 10000 6.86 12 19:23 07.09.2022
1873 Clouds 27 1019 73 10000 6.51 19 17:22 07.09.2022
1874 Clouds 25 1020 75 10000 6.25 20 11:32 07.09.2022
1875 Clouds 23 1020 77 10000 6.43 16 10:36 07.09.2022
1876 Clouds 23 1020 82 10000 6.8 14 08:33 07.09.2022
1877 Clouds 22 1019 83 10000 6.49 13 06:31 07.09.2022
1878 Clouds 23 1021 82 10000 6.28 17 00:49 07.09.2022
1879 Clouds 24 1021 81 10000 6.67 14 22:28 06.09.2022
1880 Clouds 24 1021 81 10000 6.67 14 21:38 06.09.2022
1881 Clouds 26 1020 77 10000 6.49 17 19:40 06.09.2022
1882 Clouds 27 1020 75 10000 6.31 18 18:40 06.09.2022
1883 Clouds 27 1020 76 10000 6.22 17 17:50 06.09.2022
1884 Clouds 27 1020 75 10000 6.23 17 16:53 06.09.2022
1885 Clouds 27 1021 74 10000 6.17 19 16:25 06.09.2022
1886 Clouds 26 1022 74 10000 6.28 20 14:49 06.09.2022
1887 Clouds 26 1022 76 10000 6.09 18 13:44 06.09.2022
1888 Clouds 26 1022 78 10000 5.93 20 13:19 06.09.2022
1889 Clouds 24 1022 82 10000 5.76 25 10:56 06.09.2022
1890 Clouds 23 1022 83 10000 5.45 27 09:49 06.09.2022
1891 Clouds 23 1021 83 10000 5.36 24 08:18 06.09.2022
1892 Clouds 23 1021 84 10000 5.53 22 06:20 06.09.2022
1893 Clouds 23 1023 84 10000 5.73 19 01:20 06.09.2022
1894 Clouds 24 1022 85 10000 6.21 20 22:57 05.09.2022
1895 Clouds 24 1022 84 10000 6.17 21 21:38 05.09.2022
1896 Clouds 25 1022 84 10000 5.67 21 20:30 05.09.2022
1897 Clouds 26 1021 79 10000 5.22 24 18:53 05.09.2022
1898 Clouds 26 1021 77 10000 4.89 30 18:26 05.09.2022
1899 Clouds 27 1021 77 10000 4.89 30 17:53 05.09.2022
1900 Clouds 27 1022 75 10000 4.56 36 15:54 05.09.2022
1901 Clouds 26 1022 75 10000 4.44 39 14:40 05.09.2022
1902 Clouds 26 1023 78 10000 4.78 40 12:51 05.09.2022
1903 Clouds 24 1022 82 10000 5.08 34 11:21 05.09.2022
1904 Clouds 23 1022 85 10000 5.19 31 08:52 05.09.2022
1905 Clouds 23 1021 84 10000 5.37 17 03:57 05.09.2022
1906 Clouds 23 1022 83 10000 5.05 25 01:19 05.09.2022
1907 Clouds 24 1021 82 10000 5.01 23 22:29 04.09.2022
1908 Clouds 24 1021 82 10000 5.01 23 21:57 04.09.2022
1909 Clouds 25 1020 78 10000 4.46 27 20:26 04.09.2022
1910 Clouds 26 1019 77 10000 4.36 30 18:35 04.09.2022
1911 Clouds 26 1019 75 10000 4.61 31 17:31 04.09.2022
1912 Clouds 26 1020 73 10000 4.63 39 16:24 04.09.2022
1913 Clouds 26 1021 75 10000 3.96 39 14:25 04.09.2022
1914 Clouds 25 1021 76 10000 4.13 37 12:40 04.09.2022
1915 Clouds 24 1020 78 10000 5.1 29 10:59 04.09.2022
1916 Clouds 22 1019 80 10000 5.3 27 09:34 04.09.2022
1917 Clouds 22 1018 84 10000 4.49 24 06:34 04.09.2022
1918 Clouds 23 1019 83 10000 4.03 26 03:18 04.09.2022
1919 Clouds 24 1019 82 10000 4.49 31 22:53 03.09.2022
1920 Clouds 24 1019 82 10000 4.6 29 21:42 03.09.2022
1921 Clouds 24 1018 82 10000 4.92 23 21:22 03.09.2022
1922 Clouds 26 1017 79 10000 5.18 23 18:41 03.09.2022
1923 Clouds 27 1017 80 10000 4.82 34 17:19 03.09.2022
1924 Clouds 27 1018 80 10000 4.65 34 15:49 03.09.2022
1925 Clouds 27 1018 79 10000 4.77 28 14:42 03.09.2022
1926 Clouds 26 1019 79 10000 4.41 25 13:50 03.09.2022
1927 Clouds 25 1019 83 10000 4.73 15 11:32 03.09.2022
1928 Clouds 23 1018 86 10000 5.11 9 09:36 03.09.2022
1929 Clouds 23 1018 86 10000 5.32 4 07:53 03.09.2022
1930 Clouds 24 1018 88 10000 5.24 1 04:51 03.09.2022
1931 Clouds 24 1018 91 10000 4.72 355 02:40 03.09.2022
1932 Clouds 24 1019 87 10000 5.04 347 23:46 02.09.2022
1933 Clouds 25 1018 86 10000 5.32 356 22:23 02.09.2022
1934 Clouds 27 1018 82 10000 4.71 353 20:42 02.09.2022
1935 Clouds 27 1017 79 10000 5.22 359 20:18 02.09.2022
1936 Clouds 27 1017 78 10000 5.29 355 18:51 02.09.2022
1937 Clouds 27 1017 77 10000 5.46 352 18:25 02.09.2022
1938 Clouds 27 1017 77 10000 5.14 352 17:25 02.09.2022
1939 Clouds 28 1017 77 10000 5.14 352 16:31 02.09.2022
1940 Clouds 30 1019 79 10000 4.97 343 13:42 02.09.2022
1941 Clouds 28 1018 80 10000 3.28 359 10:57 02.09.2022
1942 Clouds 27 1017 80 10000 3.04 355 09:45 02.09.2022
1943 Clouds 26 1017 81 10000 2.46 358 08:46 02.09.2022
1944 Clouds 26 1017 88 10000 3.16 360 06:46 02.09.2022
1945 Clouds 26 1017 86 10000 3.3 0 06:22 02.09.2022
1946 Clouds 25 1019 82 10000 2.3 29 00:26 02.09.2022
1947 Clouds 26 1018 80 10000 3.43 22 22:21 01.09.2022
1948 Clouds 28 1018 80 10000 3.43 22 21:38 01.09.2022
1949 Clouds 28 1017 78 10000 3.77 17 21:19 01.09.2022
1950 Clouds 29 1017 78 10000 4.48 6 20:23 01.09.2022
1951 Clouds 29 1016 77 10000 5.13 11 18:20 01.09.2022
1952 Clouds 28 1016 76 10000 4.95 14 16:55 01.09.2022
1953 Clouds 26 1017 76 10000 3.2 16 15:22 01.09.2022
1954 Clouds 25 1016 82 10000 4.02 34 13:27 01.09.2022
1955 Clouds 25 1016 82 10000 4.02 34 12:55 01.09.2022
1956 Clouds 24 1017 85 10000 3.41 41 11:51 01.09.2022
1957 Clouds 24 1017 87 10000 3.28 42 11:19 01.09.2022
1958 Clouds 24 1017 89 10000 3.92 30 09:32 01.09.2022
1959 Clouds 24 1015 82 10000 3.25 353 06:41 01.09.2022
1960 Clouds 24 1016 82 10000 3.3 29 02:39 01.09.2022
1961 Clouds 24 1016 82 10000 3.23 18 01:30 01.09.2022
1962 Clouds 24 1016 82 10000 3.23 18 01:30 01.09.2022
1963 Clouds 24 1016 82 10000 3.23 18 01:30 01.09.2022
1964 Clouds 24 1016 82 10000 3.23 18 01:30 01.09.2022
1965 Clouds 24 1016 82 10000 3.23 18 01:30 01.09.2022
1966 Clouds 24 1016 82 10000 3.23 18 01:30 01.09.2022
1967 Clouds 25 1017 86 10000 3.39 359 22:43 31.08.2022
1968 Clouds 26 1016 92 10000 4.11 58 20:43 31.08.2022
1969 Clouds 25 1017 90 10000 4.3 72 18:46 31.08.2022
1970 Clouds 26 1016 87 10000 2.09 347 16:41 31.08.2022
1971 Clouds 24 1017 92 9374 6.01 350 15:21 31.08.2022
1972 Clouds 24 1019 93 10000 4.64 16 12:58 31.08.2022
1973 Clouds 24 1019 88 10000 3.34 18 11:54 31.08.2022
1974 Rain 25 1018 87 10000 2.94 47 09:35 31.08.2022
1975 Clouds 26 1016 85 10000 3.03 32 07:39 31.08.2022
1976 Clouds 24 1016 90 10000 3.45 23 02:47 31.08.2022
1977 Clouds 24 1016 89 10000 6.21 7 22:21 30.08.2022
1978 Clouds 25 1015 87 10000 5.86 6 21:27 30.08.2022
1979 Clouds 26 1015 85 10000 6.15 20 19:51 30.08.2022
1980 Clouds 26 1016 78 10000 5.42 27 16:47 30.08.2022
1981 Clouds 26 1018 79 10000 5.17 50 13:38 30.08.2022
1982 Clouds 25 1018 80 10000 5.92 33 11:44 30.08.2022
1983 Clouds 24 1017 80 10000 5.93 20 11:19 30.08.2022
1984 Clouds 22 1016 80 10000 4.25 17 08:51 30.08.2022
1985 Clouds 23 1016 81 10000 5.64 39 03:57 30.08.2022
1986 Clouds 23 1016 81 10000 6.35 37 00:30 30.08.2022
1987 Clouds 23 1016 79 10000 5.95 26 22:36 29.08.2022
1988 Clouds 23 1015 78 10000 5.79 25 21:51 29.08.2022
1989 Clouds 25 1015 76 10000 5.61 26 20:35 29.08.2022
1990 Clouds 25 1015 74 10000 5.57 25 18:58 29.08.2022
1991 Clouds 26 1015 73 10000 5.41 29 17:32 29.08.2022
1992 Clouds 25 1015 71 10000 5.22 36 16:57 29.08.2022
1993 Clouds 26 1016 68 10000 4.8 41 15:18 29.08.2022
1994 Clouds 25 1016 67 10000 4.54 43 13:42 29.08.2022
1995 Clouds 23 1016 70 10000 4.52 35 12:20 29.08.2022
1996 Clouds 22 1016 72 10000 4.35 34 10:42 29.08.2022
1997 Clouds 22 1015 74 10000 4.33 35 08:53 29.08.2022
1998 Clouds 21 1014 74 10000 4.86 36 06:52 29.08.2022
1999 Clouds 22 1015 70 10000 5.33 20 02:25 29.08.2022
2000 Clouds 23 1015 70 10000 5.42 15 23:33 28.08.2022
2001 Clouds 24 1014 68 10000 4.99 12 21:47 28.08.2022
2002 Clear 24 1014 67 10000 5.6 9 21:25 28.08.2022
2003 Clear 25 1013 67 10000 5.75 9 19:59 28.08.2022
2004 Clouds 26 1013 64 10000 6 9 18:22 28.08.2022
2005 Clouds 26 1013 64 10000 6 9 17:50 28.08.2022
2006 Clouds 26 1013 63 10000 5.55 11 16:42 28.08.2022
2007 Clouds 26 1014 65 10000 4.57 13 14:59 28.08.2022
2008 Clouds 25 1014 64 10000 5.06 12 12:57 28.08.2022
2009 Clouds 24 1014 66 10000 5.21 7 11:24 28.08.2022
2010 Clouds 23 1013 68 10000 5.47 4 10:19 28.08.2022
2011 Clouds 22 1012 70 10000 5.34 7 08:49 28.08.2022
2012 Clouds 22 1012 71 10000 5.69 6 07:51 28.08.2022
2013 Clouds 22 1012 73 10000 6 3 04:55 28.08.2022
2014 Clouds 23 1013 74 10000 6.41 359 00:34 28.08.2022
2015 Clouds 23 1013 73 10000 6.35 6 22:50 27.08.2022
2016 Clouds 23 1013 75 10000 6.38 7 22:19 27.08.2022
2017 Clouds 25 1012 76 10000 6.04 357 20:27 27.08.2022
2018 Clouds 25 1012 74 10000 5.8 0 18:42 27.08.2022
2019 Clouds 27 1014 72 10000 5.25 12 16:26 27.08.2022
2020 Clouds 27 1014 72 10000 5.25 12 15:30 27.08.2022
2021 Clouds 26 1015 73 10000 4.76 8 12:55 27.08.2022
2022 Clouds 25 1015 74 10000 4.86 8 11:56 27.08.2022
2023 Clouds 23 1015 76 10000 5.99 4 09:52 27.08.2022
2024 Clouds 22 1015 81 10000 5.69 6 08:53 27.08.2022
2025 Clouds 23 1014 82 10000 6.47 358 05:24 27.08.2022
2026 Clouds 23 1016 78 10000 7.07 359 00:25 27.08.2022
2027 Clouds 23 1016 78 10000 7.15 356 23:24 26.08.2022
2028 Clouds 24 1016 78 10000 7.05 352 21:43 26.08.2022
2029 Clouds 26 1015 76 10000 6.51 358 19:40 26.08.2022
2030 Clouds 27 1016 74 10000 6.34 6 17:29 26.08.2022
2031 Clouds 27 1016 74 10000 6.08 7 15:37 26.08.2022
2032 Clouds 26 1017 73 10000 5.9 6 14:56 26.08.2022
2033 Clouds 26 1018 72 10000 6.46 5 12:54 26.08.2022
2034 Clouds 24 1018 74 10000 6.48 6 11:42 26.08.2022
2035 Clouds 24 1018 76 10000 6.64 9 11:21 26.08.2022
2036 Clouds 23 1017 83 10000 7.8 2 07:37 26.08.2022
2037 Clouds 23 1018 83 10000 7.98 356 02:43 26.08.2022
2038 Clouds 23 1019 84 10000 7.5 0 23:45 25.08.2022
2039 Clouds 24 1018 85 10000 7.09 1 21:46 25.08.2022
2040 Clouds 25 1017 82 10000 7.11 2 20:51 25.08.2022
2041 Clouds 27 1016 77 10000 7.05 6 19:25 25.08.2022
2042 Clouds 27 1017 75 10000 6.62 9 18:28 25.08.2022
2043 Clouds 27 1017 75 10000 6.62 9 17:31 25.08.2022
2044 Clouds 26 1018 75 10000 6.25 15 16:27 25.08.2022
2045 Clouds 26 1018 77 10000 6.29 15 15:28 25.08.2022
2046 Clouds 26 1018 77 10000 6.68 10 12:56 25.08.2022
2047 Clouds 23 1018 82 10000 6.68 13 10:49 25.08.2022
2048 Clouds 23 1018 84 10000 6.84 11 09:44 25.08.2022
2049 Clouds 22 1017 84 10000 7.09 7 06:45 25.08.2022
2050 Clouds 23 1018 86 10000 6.18 6 01:57 25.08.2022
2051 Clouds 23 1018 86 10000 5.86 10 23:28 24.08.2022
2052 Clouds 23 1018 86 10000 5.86 10 22:46 24.08.2022
2053 Clouds 24 1017 85 10000 6.08 12 21:37 24.08.2022
2054 Clouds 24 1017 82 10000 6.07 16 21:19 24.08.2022
2055 Clouds 26 1016 77 10000 5.58 23 19:34 24.08.2022
2056 Clouds 26 1016 73 10000 6.15 16 16:49 24.08.2022
2057 Clouds 27 1017 74 10000 6.28 16 15:52 24.08.2022
2058 Clouds 26 1017 73 10000 5.95 12 13:48 24.08.2022
2059 Clouds 26 1017 76 10000 6.56 14 12:24 24.08.2022
2060 Clouds 24 1017 79 10000 6.64 12 11:18 24.08.2022
2061 Clouds 23 1015 84 10000 6.38 13 08:26 24.08.2022
2062 Clouds 23 1015 85 10000 6.67 17 03:32 24.08.2022
2063 Clouds 23 1016 84 10000 6.74 7 23:47 23.08.2022
2064 Clouds 24 1016 83 10000 6.63 7 22:33 23.08.2022
2065 Clouds 25 1015 83 10000 6.56 9 21:39 23.08.2022
2066 Clouds 26 1015 82 10000 6.28 8 20:31 23.08.2022
2067 Clouds 27 1015 79 10000 6.09 16 18:50 23.08.2022
2068 Clouds 27 1015 77 10000 5.96 16 17:51 23.08.2022
2069 Clouds 27 1015 76 10000 5.88 16 17:18 23.08.2022
2070 Clouds 28 1015 75 10000 5.88 14 15:39 23.08.2022
2071 Clouds 27 1016 74 10000 5.34 9 13:36 23.08.2022
2072 Clouds 26 1015 74 10000 5.66 0 12:30 23.08.2022
2073 Clouds 24 1015 75 10000 5.36 356 10:51 23.08.2022
2074 Clouds 24 1015 75 10000 5.36 356 10:32 23.08.2022
2075 Clouds 23 1014 81 10000 5.72 359 08:54 23.08.2022
2076 Clouds 23 1014 79 10000 4.91 357 08:22 23.08.2022
2077 Clouds 23 1014 79 10000 4.91 357 07:43 23.08.2022
2078 Clouds 23 1014 81 10000 4.66 8 06:34 23.08.2022
2079 Clouds 23 1014 82 10000 4.92 13 05:52 23.08.2022
2080 Clouds 24 1015 86 10000 6.14 8 00:52 23.08.2022
2081 Clouds 24 1015 85 10000 6.88 360 00:24 23.08.2022
2082 Clouds 24 1015 84 10000 5.67 359 23:29 22.08.2022
2083 Clouds 25 1014 82 10000 5.77 5 21:51 22.08.2022
2084 Clouds 28 1014 73 10000 6.17 352 19:49 22.08.2022
2085 Clouds 28 1014 69 10000 6.05 354 19:27 22.08.2022
2086 Clouds 29 1014 67 10000 5.82 354 17:59 22.08.2022
2087 Clouds 31 1015 68 10000 5.45 355 15:40 22.08.2022
2088 Clouds 31 1015 68 10000 5.21 350 14:32 22.08.2022
2089 Clouds 31 1016 69 10000 4.6 337 11:19 22.08.2022
2090 Clouds 30 1015 70 10000 5.52 331 08:54 22.08.2022
2091 Clouds 30 1015 63 10000 3.9 323 04:42 22.08.2022
2092 Clear 30 1017 66 10000 4.02 327 00:53 22.08.2022
2093 Clear 28 1017 66 10000 4.02 327 00:34 22.08.2022
2094 Clear 27 1017 67 10000 5.35 323 22:54 21.08.2022
2095 Clear 27 1016 67 10000 5.09 325 21:45 21.08.2022
2096 Clear 27 1016 65 10000 5.1 332 20:58 21.08.2022
2097 Clouds 29 1015 70 10000 6.75 344 19:28 21.08.2022
2098 Clouds 29 1015 68 10000 6.13 346 18:21 21.08.2022
2099 Clouds 29 1016 69 10000 5.44 346 16:21 21.08.2022
2100 Clouds 29 1016 69 10000 5.44 346 15:43 21.08.2022
2101 Clouds 28 1017 64 10000 4.16 344 13:58 21.08.2022
2102 Clouds 28 1017 64 10000 4.16 344 13:40 21.08.2022
2103 Clouds 27 1017 62 10000 3.66 349 12:37 21.08.2022
2104 Clouds 25 1016 61 10000 3.81 337 09:32 21.08.2022
2105 Clouds 26 1016 63 10000 3.85 342 08:56 21.08.2022
2106 Clouds 25 1015 63 10000 4.48 333 08:38 21.08.2022
2107 Clouds 26 1015 59 10000 3.47 328 07:28 21.08.2022
2108 Clouds 29 1016 61 10000 3.09 341 04:26 21.08.2022
2109 Clouds 27 1017 68 10000 3.24 345 00:53 21.08.2022
2110 Clouds 28 1017 73 10000 4.17 347 22:59 20.08.2022
2111 Clouds 28 1017 75 10000 4.39 351 21:43 20.08.2022
2112 Clouds 28 1016 75 10000 4.93 356 20:44 20.08.2022
2113 Clouds 29 1015 75 10000 5.48 354 19:41 20.08.2022
2114 Clouds 28 1015 73 10000 5.78 354 18:35 20.08.2022
2115 Clouds 27 1015 72 10000 5.74 357 17:58 20.08.2022
2116 Clouds 27 1015 71 10000 5.31 3 17:18 20.08.2022
2117 Clouds 27 1016 71 10000 4.99 10 15:50 20.08.2022
2118 Clouds 27 1016 70 10000 4.71 20 13:36 20.08.2022
2119 Clouds 26 1016 74 10000 4.43 22 11:53 20.08.2022
2120 Clouds 23 1015 77 10000 4.38 6 09:43 20.08.2022
2121 Clouds 23 1015 83 10000 4.65 5 08:50 20.08.2022
2122 Clouds 23 1015 82 10000 5.14 8 05:58 20.08.2022
2123 Clouds 23 1016 85 10000 5.38 11 03:28 20.08.2022
2124 Clouds 23 1016 82 10000 5.2 360 00:51 20.08.2022
2125 Clouds 23 1016 84 10000 5.63 14 23:19 19.08.2022
2126 Clouds 24 1016 84 10000 5.63 14 22:35 19.08.2022
2127 Clouds 25 1015 77 10000 6.01 11 20:29 19.08.2022
2128 Clouds 26 1014 73 10000 6.22 8 18:46 19.08.2022
2129 Clouds 26 1015 71 10000 5.74 14 15:51 19.08.2022
2130 Clouds 26 1016 71 10000 5.42 27 13:36 19.08.2022
2131 Clouds 24 1016 72 10000 5.27 19 11:33 19.08.2022
2132 Clouds 23 1016 76 10000 4.74 19 10:29 19.08.2022
2133 Clouds 22 1015 79 10000 5.18 19 07:21 19.08.2022
2134 Clouds 23 1016 79 10000 6.08 23 01:24 19.08.2022
2135 Clouds 23 1016 79 10000 6.08 23 00:31 19.08.2022
2136 Clouds 23 1016 79 10000 6.26 21 23:48 18.08.2022
2137 Clouds 23 1015 78 10000 6.55 16 22:51 18.08.2022
2138 Clouds 23 1015 77 10000 6.56 17 22:18 18.08.2022
2139 Clouds 24 1015 77 10000 6.56 17 21:40 18.08.2022
2140 Clouds 25 1014 70 10000 5.99 16 20:27 18.08.2022
2141 Clouds 25 1014 72 10000 6.21 17 19:30 18.08.2022
2142 Clouds 26 1014 71 10000 5.56 20 17:55 18.08.2022
2143 Clouds 26 1015 72 10000 5.21 28 17:18 18.08.2022
2144 Clouds 25 1016 70 10000 5.46 43 14:57 18.08.2022
2145 Clouds 26 1016 69 10000 5.59 36 14:19 18.08.2022
2146 Clouds 26 1016 70 10000 5.77 35 13:34 18.08.2022
2147 Clouds 24 1016 71 10000 6.65 28 11:51 18.08.2022
2148 Clouds 23 1016 81 10000 7.12 27 10:22 18.08.2022
2149 Clouds 22 1016 81 10000 7.12 27 09:42 18.08.2022
2150 Clouds 22 1015 82 10000 6.23 24 07:24 18.08.2022
2151 Clouds 23 1015 78 10000 6.62 27 04:38 18.08.2022
2152 Clouds 23 1017 76 10000 7.24 29 23:37 17.08.2022
2153 Clouds 23 1016 79 10000 7.99 25 21:53 17.08.2022
2154 Clouds 24 1015 81 10000 7.78 31 20:20 17.08.2022
2155 Clouds 25 1015 81 10000 7.63 29 19:31 17.08.2022
2156 Clouds 27 1015 79 10000 7.23 30 17:37 17.08.2022
2157 Clouds 28 1015 77 10000 6.22 25 16:47 17.08.2022
2158 Clouds 27 1015 73 10000 5.79 27 15:30 17.08.2022
2159 Clouds 26 1016 74 10000 6.89 28 13:31 17.08.2022
2160 Clouds 24 1015 82 10000 7.86 27 11:39 17.08.2022
2161 Clouds 23 1015 84 10000 6.75 25 09:59 17.08.2022
2162 Clouds 23 1014 88 10000 5.81 19 08:24 17.08.2022
2163 Clouds 24 1014 91 10000 5.21 4 03:52 17.08.2022
2164 Clouds 24 1016 90 10000 4.84 359 00:38 17.08.2022
2165 Clouds 25 1016 87 10000 4.57 353 22:42 16.08.2022
2166 Clouds 26 1015 84 10000 5.33 343 20:59 16.08.2022
2167 Clouds 28 1015 84 10000 5.87 354 19:54 16.08.2022
2168 Clouds 28 1015 82 10000 5.89 356 18:44 16.08.2022
2169 Clouds 29 1015 81 10000 6.04 357 17:43 16.08.2022
2170 Clouds 29 1016 78 10000 6.05 355 15:59 16.08.2022
2171 Clear 29 1016 78 10000 6.04 356 14:55 16.08.2022
2172 Clear 28 1016 78 10000 6.04 356 14:37 16.08.2022
2173 Clouds 28 1016 80 10000 6.12 354 13:40 16.08.2022
2174 Clouds 26 1016 83 10000 6.51 350 11:30 16.08.2022
2175 Clouds 24 1016 86 10000 7.04 353 09:51 16.08.2022
2176 Clouds 23 1016 87 10000 6.84 355 08:48 16.08.2022
2177 Clouds 23 1015 87 10000 7.31 357 08:18 16.08.2022
2178 Clouds 23 1016 88 10000 6.3 355 04:25 16.08.2022
2179 Clouds 24 1017 85 10000 5.56 3 22:55 15.08.2022
2180 Clouds 24 1016 84 10000 5.83 4 21:56 15.08.2022
2181 Clouds 24 1016 84 10000 5.83 4 21:35 15.08.2022
2182 Clouds 25 1015 78 10000 6.03 9 20:29 15.08.2022
2183 Clouds 26 1016 77 10000 5.81 13 18:43 15.08.2022
2184 Clouds 26 1016 76 10000 5.64 16 17:46 15.08.2022
2185 Clouds 27 1016 76 10000 5.68 15 16:22 15.08.2022
2186 Clouds 26 1017 76 10000 6.33 11 14:31 15.08.2022
2187 Clouds 26 1017 76 10000 5.74 6 12:54 15.08.2022
2188 Clouds 24 1017 84 10000 5.95 359 10:18 15.08.2022
2189 Clouds 23 1016 86 10000 6.47 359 08:51 15.08.2022
2190 Clouds 23 1016 87 10000 5.98 356 06:34 15.08.2022
2191 Clouds 23 1017 87 10000 5.46 3 03:34 15.08.2022
2192 Clouds 24 1017 82 10000 5.21 16 23:24 14.08.2022
2193 Clouds 25 1017 82 10000 5.69 11 21:43 14.08.2022
2194 Clouds 25 1016 81 10000 5.76 8 20:33 14.08.2022
2195 Clouds 26 1016 77 10000 5.73 14 19:36 14.08.2022
2196 Clouds 26 1017 77 10000 6.05 12 18:20 14.08.2022
2197 Clouds 26 1017 77 10000 5.8 11 17:27 14.08.2022
2198 Clouds 26 1017 76 10000 5.4 11 16:21 14.08.2022
2199 Clouds 26 1017 74 10000 5.35 14 14:39 14.08.2022
2200 Clouds 26 1018 72 10000 5.09 13 13:50 14.08.2022
2201 Clouds 26 1018 72 10000 4.88 10 13:26 14.08.2022
2202 Clouds 25 1018 72 10000 4.88 10 12:34 14.08.2022
2203 Clouds 24 1018 80 10000 4.89 19 11:20 14.08.2022
2204 Clouds 23 1017 86 10000 5.27 9 08:56 14.08.2022
2205 Clouds 23 1016 85 10000 4.8 18 06:27 14.08.2022
2206 Clouds 23 1017 85 10000 5.37 15 04:21 14.08.2022
2207 Clouds 23 1018 84 10000 5.25 7 01:35 14.08.2022
2208 Clouds 23 1018 83 10000 5.25 357 22:56 13.08.2022
2209 Clouds 24 1017 82 10000 5.35 357 21:59 13.08.2022
2210 Clouds 25 1017 79 10000 5.54 359 20:49 13.08.2022
2211 Clouds 26 1016 78 10000 5.45 5 19:47 13.08.2022
2212 Clouds 26 1016 75 10000 5.21 9 19:18 13.08.2022
2213 Clouds 28 1016 74 10000 5.67 9 17:21 13.08.2022
2214 Clouds 26 1017 74 10000 5.63 7 14:42 13.08.2022
2215 Clouds 26 1017 74 10000 5.52 8 13:49 13.08.2022
2216 Clouds 26 1017 75 10000 5.8 11 13:25 13.08.2022
2217 Clouds 25 1016 79 10000 6.17 2 11:27 13.08.2022
2218 Clouds 23 1015 82 10000 5.74 0 09:23 13.08.2022
2219 Clouds 23 1015 82 10000 5.74 0 09:23 13.08.2022
2220 Clouds 22 1015 82 10000 6.36 11 06:44 13.08.2022
2221 Clouds 23 1016 82 10000 6.91 4 01:37 13.08.2022
2222 Clouds 23 1016 82 10000 6.67 356 23:32 12.08.2022
2223 Clouds 25 1015 80 10000 6.31 1 21:37 12.08.2022
2224 Clouds 26 1015 75 10000 5.99 7 19:48 12.08.2022
2225 Clouds 26 1015 74 10000 6.14 11 19:23 12.08.2022
2226 Clouds 26 1015 72 10000 5.94 10 18:21 12.08.2022
2227 Clouds 26 1015 71 10000 6.27 7 16:26 12.08.2022
2228 Clouds 26 1016 71 10000 6.22 7 14:50 12.08.2022
2229 Clouds 26 1016 71 10000 5.94 10 13:43 12.08.2022
2230 Clouds 25 1016 74 10000 5.63 2 12:25 12.08.2022
2231 Clouds 22 1015 79 10000 5.48 356 08:52 12.08.2022
2232 Clouds 22 1015 80 10000 5.58 0 07:45 12.08.2022
2233 Clouds 22 1014 80 10000 5.53 8 06:21 12.08.2022
2234 Clouds 23 1016 78 10000 5.71 11 00:32 12.08.2022
2235 Clouds 23 1017 78 10000 5.96 9 23:55 11.08.2022
2236 Clouds 23 1016 78 10000 6.14 8 22:45 11.08.2022
2237 Clouds 24 1016 78 10000 6.21 3 21:53 11.08.2022
2238 Clouds 24 1015 77 10000 6.56 0 21:28 11.08.2022
2239 Clouds 25 1015 77 10000 6.56 0 20:30 11.08.2022
2240 Clouds 26 1015 74 10000 6.54 357 19:33 11.08.2022
2241 Clouds 26 1014 72 10000 6.18 355 18:53 11.08.2022
2242 Clouds 27 1015 71 10000 5.8 357 16:47 11.08.2022
2243 Clouds 26 1016 71 10000 5.37 3 15:43 11.08.2022
2244 Clouds 26 1017 70 10000 4.99 13 14:36 11.08.2022
2245 Clouds 25 1017 75 10000 5.12 5 11:56 11.08.2022
2246 Clouds 22 1016 80 10000 5.57 6 08:57 11.08.2022
2247 Clouds 22 1016 81 10000 5.96 353 06:49 11.08.2022
2248 Clouds 22 1017 82 10000 6.03 355 02:38 11.08.2022
2249 Clouds 23 1018 81 10000 5.76 353 23:41 10.08.2022
2250 Clouds 23 1017 78 10000 5.99 351 21:47 10.08.2022
2251 Clouds 24 1016 76 10000 6.13 351 20:56 10.08.2022
2252 Clouds 24 1016 75 10000 6.26 355 20:27 10.08.2022
2253 Clear 25 1016 74 10000 5.97 358 18:48 10.08.2022
2254 Clear 26 1017 71 10000 5.35 6 17:27 10.08.2022
2255 Clear 26 1018 72 10000 5.01 11 14:53 10.08.2022
2256 Clouds 25 1018 71 10000 4.88 16 13:33 10.08.2022
2257 Clouds 23 1018 76 10000 5.71 12 10:50 10.08.2022
2258 Clouds 22 1018 83 10000 6.4 3 08:39 10.08.2022
2259 Clouds 22 1017 83 10000 6.87 3 07:35 10.08.2022
2260 Clouds 22 1017 83 10000 6.14 1 04:50 10.08.2022
2261 Clouds 23 1019 82 10000 5.77 3 01:33 10.08.2022
2262 Clouds 23 1019 80 10000 5.71 1 23:31 09.08.2022
2263 Clouds 23 1019 79 10000 5.77 3 22:45 09.08.2022
2264 Clear 24 1018 76 10000 5.37 5 21:24 09.08.2022
2265 Clouds 25 1018 73 10000 5.35 10 19:28 09.08.2022
2266 Clouds 26 1018 72 10000 5.37 16 17:39 09.08.2022
2267 Clouds 26 1018 72 10000 5.66 15 17:21 09.08.2022
2268 Clouds 26 1018 73 10000 5.88 17 16:23 09.08.2022
2269 Clouds 26 1019 72 10000 6.32 16 15:26 09.08.2022
2270 Clouds 24 1019 73 10000 5.74 26 11:49 09.08.2022
2271 Clouds 22 1018 84 10000 5.56 29 08:53 09.08.2022
2272 Clouds 22 1018 85 10000 5.8 24 07:58 09.08.2022
2273 Clouds 22 1017 84 10000 6.4 19 05:25 09.08.2022
2274 Clouds 23 1019 83 10000 5.4 20 01:57 09.08.2022
2275 Clouds 23 1019 80 10000 5.21 18 23:26 08.08.2022
2276 Clouds 23 1019 80 10000 5.21 18 22:45 08.08.2022
2277 Clouds 24 1018 80 10000 5.49 17 21:47 08.08.2022
2278 Clouds 25 1018 79 10000 5.58 22 20:43 08.08.2022
2279 Clouds 26 1017 76 10000 6.03 26 19:41 08.08.2022
2280 Clouds 26 1017 72 10000 5.48 31 18:19 08.08.2022
2281 Clouds 26 1018 71 10000 5.29 38 15:55 08.08.2022
2282 Clouds 26 1018 71 10000 5.29 38 15:37 08.08.2022
2283 Clouds 24 1018 73 10000 5.25 37 12:31 08.08.2022
2284 Clouds 23 1018 77 10000 5.63 35 10:50 08.08.2022
2285 Clouds 22 1017 84 10000 5.35 22 08:20 08.08.2022
2286 Clouds 22 1017 85 10000 5.51 22 04:45 08.08.2022
2287 Clouds 22 1018 84 10000 5.1 20 01:47 08.08.2022
2288 Clouds 23 1017 82 10000 5.72 19 21:49 07.08.2022
2289 Clouds 24 1017 82 10000 5.72 19 21:30 07.08.2022
2290 Clear 25 1016 77 10000 6.35 17 20:25 07.08.2022
2291 Clear 25 1016 77 10000 6.35 17 19:53 07.08.2022
2292 Clear 25 1016 75 10000 6.29 18 19:24 07.08.2022
2293 Clear 26 1016 73 10000 5.78 21 17:58 07.08.2022
2294 Clear 26 1016 70 10000 5.25 22 16:53 07.08.2022
2295 Clouds 25 1017 68 10000 4.85 25 15:40 07.08.2022
2296 Clouds 26 1017 70 10000 4.79 26 14:32 07.08.2022
2297 Clouds 24 1018 71 10000 5.26 27 12:41 07.08.2022
2298 Clouds 23 1017 74 10000 5.55 20 10:53 07.08.2022
2299 Clouds 23 1017 76 10000 5.05 17 10:21 07.08.2022
2300 Clouds 22 1017 82 10000 4.84 28 04:41 07.08.2022
2301 Clouds 22 1017 85 10000 5.49 29 02:35 07.08.2022
2302 Clouds 23 1017 81 10000 5.15 16 22:40 06.08.2022
2303 Clouds 23 1017 83 10000 4.94 21 22:18 06.08.2022
2304 Clouds 25 1016 79 10000 5.78 20 19:48 06.08.2022
2305 Clouds 25 1016 77 10000 5.78 18 18:50 06.08.2022
2306 Clouds 26 1016 75 10000 5.85 21 17:48 06.08.2022
2307 Clouds 26 1017 74 10000 5.97 22 16:29 06.08.2022
2308 Clouds 26 1017 76 10000 5.68 32 13:51 06.08.2022
2309 Clouds 25 1017 74 10000 5.67 30 12:38 06.08.2022
2310 Clouds 23 1017 79 10000 5.08 31 11:21 06.08.2022
2311 Clouds 22 1017 83 10000 5.24 37 09:41 06.08.2022
2312 Clouds 22 1016 85 10000 5.66 32 07:35 06.08.2022
2313 Clouds 23 1017 86 10000 5.56 16 01:59 06.08.2022
2314 Clouds 23 1016 87 10000 5.88 17 22:37 05.08.2022
2315 Clouds 24 1015 85 10000 6.42 4 21:34 05.08.2022
2316 Clouds 26 1014 78 10000 6.6 11 19:20 05.08.2022
2317 Clouds 26 1014 78 10000 6.6 11 18:44 05.08.2022
2318 Clouds 26 1015 74 10000 6.55 16 16:53 05.08.2022
2319 Clouds 26 1015 74 10000 6.17 21 15:55 05.08.2022
2320 Clouds 26 1016 74 10000 6.06 19 14:54 05.08.2022
2321 Clouds 25 1016 74 10000 6.13 21 13:39 05.08.2022
2322 Clouds 25 1016 72 10000 6.15 15 13:19 05.08.2022
2323 Clouds 24 1015 73 10000 5.51 16 11:58 05.08.2022
2324 Clouds 23 1015 81 10000 5.71 24 10:25 05.08.2022
2325 Clouds 22 1015 85 10000 6 33 07:58 05.08.2022
2326 Clouds 22 1014 85 10000 6.88 14 05:20 05.08.2022
2327 Clouds 23 1015 86 10000 7.19 13 23:50 04.08.2022
2328 Clouds 24 1014 85 10000 6.6 3 21:39 04.08.2022
2329 Clouds 24 1014 80 10000 6.55 7 21:21 04.08.2022
2330 Clouds 25 1014 80 10000 6.55 7 20:40 04.08.2022
2331 Clouds 26 1014 77 10000 6.58 16 19:21 04.08.2022
2332 Clouds 26 1014 77 10000 6.58 16 18:34 04.08.2022
2333 Clouds 26 1014 74 10000 6.34 17 16:54 04.08.2022
2334 Clouds 26 1015 73 10000 5.95 16 13:34 04.08.2022
2335 Clouds 24 1015 75 10000 5.98 15 11:42 04.08.2022
2336 Clouds 23 1014 80 10000 5.75 10 10:24 04.08.2022
2337 Clouds 22 1014 85 10000 5.39 8 07:50 04.08.2022
2338 Clouds 22 1013 85 10000 6.74 2 03:33 04.08.2022
2339 Clouds 22 1014 85 10000 6.49 359 01:42 04.08.2022
2340 Clouds 23 1015 85 10000 6.1 355 23:41 03.08.2022
2341 Clouds 25 1014 83 10000 6.5 1 21:34 03.08.2022
2342 Clouds 26 1013 77 10000 6.56 2 20:22 03.08.2022
2343 Clouds 26 1013 77 10000 6.56 2 20:22 03.08.2022
2344 Clouds 27 1013 74 10000 6.58 358 19:28 03.08.2022
2345 Clouds 28 1013 73 10000 6.5 2 17:20 03.08.2022
2346 Clouds 26 1014 72 10000 6.33 3 16:23 03.08.2022
2347 Clouds 27 1015 70 10000 6.05 6 14:23 03.08.2022
2348 Clouds 25 1015 72 10000 4.82 2 11:46 03.08.2022
2349 Clouds 22 1014 74 10000 4.84 348 07:45 03.08.2022
2350 Clouds 23 1014 77 10000 5.73 348 04:22 03.08.2022
2351 Clouds 23 1014 76 10000 5.7 343 03:24 03.08.2022
2352 Clouds 23 1015 77 10000 6.02 338 00:58 03.08.2022
2353 Clouds 24 1014 79 10000 6.47 338 22:49 02.08.2022
2354 Clouds 25 1014 78 10000 6.5 343 21:52 02.08.2022
2355 Clouds 27 1014 76 10000 6.58 345 20:37 02.08.2022
2356 Clouds 28 1014 73 10000 6.56 349 18:39 02.08.2022
2357 Clouds 30 1015 71 10000 6.15 351 15:27 02.08.2022
2358 Clouds 25 1015 72 10000 5.66 347 11:32 02.08.2022
2359 Clouds 23 1014 78 10000 5.43 340 09:18 02.08.2022
2360 Clouds 24 1014 77 10000 5.36 344 07:52 02.08.2022
2361 Clouds 25 1013 75 10000 5.24 336 06:42 02.08.2022
2362 Clouds 25 1014 77 10000 5.22 344 04:54 02.08.2022
2363 Clouds 25 1015 81 10000 6.96 340 23:35 01.08.2022
2364 Clouds 24 1015 80 10000 6.96 341 22:23 01.08.2022
2365 Clouds 26 1014 76 10000 7.08 342 20:52 01.08.2022
2366 Clouds 28 1014 74 10000 6.49 349 19:25 01.08.2022
2367 Clouds 28 1014 74 10000 6.49 349 18:30 01.08.2022
2368 Clouds 27 1015 73 10000 6.42 357 16:53 01.08.2022
2369 Clouds 27 1015 73 10000 6.38 357 15:52 01.08.2022
2370 Clouds 27 1015 73 10000 6.38 357 15:30 01.08.2022
2371 Clouds 27 1016 73 10000 6.11 354 13:48 01.08.2022
2372 Clouds 24 1016 76 10000 5.58 349 11:50 01.08.2022
2373 Clouds 23 1015 80 10000 5.34 344 09:39 01.08.2022
2374 Clouds 23 1015 83 10000 5.56 348 08:22 01.08.2022
2375 Clouds 23 1015 84 10000 4.33 360 04:47 01.08.2022
2376 Clouds 23 1016 86 10000 4.9 10 02:32 01.08.2022
2377 Clouds 23 1016 86 10000 6.66 4 23:54 31.07.2022
2378 Clouds 24 1016 84 10000 6.7 359 22:36 31.07.2022
2379 Clouds 24 1015 81 10000 6.68 5 21:24 31.07.2022
2380 Clouds 26 1015 79 10000 5.85 2 19:41 31.07.2022
2381 Clouds 26 1015 76 10000 5.4 8 17:47 31.07.2022
2382 Clouds 26 1016 77 10000 5.48 13 15:35 31.07.2022
2383 Clouds 26 1017 80 10000 5.22 23 13:41 31.07.2022
2384 Clouds 25 1016 75 10000 4.96 11 11:52 31.07.2022
2385 Clouds 23 1015 82 10000 4.88 12 09:28 31.07.2022
2386 Clouds 23 1015 83 10000 5.77 14 06:48 31.07.2022
2387 Clouds 23 1016 84 10000 5.9 22 02:57 31.07.2022
2388 Clouds 24 1016 87 10000 6.21 359 23:35 30.07.2022
2389 Clouds 24 1015 85 10000 6.57 1 22:19 30.07.2022
2390 Clouds 24 1015 85 10000 6.57 1 21:47 30.07.2022
2391 Clouds 25 1014 81 10000 7.02 6 20:56 30.07.2022
2392 Clouds 26 1014 78 10000 6.94 9 19:58 30.07.2022
2393 Clouds 27 1014 78 10000 6.49 12 18:51 30.07.2022
2394 Clouds 26 1015 77 10000 6.35 14 17:41 30.07.2022
2395 Clouds 27 1015 76 10000 6.19 10 15:38 30.07.2022
2396 Clouds 27 1016 75 10000 6.41 11 14:53 30.07.2022
2397 Clouds 26 1016 76 10000 6.79 8 12:55 30.07.2022
2398 Clouds 25 1016 78 10000 6.95 13 11:55 30.07.2022
2399 Clouds 23 1016 81 10000 7.23 12 10:28 30.07.2022
2400 Clouds 23 1016 81 10000 7.23 12 09:46 30.07.2022
2401 Clouds 23 1015 84 10000 7.1 9 07:54 30.07.2022
2402 Clouds 23 1016 86 10000 7.06 10 02:36 30.07.2022
2403 Clouds 23 1017 85 10000 7.05 11 01:46 30.07.2022
2404 Clouds 24 1017 84 10000 6.86 14 22:25 29.07.2022
2405 Clouds 25 1016 83 10000 6.96 11 20:59 29.07.2022
2406 Clouds 26 1016 80 10000 7.36 10 19:57 29.07.2022
2407 Clouds 27 1016 80 10000 7.06 9 17:53 29.07.2022
2408 Clouds 27 1017 82 10000 6.4 12 15:21 29.07.2022
2409 Clouds 26 1017 82 10000 6.49 13 12:59 29.07.2022
2410 Clouds 24 1017 86 10000 6.5 3 10:35 29.07.2022
2411 Clouds 23 1016 90 10000 6.66 358 08:49 29.07.2022
2412 Clouds 23 1016 89 10000 6.21 357 07:40 29.07.2022
2413 Clouds 23 1017 84 10000 7.15 9 01:47 29.07.2022
2414 Clouds 23 1017 84 10000 7.18 7 22:41 28.07.2022
2415 Clouds 25 1017 81 10000 7.56 4 20:59 28.07.2022
2416 Clouds 25 1016 78 10000 7.61 3 20:27 28.07.2022
2417 Clouds 25 1016 78 10000 7.61 3 19:42 28.07.2022
2418 Clouds 26 1016 77 10000 7.29 6 18:48 28.07.2022
2419 Clouds 26 1016 75 10000 7.24 6 17:43 28.07.2022
2420 Clouds 27 1016 73 10000 7.62 9 16:42 28.07.2022
2421 Clouds 27 1017 71 10000 7.95 12 15:24 28.07.2022
2422 Clouds 26 1018 73 10000 8.01 7 12:51 28.07.2022
2423 Clouds 23 1017 81 10000 8.29 360 09:45 28.07.2022
2424 Clouds 23 1017 85 10000 8.35 354 06:24 28.07.2022
2425 Clouds 23 1017 85 10000 8.25 354 05:26 28.07.2022
2426 Clouds 24 1019 84 10000 7.29 345 00:45 28.07.2022
2427 Clouds 25 1018 83 10000 6.92 346 22:34 27.07.2022
2428 Clouds 27 1018 76 10000 7.03 347 20:56 27.07.2022
2429 Clear 29 1017 72 10000 7.24 347 19:37 27.07.2022
2430 Clear 29 1017 68 10000 6.1 351 17:38 27.07.2022
2431 Clear 29 1018 64 10000 5.63 347 15:52 27.07.2022
2432 Clear 29 1018 63 10000 5.2 347 14:55 27.07.2022
2433 Clear 31 1018 63 10000 5.2 347 14:33 27.07.2022
2434 Clear 32 1018 62 10000 4.69 343 12:49 27.07.2022
2435 Clear 30 1017 63 10000 3.37 330 07:53 27.07.2022
2436 Clear 30 1017 63 10000 3.37 330 07:53 27.07.2022
2437 Clear 30 1017 62 10000 3.78 326 06:19 27.07.2022
2438 Clear 31 1019 64 10000 2.73 321 00:48 27.07.2022
2439 Clear 27 1017 69 10000 2.2 350 22:25 26.07.2022
2440 Clear 28 1017 67 10000 2.89 2 21:20 26.07.2022
2441 Clouds 30 1016 66 10000 2.88 14 20:25 26.07.2022
2442 Clouds 31 1016 65 10000 3.85 3 18:42 26.07.2022
2443 Clouds 31 1016 64 10000 3.52 16 17:57 26.07.2022
2444 Clouds 31 1017 63 10000 3.67 18 15:58 26.07.2022
2445 Clouds 31 1017 64 10000 3.94 14 14:57 26.07.2022
2446 Clouds 29 1017 66 10000 3.41 14 12:59 26.07.2022
2447 Clouds 28 1017 68 10000 3.13 16 10:59 26.07.2022
2448 Clouds 28 1016 70 10000 4.1 359 08:46 26.07.2022
2449 Clear 28 1015 67 10000 2.57 350 05:49 26.07.2022
2450 Clouds 27 1017 72 10000 5.21 337 00:28 26.07.2022
2451 Clouds 27 1016 72 10000 4.7 336 22:53 25.07.2022
2452 Clouds 27 1016 72 10000 4.79 340 22:22 25.07.2022
2453 Clouds 27 1016 72 10000 4.79 340 21:38 25.07.2022
2454 Clouds 29 1015 70 10000 4.64 348 20:40 25.07.2022
2455 Clouds 31 1015 70 10000 4.93 352 19:27 25.07.2022
2456 Clouds 31 1015 69 10000 4.88 359 18:18 25.07.2022
2457 Clouds 31 1015 68 10000 4.37 3 17:27 25.07.2022
2458 Clouds 29 1016 68 10000 3.87 7 14:32 25.07.2022
2459 Clouds 28 1016 68 10000 3.52 7 12:21 25.07.2022
2460 Clouds 25 1015 72 10000 3.91 341 09:18 25.07.2022
2461 Clouds 26 1015 74 10000 4.58 344 03:23 25.07.2022
2462 Clouds 25 1016 73 10000 5.41 331 23:53 24.07.2022
2463 Clouds 26 1016 71 10000 4.97 335 22:56 24.07.2022
2464 Clouds 26 1015 70 10000 4.84 338 22:26 24.07.2022
2465 Clouds 27 1015 67 10000 4.87 340 21:19 24.07.2022
2466 Clouds 27 1015 67 10000 4.87 340 20:47 24.07.2022
2467 Clouds 29 1014 66 10000 4.06 344 19:54 24.07.2022
2468 Clouds 31 1014 64 10000 3.81 349 18:30 24.07.2022
2469 Clouds 30 1015 64 10000 3.58 8 16:28 24.07.2022
2470 Clouds 31 1015 64 10000 3.58 8 15:45 24.07.2022
2471 Clouds 32 1016 65 10000 2.62 351 14:19 24.07.2022
2472 Clouds 30 1016 66 10000 3.14 342 12:52 24.07.2022
2473 Clouds 29 1015 66 10000 2.59 345 11:38 24.07.2022
2474 Clouds 28 1015 68 10000 2.51 353 10:59 24.07.2022
2475 Clouds 33 1015 72 10000 2.97 359 08:31 24.07.2022
2476 Clear 29 1015 71 10000 2.73 341 07:47 24.07.2022
2477 Clouds 26 1014 67 10000 2.53 354 04:45 24.07.2022
2478 Clouds 27 1015 73 10000 2.75 4 00:28 24.07.2022
2479 Clear 26 1014 71 10000 2.12 8 21:28 23.07.2022
2480 Clouds 29 1013 72 10000 2.08 57 19:59 23.07.2022
2481 Clouds 29 1013 72 10000 2.07 64 18:50 23.07.2022
2482 Clouds 28 1014 75 10000 3.23 67 17:28 23.07.2022
2483 Clouds 27 1014 75 10000 3.23 67 16:33 23.07.2022
2484 Clouds 27 1014 77 10000 2.64 47 15:22 23.07.2022
2485 Clouds 27 1014 77 10000 2.64 47 14:58 23.07.2022
2486 Clouds 26 1014 76 10000 3.07 59 14:27 23.07.2022
2487 Clouds 25 1014 73 10000 2.5 71 12:44 23.07.2022
2488 Clouds 24 1013 75 10000 2.4 16 10:45 23.07.2022
2489 Clouds 23 1013 77 10000 2.98 355 09:56 23.07.2022
2490 Clouds 23 1013 77 10000 2.5 3 08:31 23.07.2022
2491 Clouds 23 1014 83 10000 2.39 17 03:39 23.07.2022
2492 Clouds 23 1015 82 10000 4.57 9 00:49 23.07.2022
2493 Clouds 23 1015 89 10000 6.55 35 22:32 22.07.2022
2494 Clouds 25 1013 82 10000 6.22 356 20:51 22.07.2022
2495 Clouds 25 1013 82 10000 5.84 4 19:34 22.07.2022
2496 Clouds 26 1014 79 10000 5.95 14 18:28 22.07.2022
2497 Clouds 26 1014 79 10000 5.76 13 16:48 22.07.2022
2498 Clouds 27 1015 77 10000 6.33 11 14:51 22.07.2022
2499 Clouds 24 1014 77 10000 6.38 0 11:22 22.07.2022
2500 Clouds 22 1015 79 10000 4.98 8 09:25 22.07.2022
2501 Clouds 22 1015 78 10000 4.88 8 08:29 22.07.2022
2502 Clouds 22 1014 77 10000 4.75 349 05:18 22.07.2022
2503 Clouds 24 1016 79 10000 5.81 346 00:40 22.07.2022
2504 Clouds 26 1015 79 10000 6.25 344 22:25 21.07.2022
2505 Clear 26 1014 76 10000 6.03 349 21:29 21.07.2022
2506 Clouds 27 1015 75 10000 6.83 350 19:26 21.07.2022
2507 Clouds 30 1015 76 10000 6.81 352 17:39 21.07.2022
2508 Clouds 30 1015 76 10000 7.01 355 17:19 21.07.2022
2509 Clouds 29 1016 74 10000 6.73 354 14:55 21.07.2022
2510 Clouds 28 1016 74 10000 6.31 352 14:29 21.07.2022
2511 Clouds 27 1016 74 10000 5.81 350 12:27 21.07.2022
2512 Clouds 26 1016 74 10000 5.83 346 10:56 21.07.2022
2513 Clear 26 1015 76 10000 5.54 338 09:27 21.07.2022
2514 Clear 27 1015 76 10000 5.54 338 08:49 21.07.2022
2515 Clouds 27 1015 74 10000 5.31 342 07:32 21.07.2022
2516 Clouds 26 1015 74 10000 5.19 332 03:55 21.07.2022
2517 Clouds 25 1016 76 10000 5.66 341 00:24 21.07.2022
2518 Clear 25 1015 76 10000 5.19 346 22:21 20.07.2022
2519 Clear 26 1014 74 10000 5.02 356 20:54 20.07.2022
2520 Clouds 27 1014 74 10000 5.68 3 19:50 20.07.2022
2521 Clouds 27 1014 73 10000 5.98 7 19:24 20.07.2022
2522 Clouds 28 1014 73 10000 5.98 7 18:33 20.07.2022
2523 Clouds 29 1014 73 10000 6.09 9 17:55 20.07.2022
2524 Clouds 27 1015 73 10000 6.04 11 16:42 20.07.2022
2525 Clouds 27 1015 75 10000 5.97 13 15:31 20.07.2022
2526 Clouds 27 1016 74 10000 5.82 12 14:18 20.07.2022
2527 Clouds 25 1016 72 10000 5.43 4 11:33 20.07.2022
2528 Clouds 23 1015 76 10000 5.15 357 08:46 20.07.2022
2529 Clouds 25 1016 80 10000 4.83 2 03:25 20.07.2022
2530 Clouds 24 1017 82 10000 5.31 2 00:48 20.07.2022
2531 Clouds 23 1017 85 10000 5.44 2 23:41 19.07.2022
2532 Clouds 24 1016 85 10000 5.68 4 22:31 19.07.2022
2533 Clouds 25 1016 81 10000 6.44 5 21:23 19.07.2022
2534 Clouds 25 1015 79 10000 6.61 8 20:27 19.07.2022
2535 Clouds 27 1015 75 10000 6.73 9 18:43 19.07.2022
2536 Clouds 27 1016 74 10000 6.74 9 17:57 19.07.2022
2537 Clouds 28 1016 74 10000 6.54 12 16:31 19.07.2022
2538 Clouds 27 1017 74 10000 6.6 16 14:52 19.07.2022
2539 Clouds 24 1017 74 10000 5.83 14 11:39 19.07.2022
2540 Clouds 23 1018 77 10000 5.71 11 10:47 19.07.2022
2541 Clouds 22 1017 82 10000 4.69 12 09:21 19.07.2022
2542 Clouds 22 1017 82 10000 4.69 12 08:32 19.07.2022
2543 Clouds 22 1017 84 10000 5.55 11 07:19 19.07.2022
2544 Clouds 23 1017 85 10000 5.83 11 05:27 19.07.2022
2545 Clouds 22 1017 85 10000 5.83 11 04:48 19.07.2022
2546 Clouds 23 1019 85 10000 6.65 10 00:35 19.07.2022
2547 Clouds 23 1018 86 10000 6.81 14 23:31 18.07.2022
2548 Clouds 23 1018 86 10000 7.21 13 22:58 18.07.2022
2549 Clouds 24 1017 85 10000 7.21 10 21:58 18.07.2022
2550 Clouds 24 1017 83 10000 7.2 11 20:50 18.07.2022
2551 Clouds 26 1017 76 10000 6.9 16 19:26 18.07.2022
2552 Clouds 27 1018 75 10000 6.3 16 17:24 18.07.2022
2553 Clouds 26 1018 74 10000 6.12 17 15:51 18.07.2022
2554 Clear 27 1019 73 10000 6.18 16 14:30 18.07.2022
2555 Clouds 26 1019 73 10000 6.2 4 12:58 18.07.2022
2556 Clouds 24 1019 77 10000 5.59 14 11:30 18.07.2022
2557 Clouds 22 1019 83 10000 6.17 28 08:54 18.07.2022
2558 Clouds 22 1018 85 10000 6.72 13 07:28 18.07.2022
2559 Clouds 23 1020 86 10000 6.85 5 01:24 18.07.2022
2560 Clouds 23 1019 84 10000 6.62 359 22:42 17.07.2022
2561 Clouds 23 1019 83 10000 6.66 359 21:57 17.07.2022
2562 Clouds 24 1018 80 10000 6.65 360 21:21 17.07.2022
2563 Clouds 24 1018 80 10000 6.65 360 20:44 17.07.2022
2564 Clouds 25 1018 77 10000 6.48 3 19:32 17.07.2022
2565 Clouds 25 1018 76 10000 6.62 3 18:30 17.07.2022
2566 Clouds 26 1018 73 10000 6.49 5 17:38 17.07.2022
2567 Clouds 26 1018 73 10000 6.43 6 16:51 17.07.2022
2568 Clouds 26 1018 73 10000 6.43 6 16:51 17.07.2022
2569 Clouds 25 1018 73 10000 6.32 8 16:26 17.07.2022
2570 Clouds 27 1019 74 10000 6.11 10 14:44 17.07.2022
2571 Clouds 25 1019 75 10000 6.04 14 13:31 17.07.2022
2572 Clouds 23 1019 78 10000 6.3 6 11:35 17.07.2022
2573 Clouds 22 1018 85 10000 6.45 13 08:57 17.07.2022
2574 Clouds 22 1017 85 10000 7.33 9 03:44 17.07.2022
2575 Clouds 22 1017 85 10000 7.42 5 02:32 17.07.2022
2576 Clouds 23 1017 86 10000 7.04 353 23:20 16.07.2022
2577 Clouds 24 1017 85 10000 6.79 357 21:30 16.07.2022
2578 Clouds 25 1016 77 10000 6.38 2 19:30 16.07.2022
2579 Clouds 25 1016 75 10000 6.21 3 18:32 16.07.2022
2580 Clouds 25 1016 74 10000 5.77 5 16:34 16.07.2022
2581 Clouds 25 1017 72 10000 5.57 5 13:49 16.07.2022
2582 Clouds 23 1017 79 10000 5.6 360 10:53 16.07.2022
2583 Clouds 22 1016 82 10000 5.43 1 09:33 16.07.2022
2584 Clouds 22 1016 85 10000 5.63 4 08:43 16.07.2022
2585 Clouds 22 1015 84 10000 5.89 358 08:23 16.07.2022
2586 Clouds 22 1015 83 10000 5.98 7 04:21 16.07.2022
2587 Clouds 22 1016 83 10000 5.91 7 02:49 16.07.2022
2588 Clouds 22 1017 83 10000 5.95 4 23:30 15.07.2022
2589 Clouds 23 1016 82 10000 6 360 22:40 15.07.2022
2590 Clouds 24 1015 80 10000 6.37 6 21:29 15.07.2022
2591 Clouds 24 1015 76 10000 6.48 6 20:26 15.07.2022
2592 Clouds 26 1015 74 10000 6.3 7 18:40 15.07.2022
2593 Clouds 26 1014 72 10000 6.22 7 17:37 15.07.2022
2594 Clouds 26 1015 69 10000 5.97 360 14:53 15.07.2022
2595 Clouds 25 1015 72 10000 5.26 7 12:57 15.07.2022
2596 Clouds 23 1015 76 10000 4.75 5 11:27 15.07.2022
2597 Clouds 22 1015 79 10000 4.48 13 09:44 15.07.2022
2598 Clouds 22 1014 85 10000 5.97 4 06:24 15.07.2022
2599 Clouds 22 1016 84 10000 6.7 360 00:53 15.07.2022
2600 Clouds 22 1016 82 10000 6.56 358 00:21 15.07.2022
2601 Clouds 22 1016 80 10000 6.41 354 22:50 14.07.2022
2602 Clouds 23 1016 77 10000 6.59 353 21:47 14.07.2022
2603 Clouds 24 1015 73 10000 6.51 353 21:29 14.07.2022
2604 Clouds 24 1015 73 10000 6.51 353 20:44 14.07.2022
2605 Clear 25 1015 72 10000 6.31 359 20:20 14.07.2022
2606 Clear 26 1015 70 10000 5.87 4 18:52 14.07.2022
2607 Clear 27 1016 69 10000 5.18 10 16:22 14.07.2022
2608 Clear 26 1016 69 10000 5.18 10 15:32 14.07.2022
2609 Clouds 25 1017 68 10000 5.15 12 13:59 14.07.2022
2610 Clouds 25 1017 69 10000 4.83 5 12:58 14.07.2022
2611 Clouds 24 1017 71 10000 4.85 10 11:47 14.07.2022
2612 Clouds 23 1017 74 10000 4.86 14 11:23 14.07.2022
2613 Clouds 22 1016 78 10000 4.9 15 09:54 14.07.2022
2614 Clouds 22 1016 81 10000 5.18 15 07:47 14.07.2022
2615 Clear 22 1017 73 10000 5.33 345 01:25 14.07.2022
2616 Clear 22 1017 73 10000 5.33 345 00:53 14.07.2022
2617 Clear 22 1017 74 10000 5.19 342 22:33 13.07.2022
2618 Clear 23 1017 73 10000 5.61 345 21:59 13.07.2022
2619 Clear 24 1016 70 10000 5.68 343 21:18 13.07.2022
2620 Clear 25 1016 69 10000 5.8 353 19:34 13.07.2022
2621 Clear 25 1016 67 10000 4.59 11 17:51 13.07.2022
2622 Clear 25 1017 67 10000 4.3 19 16:43 13.07.2022
2623 Clear 25 1018 67 10000 4.28 15 15:24 13.07.2022
2624 Clouds 25 1018 69 10000 4.61 10 12:56 13.07.2022
2625 Clouds 25 1018 69 10000 4.61 10 12:56 13.07.2022
2626 Clouds 23 1017 72 10000 4.34 12 10:46 13.07.2022
2627 Clouds 22 1017 74 10000 4.79 4 10:24 13.07.2022
2628 Clouds 21 1016 77 10000 4.99 358 09:25 13.07.2022
2629 Clouds 21 1016 79 10000 5.09 8 06:46 13.07.2022
2630 Clouds 21 1017 80 10000 5.83 1 03:19 13.07.2022
2631 Clouds 22 1018 80 10000 5.71 355 23:52 12.07.2022
2632 Clouds 22 1016 76 10000 5.63 356 22:18 12.07.2022
2633 Clouds 23 1016 76 10000 5.63 356 21:34 12.07.2022
2634 Clouds 24 1016 74 10000 5.79 357 20:42 12.07.2022
2635 Clouds 25 1016 72 10000 5.95 355 19:36 12.07.2022
2636 Clouds 26 1016 71 10000 5.8 4 17:54 12.07.2022
2637 Clouds 26 1016 70 10000 5.21 3 16:20 12.07.2022
2638 Clouds 26 1016 70 10000 5.21 3 16:20 12.07.2022
2639 Clouds 26 1016 70 10000 5.57 5 14:31 12.07.2022
2640 Clouds 26 1016 72 10000 5.68 1 13:20 12.07.2022
2641 Clouds 24 1016 75 10000 5.66 3 11:37 12.07.2022
2642 Clouds 23 1015 79 10000 6.04 3 10:18 12.07.2022
2643 Clouds 21 1014 83 10000 6.78 3 08:26 12.07.2022
2644 Clouds 21 1014 82 10000 6.92 5 07:38 12.07.2022
2645 Clouds 21 1014 83 10000 7.84 359 05:42 12.07.2022
2646 Clouds 22 1015 87 10000 7.41 355 03:29 12.07.2022
2647 Clouds 22 1015 84 10000 7.08 347 23:42 11.07.2022
2648 Clouds 23 1014 82 10000 6.63 342 22:31 11.07.2022
2649 Clouds 25 1014 77 10000 7.32 340 20:41 11.07.2022
2650 Clouds 27 1013 73 10000 7.25 338 19:50 11.07.2022
2651 Clouds 27 1013 74 10000 6.64 341 18:38 11.07.2022
2652 Clouds 27 1013 73 10000 7.16 346 17:55 11.07.2022
2653 Clouds 28 1013 70 10000 6.84 343 16:22 11.07.2022
2654 Clouds 28 1013 69 10000 6.55 340 14:49 11.07.2022
2655 Clouds 31 1014 68 10000 6.14 334 12:18 11.07.2022
2656 Clouds 28 1014 71 10000 6.04 332 10:42 11.07.2022
2657 Clouds 29 1014 75 10000 5.74 334 09:54 11.07.2022
2658 Clouds 27 1013 74 10000 5.94 328 08:35 11.07.2022
2659 Clouds 26 1013 72 10000 5.07 325 07:24 11.07.2022
2660 Clouds 31 1015 75 10000 6.77 322 00:47 11.07.2022
2661 Clouds 30 1015 74 10000 6.94 323 23:48 10.07.2022
2662 Clouds 30 1014 72 10000 6.09 328 22:26 10.07.2022
2663 Clouds 30 1014 69 10000 6.05 331 20:55 10.07.2022
2664 Clouds 31 1013 66 10000 5.58 332 19:59 10.07.2022
2665 Clouds 31 1013 66 10000 5.31 332 19:20 10.07.2022
2666 Clouds 31 1014 66 10000 5.59 333 17:51 10.07.2022
2667 Clouds 31 1014 66 10000 5.83 336 16:59 10.07.2022
2668 Clouds 31 1014 65 10000 6.04 335 16:20 10.07.2022
2669 Clouds 32 1014 65 10000 6.12 333 14:43 10.07.2022
2670 Clouds 30 1015 66 10000 6.04 326 12:42 10.07.2022
2671 Clouds 27 1015 66 10000 5.87 328 11:36 10.07.2022
2672 Clouds 25 1014 68 10000 5.7 331 09:30 10.07.2022
2673 Clouds 25 1014 72 10000 6.09 329 08:42 10.07.2022
2674 Clouds 24 1014 68 10000 5.75 329 06:36 10.07.2022
2675 Clouds 24 1016 74 10000 6.94 326 23:44 09.07.2022
2676 Clouds 27 1015 75 10000 6.19 329 22:26 09.07.2022
2677 Clouds 27 1015 75 10000 6.19 329 22:26 09.07.2022
2678 Clouds 29 1015 75 10000 6.19 329 21:40 09.07.2022
2679 Clouds 28 1014 70 10000 6.89 328 19:37 09.07.2022
2680 Clouds 28 1015 70 10000 5.92 335 18:25 09.07.2022
2681 Clouds 29 1015 70 8805 5.89 336 17:18 09.07.2022
2682 Clouds 30 1015 70 8809 5.77 336 15:58 09.07.2022
2683 Clouds 30 1015 70 8809 5.77 336 15:38 09.07.2022
2684 Clouds 29 1016 69 10000 5.8 336 14:21 09.07.2022
2685 Clouds 27 1016 70 10000 5.78 333 13:28 09.07.2022
2686 Clouds 25 1016 70 10000 5.75 334 11:40 09.07.2022
2687 Clouds 23 1016 73 10000 4.91 333 10:25 09.07.2022
2688 Clouds 22 1016 75 10000 4.9 330 09:23 09.07.2022
2689 Clouds 22 1016 76 10000 5.1 331 07:43 09.07.2022
2690 Clouds 22 1016 77 10000 4.87 330 04:38 09.07.2022
2691 Clouds 23 1017 79 10000 6.35 328 23:33 08.07.2022
2692 Clouds 23 1017 79 10000 6.65 331 22:18 08.07.2022
2693 Clouds 24 1016 77 10000 6.86 338 21:21 08.07.2022
2694 Clouds 25 1016 77 10000 6.86 338 20:35 08.07.2022
2695 Clouds 26 1017 74 10000 6.16 344 18:45 08.07.2022
2696 Clouds 27 1017 74 10000 6.03 346 17:45 08.07.2022
2697 Clouds 27 1017 74 10000 6.03 346 17:45 08.07.2022
2698 Clouds 28 1018 74 10000 6.61 346 16:24 08.07.2022
2699 Clouds 26 1018 73 10000 6.21 345 14:50 08.07.2022
2700 Clouds 25 1019 72 10000 6.66 342 12:31 08.07.2022
2701 Clouds 22 1019 76 10000 6.28 344 10:46 08.07.2022
2702 Clouds 21 1019 79 10000 6.43 342 09:58 08.07.2022
2703 Clouds 21 1018 86 10000 5.99 344 06:59 08.07.2022
2704 Clouds 21 1018 87 10000 6.15 348 05:33 08.07.2022
2705 Clouds 21 1020 85 10000 6.26 347 00:30 08.07.2022
2706 Clouds 22 1020 87 10000 6.26 354 22:50 07.07.2022
2707 Clouds 23 1020 86 10000 6.54 358 21:46 07.07.2022
2708 Clouds 25 1019 80 10000 6.92 1 19:34 07.07.2022
2709 Clouds 25 1019 74 10000 6.78 359 17:43 07.07.2022
2710 Clouds 25 1020 72 10000 7.01 355 16:21 07.07.2022
2711 Clouds 24 1020 73 10000 7.19 357 13:40 07.07.2022
2712 Clouds 23 1021 74 10000 6.8 360 12:41 07.07.2022
2713 Clouds 23 1020 75 10000 6.67 5 12:22 07.07.2022
2714 Clouds 22 1020 75 10000 6.67 5 11:32 07.07.2022
2715 Clouds 22 1020 78 10000 6.81 5 10:45 07.07.2022
2716 Clouds 21 1020 80 10000 6.97 6 10:27 07.07.2022
2717 Clouds 21 1020 81 10000 7.07 4 08:40 07.07.2022
2718 Clouds 21 1019 81 10000 7.59 5 05:44 07.07.2022
2719 Clouds 22 1021 82 10000 7.57 2 23:54 06.07.2022
2720 Clouds 22 1021 82 10000 7.57 2 23:36 06.07.2022
2721 Clouds 22 1020 80 10000 7.46 359 23:18 06.07.2022
2722 Clouds 22 1020 80 10000 7.46 359 22:46 06.07.2022
2723 Clouds 22 1020 80 10000 7.16 359 22:28 06.07.2022
2724 Clouds 24 1019 74 10000 6.97 5 19:46 06.07.2022
2725 Clouds 25 1019 75 10000 6.61 9 18:45 06.07.2022
2726 Clouds 25 1020 75 10000 5.98 25 16:45 06.07.2022
2727 Clouds 25 1021 74 10000 6.19 27 15:44 06.07.2022
2728 Clouds 23 1021 77 10000 6.02 23 12:44 06.07.2022
2729 Clouds 23 1021 77 10000 6.29 24 11:50 06.07.2022
2730 Clouds 22 1021 78 10000 6.65 16 10:33 06.07.2022
2731 Clouds 21 1020 81 10000 6.63 13 08:43 06.07.2022
2732 Clouds 21 1019 82 10000 6.64 13 07:41 06.07.2022
2733 Clouds 21 1019 82 10000 6.78 13 06:40 06.07.2022
2734 Clouds 22 1021 83 10000 7.02 15 22:50 05.07.2022
2735 Clouds 22 1020 81 10000 6.93 14 22:28 05.07.2022
2736 Clouds 23 1020 77 10000 6.84 13 20:42 05.07.2022
2737 Clouds 24 1019 74 10000 7.02 13 19:44 05.07.2022
2738 Clouds 24 1019 73 10000 6.82 17 19:26 05.07.2022
2739 Clouds 25 1019 73 10000 6.6 20 17:48 05.07.2022
2740 Clouds 25 1020 71 10000 6.4 22 16:57 05.07.2022
2741 Clouds 25 1020 71 10000 6.27 27 15:39 05.07.2022
2742 Clouds 25 1021 71 10000 5.98 28 14:39 05.07.2022
2743 Clouds 24 1021 74 10000 6.17 20 12:52 05.07.2022
2744 Clouds 24 1021 77 10000 6.29 19 12:19 05.07.2022
2745 Clouds 23 1021 78 10000 6.27 22 10:44 05.07.2022
2746 Clouds 22 1021 80 10000 6.32 24 09:32 05.07.2022
2747 Clouds 21 1020 82 10000 6.77 17 08:19 05.07.2022
2748 Clouds 21 1019 81 10000 7.21 10 06:22 05.07.2022
2749 Clouds 21 1020 81 10000 7.11 12 04:26 05.07.2022
2750 Clouds 22 1021 81 10000 6.82 14 00:38 05.07.2022
2751 Clouds 22 1021 81 10000 7.06 13 23:34 04.07.2022
2752 Clouds 22 1020 80 10000 6.98 8 22:50 04.07.2022
2753 Clouds 23 1020 79 10000 6.92 9 21:53 04.07.2022
2754 Clouds 23 1019 78 10000 6.8 14 20:54 04.07.2022
2755 Clouds 24 1019 78 10000 6.8 14 20:35 04.07.2022
2756 Clouds 24 1019 77 10000 6.81 12 19:55 04.07.2022
2757 Clouds 25 1019 77 10000 6.81 12 19:36 04.07.2022
2758 Clouds 25 1019 73 10000 6.71 16 18:26 04.07.2022
2759 Clouds 25 1019 72 10000 6.45 18 16:34 04.07.2022
2760 Clouds 25 1020 72 10000 6.34 20 15:34 04.07.2022
2761 Clouds 24 1020 75 10000 6.04 14 13:33 04.07.2022
2762 Clouds 23 1021 78 10000 5.89 17 12:33 04.07.2022
2763 Clouds 22 1021 79 10000 5.69 25 10:34 04.07.2022
2764 Clouds 21 1021 79 10000 6.07 23 09:53 04.07.2022
2765 Clouds 21 1020 79 10000 6.21 21 08:31 04.07.2022
2766 Clouds 21 1020 81 10000 6.49 17 05:18 04.07.2022
2767 Clouds 22 1022 78 10000 7.08 16 00:42 04.07.2022
2768 Clouds 22 1021 77 10000 6.97 14 22:59 03.07.2022
2769 Clouds 23 1020 75 10000 6.66 15 20:59 03.07.2022
2770 Clouds 25 1020 75 10000 6.66 15 20:41 03.07.2022
2771 Clouds 25 1020 76 10000 6.5 15 19:41 03.07.2022
2772 Clouds 25 1020 74 10000 6.38 17 19:23 03.07.2022
2773 Clouds 25 1020 72 10000 6.04 21 17:45 03.07.2022
2774 Clouds 26 1020 72 10000 5.9 24 16:54 03.07.2022
2775 Clouds 25 1021 74 10000 5.76 27 15:24 03.07.2022
2776 Clouds 25 1021 74 10000 5.76 27 14:32 03.07.2022
2777 Clouds 25 1022 73 10000 6.04 30 13:48 03.07.2022
2778 Clouds 24 1022 73 10000 5.93 29 12:35 03.07.2022
2779 Clouds 23 1022 73 10000 6.03 28 11:39 03.07.2022
2780 Clouds 21 1021 72 10000 5.96 27 10:39 03.07.2022
2781 Clouds 20 1021 73 10000 5.96 25 09:59 03.07.2022
2782 Clouds 21 1020 75 10000 5.88 20 07:36 03.07.2022
2783 Clouds 22 1020 77 10000 6.1 15 05:18 03.07.2022
2784 Clouds 22 1022 83 10000 6.53 359 00:23 03.07.2022
2785 Clouds 23 1022 83 10000 6.77 0 22:35 02.07.2022
2786 Clouds 23 1021 82 10000 6.88 2 21:38 02.07.2022
2787 Clouds 25 1020 76 10000 6.63 8 19:52 02.07.2022
2788 Clouds 26 1020 76 10000 6.63 8 19:31 02.07.2022
2789 Clouds 26 1021 71 10000 5.56 6 17:58 02.07.2022
2790 Clouds 26 1021 71 10000 5.56 6 17:36 02.07.2022
2791 Clouds 24 1021 71 10000 5.81 359 15:28 02.07.2022
2792 Clouds 23 1021 76 10000 5.93 2 12:22 02.07.2022
2793 Clouds 22 1021 77 10000 5.9 2 11:27 02.07.2022
2794 Clouds 22 1021 77 10000 5.9 2 10:46 02.07.2022
2795 Clouds 20 1020 78 10000 6.16 3 09:37 02.07.2022
2796 Clouds 19 1020 79 10000 6.62 7 08:36 02.07.2022
2797 Clouds 19 1019 82 10000 6.19 10 08:18 02.07.2022
2798 Clouds 21 1020 81 10000 5.82 4 02:52 02.07.2022
2799 Clouds 22 1020 77 10000 5.98 1 00:27 02.07.2022
2800 Clouds 22 1020 77 10000 6.29 0 22:59 01.07.2022
2801 Clouds 22 1019 77 10000 6.83 2 21:56 01.07.2022
2802 Clouds 23 1019 77 10000 6.83 2 21:37 01.07.2022
2803 Clouds 23 1019 75 10000 6.98 1 20:56 01.07.2022
2804 Clouds 25 1018 72 10000 6.26 356 19:47 01.07.2022
2805 Clouds 25 1018 69 10000 6.07 358 18:42 01.07.2022
2806 Clouds 24 1018 69 10000 6.19 9 16:35 01.07.2022
2807 Clouds 24 1019 70 10000 5.82 9 13:55 01.07.2022
2808 Clouds 22 1019 70 10000 6.01 9 12:59 01.07.2022
2809 Clouds 20 1019 75 10000 6.54 11 10:46 01.07.2022
2810 Clouds 20 1019 77 10000 6.68 7 10:18 01.07.2022
2811 Clouds 21 1018 79 10000 7.34 5 05:58 01.07.2022
2812 Clouds 21 1019 76 10000 7.32 5 01:30 01.07.2022
2813 Clouds 22 1019 77 10000 7.43 3 23:28 30.06.2022
2814 Clouds 22 1019 77 10000 7.43 3 22:45 30.06.2022
2815 Clouds 22 1019 77 10000 7.14 5 22:27 30.06.2022
2816 Clouds 22 1019 77 10000 7.14 5 21:50 30.06.2022
2817 Clouds 23 1018 74 10000 7.13 6 20:31 30.06.2022
2818 Clouds 24 1018 71 10000 7.05 6 19:55 30.06.2022
2819 Clouds 24 1018 72 10000 7.04 6 19:32 30.06.2022
2820 Clouds 25 1018 71 10000 7.17 8 18:43 30.06.2022
2821 Clouds 25 1018 71 10000 6.77 8 17:49 30.06.2022
2822 Clouds 24 1019 70 10000 6.79 9 16:55 30.06.2022
2823 Clouds 25 1019 70 10000 7.02 9 15:50 30.06.2022
2824 Clouds 25 1020 69 10000 7.39 8 13:50 30.06.2022
2825 Clouds 24 1019 73 10000 7.7 9 13:18 30.06.2022
2826 Clouds 23 1019 73 10000 7.7 9 12:32 30.06.2022
2827 Clouds 21 1019 80 10000 6.4 2 10:19 30.06.2022
2828 Clouds 21 1019 80 10000 6.4 2 09:40 30.06.2022
2829 Clouds 21 1018 84 10000 6.98 7 08:22 30.06.2022
2830 Clouds 21 1018 84 10000 7.01 4 07:40 30.06.2022
2831 Clouds 22 1019 81 10000 7.35 2 03:35 30.06.2022
2832 Clouds 22 1020 77 10000 7.96 9 23:38 29.06.2022
2833 Clouds 22 1020 75 10000 8 9 22:41 29.06.2022
2834 Clouds 22 1020 77 10000 7.95 8 21:59 29.06.2022
2835 Clouds 24 1019 75 10000 8.16 9 20:35 29.06.2022
2836 Clouds 23 1019 73 10000 8.11 8 19:56 29.06.2022
2837 Clouds 25 1020 69 10000 7.72 9 17:55 29.06.2022
2838 Clouds 25 1020 69 10000 7.72 9 17:55 29.06.2022
2839 Clouds 26 1020 70 10000 7.78 10 16:55 29.06.2022
2840 Clouds 25 1021 69 10000 7.49 12 15:44 29.06.2022
2841 Clouds 24 1021 69 10000 6.95 12 13:43 29.06.2022
2842 Clouds 22 1022 71 10000 7.34 11 12:36 29.06.2022
2843 Clouds 21 1021 76 10000 7.1 8 09:50 29.06.2022
2844 Clouds 21 1021 77 10000 7.53 9 09:26 29.06.2022
2845 Clouds 21 1020 77 10000 7.48 10 06:29 29.06.2022
2846 Clouds 21 1021 79 10000 7.67 6 04:42 29.06.2022
2847 Clouds 22 1023 74 10000 8.6 5 00:53 29.06.2022
2848 Clouds 21 1023 74 10000 8.6 5 00:33 29.06.2022
2849 Clouds 21 1023 72 10000 8.78 2 22:50 28.06.2022
2850 Clouds 22 1022 72 10000 8.54 3 21:58 28.06.2022
2851 Clouds 23 1022 72 10000 8.54 3 21:39 28.06.2022
2852 Clouds 23 1022 70 10000 7.98 3 21:19 28.06.2022
2853 Clouds 23 1022 70 10000 7.98 2 19:54 28.06.2022
2854 Clouds 24 1022 69 10000 7.48 4 19:28 28.06.2022
2855 Clouds 25 1022 69 10000 7.48 4 18:40 28.06.2022
2856 Clouds 25 1022 68 10000 7.39 10 16:58 28.06.2022
2857 Clouds 25 1022 68 10000 7.2 10 15:55 28.06.2022
2858 Clouds 26 1022 69 10000 7 12 14:50 28.06.2022
2859 Clouds 25 1023 70 10000 6.79 14 14:18 28.06.2022
2860 Clouds 25 1023 70 10000 6.51 15 13:45 28.06.2022
2861 Clouds 23 1023 72 10000 6.34 14 12:30 28.06.2022
2862 Clouds 21 1022 78 10000 7.08 15 10:23 28.06.2022
2863 Clouds 21 1021 77 10000 7.08 15 08:55 28.06.2022
2864 Clouds 21 1021 77 10000 7.08 15 08:33 28.06.2022
2865 Clouds 21 1021 79 10000 7.06 8 07:20 28.06.2022
2866 Clouds 21 1021 75 10000 6.86 14 03:39 28.06.2022
2867 Clouds 22 1023 78 10000 7.7 23 23:51 27.06.2022
2868 Clouds 22 1022 77 10000 7.2 17 23:26 27.06.2022
2869 Clouds 22 1022 75 10000 7.6 16 21:53 27.06.2022
2870 Clouds 22 1021 74 10000 7.55 15 21:22 27.06.2022
2871 Clouds 23 1021 74 10000 7.55 15 20:33 27.06.2022
2872 Clouds 24 1021 70 10000 7.1 15 18:51 27.06.2022
2873 Clouds 26 1021 70 10000 6.87 15 17:38 27.06.2022
2874 Clouds 24 1021 69 10000 6.67 24 15:50 27.06.2022
2875 Clouds 25 1022 68 10000 6.05 25 14:18 27.06.2022
2876 Clouds 24 1022 70 10000 5.94 24 12:58 27.06.2022
2877 Clouds 23 1022 72 10000 5.79 24 11:40 27.06.2022
2878 Clouds 22 1021 69 10000 6.52 23 09:49 27.06.2022
2879 Clouds 21 1020 70 10000 5.85 21 08:43 27.06.2022
2880 Clouds 20 1020 75 10000 6.32 18 07:49 27.06.2022
2881 Clouds 20 1019 71 10000 6.85 21 05:50 27.06.2022
2882 Clouds 22 1020 75 10000 7.1 19 01:24 27.06.2022
2883 Clouds 21 1019 80 10000 7.18 23 22:59 26.06.2022
2884 Clouds 23 1019 79 10000 7.52 21 21:39 26.06.2022
2885 Clouds 25 1018 79 10000 7.3 23 20:33 26.06.2022
2886 Clouds 25 1018 75 10000 6.35 9 18:34 26.06.2022
2887 Clouds 25 1018 71 10000 6.27 2 17:47 26.06.2022
2888 Clouds 26 1018 66 10000 5.64 353 15:37 26.06.2022
2889 Clouds 25 1019 69 10000 5.87 357 14:23 26.06.2022
2890 Clouds 24 1019 71 10000 5.69 358 13:24 26.06.2022
2891 Clouds 23 1019 71 10000 5.71 357 11:49 26.06.2022
2892 Clouds 21 1019 71 10000 6.19 356 10:42 26.06.2022
2893 Clouds 21 1018 73 10000 6.64 354 10:19 26.06.2022
2894 Clouds 21 1017 80 10000 7.49 355 08:27 26.06.2022
2895 Rain 21 1017 85 10000 7.45 358 06:31 26.06.2022
2896 Clouds 22 1019 78 10000 6.97 356 00:37 26.06.2022
2897 Clouds 22 1019 77 10000 7.31 354 00:19 26.06.2022
2898 Clouds 22 1019 77 10000 7.31 354 23:31 25.06.2022
2899 Clouds 22 1019 81 10000 7.59 352 22:48 25.06.2022
2900 Clouds 22 1018 82 10000 7.92 352 22:25 25.06.2022
2901 Clouds 23 1018 81 10000 8.13 354 21:21 25.06.2022
2902 Clouds 23 1018 81 10000 8.13 354 20:48 25.06.2022
2903 Clouds 24 1018 78 10000 7.71 354 20:25 25.06.2022
2904 Clouds 24 1018 78 10000 7.71 354 20:25 25.06.2022
2905 Clouds 25 1018 72 10000 6.47 348 18:24 25.06.2022
2906 Clouds 26 1018 69 10000 5.49 348 17:27 25.06.2022
2907 Clouds 24 1019 69 10000 5.67 357 16:28 25.06.2022
2908 Clouds 25 1019 69 10000 6.62 2 14:41 25.06.2022
2909 Clouds 25 1020 70 10000 7.18 2 12:51 25.06.2022
2910 Clouds 24 1020 70 10000 7.18 2 12:31 25.06.2022
2911 Clouds 21 1020 74 10000 7.04 1 09:35 25.06.2022
2912 Clouds 21 1019 78 10000 7.03 359 08:54 25.06.2022
2913 Clouds 21 1019 80 10000 6.38 353 08:20 25.06.2022
2914 Clouds 21 1019 82 10000 5.7 352 06:36 25.06.2022
2915 Rain 21 1021 81 10000 7.66 7 00:50 25.06.2022
2916 Rain 22 1021 82 10000 7.31 8 23:57 24.06.2022
2917 Clouds 22 1020 78 10000 7.16 1 22:28 24.06.2022
2918 Clouds 22 1020 76 10000 7.23 2 21:26 24.06.2022
2919 Clouds 24 1020 76 10000 7.12 2 20:23 24.06.2022
2920 Clouds 24 1020 76 10000 6.92 0 19:24 24.06.2022
2921 Clouds 24 1020 76 10000 6.92 0 18:51 24.06.2022
2922 Clouds 24 1020 76 10000 6.92 0 18:31 24.06.2022
2923 Clouds 25 1020 73 10000 6.33 355 17:49 24.06.2022
2924 Clouds 25 1020 70 10000 5.99 358 16:45 24.06.2022
2925 Clouds 25 1020 70 10000 5.99 358 16:45 24.06.2022
2926 Clouds 25 1021 70 10000 5.7 2 14:30 24.06.2022
2927 Clouds 25 1021 67 10000 5.81 5 13:58 24.06.2022
2928 Clouds 25 1021 66 10000 6.01 5 12:49 24.06.2022
2929 Clouds 24 1021 68 10000 5.47 9 11:40 24.06.2022
2930 Clouds 22 1022 71 10000 5.04 15 10:34 24.06.2022
2931 Clouds 21 1021 75 10000 5.01 18 09:41 24.06.2022
2932 Clouds 21 1021 76 10000 5.03 15 08:53 24.06.2022
2933 Clouds 21 1021 76 10000 5.03 15 08:53 24.06.2022
2934 Clouds 21 1020 77 10000 4.94 19 07:39 24.06.2022
2935 Clouds 21 1020 78 10000 5.2 13 06:42 24.06.2022
2936 Clouds 21 1020 78 10000 5.38 7 06:18 24.06.2022
2937 Clouds 21 1021 79 10000 5.75 8 03:47 24.06.2022
2938 Clear 22 1022 70 10000 5.66 354 23:19 23.06.2022
2939 Clear 22 1022 70 10000 5.66 354 22:40 23.06.2022
2940 Clear 24 1020 67 10000 6.14 354 20:59 23.06.2022
2941 Clear 24 1020 67 10000 6.14 354 20:35 23.06.2022
2942 Clear 25 1020 64 10000 6.19 352 19:40 23.06.2022
2943 Clear 25 1020 63 10000 5.63 5 17:53 23.06.2022
2944 Clear 25 1020 64 10000 5.52 6 17:33 23.06.2022
2945 Clear 25 1020 65 10000 5.07 10 16:23 23.06.2022
2946 Clear 25 1020 65 10000 5.1 10 15:25 23.06.2022
2947 Clouds 24 1020 64 10000 4.75 5 13:46 23.06.2022
2948 Clouds 23 1020 68 10000 4.57 3 11:27 23.06.2022
2949 Clouds 21 1020 68 10000 4.57 3 10:40 23.06.2022
2950 Clouds 20 1019 76 10000 4.19 13 09:18 23.06.2022
2951 Clouds 20 1018 77 10000 4.93 7 03:40 23.06.2022
2952 Clouds 21 1019 70 10000 4.94 12 00:27 23.06.2022
2953 Clouds 21 1019 70 10000 4.94 12 23:43 22.06.2022
2954 Clouds 21 1019 70 10000 5.2 13 22:48 22.06.2022
2955 Clouds 21 1019 70 10000 5.2 13 22:48 22.06.2022
2956 Clouds 22 1018 70 10000 5.47 14 21:27 22.06.2022
2957 Clouds 23 1018 70 10000 5.47 14 20:45 22.06.2022
2958 Clouds 23 1018 68 10000 5.31 10 19:58 22.06.2022
2959 Clouds 24 1018 67 10000 5.51 12 18:50 22.06.2022
2960 Clouds 23 1019 64 10000 4.95 20 17:29 22.06.2022
2961 Clouds 23 1019 64 10000 4.95 20 16:37 22.06.2022
2962 Clouds 23 1019 67 10000 4.83 20 15:27 22.06.2022
2963 Clouds 23 1019 67 10000 4.83 20 14:31 22.06.2022
2964 Clouds 23 1020 66 10000 4.73 21 13:44 22.06.2022
2965 Clouds 23 1020 68 10000 4.4 23 13:23 22.06.2022
2966 Clouds 22 1020 71 10000 4.09 26 11:50 22.06.2022
2967 Clouds 22 1020 71 10000 4.09 26 11:50 22.06.2022
2968 Clouds 22 1020 73 10000 3.83 33 10:58 22.06.2022
2969 Clouds 21 1020 74 10000 3.84 37 10:19 22.06.2022
2970 Clouds 21 1019 74 10000 4.07 32 08:37 22.06.2022
2971 Clouds 21 1018 75 10000 5.01 24 05:59 22.06.2022
2972 Clouds 21 1020 74 10000 5.01 26 01:49 22.06.2022
2973 Clouds 21 1020 74 10000 5.35 25 00:36 22.06.2022
2974 Clouds 22 1020 73 10000 5.78 17 22:37 21.06.2022
2975 Clouds 23 1019 73 10000 5.97 21 20:39 21.06.2022
2976 Clouds 23 1018 74 10000 5.92 26 18:51 21.06.2022
2977 Clouds 23 1019 75 10000 5.95 28 17:40 21.06.2022
2978 Clouds 23 1019 79 10000 6.97 33 15:21 21.06.2022
2979 Clouds 22 1019 76 10000 5.41 28 11:55 21.06.2022
2980 Clouds 22 1018 75 10000 5.48 24 10:20 21.06.2022
2981 Clouds 21 1017 76 10000 5.4 20 08:50 21.06.2022
2982 Clouds 21 1017 80 10000 5.13 24 07:35 21.06.2022
2983 Clouds 22 1018 79 10000 5.29 27 03:21 21.06.2022
2984 Clouds 22 1017 81 10000 5.7 25 23:27 20.06.2022
2985 Clouds 22 1017 80 10000 6.36 24 21:58 20.06.2022
2986 Clouds 22 1017 80 10000 6.36 24 21:31 20.06.2022
2987 Clouds 23 1016 79 10000 6.4 28 19:57 20.06.2022
2988 Clouds 23 1016 79 10000 5.78 32 18:54 20.06.2022
2989 Clouds 24 1017 79 10000 5.69 36 18:24 20.06.2022
2990 Clouds 25 1017 79 10000 5.69 36 17:40 20.06.2022
2991 Clouds 25 1017 78 10000 5.79 39 16:20 20.06.2022
2992 Clouds 24 1018 77 10000 6.28 32 14:18 20.06.2022
2993 Clouds 23 1017 78 10000 5.93 28 11:46 20.06.2022
2994 Clouds 22 1017 83 10000 5.43 25 09:48 20.06.2022
2995 Clouds 22 1016 85 10000 4.8 32 08:45 20.06.2022
2996 Clouds 21 1016 85 10000 4.94 48 06:59 20.06.2022
2997 Clouds 22 1016 84 10000 5.91 36 03:51 20.06.2022
2998 Clouds 21 1018 81 10000 6.12 38 00:52 20.06.2022
2999 Clouds 22 1017 80 10000 6.4 28 23:29 19.06.2022
3000 Clouds 22 1016 80 10000 6.01 25 22:19 19.06.2022
3001 Clouds 22 1016 80 10000 6.01 25 21:42 19.06.2022
3002 Clouds 23 1016 79 10000 6.19 22 20:48 19.06.2022
3003 Clouds 24 1015 81 10000 6.64 20 19:49 19.06.2022
3004 Clouds 24 1015 78 10000 6.67 18 19:24 19.06.2022
3005 Clouds 25 1015 78 10000 6.67 18 18:31 19.06.2022
3006 Clouds 25 1015 77 10000 6.5 17 17:39 19.06.2022
3007 Clouds 25 1016 75 10000 6.55 18 16:39 19.06.2022
3008 Clouds 25 1016 73 10000 6.57 20 15:44 19.06.2022
3009 Clouds 25 1017 73 10000 6.1 22 15:26 19.06.2022
3010 Clouds 24 1016 72 10000 6.04 21 14:35 19.06.2022
3011 Clouds 24 1017 72 10000 5.84 18 13:44 19.06.2022
3012 Clouds 23 1017 75 10000 4.62 25 11:53 19.06.2022
3013 Clouds 22 1017 79 10000 4.98 20 10:52 19.06.2022
3014 Clouds 21 1017 83 10000 5.86 19 08:55 19.06.2022
3015 Clouds 21 1017 83 10000 5.4 17 08:30 19.06.2022
3016 Clouds 21 1016 83 10000 5.72 20 06:54 19.06.2022
3017 Clouds 22 1017 81 10000 5.87 17 03:38 19.06.2022
3018 Clouds 22 1018 84 10000 6.47 18 00:28 19.06.2022
3019 Clouds 22 1018 84 10000 6.47 18 23:59 18.06.2022
3020 Clouds 22 1018 84 10000 6.47 18 23:34 18.06.2022
3021 Clouds 22 1018 83 10000 6.7 16 22:23 18.06.2022
3022 Clouds 23 1017 80 10000 6.99 11 20:51 18.06.2022
3023 Clouds 24 1017 77 10000 6.58 18 20:18 18.06.2022
3024 Clouds 25 1017 76 10000 7.17 14 18:57 18.06.2022
3025 Clouds 25 1017 76 10000 7.17 14 18:38 18.06.2022
3026 Clouds 25 1018 74 10000 7.22 18 17:29 18.06.2022
3027 Clouds 25 1018 72 10000 7.08 19 15:57 18.06.2022
3028 Clouds 25 1019 72 10000 6.75 20 14:54 18.06.2022
3029 Clouds 24 1019 72 10000 6.75 20 14:35 18.06.2022
3030 Clouds 24 1020 72 10000 6.59 15 12:30 18.06.2022
3031 Clouds 23 1020 75 10000 5.89 20 11:20 18.06.2022
3032 Clouds 22 1019 77 10000 6.22 20 09:46 18.06.2022
3033 Clouds 21 1019 79 10000 6.15 27 08:46 18.06.2022
3034 Clouds 21 1019 80 10000 6.61 30 07:34 18.06.2022
3035 Clouds 21 1018 82 10000 7.18 17 05:20 18.06.2022
3036 Clouds 22 1019 83 10000 7.6 16 01:50 18.06.2022
3037 Clouds 22 1019 82 10000 7.56 14 01:21 18.06.2022
3038 Clouds 22 1020 82 10000 7.72 16 00:23 18.06.2022
3039 Clouds 22 1020 82 10000 7.72 16 00:23 18.06.2022
3040 Clouds 22 1020 82 10000 7.72 16 23:37 17.06.2022
3041 Clouds 23 1019 83 10000 7.36 15 22:29 17.06.2022
3042 Clouds 24 1017 80 10000 6.85 14 20:29 17.06.2022
3043 Clouds 25 1018 78 10000 6.81 12 19:24 17.06.2022
3044 Clouds 26 1018 76 10000 6.7 14 17:58 17.06.2022
3045 Clouds 27 1018 75 10000 6.58 19 16:50 17.06.2022
3046 Clear 26 1018 73 10000 6.46 19 16:25 17.06.2022
3047 Clear 27 1018 73 10000 6.46 19 15:40 17.06.2022
3048 Clouds 25 1019 73 10000 6.29 20 14:23 17.06.2022
3049 Clouds 24 1019 73 10000 6.29 20 13:58 17.06.2022
3050 Clouds 25 1019 72 10000 6.13 19 13:38 17.06.2022
3051 Clouds 24 1019 75 10000 6.19 19 12:28 17.06.2022
3052 Clouds 24 1019 75 10000 6.19 19 11:55 17.06.2022
3053 Clouds 23 1019 75 10000 6.19 19 11:33 17.06.2022
3054 Clouds 21 1018 78 10000 6.37 25 09:36 17.06.2022
3055 Clouds 21 1017 83 10000 6.4 18 08:26 17.06.2022
3056 Clouds 21 1017 83 10000 6.15 15 06:45 17.06.2022
3057 Clouds 21 1018 81 10000 6.16 12 03:59 17.06.2022
3058 Clouds 21 1020 82 10000 7.13 14 01:56 17.06.2022
3059 Clouds 22 1020 82 10000 6.4 16 23:35 16.06.2022
3060 Clouds 22 1019 82 10000 6.43 13 22:42 16.06.2022
3061 Clouds 23 1018 77 10000 6.4 10 21:22 16.06.2022
3062 Clouds 24 1018 77 10000 6.4 10 20:52 16.06.2022
3063 Clouds 24 1018 77 10000 6.4 10 20:33 16.06.2022
3064 Clouds 24 1018 75 10000 6.42 12 19:32 16.06.2022
3065 Clouds 25 1018 74 10000 6.59 17 18:24 16.06.2022
3066 Clouds 25 1018 74 10000 6.59 17 17:42 16.06.2022
3067 Clouds 26 1018 73 10000 6.04 22 16:33 16.06.2022
3068 Clouds 25 1019 72 10000 5.01 27 15:22 16.06.2022
3069 Clouds 25 1019 72 10000 5.01 27 14:30 16.06.2022
3070 Clear 25 1019 72 10000 5.25 7 13:19 16.06.2022
3071 Clear 24 1019 72 10000 5.25 7 12:35 16.06.2022
3072 Clear 24 1019 72 10000 5.56 359 11:49 16.06.2022
3073 Clear 22 1020 73 10000 6.11 355 10:51 16.06.2022
3074 Clear 22 1020 75 10000 6.25 354 09:43 16.06.2022
3075 Clear 21 1019 77 10000 5.74 350 09:20 16.06.2022
3076 Clouds 21 1019 78 10000 5.76 351 07:57 16.06.2022
3077 Clouds 21 1018 78 10000 6 357 07:24 16.06.2022
3078 Clouds 21 1019 79 10000 6.6 354 04:33 16.06.2022
3079 Clouds 21 1020 81 10000 6.28 356 01:54 16.06.2022
3080 Clouds 22 1020 81 10000 6.28 356 01:34 16.06.2022
3081 Clouds 22 1020 83 10000 6.28 358 00:36 16.06.2022
3082 Clear 22 1019 82 10000 5.83 350 23:25 15.06.2022
3083 Clear 23 1019 78 10000 5.82 347 22:28 15.06.2022
3084 Clear 24 1018 74 10000 6.14 347 21:21 15.06.2022
3085 Clear 25 1018 74 10000 6.14 347 20:38 15.06.2022
3086 Clear 25 1018 71 10000 6.52 348 20:19 15.06.2022
3087 Clear 27 1017 69 10000 6.23 356 18:51 15.06.2022
3088 Clear 27 1017 68 10000 6.14 355 17:55 15.06.2022
3089 Clear 26 1018 68 10000 6.06 349 16:38 15.06.2022
3090 Clear 26 1019 66 10000 6.35 346 15:26 15.06.2022
3091 Clear 26 1019 65 10000 6.34 343 13:43 15.06.2022
3092 Clear 26 1018 64 10000 6.12 341 12:53 15.06.2022
3093 Clear 23 1018 65 10000 5.46 335 11:42 15.06.2022
3094 Clear 22 1018 74 10000 5.33 332 10:23 15.06.2022
3095 Clear 21 1018 74 10000 5.33 332 09:38 15.06.2022
3096 Clouds 19 1018 79 10000 3.86 342 08:27 15.06.2022
3097 Clouds 20 1017 79 10000 3.68 0 06:33 15.06.2022
3098 Clouds 21 1017 77 10000 3.65 17 03:30 15.06.2022
3099 Clear 21 1018 79 10000 4.56 21 01:38 15.06.2022
3100 Clear 21 1018 79 10000 4.97 7 00:50 15.06.2022
3101 Clear 22 1017 77 10000 5.46 348 23:39 14.06.2022
3102 Clear 22 1016 74 10000 5.58 340 22:52 14.06.2022
3103 Clear 23 1016 72 10000 5.69 343 21:53 14.06.2022
3104 Clear 23 1015 68 10000 5.91 341 21:27 14.06.2022
3105 Clear 24 1015 68 10000 5.91 341 20:48 14.06.2022
3106 Clear 24 1015 67 10000 6.01 344 20:28 14.06.2022
3107 Clear 25 1015 65 10000 5.89 346 18:45 14.06.2022
3108 Clear 24 1016 65 10000 5.31 352 17:29 14.06.2022
3109 Clear 25 1016 65 10000 5.31 352 16:43 14.06.2022
3110 Clear 25 1016 64 10000 5.82 349 15:49 14.06.2022
3111 Clear 25 1016 64 10000 5.82 349 15:49 14.06.2022
3112 Clear 24 1016 65 10000 5.95 348 14:57 14.06.2022
3113 Clouds 24 1016 66 10000 5.51 346 14:23 14.06.2022
3114 Clouds 24 1016 66 10000 5.51 348 13:39 14.06.2022
3115 Clouds 25 1016 69 10000 3.94 335 12:27 14.06.2022
3116 Clouds 23 1016 71 10000 3.12 339 11:28 14.06.2022
3117 Clouds 22 1016 71 10000 3.12 339 10:35 14.06.2022
3118 Clouds 21 1016 75 10000 2.92 336 09:45 14.06.2022
3119 Clouds 21 1016 78 10000 3.47 339 08:45 14.06.2022
3120 Clouds 21 1015 79 10000 3.74 1 07:26 14.06.2022
3121 Clouds 21 1015 79 10000 3.74 1 07:26 14.06.2022
3122 Clouds 21 1016 83 10000 4.06 19 04:44 14.06.2022
3123 Clouds 21 1017 84 10000 4.91 7 02:45 14.06.2022
3124 Clouds 22 1017 82 10000 5.78 344 00:27 14.06.2022
3125 Clouds 22 1016 81 10000 5.66 342 23:18 13.06.2022
3126 Clouds 22 1016 79 10000 5.09 344 22:25 13.06.2022
3127 Clouds 23 1016 79 10000 5.09 344 21:48 13.06.2022
3128 Clouds 24 1016 75 10000 5.51 348 20:23 13.06.2022
3129 Clouds 24 1016 75 10000 5.51 348 19:34 13.06.2022
3130 Clouds 24 1016 73 10000 5.17 358 17:57 13.06.2022
3131 Clouds 25 1016 73 10000 5.17 358 17:36 13.06.2022
3132 Clear 25 1016 74 10000 4.58 7 16:40 13.06.2022
3133 Clear 24 1017 73 10000 4.66 11 15:37 13.06.2022
3134 Clear 24 1017 73 10000 4.51 15 14:42 13.06.2022
3135 Clouds 24 1018 72 10000 3.92 17 13:46 13.06.2022
3136 Clouds 23 1018 72 10000 3.81 20 12:31 13.06.2022
3137 Clouds 22 1017 75 10000 4.23 353 11:25 13.06.2022
3138 Clouds 21 1017 79 10000 4.06 356 10:26 13.06.2022
3139 Clouds 21 1017 79 10000 4.06 356 09:31 13.06.2022
3140 Clouds 21 1017 82 10000 4.49 348 07:38 13.06.2022
3141 Clouds 21 1017 83 10000 4.29 1 05:42 13.06.2022
3142 Clouds 21 1018 84 10000 5.01 4 02:50 13.06.2022
3143 Clouds 21 1018 83 10000 5.3 353 01:37 13.06.2022
3144 Clouds 21 1018 81 10000 6.07 341 00:18 13.06.2022
3145 Clouds 21 1018 81 10000 5.92 342 23:24 12.06.2022
3146 Clouds 22 1017 78 10000 6.1 343 22:22 12.06.2022
3147 Clouds 23 1017 78 10000 6.33 341 21:22 12.06.2022
3148 Clouds 24 1017 77 10000 6.03 348 20:29 12.06.2022
3149 Clouds 24 1017 77 10000 6.03 348 19:30 12.06.2022
3150 Clouds 25 1017 76 10000 5.32 360 17:53 12.06.2022
3151 Clouds 25 1018 76 10000 4.8 6 16:24 12.06.2022
3152 Clouds 25 1018 76 10000 4.93 11 14:58 12.06.2022
3153 Clouds 24 1019 76 10000 5.04 13 14:23 12.06.2022
3154 Clouds 24 1019 76 10000 5.19 18 13:55 12.06.2022
3155 Clouds 25 1019 76 10000 5.58 9 12:40 12.06.2022
3156 Clouds 23 1019 75 10000 6.13 360 11:40 12.06.2022
3157 Clouds 22 1018 76 10000 6.41 352 10:38 12.06.2022
3158 Clouds 21 1018 84 10000 6.43 341 09:19 12.06.2022
3159 Clouds 21 1018 84 10000 6.43 341 08:45 12.06.2022
3160 Clouds 21 1017 85 10000 6.55 344 07:33 12.06.2022
3161 Clouds 21 1017 86 10000 6.2 347 04:52 12.06.2022
3162 Clouds 21 1018 85 10000 6.21 353 03:24 12.06.2022
3163 Clouds 21 1018 84 10000 6.47 347 01:42 12.06.2022
3164 Clouds 22 1018 83 10000 6.53 347 00:58 12.06.2022
3165 Clouds 22 1018 83 10000 6.48 345 00:21 12.06.2022
3166 Clouds 22 1018 83 10000 6.48 345 23:44 11.06.2022
3167 Clouds 22 1017 82 10000 6.25 345 22:39 11.06.2022
3168 Clouds 23 1017 81 10000 5.97 345 21:53 11.06.2022
3169 Clouds 24 1017 77 10000 6.29 351 20:38 11.06.2022
3170 Clouds 24 1016 75 10000 6.45 351 19:59 11.06.2022
3171 Clouds 25 1016 76 10000 6.15 347 19:26 11.06.2022
3172 Clouds 26 1016 76 10000 6.15 347 18:34 11.06.2022
3173 Clouds 26 1016 75 10000 6.41 349 17:51 11.06.2022
3174 Clouds 26 1017 75 10000 6.41 351 17:28 11.06.2022
3175 Clouds 26 1017 75 10000 6.41 351 16:57 11.06.2022
3176 Clouds 26 1017 75 10000 6.41 351 16:30 11.06.2022
3177 Clouds 26 1017 75 10000 6.37 351 15:43 11.06.2022
3178 Clouds 25 1017 76 10000 6.86 345 13:53 11.06.2022
3179 Clouds 24 1018 76 10000 7.08 345 12:57 11.06.2022
3180 Clouds 22 1017 79 10000 7.53 340 10:54 11.06.2022
3181 Clouds 21 1017 82 10000 7.49 340 09:55 11.06.2022
3182 Clouds 21 1017 86 10000 7.33 340 09:19 11.06.2022
3183 Clouds 21 1017 88 10000 7 341 07:43 11.06.2022
3184 Clouds 21 1017 86 10000 7.06 343 06:30 11.06.2022
3185 Clouds 21 1017 84 10000 7 342 04:49 11.06.2022
3186 Clouds 22 1018 85 10000 6.49 347 01:53 11.06.2022
3187 Clouds 22 1018 85 10000 6.49 347 01:33 11.06.2022
3188 Clouds 22 1019 84 10000 7.07 343 00:20 11.06.2022
3189 Clouds 22 1018 84 10000 6.95 339 22:32 10.06.2022
3190 Clouds 22 1018 82 10000 7.03 342 21:52 10.06.2022
3191 Clouds 24 1018 77 10000 7.44 345 20:42 10.06.2022
3192 Clouds 24 1017 76 10000 7.71 347 20:22 10.06.2022
3193 Clouds 25 1017 73 10000 7.28 345 19:20 10.06.2022
3194 Clouds 26 1017 73 10000 7.28 345 18:56 10.06.2022
3195 Clouds 26 1018 72 10000 7.22 347 17:59 10.06.2022
3196 Clouds 26 1018 72 10000 7.22 347 17:35 10.06.2022
3197 Clouds 26 1018 71 10000 6.99 349 16:51 10.06.2022
3198 Clouds 26 1018 71 10000 6.9 351 15:45 10.06.2022
3199 Clouds 26 1019 72 10000 6.64 352 14:57 10.06.2022
3200 Clouds 25 1019 72 10000 6.62 354 13:36 10.06.2022
3201 Clouds 24 1019 74 10000 6.86 353 12:21 10.06.2022
3202 Clouds 23 1019 74 10000 6.86 353 11:30 10.06.2022
3203 Clouds 22 1019 75 10000 6.88 351 10:36 10.06.2022
3204 Clouds 21 1018 78 10000 7.04 351 09:37 10.06.2022
3205 Clouds 20 1018 85 10000 7.11 350 07:58 10.06.2022
3206 Clouds 20 1017 84 10000 6.92 347 06:50 10.06.2022
3207 Clouds 21 1017 84 10000 6.92 347 06:31 10.06.2022
3208 Clouds 21 1017 85 10000 6.61 349 05:34 10.06.2022
3209 Clouds 22 1019 86 10000 6.88 354 02:50 10.06.2022
3210 Clouds 22 1019 87 10000 6.33 356 01:37 10.06.2022
3211 Clouds 22 1019 86 10000 6.54 1 23:58 09.06.2022
3212 Clouds 22 1019 86 10000 6.59 2 22:43 09.06.2022
3213 Clouds 23 1019 86 10000 6.26 1 21:46 09.06.2022
3214 Clouds 24 1019 84 10000 6.17 0 21:28 09.06.2022
3215 Clouds 25 1019 84 10000 6.17 0 20:40 09.06.2022
3216 Clouds 25 1018 81 10000 6.68 4 19:51 09.06.2022
3217 Clouds 26 1018 79 10000 6.31 3 18:41 09.06.2022
3218 Clouds 26 1018 77 10000 6.23 2 17:55 09.06.2022
3219 Clouds 26 1019 75 10000 6.02 359 16:28 09.06.2022
3220 Clouds 26 1019 75 10000 6.02 359 15:40 09.06.2022
3221 Clouds 25 1019 74 10000 5.6 358 14:33 09.06.2022
3222 Clouds 26 1019 77 10000 6.03 11 13:44 09.06.2022
3223 Clouds 26 1019 80 10000 6.18 10 13:20 09.06.2022
3224 Clouds 24 1019 80 10000 6.3 9 11:43 09.06.2022
3225 Clouds 23 1019 81 10000 6.72 10 10:34 09.06.2022
3226 Clouds 21 1019 83 10000 6.57 6 09:38 09.06.2022
3227 Clouds 21 1019 85 10000 6.41 8 09:20 09.06.2022
3228 Clouds 21 1019 87 10000 6.6 15 07:29 09.06.2022
3229 Clouds 21 1019 89 10000 6.31 17 04:47 09.06.2022
3230 Clouds 22 1021 88 10000 5.19 10 00:36 09.06.2022
3231 Clouds 22 1020 82 10000 4.77 7 23:23 08.06.2022
3232 Clouds 22 1020 82 10000 4.77 7 22:44 08.06.2022
3233 Clouds 23 1019 78 10000 4.67 11 22:24 08.06.2022
3234 Clouds 25 1019 78 10000 4.67 11 21:40 08.06.2022
3235 Clouds 26 1019 72 10000 5.09 9 20:25 08.06.2022
3236 Clouds 26 1019 72 10000 5.07 3 19:46 08.06.2022
3237 Clouds 27 1019 72 10000 5.17 7 18:48 08.06.2022
3238 Clouds 27 1019 72 10000 5.13 11 17:48 08.06.2022
3239 Clouds 25 1020 77 10000 5.9 23 16:18 08.06.2022
3240 Clouds 25 1020 78 10000 6.44 24 14:46 08.06.2022
3241 Clouds 24 1021 76 10000 5.56 21 12:55 08.06.2022
3242 Clouds 24 1021 76 10000 5.56 21 12:55 08.06.2022
3243 Clouds 22 1021 75 10000 5.5 26 11:41 08.06.2022
3244 Clouds 22 1020 78 10000 5.86 28 11:19 08.06.2022
3245 Clouds 21 1020 82 10000 6.25 29 09:45 08.06.2022
3246 Clouds 21 1020 84 10000 6.95 24 09:18 08.06.2022
3247 Clouds 20 1019 85 10000 6.74 20 07:22 08.06.2022
3248 Clouds 20 1019 87 10000 6.73 23 04:49 08.06.2022
3249 Clouds 21 1021 87 10000 5.8 20 02:19 08.06.2022
3250 Clear 21 1021 85 10000 5.71 13 23:41 07.06.2022
3251 Clear 21 1021 85 10000 5.86 10 23:22 07.06.2022
3252 Clear 22 1021 85 10000 5.86 10 22:38 07.06.2022
3253 Clear 22 1020 81 10000 5.77 13 21:41 07.06.2022
3254 Clear 23 1020 76 10000 5.98 14 21:23 07.06.2022
3255 Clear 23 1020 76 10000 6.06 12 20:42 07.06.2022
3256 Clear 24 1020 73 10000 6.14 15 19:58 07.06.2022
3257 Clear 25 1019 69 10000 6.21 17 18:38 07.06.2022
3258 Clear 26 1020 69 10000 5.82 23 17:51 07.06.2022
3259 Clear 27 1020 68 10000 6.02 23 16:49 07.06.2022
3260 Clear 27 1020 68 10000 6.02 23 16:31 07.06.2022
3261 Clear 25 1020 67 10000 6.33 23 15:38 07.06.2022
3262 Clear 25 1021 68 10000 6.07 25 15:19 07.06.2022
3263 Clear 26 1021 68 10000 6.07 25 14:44 07.06.2022
3264 Clouds 24 1021 68 10000 6.12 22 13:42 07.06.2022
3265 Clouds 24 1021 70 10000 5.98 24 13:42 07.06.2022
3266 Clouds 24 1021 71 10000 6.51 20 13:23 07.06.2022
3267 Clouds 23 1021 73 10000 6.7 19 11:56 07.06.2022
3268 Clouds 21 1021 77 10000 6.7 14 10:53 07.06.2022
3269 Clouds 20 1021 82 10000 6.67 17 09:26 07.06.2022
3270 Clouds 20 1020 83 10000 6.35 14 08:28 07.06.2022
3271 Clouds 20 1020 83 10000 6.24 18 07:19 07.06.2022
3272 Clouds 20 1020 83 10000 6.52 17 04:52 07.06.2022
3273 Clouds 21 1022 82 10000 6.29 20 01:43 07.06.2022
3274 Clouds 21 1023 81 10000 6.21 19 23:59 06.06.2022
3275 Clouds 21 1022 81 10000 6.27 17 22:59 06.06.2022
3276 Clouds 21 1022 81 10000 6.27 17 22:30 06.06.2022
3277 Clouds 22 1021 78 10000 6.61 20 21:28 06.06.2022
3278 Clouds 24 1020 74 10000 6.74 21 19:29 06.06.2022
3279 Clouds 24 1020 74 10000 6.74 21 18:59 06.06.2022
3280 Clouds 24 1020 74 10000 6.74 21 18:32 06.06.2022
3281 Clouds 25 1020 72 10000 6.4 21 17:31 06.06.2022
3282 Clouds 24 1021 71 10000 6.57 23 16:21 06.06.2022
3283 Clouds 24 1021 71 10000 6.58 26 15:33 06.06.2022
3284 Clouds 24 1022 71 10000 6.68 27 14:36 06.06.2022
3285 Clouds 23 1022 72 10000 7.21 23 13:27 06.06.2022
3286 Clouds 23 1022 72 10000 7.21 23 12:37 06.06.2022
3287 Clouds 22 1022 73 10000 6.89 24 11:54 06.06.2022
3288 Clouds 22 1022 74 10000 6.6 25 10:46 06.06.2022
3289 Clouds 21 1021 76 10000 6.84 21 09:40 06.06.2022
3290 Clouds 21 1021 78 10000 6.85 16 08:33 06.06.2022
3291 Clouds 20 1020 76 10000 6.9 19 07:28 06.06.2022
3292 Clouds 21 1021 76 10000 6.79 25 05:29 06.06.2022
3293 Clouds 21 1022 76 10000 6.94 22 03:44 06.06.2022
3294 Clouds 21 1023 76 10000 6.6 22 01:23 06.06.2022
3295 Clouds 21 1023 76 10000 6.6 22 00:42 06.06.2022
3296 Clouds 21 1023 75 10000 6.52 24 23:43 05.06.2022
3297 Clouds 21 1022 75 10000 6.59 23 22:47 05.06.2022
3298 Clouds 23 1021 72 10000 7.07 20 20:57 05.06.2022
3299 Clouds 23 1021 71 10000 7.13 21 19:44 05.06.2022
3300 Clouds 24 1021 70 10000 6.99 21 18:30 05.06.2022
3301 Clouds 24 1021 70 10000 6.99 21 18:30 05.06.2022
3302 Clouds 25 1021 67 10000 7 20 17:55 05.06.2022
3303 Clouds 25 1021 66 10000 7 20 17:26 05.06.2022
3304 Clouds 25 1021 66 10000 7 20 16:52 05.06.2022
3305 Clouds 25 1021 66 10000 7 20 16:34 05.06.2022
3306 Clouds 25 1022 66 10000 6.92 26 14:27 05.06.2022
3307 Clouds 24 1022 65 10000 6.46 28 12:57 05.06.2022
3308 Clouds 23 1022 67 10000 6.28 26 11:47 05.06.2022
3309 Clouds 21 1022 69 10000 6.38 25 10:38 05.06.2022
3310 Clouds 21 1021 71 10000 6.33 26 10:20 05.06.2022
3311 Clouds 20 1021 72 10000 6.21 27 08:34 05.06.2022
3312 Clouds 20 1021 73 10000 6.21 27 07:48 05.06.2022
3313 Clouds 20 1021 73 10000 6.24 24 05:22 05.06.2022
3314 Clouds 21 1021 73 10000 6.62 23 04:19 05.06.2022
3315 Clouds 21 1022 73 10000 6.99 18 01:32 05.06.2022
3316 Clouds 21 1022 73 10000 6.99 18 01:32 05.06.2022
3317 Clouds 21 1022 74 10000 7.15 15 00:39 05.06.2022
3318 Clouds 21 1022 73 10000 7.06 11 22:36 04.06.2022
3319 Clouds 23 1020 70 10000 6.87 15 20:33 04.06.2022
3320 Clouds 24 1020 66 10000 7.02 19 18:45 04.06.2022
3321 Clouds 24 1021 68 10000 5.9 25 16:47 04.06.2022
3322 Clouds 25 1021 67 10000 5.97 26 16:18 04.06.2022
3323 Clouds 24 1021 67 10000 6.06 26 14:53 04.06.2022
3324 Clouds 23 1021 68 10000 6.22 27 12:38 04.06.2022
3325 Clouds 22 1020 67 10000 5.87 24 11:19 04.06.2022
3326 Clouds 22 1020 67 10000 5.87 24 10:44 04.06.2022
3327 Clouds 21 1020 68 10000 5.74 21 09:44 04.06.2022
3328 Clouds 20 1020 72 10000 5.27 19 08:43 04.06.2022
3329 Clouds 20 1020 76 10000 5.73 16 07:41 04.06.2022
3330 Clouds 20 1019 77 10000 6.45 15 05:29 04.06.2022
3331 Clouds 21 1020 77 10000 5.41 15 01:42 04.06.2022
3332 Clouds 22 1020 78 10000 5.76 15 23:59 03.06.2022
3333 Clouds 22 1020 79 10000 5.93 15 22:40 03.06.2022
3334 Clear 23 1020 78 10000 5.91 12 21:39 03.06.2022
3335 Clear 24 1019 75 10000 6.26 2 20:37 03.06.2022
3336 Clear 24 1019 75 10000 6.26 2 20:37 03.06.2022
3337 Clear 25 1018 67 10000 6.39 360 18:41 03.06.2022
3338 Clear 24 1019 64 10000 5.51 357 16:49 03.06.2022
3339 Clear 25 1019 65 10000 5.14 355 15:37 03.06.2022
3340 Clouds 24 1020 67 10000 4.39 357 13:28 03.06.2022
3341 Clouds 23 1020 67 10000 4.84 357 11:50 03.06.2022
3342 Clouds 21 1019 73 10000 5.86 353 09:50 03.06.2022
3343 Clouds 21 1019 73 10000 5.86 353 09:50 03.06.2022
3344 Clouds 20 1019 78 10000 6.05 352 09:28 03.06.2022
3345 Clouds 20 1018 82 10000 4.53 354 07:27 03.06.2022
3346 Clouds 21 1018 82 10000 4.53 354 06:44 03.06.2022
3347 Clouds 21 1018 80 10000 4.67 351 06:26 03.06.2022
3348 Clear 21 1019 76 10000 4.65 348 01:23 03.06.2022
3349 Clear 22 1019 73 10000 4.5 353 23:31 02.06.2022
3350 Clouds 22 1019 69 10000 5.03 347 21:57 02.06.2022
3351 Clouds 24 1018 69 10000 5.47 353 20:25 02.06.2022
3352 Clouds 25 1018 69 10000 5.47 353 19:52 02.06.2022
3353 Clouds 25 1018 69 10000 5.47 353 19:33 02.06.2022
3354 Clouds 25 1017 72 10000 6.1 354 17:58 02.06.2022
3355 Clouds 26 1018 71 10000 5.49 356 16:28 02.06.2022
3356 Clouds 25 1018 71 10000 5.06 357 14:34 02.06.2022
3357 Clouds 26 1019 72 10000 4.74 3 13:30 02.06.2022
3358 Clouds 25 1019 72 10000 4.46 5 12:40 02.06.2022
3359 Clouds 23 1018 78 10000 5.2 354 10:20 02.06.2022
3360 Clouds 21 1018 81 10000 5.14 353 09:28 02.06.2022
3361 Clouds 21 1018 81 10000 4.49 353 08:28 02.06.2022
3362 Clouds 20 1017 82 10000 4.43 355 07:34 02.06.2022
3363 Clouds 20 1017 75 10000 4.23 347 05:29 02.06.2022
3364 Clouds 21 1017 74 10000 4.01 349 03:45 02.06.2022
3365 Clouds 22 1019 73 10000 2.1 23 23:55 01.06.2022
3366 Clouds 22 1019 73 10000 2.02 34 22:54 01.06.2022
3367 Clouds 23 1018 72 10000 2.25 23 21:39 01.06.2022
3368 Clouds 23 1018 71 10000 2.86 16 21:20 01.06.2022
3369 Clouds 23 1018 71 10000 2.86 16 20:37 01.06.2022
3370 Clouds 24 1017 72 10000 2.94 32 19:48 01.06.2022
3371 Clouds 24 1017 69 10000 3 30 17:57 01.06.2022
3372 Clouds 24 1017 68 10000 2.67 27 16:41 01.06.2022
3373 Clouds 24 1017 67 10000 2.3 22 15:37 01.06.2022
3374 Clouds 24 1018 68 10000 2.86 359 13:57 01.06.2022
3375 Clouds 24 1017 73 10000 3.43 0 12:29 01.06.2022
3376 Clouds 22 1017 82 10000 3.19 355 10:25 01.06.2022
3377 Clouds 21 1016 84 10000 2.76 352 09:25 01.06.2022
3378 Clouds 21 1015 86 10000 2.16 351 07:25 01.06.2022
3379 Clouds 21 1015 86 10000 2.16 351 06:40 01.06.2022
3380 Clear 22 1017 83 10000 1.04 194 01:29 01.06.2022
3381 Clear 22 1017 81 10000 1.8 162 23:41 31.05.2022
3382 Clear 23 1016 79 10000 2.5 149 22:37 31.05.2022
3383 Clouds 23 1015 79 10000 2.26 156 21:46 31.05.2022
3384 Clouds 24 1015 77 10000 1.18 197 20:46 31.05.2022
3385 Clear 24 1014 75 10000 0.9 334 20:23 31.05.2022
3386 Clear 24 1014 71 10000 1.47 334 18:54 31.05.2022
3387 Clear 25 1014 71 10000 1.26 349 17:51 31.05.2022
3388 Clear 25 1014 70 10000 1.53 4 17:20 31.05.2022
3389 Clear 26 1014 70 10000 1.46 11 15:41 31.05.2022
3390 Clear 26 1014 69 10000 1.65 355 14:33 31.05.2022
3391 Clear 26 1014 72 10000 1.6 64 12:22 31.05.2022
3392 Clear 23 1014 74 10000 1.38 85 11:23 31.05.2022
3393 Clear 21 1014 78 10000 1.62 93 09:31 31.05.2022
3394 Clear 19 1012 84 10000 2.13 118 07:28 31.05.2022
3395 Clear 20 1012 84 10000 1.83 149 05:24 31.05.2022
3396 Clear 21 1014 82 10000 1.79 158 01:41 31.05.2022
3397 Clear 22 1013 80 10000 0.28 296 23:29 30.05.2022
3398 Clear 22 1013 80 10000 0.28 296 22:57 30.05.2022
3399 Clear 22 1012 77 10000 1.01 34 22:21 30.05.2022
3400 Clear 23 1012 77 10000 1.01 34 21:34 30.05.2022
3401 Clear 24 1011 70 10000 2.47 17 20:20 30.05.2022
3402 Clear 26 1011 68 10000 2.52 2 18:41 30.05.2022
3403 Clear 26 1011 65 10000 1.72 350 17:38 30.05.2022
3404 Clear 27 1012 64 10000 0.34 292 16:44 30.05.2022
3405 Clear 26 1013 63 10000 1.38 154 14:51 30.05.2022
3406 Clouds 23 1013 69 10000 1.75 176 12:29 30.05.2022
3407 Clouds 22 1014 71 10000 1.47 204 10:46 30.05.2022
3408 Clouds 20 1014 74 10000 1.37 197 09:39 30.05.2022
3409 Clouds 19 1013 83 10000 3.11 157 07:23 30.05.2022
3410 Clouds 20 1013 82 10000 2.25 157 05:50 30.05.2022
3411 Clouds 21 1015 75 10000 2.34 146 02:24 30.05.2022
3412 Clouds 21 1016 73 10000 0.29 41 23:21 29.05.2022
3413 Clouds 21 1016 73 10000 0.29 41 22:38 29.05.2022
3414 Clouds 21 1015 66 10000 0.85 356 20:57 29.05.2022
3415 Clouds 21 1015 65 10000 1.18 350 19:34 29.05.2022
3416 Clouds 21 1015 64 10000 1.34 1 18:59 29.05.2022
3417 Clouds 22 1015 63 10000 1.58 7 17:31 29.05.2022
3418 Clear 22 1016 61 10000 1.89 358 15:48 29.05.2022
3419 Clear 22 1016 60 10000 1.52 8 15:23 29.05.2022
3420 Clouds 22 1016 60 10000 1.52 2 14:18 29.05.2022
3421 Clouds 22 1017 62 10000 2.02 339 11:48 29.05.2022
3422 Clouds 22 1017 64 10000 2 330 10:40 29.05.2022
3423 Clouds 20 1016 68 10000 2.37 325 09:31 29.05.2022
3424 Clouds 21 1016 75 10000 2.73 327 06:24 29.05.2022
3425 Clouds 21 1016 75 10000 3.67 334 04:45 29.05.2022
3426 Clouds 21 1017 75 10000 3.73 332 03:53 29.05.2022
3427 Clouds 22 1018 75 10000 4.31 341 23:53 28.05.2022
3428 Clouds 22 1018 75 10000 4.31 341 23:34 28.05.2022
3429 Clouds 22 1017 74 10000 4.17 345 22:40 28.05.2022
3430 Clouds 22 1017 74 10000 4.48 342 21:38 28.05.2022
3431 Clouds 22 1016 71 10000 5.25 345 19:51 28.05.2022
3432 Clouds 22 1016 69 10000 4.66 348 18:58 28.05.2022
3433 Clouds 23 1016 68 10000 4.79 353 17:38 28.05.2022
3434 Clouds 23 1017 67 10000 4.83 353 16:50 28.05.2022
3435 Clouds 23 1017 66 10000 4.74 354 15:43 28.05.2022
3436 Clouds 23 1018 66 10000 4.12 353 14:28 28.05.2022
3437 Clouds 22 1018 66 10000 3.51 348 12:57 28.05.2022
3438 Clouds 22 1018 66 10000 3.51 348 12:35 28.05.2022
3439 Clouds 21 1018 69 10000 3.17 349 11:22 28.05.2022
3440 Clouds 21 1018 71 10000 3.25 338 09:59 28.05.2022
3441 Clouds 21 1017 75 10000 3.68 347 09:22 28.05.2022
3442 Clouds 20 1017 78 10000 4.07 344 07:23 28.05.2022
3443 Clouds 20 1017 79 10000 4.25 351 05:48 28.05.2022
3444 Clouds 20 1018 80 10000 4.87 353 02:52 28.05.2022
3445 Clear 20 1018 77 10000 5.41 349 00:33 28.05.2022
3446 Clear 21 1018 76 10000 5.62 348 23:32 27.05.2022
3447 Clear 21 1017 74 10000 6.34 343 21:50 27.05.2022
3448 Clear 22 1017 71 10000 6.27 344 20:56 27.05.2022
3449 Clear 23 1017 68 10000 6.07 351 20:25 27.05.2022
3450 Clear 24 1017 68 10000 6.07 351 19:48 27.05.2022
3451 Clear 24 1016 66 10000 6.17 349 19:29 27.05.2022
3452 Clear 23 1017 64 10000 6.24 349 17:58 27.05.2022
3453 Clear 24 1017 65 10000 6.19 349 16:40 27.05.2022
3454 Clear 23 1018 67 10000 5.48 358 15:33 27.05.2022
3455 Clouds 24 1019 67 10000 4.44 7 14:26 27.05.2022
3456 Clouds 23 1019 66 10000 4.38 3 13:18 27.05.2022
3457 Clouds 22 1019 69 10000 4.19 2 11:34 27.05.2022
3458 Clouds 21 1019 73 10000 4.3 4 10:56 27.05.2022
3459 Clouds 21 1019 73 10000 4.3 4 10:31 27.05.2022
3460 Clouds 19 1019 75 10000 4.22 6 09:37 27.05.2022
3461 Clouds 19 1017 80 10000 4.62 1 07:55 27.05.2022
3462 Clouds 19 1016 80 10000 5.75 357 05:44 27.05.2022
3463 Clouds 20 1018 80 10000 5.28 7 02:26 27.05.2022
3464 Clouds 20 1019 77 10000 5.27 7 00:29 27.05.2022
3465 Clouds 21 1019 76 10000 5.06 6 22:39 26.05.2022
3466 Clear 21 1018 74 10000 5.16 7 21:40 26.05.2022
3467 Clear 22 1018 71 10000 5.1 9 20:53 26.05.2022
3468 Clear 23 1017 67 10000 5.01 13 19:24 26.05.2022
3469 Clear 23 1017 66 10000 4.61 19 18:18 26.05.2022
3470 Clear 23 1017 67 10000 4.44 28 16:42 26.05.2022
3471 Clear 24 1018 67 10000 4.29 38 15:46 26.05.2022
3472 Clear 23 1019 66 10000 4.26 48 14:43 26.05.2022
3473 Clouds 23 1019 67 10000 4.5 38 12:37 26.05.2022
3474 Clouds 22 1018 71 10000 4.86 24 11:23 26.05.2022
3475 Clouds 20 1018 73 10000 5.09 25 09:44 26.05.2022
3476 Clouds 20 1018 75 10000 5.16 25 09:26 26.05.2022
3477 Clouds 19 1018 75 10000 5.16 25 08:30 26.05.2022
3478 Clouds 19 1017 76 10000 5.04 26 04:41 26.05.2022
3479 Clouds 20 1019 77 10000 5.84 37 00:38 26.05.2022
3480 Clouds 20 1019 77 10000 6.05 38 23:40 25.05.2022
3481 Clouds 20 1019 78 10000 6 35 21:59 25.05.2022
3482 Clouds 21 1019 78 10000 6 35 21:32 25.05.2022
3483 Clouds 21 1019 76 10000 5.96 35 20:35 25.05.2022
3484 Clouds 21 1018 73 10000 6.6 33 19:24 25.05.2022
3485 Clouds 23 1018 72 10000 6.8 29 17:43 25.05.2022
3486 Clouds 22 1018 73 10000 6.61 32 16:38 25.05.2022
3487 Clouds 23 1019 73 10000 6.11 37 15:54 25.05.2022
3488 Clouds 23 1020 73 10000 5.96 41 14:51 25.05.2022
3489 Clouds 23 1020 73 10000 5.96 41 14:33 25.05.2022
3490 Clouds 23 1020 74 10000 6.05 38 13:54 25.05.2022
3491 Clouds 22 1020 75 10000 5.78 34 12:38 25.05.2022
3492 Clouds 21 1020 74 10000 6.11 35 10:49 25.05.2022
3493 Clouds 21 1019 72 10000 6.24 32 10:18 25.05.2022
3494 Clouds 20 1019 76 10000 6.12 31 08:37 25.05.2022
3495 Clouds 20 1018 76 10000 6.59 30 07:23 25.05.2022
3496 Clouds 20 1018 80 10000 6.36 30 04:22 25.05.2022
3497 Clouds 20 1019 77 10000 6.85 28 00:19 25.05.2022
3498 Clouds 20 1019 77 10000 6.85 28 23:43 24.05.2022
3499 Clouds 21 1019 78 10000 6.84 28 22:32 24.05.2022
3500 Clouds 21 1018 80 10000 6.83 27 21:40 24.05.2022
3501 Clouds 21 1018 79 10000 6.67 22 21:21 24.05.2022
3502 Clouds 22 1017 78 10000 6.77 23 19:48 24.05.2022
3503 Clouds 23 1017 77 10000 6.67 21 18:56 24.05.2022
3504 Clouds 23 1017 77 10000 6.67 21 18:56 24.05.2022
3505 Clouds 24 1017 74 10000 6.37 26 16:53 24.05.2022
3506 Clouds 24 1018 74 10000 6.25 26 16:23 24.05.2022
3507 Clouds 23 1018 74 10000 6.34 26 14:59 24.05.2022
3508 Clouds 23 1018 75 10000 6.38 24 14:21 24.05.2022
3509 Clouds 23 1019 76 10000 5.8 32 12:50 24.05.2022
3510 Clouds 23 1019 76 10000 5.8 32 12:50 24.05.2022
3511 Clouds 22 1018 77 10000 5.44 35 11:33 24.05.2022
3512 Clouds 20 1018 81 10000 5.47 26 09:45 24.05.2022
3513 Clouds 20 1018 81 10000 5.5 28 08:50 24.05.2022
3514 Clouds 20 1017 79 10000 5.89 28 06:58 24.05.2022
3515 Clouds 20 1017 83 10000 6.34 20 04:30 24.05.2022
3516 Clouds 20 1017 82 10000 6.74 14 02:37 24.05.2022
3517 Clouds 21 1018 82 10000 6.63 16 01:42 24.05.2022
3518 Clouds 21 1018 78 10000 7.09 11 23:33 23.05.2022
3519 Clouds 21 1017 80 10000 6.73 9 21:57 23.05.2022
3520 Clouds 22 1017 80 10000 6.73 9 21:39 23.05.2022
3521 Clouds 22 1017 79 10000 6.71 6 20:41 23.05.2022
3522 Clouds 24 1016 76 10000 6.55 10 19:33 23.05.2022
3523 Clouds 24 1016 73 10000 6.38 14 18:59 23.05.2022
3524 Clouds 24 1016 73 10000 6.38 14 18:31 23.05.2022
3525 Clouds 24 1015 72 10000 6.19 20 17:38 23.05.2022
3526 Clouds 24 1016 71 10000 5.59 22 15:37 23.05.2022
3527 Clouds 23 1017 73 10000 5.85 21 13:32 23.05.2022
3528 Clouds 22 1017 77 10000 5.84 20 11:34 23.05.2022
3529 Clouds 21 1017 78 10000 6.13 23 10:42 23.05.2022
3530 Clouds 21 1017 78 10000 6.66 20 09:39 23.05.2022
3531 Clouds 20 1016 80 10000 6.84 16 08:38 23.05.2022
3532 Clouds 20 1016 81 10000 6.82 18 06:47 23.05.2022
3533 Clouds 20 1016 82 10000 6.64 21 06:22 23.05.2022
3534 Clouds 21 1017 82 10000 6.48 18 02:35 23.05.2022
3535 Clouds 21 1018 82 10000 6.14 20 01:42 23.05.2022
3536 Clouds 21 1018 81 10000 6.48 19 00:38 23.05.2022
3537 Clouds 21 1018 80 10000 6.75 18 22:43 22.05.2022
3538 Clouds 22 1017 80 10000 6.8 16 21:56 22.05.2022
3539 Clouds 22 1017 80 10000 6.8 16 21:36 22.05.2022
3540 Clouds 23 1017 79 10000 6.57 19 20:37 22.05.2022
3541 Clouds 23 1017 78 10000 6.53 22 20:18 22.05.2022
3542 Clouds 24 1017 75 10000 6.41 18 18:57 22.05.2022
3543 Clear 24 1017 73 10000 6.26 17 18:28 22.05.2022
3544 Clear 24 1017 73 10000 6.26 17 17:39 22.05.2022
3545 Clear 23 1017 71 10000 6.24 18 16:50 22.05.2022
3546 Clear 23 1018 72 10000 6.38 19 14:53 22.05.2022
3547 Clouds 24 1019 72 10000 6.25 21 13:57 22.05.2022
3548 Clouds 23 1019 72 10000 5.8 20 12:53 22.05.2022
3549 Clouds 22 1019 74 10000 5.79 18 11:52 22.05.2022
3550 Clouds 21 1019 78 10000 6.55 11 10:27 22.05.2022
3551 Clouds 19 1019 81 10000 6.51 7 09:19 22.05.2022
3552 Clouds 19 1018 82 10000 6.31 7 07:22 22.05.2022
3553 Clouds 19 1018 82 10000 6 9 06:27 22.05.2022
3554 Clouds 20 1020 82 10000 6.14 21 03:20 22.05.2022
3555 Clouds 21 1020 82 10000 6.1 17 00:44 22.05.2022
3556 Clouds 21 1020 82 10000 6.32 15 23:56 21.05.2022
3557 Clouds 21 1020 83 10000 6.42 9 23:22 21.05.2022
3558 Clouds 22 1020 81 10000 6.37 7 21:55 21.05.2022
3559 Clouds 22 1019 78 10000 6.32 10 21:27 21.05.2022
3560 Clouds 24 1019 76 10000 6.4 13 20:29 21.05.2022
3561 Clear 24 1019 76 10000 6.57 10 19:43 21.05.2022
3562 Clear 24 1019 75 10000 6.4 15 18:31 21.05.2022
3563 Clear 25 1019 73 10000 6.09 16 16:57 21.05.2022
3564 Clear 24 1020 70 10000 5.76 13 14:38 21.05.2022
3565 Clouds 24 1020 70 10000 5.77 6 13:54 21.05.2022
3566 Clouds 24 1020 71 10000 6.16 6 13:18 21.05.2022
3567 Clouds 23 1020 71 10000 6.16 6 12:38 21.05.2022
3568 Clouds 22 1020 76 10000 6.68 10 10:53 21.05.2022
3569 Clouds 21 1020 77 10000 6.78 11 09:53 21.05.2022
3570 Clouds 20 1019 80 10000 6.82 8 08:58 21.05.2022
3571 Clouds 20 1019 80 10000 6.82 8 08:36 21.05.2022
3572 Clear 20 1018 79 10000 6.63 351 05:29 21.05.2022
3573 Clouds 21 1020 82 10000 5.54 355 01:33 21.05.2022
3574 Clouds 21 1020 81 10000 6.1 358 23:30 20.05.2022
3575 Clouds 22 1019 82 10000 6.13 357 22:26 20.05.2022
3576 Clouds 22 1019 82 10000 6.13 357 21:55 20.05.2022
3577 Clouds 23 1018 80 10000 6.68 356 21:18 20.05.2022
3578 Clouds 23 1018 80 10000 6.68 356 20:44 20.05.2022
3579 Clouds 24 1018 79 10000 7.15 355 19:45 20.05.2022
3580 Clouds 25 1018 77 10000 7.24 358 18:48 20.05.2022
3581 Clouds 25 1018 76 10000 7.25 358 17:47 20.05.2022
3582 Clouds 27 1018 74 10000 6.34 356 16:21 20.05.2022
3583 Clouds 26 1018 74 10000 6.34 356 15:53 20.05.2022
3584 Clouds 27 1018 73 10000 6.18 356 14:31 20.05.2022
3585 Clouds 27 1018 70 10000 5.98 354 13:56 20.05.2022
3586 Clouds 24 1018 72 10000 6.03 344 11:49 20.05.2022
3587 Clouds 22 1018 74 10000 6.52 348 10:30 20.05.2022
3588 Clouds 21 1018 80 10000 6.42 354 08:58 20.05.2022
3589 Clouds 20 1017 81 10000 5.66 360 07:40 20.05.2022
3590 Clouds 20 1017 80 10000 5.69 1 06:38 20.05.2022
3591 Clouds 21 1016 82 10000 6.85 360 05:28 20.05.2022
3592 Clouds 21 1018 84 10000 6.32 346 00:54 20.05.2022
3593 Clouds 22 1017 83 10000 5.86 343 23:28 19.05.2022
3594 Clouds 22 1017 83 10000 5.86 343 22:33 19.05.2022
3595 Clouds 22 1016 83 10000 5.78 343 21:49 19.05.2022
3596 Clouds 23 1016 81 10000 5.99 348 21:23 19.05.2022
3597 Clouds 24 1016 81 10000 5.99 348 20:40 19.05.2022
3598 Clouds 24 1015 79 10000 6.24 353 19:54 19.05.2022
3599 Clouds 25 1015 77 10000 5.86 359 18:45 19.05.2022
3600 Clouds 25 1015 76 10000 5.48 2 17:35 19.05.2022
3601 Clouds 25 1016 75 10000 6.19 355 15:33 19.05.2022
3602 Clouds 24 1016 74 10000 6.21 356 14:30 19.05.2022
3603 Clouds 24 1016 73 10000 5.68 358 13:53 19.05.2022
3604 Clouds 23 1017 74 10000 5.31 350 11:46 19.05.2022
3605 Clouds 21 1017 81 10000 5.01 350 09:46 19.05.2022
3606 Clouds 20 1016 85 10000 4.85 8 08:27 19.05.2022
3607 Clouds 20 1016 86 10000 5.19 5 06:31 19.05.2022
3608 Clouds 21 1017 85 10000 5.11 357 02:57 19.05.2022
3609 Clouds 21 1018 84 10000 5.18 2 00:47 19.05.2022
3610 Clouds 21 1018 84 10000 5.59 358 22:53 18.05.2022
3611 Clouds 22 1018 84 10000 5.59 358 22:35 18.05.2022
3612 Clouds 23 1018 82 10000 5.77 356 21:31 18.05.2022
3613 Clouds 23 1017 80 10000 5.98 353 20:55 18.05.2022
3614 Clouds 23 1017 78 10000 6.55 355 20:19 18.05.2022
3615 Clouds 24 1017 79 10000 5.92 5 18:43 18.05.2022
3616 Clouds 25 1017 77 10000 5.26 5 17:41 18.05.2022
3617 Clouds 25 1018 77 10000 4.86 11 17:23 18.05.2022
3618 Clouds 26 1018 77 10000 4.86 11 16:35 18.05.2022
3619 Clouds 26 1018 76 10000 4.65 13 15:42 18.05.2022
3620 Clouds 25 1019 77 10000 4.63 7 14:54 18.05.2022
3621 Clouds 25 1019 77 10000 5 4 13:47 18.05.2022
3622 Clouds 24 1020 77 10000 4.91 4 12:53 18.05.2022
3623 Clouds 23 1020 77 10000 4.9 2 11:41 18.05.2022
3624 Clouds 23 1020 79 10000 5.54 358 11:23 18.05.2022
3625 Clouds 21 1020 82 10000 5.78 357 09:57 18.05.2022
3626 Clouds 20 1018 87 10000 5.12 359 07:55 18.05.2022
3627 Clouds 21 1018 86 10000 5.15 360 06:49 18.05.2022
3628 Clouds 21 1020 85 10000 4.88 3 02:23 18.05.2022
3629 Clouds 21 1021 82 10000 4.52 2 00:26 18.05.2022
3630 Clouds 21 1021 81 10000 4.15 5 22:47 17.05.2022
3631 Clouds 22 1020 76 10000 4.23 11 21:20 17.05.2022
3632 Clouds 23 1020 75 10000 4.29 14 20:29 17.05.2022
3633 Clouds 23 1020 71 10000 4.04 13 19:28 17.05.2022
3634 Clouds 24 1020 70 10000 3.97 20 17:52 17.05.2022
3635 Clouds 24 1021 70 10000 4.17 24 17:22 17.05.2022
3636 Clouds 24 1021 70 10000 4.17 24 16:34 17.05.2022
3637 Clouds 24 1021 70 10000 3.92 23 15:32 17.05.2022
3638 Clouds 24 1022 71 10000 3.98 20 14:31 17.05.2022
3639 Clouds 23 1022 70 10000 4.2 23 13:38 17.05.2022
3640 Clouds 23 1022 70 10000 4.18 19 12:23 17.05.2022
3641 Clouds 21 1022 73 10000 4.05 17 09:53 17.05.2022
3642 Clouds 19 1022 77 10000 3.56 14 08:43 17.05.2022
3643 Clouds 19 1021 78 10000 3.92 15 06:52 17.05.2022
3644 Clouds 20 1022 76 10000 3.89 10 04:24 17.05.2022
3645 Clouds 21 1023 75 10000 3.71 5 00:46 17.05.2022
3646 Clouds 21 1022 75 10000 3.51 0 22:44 16.05.2022
3647 Clouds 21 1021 73 10000 3.73 11 22:18 16.05.2022
3648 Clouds 22 1021 71 10000 3.58 17 20:49 16.05.2022
3649 Clear 23 1020 67 10000 3.2 40 19:57 16.05.2022
3650 Clear 23 1020 65 10000 3.48 55 18:21 16.05.2022
3651 Clear 24 1021 65 10000 3.75 61 16:28 16.05.2022
3652 Clear 24 1022 65 10000 3.58 59 14:42 16.05.2022
3653 Clear 23 1022 66 10000 3.56 53 13:25 16.05.2022
3654 Clear 21 1022 68 10000 3.16 44 11:33 16.05.2022
3655 Clear 20 1021 74 10000 2.91 42 09:58 16.05.2022
3656 Clear 19 1020 78 10000 2.64 35 07:33 16.05.2022
3657 Clear 19 1020 79 10000 2.5 47 05:23 16.05.2022
3658 Clear 21 1022 76 10000 3.05 42 23:56 15.05.2022
3659 Clear 21 1021 75 10000 2.9 45 22:34 15.05.2022
3660 Clear 21 1021 73 10000 3.17 37 21:48 15.05.2022
3661 Clear 22 1020 70 10000 3.28 32 21:19 15.05.2022
3662 Clear 23 1020 68 10000 3.39 28 19:56 15.05.2022
3663 Clear 23 1020 65 10000 3.62 34 17:52 15.05.2022
3664 Clear 24 1020 65 10000 3.52 33 16:35 15.05.2022
3665 Clouds 23 1021 65 10000 3.26 31 14:18 15.05.2022
3666 Clouds 23 1021 65 10000 3.45 18 13:27 15.05.2022
3667 Clouds 23 1021 68 10000 3.77 5 11:55 15.05.2022
3668 Clouds 21 1021 71 10000 4.83 353 10:35 15.05.2022
3669 Clouds 17 1020 78 10000 3.98 349 08:52 15.05.2022
3670 Clouds 18 1019 81 10000 3.27 353 06:59 15.05.2022
3671 Clouds 19 1019 81 10000 3.27 353 06:38 15.05.2022
3672 Clouds 20 1020 78 10000 2.79 19 01:43 15.05.2022
3673 Clouds 21 1020 78 10000 3.97 358 23:56 14.05.2022
3674 Clouds 21 1020 78 10000 3.97 358 23:34 14.05.2022
3675 Clouds 22 1019 76 10000 4.58 353 21:45 14.05.2022
3676 Clouds 22 1019 74 10000 4.95 351 21:19 14.05.2022
3677 Clouds 23 1018 77 10000 5.58 348 19:40 14.05.2022
3678 Clouds 23 1018 77 10000 5.58 348 19:40 14.05.2022
3679 Clouds 23 1018 77 10000 5.58 348 19:40 14.05.2022
3680 Clouds 23 1018 77 10000 4.9 353 19:20 14.05.2022
3681 Clouds 23 1018 77 10000 4.9 353 18:47 14.05.2022
3682 Clouds 24 1018 77 10000 4.81 4 17:28 14.05.2022
3683 Clouds 23 1018 76 10000 4.46 3 15:47 14.05.2022
3684 Clouds 22 1019 74 10000 3.66 9 14:36 14.05.2022
3685 Clouds 23 1020 72 10000 3.09 12 12:51 14.05.2022
3686 Clouds 22 1020 72 10000 2.98 359 11:37 14.05.2022
3687 Clouds 21 1019 74 10000 2.11 356 10:23 14.05.2022
3688 Clouds 20 1019 74 10000 2.11 356 09:54 14.05.2022
3689 Clouds 19 1019 76 10000 2.3 343 08:56 14.05.2022
3690 Clouds 19 1018 77 10000 1.88 2 06:52 14.05.2022
3691 Clouds 20 1019 77 10000 1.59 2 03:27 14.05.2022
3692 Clouds 21 1020 77 10000 2.46 357 23:48 13.05.2022
3693 Clouds 21 1019 76 10000 1.79 356 23:22 13.05.2022
3694 Clouds 21 1019 76 10000 1.79 356 22:51 13.05.2022
3695 Clouds 21 1019 76 10000 1.99 358 22:19 13.05.2022
3696 Clouds 22 1019 73 10000 2.47 16 20:49 13.05.2022
3697 Clouds 22 1018 72 10000 2.36 18 20:27 13.05.2022
3698 Clouds 23 1018 72 10000 2.19 21 19:34 13.05.2022
3699 Clouds 23 1018 70 10000 2.13 41 17:53 13.05.2022
3700 Clouds 23 1018 70 10000 2.08 47 17:29 13.05.2022
3701 Clouds 23 1018 72 10000 3.06 47 16:21 13.05.2022
3702 Clouds 22 1018 72 10000 3.06 47 15:39 13.05.2022
3703 Clouds 22 1018 70 10000 2.69 32 13:54 13.05.2022
3704 Clouds 22 1018 70 10000 3.25 78 12:32 13.05.2022
3705 Clouds 21 1019 71 10000 2.18 342 11:23 13.05.2022
3706 Clouds 21 1019 71 10000 2.18 342 11:23 13.05.2022
3707 Clouds 19 1020 76 10000 3.62 303 09:35 13.05.2022
3708 Clouds 19 1019 80 10000 2.55 300 08:49 13.05.2022
3709 Clouds 19 1017 82 10000 1.62 334 07:48 13.05.2022
3710 Clouds 18 1017 82 10000 2.55 344 06:33 13.05.2022
3711 Clouds 18 1017 82 10000 2.55 344 06:33 13.05.2022
3712 Clouds 20 1018 83 10000 3.36 342 03:34 13.05.2022
3713 Clouds 21 1019 83 10000 4.01 335 00:39 13.05.2022
3714 Clouds 21 1018 84 10000 4.33 338 22:45 12.05.2022
3715 Clouds 22 1017 83 10000 4.82 343 21:56 12.05.2022
3716 Clouds 23 1017 79 10000 4.65 346 20:29 12.05.2022
3717 Clouds 23 1017 78 10000 4.46 348 18:59 12.05.2022
3718 Clouds 24 1016 76 10000 5.18 350 17:24 12.05.2022
3719 Clouds 24 1017 76 10000 5.3 346 16:18 12.05.2022
3720 Clouds 24 1017 75 10000 5.29 344 14:42 12.05.2022
3721 Clouds 25 1017 74 10000 4.91 338 13:46 12.05.2022
3722 Clouds 22 1017 78 10000 5 322 10:52 12.05.2022
3723 Clouds 19 1016 81 10000 5.61 319 09:30 12.05.2022
3724 Clouds 19 1016 84 10000 5.92 320 08:51 12.05.2022
3725 Clear 19 1015 87 10000 5.55 317 07:40 12.05.2022
3726 Clear 19 1015 87 10000 5.76 318 06:34 12.05.2022
3727 Clear 20 1015 81 10000 5.54 323 02:58 12.05.2022
3728 Clear 21 1015 79 10000 4.39 320 00:36 12.05.2022
3729 Clear 21 1015 79 10000 3.97 318 22:36 11.05.2022
3730 Clear 21 1014 79 10000 4.36 327 21:50 11.05.2022
3731 Clear 21 1014 76 10000 4.24 335 21:24 11.05.2022
3732 Clear 22 1014 70 10000 2.76 351 18:58 11.05.2022
3733 Clear 24 1014 69 10000 2.94 359 16:55 11.05.2022
3734 Clear 24 1014 69 10000 2.7 349 15:38 11.05.2022
3735 Clear 24 1015 71 10000 3.04 340 14:39 11.05.2022
3736 Clear 24 1015 70 10000 1.8 344 14:18 11.05.2022
3737 Clouds 23 1015 69 10000 2.25 310 11:54 11.05.2022
3738 Clouds 23 1015 70 10000 2.74 312 11:23 11.05.2022
3739 Clouds 21 1014 76 10000 2.25 291 08:46 11.05.2022
3740 Clouds 22 1014 76 10000 1.49 195 05:31 11.05.2022
3741 Clouds 22 1014 76 10000 1.49 195 05:31 11.05.2022
3742 Clouds 24 1016 69 10000 0.52 193 00:45 11.05.2022
3743 Clouds 24 1016 67 10000 0.21 238 22:32 10.05.2022
3744 Clouds 24 1015 67 10000 0.46 97 21:57 10.05.2022
3745 Clouds 25 1014 65 10000 1.36 92 20:58 10.05.2022
3746 Clouds 25 1014 67 10000 0.94 46 19:47 10.05.2022
3747 Clouds 26 1014 66 10000 1.82 44 17:59 10.05.2022
3748 Clouds 27 1014 66 10000 1.82 44 17:34 10.05.2022
3749 Clouds 27 1015 65 10000 2.01 84 15:41 10.05.2022
3750 Clouds 27 1016 64 10000 1.3 144 12:47 10.05.2022
3751 Clouds 27 1016 65 10000 0.94 106 11:51 10.05.2022
3752 Clouds 31 1016 66 10000 2.85 264 11:21 10.05.2022
3753 Clouds 31 1016 66 10000 2.85 264 10:54 10.05.2022
3754 Rain 27 1016 68 10000 2.13 254 09:26 10.05.2022
3755 Clouds 22 1015 72 10000 1.92 245 07:26 10.05.2022
3756 Clouds 21 1014 67 10000 2.49 168 04:34 10.05.2022
3757 Clouds 21 1015 72 10000 2.15 28 01:34 10.05.2022
3758 Clouds 21 1016 77 10000 2.65 21 23:26 09.05.2022
3759 Clouds 21 1015 75 10000 2.96 14 21:58 09.05.2022
3760 Clear 22 1015 72 10000 2.46 12 21:21 09.05.2022
3761 Clouds 23 1015 72 10000 2.93 27 19:37 09.05.2022
3762 Clouds 23 1014 71 10000 3.59 38 17:56 09.05.2022
3763 Clouds 23 1014 70 10000 4.07 29 16:49 09.05.2022
3764 Clouds 23 1015 69 10000 4.42 26 15:53 09.05.2022
3765 Clouds 23 1015 69 10000 4.42 26 15:31 09.05.2022
3766 Clouds 22 1015 69 10000 4.4 28 14:32 09.05.2022
3767 Clouds 22 1016 69 10000 4 31 13:50 09.05.2022
3768 Clouds 22 1016 69 10000 3.86 25 12:30 09.05.2022
3769 Clouds 21 1016 69 10000 3.64 19 11:43 09.05.2022
3770 Clouds 20 1016 70 10000 3.49 11 10:44 09.05.2022
3771 Clouds 19 1015 72 10000 3.25 5 09:39 09.05.2022
3772 Clouds 18 1014 75 10000 3.61 2 07:56 09.05.2022
3773 Clouds 19 1014 77 10000 3.52 9 04:33 09.05.2022
3774 Clouds 19 1014 77 10000 3.52 9 04:33 09.05.2022
3775 Clouds 19 1014 77 10000 3.52 9 04:33 09.05.2022
3776 Clouds 20 1016 79 10000 3.89 5 00:21 09.05.2022
3777 Clouds 20 1015 81 10000 4.31 5 22:57 08.05.2022
3778 Clouds 20 1015 83 10000 4.68 8 22:22 08.05.2022
3779 Clouds 21 1014 82 10000 5.4 12 20:37 08.05.2022
3780 Clouds 22 1014 78 10000 5.85 16 19:53 08.05.2022
3781 Clouds 22 1014 76 10000 5.84 18 18:59 08.05.2022
3782 Clouds 22 1014 74 10000 5.74 19 18:24 08.05.2022
3783 Clouds 24 1014 72 10000 5.54 21 16:59 08.05.2022
3784 Clouds 23 1015 71 10000 5.52 24 15:41 08.05.2022
3785 Clouds 23 1015 71 10000 5.29 23 15:20 08.05.2022
3786 Clear 23 1016 72 10000 5.09 27 12:41 08.05.2022
3787 Clear 20 1016 74 10000 4.93 27 10:34 08.05.2022
3788 Clear 19 1016 76 10000 4.83 26 09:59 08.05.2022
3789 Clear 19 1016 76 10000 4.83 26 09:33 08.05.2022
3790 Clouds 19 1015 83 10000 4.28 19 07:33 08.05.2022
3791 Clouds 19 1016 86 10000 4.93 10 04:20 08.05.2022
3792 Clouds 20 1016 85 10000 4.48 3 03:19 08.05.2022
3793 Clouds 20 1017 83 10000 4.28 4 00:28 08.05.2022
3794 Clouds 20 1017 83 10000 4.28 4 23:53 07.05.2022
3795 Clouds 20 1017 83 10000 4.31 357 22:51 07.05.2022
3796 Clouds 20 1017 83 10000 4.31 357 22:33 07.05.2022
3797 Clouds 21 1016 84 10000 4.51 2 21:34 07.05.2022
3798 Clouds 22 1016 80 10000 4.63 7 20:42 07.05.2022
3799 Clouds 23 1015 76 10000 4.78 8 19:58 07.05.2022
3800 Clouds 23 1015 71 10000 4.81 14 17:43 07.05.2022
3801 Clouds 23 1017 69 10000 4.42 30 15:51 07.05.2022
3802 Clouds 23 1018 69 10000 3.94 33 14:19 07.05.2022
3803 Clouds 21 1018 74 10000 3.64 19 10:57 07.05.2022
3804 Clouds 18 1017 84 10000 3.85 10 09:22 07.05.2022
3805 Clouds 18 1017 84 10000 4.12 11 07:52 07.05.2022
3806 Clouds 18 1017 85 10000 4.17 2 06:43 07.05.2022
3807 Clouds 18 1018 86 10000 4.04 358 04:59 07.05.2022
3808 Clouds 19 1019 82 10000 4.23 351 01:46 07.05.2022
3809 Clouds 20 1020 84 10000 4.33 348 23:38 06.05.2022
3810 Clouds 20 1019 84 10000 4.44 352 22:31 06.05.2022
3811 Clear 20 1019 82 10000 4.35 360 21:43 06.05.2022
3812 Clear 22 1018 79 10000 4.14 2 20:35 06.05.2022
3813 Clouds 22 1018 75 10000 5.06 4 19:31 06.05.2022
3814 Clouds 22 1018 72 10000 4.9 8 19:00 06.05.2022
3815 Clouds 23 1018 71 10000 4.59 12 18:19 06.05.2022
3816 Clouds 23 1019 70 10000 4.52 16 16:44 06.05.2022
3817 Clouds 23 1019 70 10000 4.52 21 15:41 06.05.2022
3818 Clouds 23 1020 69 10000 4.43 21 14:53 06.05.2022
3819 Clouds 22 1020 69 10000 4.2 16 12:56 06.05.2022
3820 Clouds 21 1020 69 10000 4.2 16 12:37 06.05.2022
3821 Clouds 21 1020 71 10000 4.35 12 11:42 06.05.2022
3822 Clouds 19 1020 74 10000 4.25 9 10:30 06.05.2022
3823 Clouds 19 1020 78 10000 4.26 10 09:45 06.05.2022
3824 Clouds 18 1020 84 10000 4.07 7 08:33 06.05.2022
3825 Clouds 18 1019 86 10000 4.25 6 06:48 06.05.2022
3826 Clouds 18 1020 85 10000 4.48 12 05:23 06.05.2022
3827 Clouds 18 1021 85 10000 4.74 20 02:50 06.05.2022
3828 Clouds 19 1022 82 10000 5.35 17 00:26 06.05.2022
3829 Clouds 19 1020 81 10000 5.32 28 22:28 05.05.2022
3830 Clouds 20 1020 78 10000 5.24 23 21:22 05.05.2022
3831 Clouds 22 1019 75 10000 4.84 29 19:55 05.05.2022
3832 Clear 23 1019 73 10000 4.51 33 18:34 05.05.2022
3833 Clear 22 1020 70 10000 5.03 37 16:33 05.05.2022
3834 Clear 22 1020 68 10000 5.32 46 14:50 05.05.2022
3835 Clouds 21 1021 71 10000 5.64 41 13:22 05.05.2022
3836 Clouds 20 1021 71 10000 5.64 41 12:49 05.05.2022
3837 Clouds 19 1021 72 10000 5.22 23 10:48 05.05.2022
3838 Clouds 19 1020 72 10000 5.24 18 09:39 05.05.2022
3839 Clouds 18 1019 73 10000 4.71 24 07:35 05.05.2022
3840 Clouds 18 1019 72 10000 5.53 25 04:42 05.05.2022
3841 Clouds 19 1020 69 10000 6.18 17 01:56 05.05.2022
3842 Clouds 19 1020 70 10000 6.61 15 01:27 05.05.2022
3843 Clouds 19 1020 72 10000 7.22 14 23:50 04.05.2022
3844 Clouds 19 1020 71 10000 7.14 14 22:42 04.05.2022
3845 Clouds 20 1019 70 10000 6.42 10 21:50 04.05.2022
3846 Clouds 20 1019 69 10000 6.22 11 21:26 04.05.2022
3847 Clouds 20 1018 67 10000 6.13 14 20:25 04.05.2022
3848 Clouds 20 1018 69 10000 6.29 16 19:53 04.05.2022
3849 Clouds 22 1018 67 10000 6.32 20 18:56 04.05.2022
3850 Clouds 22 1018 66 10000 6.35 23 18:22 04.05.2022
3851 Clouds 22 1018 66 10000 6.35 23 17:42 04.05.2022
3852 Clouds 22 1018 64 10000 5.48 17 15:41 04.05.2022
3853 Clouds 22 1019 64 10000 5.76 14 15:23 04.05.2022
3854 Clouds 22 1019 65 10000 5.81 13 14:21 04.05.2022
3855 Clouds 21 1019 65 10000 5.86 13 13:33 04.05.2022
3856 Clouds 21 1019 66 10000 5.67 12 12:33 04.05.2022
3857 Clouds 19 1018 67 10000 5.84 18 10:41 04.05.2022
3858 Clouds 18 1018 68 10000 6.24 16 09:43 04.05.2022
3859 Clouds 17 1018 67 10000 6.3 10 08:46 04.05.2022
3860 Clouds 18 1017 75 10000 7.26 10 06:41 04.05.2022
3861 Clouds 18 1018 76 10000 6.28 15 02:59 04.05.2022
3862 Clouds 19 1019 79 10000 6.88 13 00:38 04.05.2022
3863 Clouds 19 1018 80 10000 7.04 7 22:37 03.05.2022
3864 Clouds 20 1017 81 10000 7.15 6 21:46 03.05.2022
3865 Clouds 21 1017 76 10000 6.62 357 20:54 03.05.2022
3866 Clouds 21 1016 69 10000 5.26 349 19:59 03.05.2022
3867 Clouds 22 1016 66 10000 4.74 357 18:54 03.05.2022
3868 Clouds 22 1016 66 10000 5.2 11 18:21 03.05.2022
3869 Clouds 21 1017 67 10000 5.86 13 16:44 03.05.2022
3870 Clouds 23 1018 67 10000 6.18 12 15:38 03.05.2022
3871 Clouds 22 1018 71 10000 7 7 12:47 03.05.2022
3872 Clouds 21 1018 73 10000 6.38 5 12:27 03.05.2022
3873 Clouds 18 1018 75 10000 6.32 4 10:57 03.05.2022
3874 Clouds 19 1018 78 10000 6.96 5 09:34 03.05.2022
3875 Clouds 18 1017 77 10000 7.2 4 07:33 03.05.2022
3876 Clouds 18 1017 78 10000 6.52 9 06:44 03.05.2022
3877 Clouds 19 1021 82 10000 7.24 17 00:54 03.05.2022
3878 Clouds 19 1021 83 10000 7.26 12 22:39 02.05.2022
3879 Clouds 20 1020 83 10000 7.12 11 21:52 02.05.2022
3880 Clouds 20 1020 79 10000 6.86 12 20:51 02.05.2022
3881 Clouds 22 1020 75 10000 6.32 16 18:44 02.05.2022
3882 Clear 22 1020 74 10000 6.04 18 18:25 02.05.2022
3883 Clear 22 1020 74 10000 6.04 18 17:37 02.05.2022
3884 Clear 23 1021 72 10000 5.55 25 16:22 02.05.2022
3885 Clear 22 1021 72 10000 5.62 25 15:31 02.05.2022
3886 Clouds 22 1022 72 10000 5.65 32 13:51 02.05.2022
3887 Clouds 22 1022 76 10000 5.93 28 12:19 02.05.2022
3888 Clouds 21 1021 77 10000 5.99 25 10:51 02.05.2022
3889 Clouds 19 1021 82 10000 5.77 22 09:29 02.05.2022
3890 Clouds 19 1020 82 10000 5.71 18 07:51 02.05.2022
3891 Clouds 18 1021 80 10000 5.23 12 03:53 02.05.2022
3892 Clouds 19 1023 79 10000 5.48 11 00:24 02.05.2022
3893 Clouds 19 1023 79 10000 5.48 11 23:48 01.05.2022
3894 Clear 20 1023 79 10000 5.73 10 22:33 01.05.2022
3895 Clear 20 1021 75 10000 6.09 11 21:22 01.05.2022
3896 Clear 22 1021 71 10000 5.89 12 19:53 01.05.2022
3897 Clear 22 1021 66 10000 5.98 16 18:58 01.05.2022
3898 Clear 23 1021 65 10000 5.73 14 18:28 01.05.2022
3899 Clear 23 1021 65 10000 5.29 17 17:29 01.05.2022
3900 Clear 25 1022 64 10000 5.13 17 16:23 01.05.2022
3901 Clear 24 1022 64 10000 4.81 17 15:25 01.05.2022
3902 Clear 24 1023 65 10000 4.69 19 13:42 01.05.2022
3903 Clear 22 1023 71 10000 4.56 15 11:18 01.05.2022
3904 Clear 20 1022 80 10000 4.7 10 08:53 01.05.2022
3905 Clear 20 1022 80 10000 4.7 10 08:34 01.05.2022
3906 Clouds 19 1021 83 10000 5.9 353 03:35 01.05.2022
3907 Clouds 19 1022 84 10000 5.57 358 00:18 01.05.2022
3908 Clouds 20 1021 80 10000 5.9 2 21:47 30.04.2022
3909 Clouds 22 1020 76 10000 5.93 4 20:58 30.04.2022
3910 Clear 22 1019 73 10000 6.12 4 19:41 30.04.2022
3911 Clear 23 1019 69 10000 6.04 8 18:21 30.04.2022
3912 Clear 23 1019 67 10000 5.89 9 16:44 30.04.2022
3913 Clear 23 1020 65 10000 5.55 10 15:46 30.04.2022
3914 Clear 23 1021 64 10000 5.1 11 14:44 30.04.2022
3915 Clouds 22 1021 67 10000 4.86 10 12:55 30.04.2022
3916 Clouds 21 1021 71 10000 5.17 11 11:34 30.04.2022
3917 Clouds 20 1021 75 10000 5.53 12 10:44 30.04.2022
3918 Clouds 18 1020 82 10000 6.15 8 09:25 30.04.2022
3919 Clouds 18 1019 81 10000 6.05 5 06:43 30.04.2022
3920 Clear 18 1020 74 10000 5.77 2 02:36 30.04.2022
3921 Clear 19 1021 76 10000 6.42 13 23:37 29.04.2022
3922 Clear 19 1020 75 10000 6.4 15 22:31 29.04.2022
3923 Clear 20 1020 75 10000 6.51 16 21:39 29.04.2022
3924 Clear 20 1019 72 10000 6.41 14 20:49 29.04.2022
3925 Clouds 21 1018 70 10000 6.56 15 19:45 29.04.2022
3926 Clouds 23 1018 68 10000 6.15 9 17:59 29.04.2022
3927 Clouds 22 1018 67 10000 6.06 14 17:23 29.04.2022
3928 Clouds 22 1019 67 10000 5.84 20 15:49 29.04.2022
3929 Clouds 21 1020 70 10000 6.05 30 14:22 29.04.2022
3930 Clouds 20 1020 71 10000 5.88 28 13:21 29.04.2022
3931 Clouds 19 1020 72 10000 6.09 27 11:49 29.04.2022
3932 Clouds 18 1019 78 10000 6.06 23 08:51 29.04.2022
3933 Clouds 18 1018 79 10000 6.41 20 07:28 29.04.2022
3934 Clouds 18 1018 79 10000 6.41 20 06:39 29.04.2022
3935 Clouds 18 1019 79 10000 6.28 22 04:53 29.04.2022
3936 Clouds 19 1021 78 10000 6.41 21 00:39 29.04.2022
3937 Clouds 19 1020 77 10000 5.96 18 23:27 28.04.2022
3938 Clouds 19 1020 77 10000 5.96 18 22:41 28.04.2022
3939 Clouds 19 1020 77 10000 5.51 21 21:47 28.04.2022
3940 Clouds 19 1020 75 10000 6.2 22 21:19 28.04.2022
3941 Clouds 20 1020 72 10000 6.69 21 20:25 28.04.2022
3942 Clouds 21 1019 72 10000 6.68 20 19:41 28.04.2022
3943 Clouds 21 1019 70 10000 5.96 20 19:22 28.04.2022
3944 Clouds 22 1019 70 10000 5.96 20 18:35 28.04.2022
3945 Clouds 22 1020 69 10000 5.9 29 17:20 28.04.2022
3946 Clouds 22 1020 69 10000 5.9 29 16:40 28.04.2022
3947 Clouds 22 1020 68 10000 5.39 31 16:18 28.04.2022
3948 Clouds 22 1020 67 10000 6.02 31 15:27 28.04.2022
3949 Clouds 22 1020 67 10000 5.32 28 13:44 28.04.2022
3950 Clouds 21 1021 69 10000 6.12 31 12:44 28.04.2022
3951 Clouds 20 1021 70 10000 5.93 33 11:56 28.04.2022
3952 Clouds 19 1021 73 10000 6.45 33 10:44 28.04.2022
3953 Clouds 18 1021 75 10000 6.44 31 09:54 28.04.2022
3954 Clouds 18 1020 78 10000 7 28 08:31 28.04.2022
3955 Clouds 18 1020 79 10000 6.54 25 06:59 28.04.2022
3956 Clouds 18 1020 77 10000 6.58 21 05:55 28.04.2022
3957 Clouds 18 1020 77 10000 6.58 21 05:37 28.04.2022
3958 Clouds 18 1020 75 10000 6.09 26 04:38 28.04.2022
3959 Clear 19 1021 75 10000 6.53 19 00:22 28.04.2022
3960 Clear 19 1021 74 10000 6.5 16 22:38 27.04.2022
3961 Clear 19 1020 73 10000 6.54 18 21:52 27.04.2022
3962 Clear 20 1019 71 10000 6.32 21 20:59 27.04.2022
3963 Clear 20 1019 71 10000 6.32 21 20:37 27.04.2022
3964 Clear 21 1019 69 10000 6.33 25 19:37 27.04.2022
3965 Clear 22 1019 67 10000 6.36 23 18:56 27.04.2022
3966 Clear 21 1019 66 10000 6.46 24 18:22 27.04.2022
3967 Clear 22 1020 65 10000 6.3 23 16:29 27.04.2022
3968 Clear 22 1020 65 10000 6.38 24 14:31 27.04.2022
3969 Clouds 21 1020 65 10000 5.87 21 11:45 27.04.2022
3970 Clouds 20 1020 66 10000 6.03 20 11:20 27.04.2022
3971 Clouds 17 1019 72 10000 6.38 17 09:19 27.04.2022
3972 Clouds 17 1018 72 10000 7.04 11 07:18 27.04.2022
3973 Clouds 18 1018 73 10000 7.41 8 04:21 27.04.2022
3974 Clouds 19 1019 75 10000 7.26 7 01:32 27.04.2022
3975 Clouds 19 1019 75 10000 7.29 6 00:36 27.04.2022
3976 Clouds 19 1019 75 10000 7.71 359 23:25 26.04.2022
3977 Clouds 19 1019 75 10000 7.71 359 22:58 26.04.2022
3978 Clouds 19 1019 75 10000 7.71 359 22:39 26.04.2022
3979 Clouds 20 1018 71 10000 7.47 353 21:26 26.04.2022
3980 Clouds 20 1018 71 10000 7.47 353 21:26 26.04.2022
3981 Clouds 20 1018 71 10000 7.47 353 21:26 26.04.2022
3982 Clouds 21 1018 71 10000 7.47 353 20:41 26.04.2022
3983 Clear 22 1017 68 10000 7.93 352 19:53 26.04.2022
3984 Clear 22 1017 67 10000 7.63 353 19:32 26.04.2022
3985 Clear 22 1017 66 10000 7.7 346 18:44 26.04.2022
3986 Clear 23 1016 63 10000 8.01 344 17:54 26.04.2022
3987 Clear 23 1017 63 10000 8.01 341 16:28 26.04.2022
3988 Clouds 22 1017 64 10000 7.98 340 13:59 26.04.2022
3989 Clouds 23 1017 63 10000 7.98 339 13:32 26.04.2022
3990 Clouds 22 1017 66 10000 8.32 333 11:49 26.04.2022
3991 Clouds 20 1016 69 10000 8.41 330 10:34 26.04.2022
3992 Clouds 19 1015 76 10000 8.51 325 08:54 26.04.2022
3993 Clear 18 1014 77 10000 8.81 328 06:57 26.04.2022
3994 Clear 19 1014 77 10000 9.12 325 04:23 26.04.2022
3995 Clear 19 1014 77 10000 9.12 325 04:23 26.04.2022
3996 Clouds 20 1015 83 10000 9.27 325 00:57 26.04.2022
3997 Clouds 20 1014 87 10000 9.83 320 00:25 26.04.2022
3998 Rain 21 1013 84 10000 6.18 322 22:21 25.04.2022
3999 Clouds 21 1013 84 10000 6.18 322 21:34 25.04.2022
4000 Clouds 22 1012 79 10000 3.7 332 20:35 25.04.2022
4001 Clouds 24 1012 73 10000 0.4 20 18:54 25.04.2022
4002 Clouds 23 1012 71 10000 1.92 141 17:43 25.04.2022
4003 Clouds 24 1013 71 10000 2.62 148 16:52 25.04.2022
4004 Clouds 22 1013 70 10000 2.72 144 15:24 25.04.2022
4005 Clouds 22 1013 70 10000 2.72 144 14:34 25.04.2022
4006 Clouds 20 1014 68 10000 2.98 125 13:30 25.04.2022
4007 Clear 20 1014 67 10000 2.13 136 11:37 25.04.2022
4008 Clear 18 1014 69 10000 1.51 176 10:20 25.04.2022
4009 Clear 16 1013 71 10000 1.31 178 08:33 25.04.2022
4010 Clear 17 1013 72 10000 1.15 166 06:27 25.04.2022
4011 Clouds 17 1016 68 10000 0.68 66 02:20 25.04.2022
4012 Clouds 18 1016 67 10000 1.53 26 23:58 24.04.2022
4013 Clouds 18 1016 67 10000 1.53 26 23:30 24.04.2022
4014 Clouds 19 1017 67 10000 1.56 356 22:40 24.04.2022
4015 Clouds 19 1016 66 10000 1.66 3 21:58 24.04.2022
4016 Clouds 19 1016 65 10000 1.95 347 21:24 24.04.2022
4017 Clouds 19 1016 65 10000 1.95 347 20:47 24.04.2022
4018 Clouds 20 1015 64 10000 2.1 360 20:21 24.04.2022
4019 Clouds 20 1016 65 10000 1.61 6 18:59 24.04.2022
4020 Clouds 20 1016 66 10000 1.87 359 17:55 24.04.2022
4021 Clouds 21 1016 67 10000 2.12 4 17:22 24.04.2022
4022 Clouds 20 1016 67 10000 2.12 4 16:58 24.04.2022
4023 Clouds 19 1016 67 10000 2.12 4 16:30 24.04.2022
4024 Clouds 19 1016 68 10000 2.87 2 15:53 24.04.2022
4025 Clouds 19 1017 67 10000 3.18 356 14:55 24.04.2022
4026 Clouds 20 1017 65 10000 3.45 349 13:45 24.04.2022
4027 Clouds 20 1017 65 10000 3.25 350 13:23 24.04.2022
4028 Clouds 21 1017 68 10000 3.24 339 11:53 24.04.2022
4029 Clouds 18 1017 70 10000 3.3 334 10:59 24.04.2022
4030 Clouds 18 1017 74 10000 3.37 331 09:47 24.04.2022
4031 Clouds 16 1016 78 10000 3.65 330 08:23 24.04.2022
4032 Clouds 16 1016 78 10000 3.92 334 05:46 24.04.2022
4033 Clouds 17 1017 74 10000 3.68 328 02:49 24.04.2022
4034 Clouds 19 1018 71 10000 2.77 347 00:47 24.04.2022
4035 Clouds 19 1018 71 10000 3.51 354 23:55 23.04.2022
4036 Clouds 19 1018 70 10000 3.75 347 23:25 23.04.2022
4037 Clouds 19 1018 70 10000 3.75 347 22:40 23.04.2022
4038 Clouds 19 1017 71 10000 4.34 354 21:48 23.04.2022
4039 Clouds 19 1016 71 10000 4.57 351 21:29 23.04.2022
4040 Clouds 19 1016 69 10000 4.21 353 19:56 23.04.2022
4041 Clouds 19 1016 68 10000 3.84 348 19:20 23.04.2022
4042 Clouds 19 1016 68 10000 3.84 348 18:54 23.04.2022
4043 Clouds 19 1016 68 10000 3.84 348 18:32 23.04.2022
4044 Clouds 20 1016 68 10000 3.67 347 17:47 23.04.2022
4045 Clouds 19 1016 69 10000 3.58 342 16:46 23.04.2022
4046 Clouds 19 1017 70 10000 3.54 350 15:51 23.04.2022
4047 Clouds 20 1018 70 10000 3.65 346 13:31 23.04.2022
4048 Clouds 19 1017 73 10000 3.92 326 11:29 23.04.2022
4049 Clouds 18 1017 73 10000 3.92 326 10:32 23.04.2022
4050 Clouds 16 1016 77 10000 4.93 328 08:18 23.04.2022
4051 Clouds 16 1015 75 10000 5.77 315 03:57 23.04.2022
4052 Clouds 16 1016 72 10000 5.5 315 02:36 23.04.2022
4053 Clouds 18 1017 69 10000 6.46 319 23:34 22.04.2022
4054 Clouds 18 1016 69 10000 6.47 320 22:43 22.04.2022
4055 Clouds 18 1015 69 10000 6.34 324 21:56 22.04.2022
4056 Clouds 18 1015 69 10000 6.34 324 21:56 22.04.2022
4057 Clouds 18 1015 69 10000 6.34 324 21:56 22.04.2022
4058 Clouds 18 1015 69 10000 6.34 324 21:56 22.04.2022
4059 Clouds 18 1015 69 10000 6.34 324 21:56 22.04.2022
4060 Clouds 18 1015 69 10000 6.35 324 21:56 22.04.2022
4061 Clouds 18 1015 69 10000 6.34 324 21:38 22.04.2022
4062 Clouds 18 1015 70 10000 6.44 322 20:30 22.04.2022
4063 Clouds 18 1015 72 10000 6.16 326 19:25 22.04.2022
4064 Clouds 18 1015 72 10000 6.16 326 18:56 22.04.2022
4065 Clouds 18 1015 73 10000 6.01 329 18:24 22.04.2022
4066 Clouds 20 1015 74 10000 5.83 335 16:54 22.04.2022
4067 Clouds 20 1015 70 10000 5.48 332 15:58 22.04.2022
4068 Clouds 19 1016 65 10000 4.6 324 15:23 22.04.2022
4069 Clouds 18 1016 65 10000 4.6 324 14:38 22.04.2022
4070 Clouds 18 1016 60 10000 3.3 320 13:41 22.04.2022
4071 Clouds 20 1016 60 10000 2.97 319 12:36 22.04.2022
4072 Clouds 19 1016 63 10000 3.97 333 11:23 22.04.2022
4073 Clouds 19 1016 63 10000 3.97 333 10:56 22.04.2022
4074 Clouds 18 1016 63 10000 3.97 333 10:32 22.04.2022
4075 Clouds 18 1016 64 10000 4.63 332 09:54 22.04.2022
4076 Clouds 16 1015 67 10000 4.8 330 08:56 22.04.2022
4077 Clouds 16 1015 67 10000 4.8 330 08:36 22.04.2022
4078 Clouds 17 1015 70 10000 4.06 336 06:21 22.04.2022
4079 Clouds 18 1018 72 10000 3.86 2 00:53 22.04.2022
4080 Clouds 18 1017 73 10000 4.45 15 23:29 21.04.2022
4081 Clouds 19 1017 73 10000 4.45 15 22:34 21.04.2022
4082 Clouds 19 1017 72 10000 4.81 11 21:25 21.04.2022
4083 Clouds 19 1017 70 10000 5.23 12 20:29 21.04.2022
4084 Clouds 21 1016 71 10000 5.49 11 18:49 21.04.2022
4085 Clouds 20 1017 71 10000 4.73 9 18:19 21.04.2022
4086 Clouds 21 1017 70 10000 5.09 9 16:56 21.04.2022
4087 Clouds 21 1019 69 10000 5.18 11 15:24 21.04.2022
4088 Clouds 21 1019 69 10000 5.18 11 14:51 21.04.2022
4089 Clouds 20 1019 69 10000 5.29 8 13:56 21.04.2022
4090 Clouds 20 1020 70 10000 5 7 13:20 21.04.2022
4091 Clouds 19 1020 70 10000 4.99 12 11:46 21.04.2022
4092 Clouds 18 1019 73 10000 4.55 20 09:24 21.04.2022
4093 Clouds 18 1018 76 10000 4.83 19 08:29 21.04.2022
4094 Clouds 18 1019 76 10000 5.9 24 06:26 21.04.2022
4095 Clouds 18 1020 76 10000 6.15 27 03:39 21.04.2022
4096 Clouds 18 1021 78 10000 6.46 30 03:18 21.04.2022
4097 Clouds 18 1021 78 10000 6.46 30 02:43 21.04.2022
4098 Clouds 18 1022 71 10000 7.6 25 00:27 21.04.2022
4099 Clouds 18 1021 70 10000 8.02 22 23:24 20.04.2022
4100 Clouds 18 1021 70 10000 8.02 22 22:58 20.04.2022
4101 Clouds 18 1021 70 10000 8.02 22 22:32 20.04.2022
4102 Clouds 19 1020 69 10000 8.27 21 21:35 20.04.2022
4103 Clouds 19 1019 70 10000 8.07 21 20:43 20.04.2022
4104 Clouds 20 1019 68 10000 8.07 24 20:20 20.04.2022
4105 Clouds 21 1019 68 10000 8.07 24 19:38 20.04.2022
4106 Clouds 20 1019 68 10000 8.04 26 18:42 20.04.2022
4107 Clouds 21 1020 66 10000 7.61 27 16:59 20.04.2022
4108 Clouds 21 1020 66 10000 7.61 27 16:39 20.04.2022
4109 Clouds 21 1021 65 10000 7.37 29 14:52 20.04.2022
4110 Clouds 18 1021 69 10000 8.13 29 11:57 20.04.2022
4111 Clouds 18 1021 69 10000 8.13 29 11:33 20.04.2022
4112 Clouds 18 1020 72 10000 8.15 29 10:29 20.04.2022
4113 Clouds 18 1019 72 10000 8.09 28 09:27 20.04.2022
4114 Clouds 18 1019 72 10000 8.11 28 08:25 20.04.2022
4115 Clouds 18 1019 73 10000 7.94 27 07:44 20.04.2022
4116 Clouds 18 1019 74 10000 7.92 28 04:49 20.04.2022
4117 Clouds 18 1020 75 10000 8.6 34 01:20 20.04.2022
4118 Clouds 18 1020 75 10000 8.4 33 00:20 20.04.2022
4119 Clouds 19 1019 76 10000 8.43 31 22:44 19.04.2022
4120 Clouds 19 1018 77 10000 8.5 30 22:22 19.04.2022
4121 Clouds 19 1018 77 10000 8.5 30 21:38 19.04.2022
4122 Clouds 19 1017 76 10000 8.22 29 20:56 19.04.2022
4123 Clouds 20 1017 76 10000 8.22 29 20:36 19.04.2022
4124 Clouds 20 1017 75 10000 8.31 27 19:31 19.04.2022
4125 Clouds 20 1017 74 10000 7.8 29 18:18 19.04.2022
4126 Clouds 21 1017 74 10000 7.34 32 16:46 19.04.2022
4127 Clouds 22 1017 75 10000 7.34 33 16:24 19.04.2022
4128 Clouds 21 1018 75 10000 7.24 36 15:23 19.04.2022
4129 Clouds 22 1018 75 10000 7.24 36 14:32 19.04.2022
4130 Clouds 21 1018 76 10000 7.32 36 12:52 19.04.2022
4131 Clouds 21 1018 79 10000 7.09 37 12:26 19.04.2022
4132 Clouds 20 1017 81 10000 7.32 38 11:23 19.04.2022
4133 Clouds 18 1016 85 10000 7.94 36 09:26 19.04.2022
4134 Clouds 19 1015 87 10000 6.64 39 07:26 19.04.2022
4135 Clouds 19 1015 85 10000 5.45 42 04:19 19.04.2022
4136 Clouds 20 1016 83 10000 4.44 40 01:18 19.04.2022
4137 Clouds 20 1016 83 10000 4.14 49 23:40 18.04.2022
4138 Clouds 21 1014 82 10000 3.79 44 21:56 18.04.2022
4139 Clouds 22 1014 77 10000 4.25 37 21:24 18.04.2022
4140 Clouds 23 1014 77 10000 4.25 37 20:38 18.04.2022
4141 Clouds 23 1014 77 10000 4.25 37 20:38 18.04.2022
4142 Clear 24 1013 71 10000 4.55 49 19:59 18.04.2022
4143 Clear 24 1013 68 10000 4.21 70 19:29 18.04.2022
4144 Clear 24 1013 68 10000 4.21 70 18:34 18.04.2022
4145 Clear 25 1013 67 10000 4.65 89 17:39 18.04.2022
4146 Clear 25 1013 67 10000 4.65 89 17:39 18.04.2022
4147 Clear 25 1013 67 10000 5.47 95 17:19 18.04.2022
4148 Clear 25 1013 67 10000 5.47 95 16:36 18.04.2022
4149 Clear 26 1013 66 10000 5.84 94 15:30 18.04.2022
4150 Clear 27 1014 66 10000 5.85 92 13:55 18.04.2022
4151 Clear 25 1014 64 10000 5.55 91 12:41 18.04.2022
4152 Clear 26 1014 66 10000 5.43 85 11:48 18.04.2022
4153 Clear 24 1013 64 10000 5.14 85 10:46 18.04.2022
4154 Clear 26 1013 63 10000 4.28 79 09:31 18.04.2022
4155 Clear 26 1013 63 10000 4.28 79 09:31 18.04.2022
4156 Clear 25 1012 60 10000 3.38 78 08:37 18.04.2022
4157 Clear 24 1011 61 10000 2.69 67 06:25 18.04.2022
4158 Clouds 26 1013 57 10000 1.99 51 02:27 18.04.2022
4159 Clouds 25 1013 62 10000 2.33 86 22:55 17.04.2022
4160 Clouds 25 1013 62 10000 2.33 86 22:32 17.04.2022
4161 Clouds 27 1012 60 10000 2.25 72 21:34 17.04.2022
4162 Clouds 27 1012 57 10000 2.61 82 20:51 17.04.2022
4163 Clouds 28 1011 53 10000 3.3 91 20:18 17.04.2022
4164 Clouds 29 1011 51 10000 2.99 92 18:42 17.04.2022
4165 Clouds 29 1012 47 10000 3.81 120 17:20 17.04.2022
4166 Clouds 29 1012 47 10000 4.26 130 15:34 17.04.2022
4167 Clouds 29 1013 51 10000 4.71 131 14:45 17.04.2022
4168 Clouds 27 1014 57 10000 3.54 109 13:28 17.04.2022
4169 Clouds 26 1014 57 10000 3.54 109 12:31 17.04.2022
4170 Clouds 25 1014 62 10000 2.6 83 10:51 17.04.2022
4171 Clouds 24 1014 63 10000 2.83 52 10:29 17.04.2022
4172 Clouds 21 1014 64 10000 2.86 54 09:51 17.04.2022
4173 Clouds 20 1013 65 10000 2.78 29 09:18 17.04.2022
4174 Clouds 20 1013 65 10000 2.68 17 08:29 17.04.2022
4175 Clouds 21 1013 70 10000 2.56 3 05:33 17.04.2022
4176 Clouds 21 1015 71 10000 2.1 360 01:52 17.04.2022
4177 Clouds 20 1015 74 10000 2.48 359 00:37 17.04.2022
4178 Clouds 20 1015 76 10000 4.24 1 23:19 16.04.2022
4179 Clouds 21 1014 76 10000 4.51 357 21:45 16.04.2022
4180 Clouds 21 1014 75 10000 4.34 2 20:54 16.04.2022
4181 Clouds 23 1013 73 10000 4.3 27 19:24 16.04.2022
4182 Clouds 23 1013 73 10000 4.3 27 18:43 16.04.2022
4183 Clouds 23 1014 69 10000 4.17 43 16:51 16.04.2022
4184 Clouds 23 1015 70 10000 4.14 49 15:49 16.04.2022
4185 Clouds 23 1015 71 10000 4.32 51 14:58 16.04.2022
4186 Clouds 22 1015 71 10000 4.32 51 14:37 16.04.2022
4187 Clouds 22 1015 72 10000 4.45 50 13:48 16.04.2022
4188 Clouds 22 1016 74 10000 4.33 48 12:35 16.04.2022
4189 Clouds 21 1016 76 10000 4.34 43 11:33 16.04.2022
4190 Clouds 19 1015 81 10000 4.34 42 10:29 16.04.2022
4191 Clouds 18 1015 81 10000 4.34 42 09:36 16.04.2022
4192 Clouds 18 1015 83 10000 4.49 40 08:42 16.04.2022
4193 Clouds 19 1015 85 10000 4.44 25 07:21 16.04.2022
4194 Clouds 19 1015 84 10000 4.23 13 04:58 16.04.2022
4195 Clear 20 1017 85 10000 5.8 5 01:23 16.04.2022
4196 Clear 20 1017 84 10000 6.08 3 23:45 15.04.2022
4197 Clear 20 1017 83 10000 6.11 3 22:48 15.04.2022
4198 Clear 20 1016 81 10000 6.08 4 22:28 15.04.2022
4199 Clear 20 1016 75 10000 6.08 4 21:20 15.04.2022
4200 Clear 21 1016 75 10000 6.08 4 20:38 15.04.2022
4201 Clear 22 1015 71 10000 5.92 8 19:43 15.04.2022
4202 Clear 22 1015 69 10000 6.1 13 18:58 15.04.2022
4203 Clear 22 1015 69 10000 6.18 17 18:26 15.04.2022
4204 Clear 23 1015 69 10000 6.18 17 17:57 15.04.2022
4205 Clear 23 1016 69 10000 6.4 19 17:24 15.04.2022
4206 Clear 24 1016 68 10000 6.31 20 16:24 15.04.2022
4207 Clear 24 1016 68 10000 6.31 20 15:41 15.04.2022
4208 Clear 24 1016 68 10000 6.31 20 15:41 15.04.2022
4209 Clouds 22 1017 68 10000 5.72 26 13:55 15.04.2022
4210 Clouds 21 1018 69 10000 6.1 28 12:50 15.04.2022
4211 Clouds 20 1018 70 10000 6.25 28 12:21 15.04.2022
4212 Clouds 20 1018 70 10000 6.25 28 11:42 15.04.2022
4213 Clouds 19 1017 74 10000 6.28 24 10:46 15.04.2022
4214 Clouds 18 1017 77 10000 6.39 22 09:59 15.04.2022
4215 Clouds 18 1017 80 10000 6.39 21 09:22 15.04.2022
4216 Clouds 18 1017 80 10000 6.39 21 08:39 15.04.2022
4217 Clouds 18 1016 80 10000 6.55 17 06:48 15.04.2022
4218 Clouds 18 1016 80 10000 6.54 17 04:43 15.04.2022
4219 Clouds 18 1018 78 10000 6.88 16 00:34 15.04.2022
4220 Clouds 18 1018 78 10000 7.79 17 23:22 14.04.2022
4221 Clouds 18 1018 78 10000 7.79 17 22:45 14.04.2022
4222 Clouds 19 1018 78 10000 8.22 16 22:27 14.04.2022
4223 Clouds 19 1018 78 10000 8.22 16 21:47 14.04.2022
4224 Clear 21 1017 71 10000 7.95 11 19:24 14.04.2022
4225 Clear 22 1017 71 10000 7.95 11 18:53 14.04.2022
4226 Clear 22 1017 69 10000 7.68 12 17:45 14.04.2022
4227 Clear 22 1017 69 10000 7.59 11 16:51 14.04.2022
4228 Clear 22 1017 68 10000 7.33 14 15:51 14.04.2022
4229 Clouds 22 1018 67 10000 6.84 18 13:53 14.04.2022
4230 Clouds 21 1018 67 10000 6.99 17 13:21 14.04.2022
4231 Clouds 21 1018 67 10000 6.99 17 12:32 14.04.2022
4232 Clouds 20 1018 68 10000 7.09 18 11:43 14.04.2022
4233 Clouds 20 1018 71 10000 6.94 19 11:18 14.04.2022
4234 Clouds 18 1018 71 10000 6.94 19 10:31 14.04.2022
4235 Clouds 18 1017 75 10000 7.52 19 09:30 14.04.2022
4236 Clouds 18 1016 72 10000 8.01 15 08:23 14.04.2022
4237 Clouds 18 1016 74 10000 7.5 14 05:57 14.04.2022
4238 Clouds 18 1018 73 10000 7.77 10 00:59 14.04.2022
4239 Clouds 19 1018 73 10000 7.66 6 22:38 13.04.2022
4240 Clouds 19 1018 73 10000 7.48 5 21:43 13.04.2022
4241 Clouds 20 1017 72 10000 7.49 4 20:41 13.04.2022
4242 Clouds 20 1017 70 10000 7.54 2 19:49 13.04.2022
4243 Clouds 22 1016 70 10000 7.13 1 18:37 13.04.2022
4244 Clouds 23 1016 69 10000 6.24 359 17:25 13.04.2022
4245 Clouds 22 1016 69 10000 6.29 359 16:53 13.04.2022
4246 Clouds 22 1017 69 10000 6.51 360 16:18 13.04.2022
4247 Clouds 21 1017 71 10000 6.85 358 15:29 13.04.2022
4248 Clouds 21 1017 71 10000 6.85 358 14:40 13.04.2022
4249 Clouds 19 1018 76 10000 7.38 356 13:43 13.04.2022
4250 Clouds 19 1018 77 10000 6.71 350 12:52 13.04.2022
4251 Clouds 20 1018 78 10000 6.31 345 11:58 13.04.2022
4252 Clouds 19 1017 77 10000 6.66 348 10:34 13.04.2022
4253 Clouds 18 1017 81 10000 6.36 352 08:49 13.04.2022
4254 Clouds 18 1017 79 10000 6.93 356 08:23 13.04.2022
4255 Clouds 18 1016 80 10000 6.28 360 06:49 13.04.2022
4256 Clouds 18 1016 79 10000 6.11 2 06:24 13.04.2022
4257 Clouds 18 1018 77 10000 5.82 3 02:24 13.04.2022
4258 Clouds 18 1018 76 10000 4.73 7 00:19 13.04.2022
4259 Clouds 19 1018 76 10000 4.95 5 22:33 12.04.2022
4260 Clouds 19 1017 76 10000 5.34 6 21:54 12.04.2022
4261 Clouds 20 1017 75 10000 6.31 5 20:48 12.04.2022
4262 Clouds 20 1016 72 10000 6.28 2 20:20 12.04.2022
4263 Clear 21 1016 71 10000 6.03 3 19:40 12.04.2022
4264 Clear 21 1016 69 10000 5.99 5 18:56 12.04.2022
4265 Clear 22 1016 68 10000 5.32 3 17:39 12.04.2022
4266 Clear 22 1016 68 10000 4.73 359 16:46 12.04.2022
4267 Clear 23 1017 68 10000 5.61 359 15:34 12.04.2022
4268 Clear 22 1017 68 10000 5.9 355 14:48 12.04.2022
4269 Clouds 22 1017 69 10000 5.91 357 13:45 12.04.2022
4270 Clouds 21 1017 70 10000 6.13 357 13:24 12.04.2022
4271 Clouds 20 1017 72 10000 5.95 356 12:18 12.04.2022
4272 Clouds 19 1017 72 10000 5.95 356 11:35 12.04.2022
4273 Clouds 18 1017 75 10000 6.17 345 09:47 12.04.2022
4274 Clouds 18 1016 77 10000 5.47 338 08:49 12.04.2022
4275 Clouds 18 1015 78 10000 6.25 336 06:47 12.04.2022
4276 Clouds 18 1015 78 10000 6.03 335 05:40 12.04.2022
4277 Clouds 19 1016 76 10000 5.8 337 02:37 12.04.2022
4278 Clouds 20 1016 77 10000 6.66 333 23:20 11.04.2022
4279 Clouds 20 1015 77 10000 7.11 330 21:59 11.04.2022
4280 Clouds 20 1014 75 10000 6.68 325 21:18 11.04.2022
4281 Clouds 21 1014 75 10000 6.68 325 20:34 11.04.2022
4282 Clouds 21 1013 75 10000 6.67 330 19:59 11.04.2022
4283 Clouds 21 1013 75 10000 6.6 333 19:26 11.04.2022
4284 Clouds 21 1013 75 10000 6.6 333 18:53 11.04.2022
4285 Clouds 22 1013 74 10000 5.57 333 17:58 11.04.2022
4286 Clouds 22 1013 74 10000 5.57 333 17:33 11.04.2022
4287 Clouds 22 1014 73 10000 5.16 342 16:26 11.04.2022
4288 Clouds 22 1015 74 10000 3.98 339 14:42 11.04.2022
4289 Clouds 22 1015 72 10000 4.42 336 13:34 11.04.2022
4290 Clouds 21 1015 72 10000 4.16 328 12:38 11.04.2022
4291 Clouds 21 1015 72 10000 4.8 327 12:19 11.04.2022
4292 Clouds 18 1014 74 10000 4.83 320 10:36 11.04.2022
4293 Clouds 16 1014 78 10000 5.34 321 09:41 11.04.2022
4294 Clouds 16 1013 85 10000 5.95 326 07:53 11.04.2022
4295 Clear 17 1013 81 10000 4.61 326 03:19 11.04.2022
4296 Clouds 19 1013 76 10000 3.75 321 23:22 10.04.2022
4297 Clouds 19 1013 76 10000 4.32 324 22:26 10.04.2022
4298 Clouds 19 1013 76 10000 4.32 324 21:35 10.04.2022
4299 Clouds 19 1013 75 10000 4.01 329 20:50 10.04.2022
4300 Clouds 20 1012 73 10000 4.25 330 19:53 10.04.2022
4301 Clouds 21 1012 73 10000 4.25 330 19:30 10.04.2022
4302 Clouds 20 1012 71 10000 3.45 343 18:46 10.04.2022
4303 Clouds 20 1012 69 10000 2.69 348 17:58 10.04.2022
4304 Clouds 20 1012 69 10000 2.69 348 17:58 10.04.2022
4305 Clouds 20 1012 69 10000 2.69 348 17:58 10.04.2022
4306 Clouds 20 1012 69 10000 2.69 348 17:58 10.04.2022
4307 Clouds 20 1012 69 10000 2.69 348 17:39 10.04.2022
4308 Clouds 20 1013 69 10000 3.23 349 16:44 10.04.2022
4309 Clouds 20 1013 69 10000 3.76 344 15:37 10.04.2022
4310 Clear 20 1014 69 10000 4.06 345 14:34 10.04.2022
4311 Clear 19 1015 68 10000 3.78 338 12:41 10.04.2022
4312 Clouds 19 1015 69 10000 2.52 339 12:21 10.04.2022
4313 Clouds 18 1014 73 10000 2.83 336 11:29 10.04.2022
4314 Clouds 16 1014 73 10000 2.83 336 10:56 10.04.2022
4315 Clouds 16 1014 77 10000 2.91 334 10:20 10.04.2022
4316 Clouds 15 1014 77 10000 2.91 334 09:39 10.04.2022
4317 Clouds 16 1014 79 10000 3.3 340 08:24 10.04.2022
4318 Clouds 15 1013 80 10000 3.53 338 07:42 10.04.2022
4319 Clouds 16 1013 78 10000 2.57 351 05:57 10.04.2022
4320 Clouds 17 1015 80 10000 3.95 347 02:37 10.04.2022
4321 Clear 18 1016 79 10000 4.23 344 00:34 10.04.2022
4322 Clear 18 1016 78 10000 4.44 346 23:49 09.04.2022
4323 Clear 18 1016 78 10000 4.53 343 22:50 09.04.2022
4324 Clear 19 1016 77 10000 4.2 348 21:46 09.04.2022
4325 Clear 19 1015 75 10000 4.22 354 20:50 09.04.2022
4326 Clear 20 1015 72 10000 3.67 5 20:26 09.04.2022
4327 Clear 20 1015 72 10000 3.67 5 19:42 09.04.2022
4328 Clear 21 1015 71 10000 3.17 19 19:18 09.04.2022
4329 Clear 21 1015 69 10000 3.13 33 18:21 09.04.2022
4330 Clear 20 1015 69 10000 3.13 33 17:39 09.04.2022
4331 Clear 20 1016 69 10000 3.52 44 16:53 09.04.2022
4332 Clear 20 1017 67 10000 3.72 46 15:57 09.04.2022
4333 Clear 21 1017 67 10000 3.72 46 15:39 09.04.2022
4334 Clear 21 1018 66 10000 3.54 45 14:44 09.04.2022
4335 Clouds 20 1018 68 10000 3.81 60 14:23 09.04.2022
4336 Clouds 20 1019 70 10000 3.97 50 13:18 09.04.2022
4337 Clouds 19 1019 70 10000 3.97 50 12:41 09.04.2022
4338 Clouds 18 1019 74 10000 4.59 25 11:22 09.04.2022
4339 Clouds 18 1019 77 10000 4.95 19 10:21 09.04.2022
4340 Clouds 17 1019 77 10000 4.97 19 09:38 09.04.2022
4341 Clouds 17 1019 79 10000 4.96 17 08:54 09.04.2022
4342 Clouds 17 1019 79 10000 4.74 24 07:21 09.04.2022
4343 Clouds 18 1021 77 10000 5.31 29 02:20 09.04.2022
4344 Clouds 18 1022 76 10000 5.99 27 23:45 08.04.2022
4345 Clouds 18 1022 74 10000 5.89 23 21:58 08.04.2022
4346 Clear 18 1022 73 10000 5.91 23 21:29 08.04.2022
4347 Clear 19 1022 73 10000 5.91 23 20:39 08.04.2022
4348 Clear 20 1021 71 10000 5.76 24 19:20 08.04.2022
4349 Clear 21 1021 71 10000 5.76 24 18:30 08.04.2022
4350 Clear 21 1021 69 10000 5.83 23 17:49 08.04.2022
4351 Clear 21 1022 67 10000 5.83 23 17:25 08.04.2022
4352 Clear 21 1022 67 10000 5.83 23 16:49 08.04.2022
4353 Clear 21 1022 66 10000 5.38 26 15:57 08.04.2022
4354 Clear 22 1023 65 10000 5.21 30 15:26 08.04.2022
4355 Clear 21 1023 65 10000 5.21 30 14:33 08.04.2022
4356 Clouds 20 1023 66 10000 5.04 32 13:46 08.04.2022
4357 Clouds 20 1024 66 10000 5.18 34 13:27 08.04.2022
4358 Clouds 20 1024 66 10000 5.37 33 11:56 08.04.2022
4359 Clouds 19 1024 68 10000 5.34 33 10:33 08.04.2022
4360 Clouds 18 1023 73 10000 5.5 32 09:38 08.04.2022
4361 Clouds 18 1023 75 10000 6.11 29 08:44 08.04.2022
4362 Clouds 18 1022 71 10000 6.37 23 06:55 08.04.2022
4363 Clouds 18 1023 71 10000 6.16 25 05:18 08.04.2022
4364 Clear 18 1025 73 10000 6.39 22 01:27 08.04.2022
4365 Clear 18 1025 72 10000 6.34 20 00:25 08.04.2022
4366 Clear 18 1025 72 10000 6.34 20 00:25 08.04.2022
4367 Clear 18 1024 71 10000 6.24 19 22:59 07.04.2022
4368 Clear 18 1024 71 10000 6.24 19 22:39 07.04.2022
4369 Clear 18 1024 70 10000 6.35 18 22:21 07.04.2022
4370 Clear 18 1024 70 10000 6.35 18 21:52 07.04.2022
4371 Clear 18 1023 68 10000 6.38 17 21:19 07.04.2022
4372 Clear 20 1023 68 10000 6.38 17 20:37 07.04.2022
4373 Clouds 22 1022 65 10000 5.99 18 18:35 07.04.2022
4374 Clouds 22 1023 62 10000 4.99 19 17:27 07.04.2022
4375 Clouds 21 1023 62 10000 4.99 19 16:44 07.04.2022
4376 Clouds 21 1023 62 10000 4.65 23 16:22 07.04.2022
4377 Clouds 21 1023 62 10000 4.65 23 16:22 07.04.2022
4378 Clouds 21 1024 62 10000 4.97 34 14:50 07.04.2022
4379 Clear 20 1025 61 10000 5.25 37 13:43 07.04.2022
4380 Clear 18 1025 60 10000 5.3 33 12:50 07.04.2022
4381 Clear 18 1025 60 10000 5.69 30 11:34 07.04.2022
4382 Clear 17 1024 63 10000 6.25 22 09:37 07.04.2022
4383 Clear 17 1024 65 10000 6.19 19 08:38 07.04.2022
4384 Clear 16 1023 65 10000 6.29 17 06:43 07.04.2022
4385 Clear 16 1024 64 10000 6.35 17 02:54 07.04.2022
4386 Clear 16 1024 63 10000 6.23 15 02:25 07.04.2022
4387 Clear 17 1025 62 10000 6.67 10 00:27 07.04.2022
4388 Clear 17 1024 62 10000 6.78 8 22:51 06.04.2022
4389 Clear 18 1023 61 10000 6.41 6 22:27 06.04.2022
4390 Clear 18 1023 61 10000 6.41 6 21:44 06.04.2022
4391 Clear 19 1023 59 10000 6.45 5 20:36 06.04.2022
4392 Clouds 20 1022 57 10000 6.28 6 19:53 06.04.2022
4393 Clouds 20 1022 56 10000 6.08 9 18:51 06.04.2022
4394 Clouds 21 1022 57 10000 6.11 7 18:25 06.04.2022
4395 Clouds 21 1022 57 10000 6.11 7 17:35 06.04.2022
4396 Clouds 20 1023 58 10000 5.96 8 16:38 06.04.2022
4397 Clouds 20 1023 59 10000 5.75 12 15:48 06.04.2022
4398 Clouds 20 1023 59 10000 5.63 14 15:21 06.04.2022
4399 Clouds 19 1024 58 10000 6.81 4 13:25 06.04.2022
4400 Clouds 19 1023 58 10000 6.76 1 12:27 06.04.2022
4401 Clouds 17 1023 59 10000 6.26 359 10:48 06.04.2022
4402 Clouds 16 1022 62 10000 5.73 356 10:29 06.04.2022
4403 Clouds 16 1022 62 10000 5.73 356 09:40 06.04.2022
4404 Clouds 16 1022 62 10000 5.73 356 09:40 06.04.2022
4405 Clouds 17 1022 64 10000 5.69 353 08:32 06.04.2022
4406 Clouds 16 1021 63 10000 5.86 358 07:50 06.04.2022
4407 Clouds 16 1021 61 10000 6.34 358 04:30 06.04.2022
4408 Clouds 17 1022 60 10000 6.95 350 23:54 05.04.2022
4409 Clouds 17 1021 61 10000 6.95 349 22:58 05.04.2022
4410 Clouds 18 1020 62 10000 6.47 351 21:23 05.04.2022
4411 Clouds 18 1019 62 10000 6.65 350 20:26 05.04.2022
4412 Clouds 19 1019 62 10000 6.65 350 19:47 05.04.2022
4413 Clouds 19 1018 59 10000 6.5 352 18:18 05.04.2022
4414 Clouds 19 1019 59 10000 6.09 348 16:54 05.04.2022
4415 Clouds 20 1019 59 10000 6.09 348 16:35 05.04.2022
4416 Clouds 18 1019 60 10000 6.16 347 15:35 05.04.2022
4417 Clouds 18 1020 60 10000 5.73 346 14:37 05.04.2022
4418 Clouds 17 1020 58 10000 5.59 351 13:37 05.04.2022
4419 Clouds 16 1019 54 10000 6.48 352 11:51 05.04.2022
4420 Clouds 16 1019 54 10000 6.48 352 11:51 05.04.2022
4421 Clouds 16 1019 54 10000 6.48 352 11:51 05.04.2022
4422 Clouds 18 1019 54 10000 6.48 352 11:33 05.04.2022
4423 Clouds 17 1019 54 10000 6.74 349 10:41 05.04.2022
4424 Clouds 15 1017 60 10000 6.61 344 08:55 05.04.2022
4425 Clouds 16 1016 62 10000 7.91 345 07:22 05.04.2022
4426 Clouds 16 1016 59 10000 7.43 347 01:58 05.04.2022
4427 Clouds 18 1015 60 10000 8.04 353 22:48 04.04.2022
4428 Clouds 18 1014 59 10000 7.96 352 22:29 04.04.2022
4429 Clouds 18 1013 61 10000 7.85 352 21:21 04.04.2022
4430 Clouds 19 1013 61 10000 7.85 352 20:50 04.04.2022
4431 Clouds 19 1013 63 10000 8.02 353 20:22 04.04.2022
4432 Clouds 19 1012 68 10000 8.25 354 19:26 04.04.2022
4433 Clouds 19 1012 68 10000 8.25 354 18:37 04.04.2022
4434 Clouds 20 1011 73 10000 7.87 356 16:37 04.04.2022
4435 Clouds 21 1011 73 10000 8.05 355 15:58 04.04.2022
4436 Clouds 20 1011 73 10000 8.05 355 15:33 04.04.2022
4437 Clouds 20 1011 72 10000 8.1 354 14:46 04.04.2022
4438 Clouds 18 1011 74 10000 7.8 354 13:33 04.04.2022
4439 Clouds 20 1009 75 10000 8.51 343 12:23 04.04.2022
4440 Clouds 19 1008 73 10000 9.51 324 11:29 04.04.2022
4441 Clouds 18 1007 72 10000 9.83 319 09:51 04.04.2022
4442 Clouds 16 1003 76 10000 5.42 296 05:27 04.04.2022
4443 Clouds 17 1003 75 10000 5.03 228 02:41 04.04.2022
4444 Clouds 19 1004 77 10000 4.76 261 22:47 03.04.2022
4445 Clouds 19 1003 75 10000 3.63 268 21:48 03.04.2022
4446 Clouds 20 1003 81 10000 4.13 251 21:25 03.04.2022
4447 Clouds 22 1003 75 10000 5.63 253 19:52 03.04.2022
4448 Clouds 20 1002 67 10000 5.48 237 18:34 03.04.2022
4449 Clouds 20 1003 72 10000 4.53 221 17:49 03.04.2022
4450 Clouds 20 1004 77 10000 3.92 221 17:27 03.04.2022
4451 Clouds 20 1004 77 10000 3.92 221 16:48 03.04.2022
4452 Clouds 20 1005 74 10000 2.64 226 15:42 03.04.2022
4453 Clouds 23 1007 67 10000 1.22 205 13:58 03.04.2022
4454 Clouds 23 1007 67 10000 1.22 205 13:58 03.04.2022
4455 Clear 23 1008 66 10000 1.33 169 12:58 03.04.2022
4456 Clear 19 1008 67 10000 1.4 191 11:33 03.04.2022
4457 Clear 15 1008 68 10000 2.55 172 09:41 03.04.2022
4458 Clear 16 1008 70 10000 2.61 164 08:52 03.04.2022
4459 Clouds 16 1009 65 10000 1.22 218 05:45 03.04.2022
4460 Clouds 18 1011 65 10000 0.64 258 02:55 03.04.2022
4461 Clouds 18 1012 64 10000 1.35 0 23:27 02.04.2022
4462 Clouds 19 1012 64 10000 1.35 0 22:43 02.04.2022
4463 Clouds 19 1012 64 10000 1.76 353 21:55 02.04.2022
4464 Clouds 19 1011 65 10000 1.96 355 21:19 02.04.2022
4465 Clouds 19 1011 65 10000 1.96 355 20:36 02.04.2022
4466 Clouds 19 1011 66 10000 1.76 5 18:47 02.04.2022
4467 Clouds 20 1011 66 10000 1.85 12 18:19 02.04.2022
4468 Clouds 20 1012 65 10000 2.01 49 16:50 02.04.2022
4469 Clouds 20 1012 65 10000 2.59 51 15:42 02.04.2022
4470 Clouds 20 1013 65 10000 2.66 45 15:18 02.04.2022
4471 Clouds 21 1014 64 10000 2.27 41 14:26 02.04.2022
4472 Clouds 21 1014 65 10000 2.2 43 13:31 02.04.2022
4473 Clouds 19 1014 66 10000 1.84 49 12:21 02.04.2022
4474 Clouds 18 1014 66 10000 1.51 40 10:22 02.04.2022
4475 Clouds 18 1013 69 10000 2.5 42 07:52 02.04.2022
4476 Clouds 18 1014 74 10000 2.98 45 04:34 02.04.2022
4477 Clouds 18 1017 73 10000 4.74 42 01:21 02.04.2022
4478 Clouds 19 1017 74 10000 4.78 37 23:54 01.04.2022
4479 Clouds 18 1017 74 10000 4.7 31 22:46 01.04.2022
4480 Clouds 19 1016 71 10000 4.7 25 21:22 01.04.2022
4481 Clouds 19 1016 71 10000 4.7 25 20:46 01.04.2022
4482 Clouds 20 1016 70 10000 4.48 29 19:45 01.04.2022
4483 Clouds 20 1015 70 10000 4.24 31 19:26 01.04.2022
4484 Clouds 20 1015 70 10000 4.24 31 18:37 01.04.2022
4485 Clouds 20 1015 71 10000 4.66 36 17:38 01.04.2022
4486 Clouds 21 1017 72 10000 4.85 46 15:46 01.04.2022
4487 Clouds 20 1018 72 10000 4.54 39 14:53 01.04.2022
4488 Clouds 19 1018 72 10000 4.43 41 13:40 01.04.2022
4489 Clouds 19 1019 73 10000 4.61 35 13:20 01.04.2022
4490 Clouds 19 1019 73 10000 4.76 33 12:24 01.04.2022
4491 Clouds 18 1018 75 10000 4.98 36 10:50 01.04.2022
4492 Clouds 17 1018 77 10000 5.34 36 09:41 01.04.2022
4493 Clouds 18 1017 80 10000 5.46 35 07:41 01.04.2022
4494 Clouds 18 1017 81 10000 5.58 22 05:38 01.04.2022
4495 Clouds 18 1018 82 10000 4.82 12 04:41 01.04.2022
4496 Clouds 18 1019 81 10000 5.25 11 03:18 01.04.2022
4497 Clouds 18 1020 79 10000 4.95 14 01:51 01.04.2022
4498 Clouds 18 1020 71 10000 5.68 19 22:34 31.03.2022
4499 Clouds 19 1020 73 10000 5.63 20 21:44 31.03.2022
4500 Clouds 19 1019 72 10000 5.81 22 20:51 31.03.2022
4501 Clouds 20 1018 70 10000 5.93 23 20:28 31.03.2022
4502 Clouds 20 1018 72 10000 5.6 24 19:43 31.03.2022
4503 Clouds 21 1018 70 10000 5.57 27 18:34 31.03.2022
4504 Clouds 21 1018 67 10000 5.92 28 16:53 31.03.2022
4505 Clouds 21 1018 67 10000 5.93 27 15:57 31.03.2022
4506 Clouds 20 1019 68 10000 5.54 27 15:29 31.03.2022
4507 Clouds 20 1019 68 10000 5.54 27 14:48 31.03.2022
4508 Clouds 19 1020 68 10000 5.53 25 13:53 31.03.2022
4509 Clouds 19 1020 70 10000 5.57 19 11:31 31.03.2022
4510 Clouds 17 1019 73 10000 5.72 14 10:26 31.03.2022
4511 Clouds 17 1019 73 10000 5.72 14 09:40 31.03.2022
4512 Clouds 17 1018 71 10000 6.15 14 07:49 31.03.2022
4513 Clouds 17 1019 71 10000 6.35 8 03:30 31.03.2022
4514 Clouds 18 1019 76 10000 6.64 13 23:25 30.03.2022
4515 Clouds 19 1018 75 10000 6.35 7 22:19 30.03.2022
4516 Clouds 19 1018 75 10000 6.35 7 21:31 30.03.2022
4517 Clouds 20 1018 70 10000 6.28 6 20:44 30.03.2022
4518 Clouds 21 1017 71 10000 5.65 9 19:48 30.03.2022
4519 Clouds 21 1017 69 10000 5.89 10 18:44 30.03.2022
4520 Clouds 21 1017 68 10000 5.83 15 17:52 30.03.2022
4521 Clouds 21 1017 67 10000 5.75 21 17:23 30.03.2022
4522 Clouds 21 1017 67 10000 5.75 21 16:41 30.03.2022
4523 Clouds 21 1018 66 10000 5.59 24 15:59 30.03.2022
4524 Clouds 21 1019 66 10000 5.75 23 14:36 30.03.2022
4525 Clouds 20 1019 68 10000 6.65 15 13:22 30.03.2022
4526 Clouds 20 1019 71 10000 7.04 8 12:22 30.03.2022
4527 Clouds 18 1018 74 10000 7.11 4 10:48 30.03.2022
4528 Clouds 17 1018 75 10000 6.5 1 09:55 30.03.2022
4529 Clouds 16 1017 79 10000 6.26 5 08:21 30.03.2022
4530 Clouds 17 1016 80 10000 6.13 6 06:50 30.03.2022
4531 Clouds 17 1016 80 10000 5.71 5 05:40 30.03.2022
4532 Clouds 18 1017 78 10000 5.29 8 01:48 30.03.2022
4533 Clouds 18 1016 78 10000 5.89 353 22:41 29.03.2022
4534 Clouds 19 1016 79 10000 6.28 344 21:49 29.03.2022
4535 Clouds 19 1015 77 10000 6.38 339 21:28 29.03.2022
4536 Clouds 21 1015 76 10000 6.42 340 20:25 29.03.2022
4537 Clouds 20 1015 76 10000 6.42 340 19:31 29.03.2022
4538 Clouds 20 1014 75 10000 6.3 333 18:53 29.03.2022
4539 Clouds 20 1014 75 10000 6.3 333 18:53 29.03.2022
4540 Clouds 20 1014 74 10000 6.45 329 17:52 29.03.2022
4541 Clouds 20 1014 73 10000 6.4 327 17:18 29.03.2022
4542 Clouds 20 1014 73 10000 6.4 327 16:52 29.03.2022
4543 Clouds 21 1015 70 10000 6.1 332 15:20 29.03.2022
4544 Clouds 21 1015 70 10000 6.1 332 14:43 29.03.2022
4545 Clouds 22 1016 70 10000 6.18 326 13:33 29.03.2022
4546 Clouds 21 1016 73 10000 6.77 325 12:21 29.03.2022
4547 Clouds 19 1015 75 10000 6.87 324 10:59 29.03.2022
4548 Clouds 17 1014 78 10000 7 323 09:51 29.03.2022
4549 Clouds 17 1014 78 10000 7.32 322 08:32 29.03.2022
4550 Clouds 18 1013 77 10000 8.25 319 06:21 29.03.2022
4551 Clouds 20 1012 83 10000 6.9 308 02:19 29.03.2022
4552 Clouds 20 1011 78 10000 5.51 284 23:26 28.03.2022
4553 Clouds 20 1011 78 10000 5.51 284 22:56 28.03.2022
4554 Clouds 21 1011 78 10000 5.51 284 22:31 28.03.2022
4555 Clouds 22 1010 76 10000 4.8 257 21:38 28.03.2022
4556 Clouds 23 1009 74 10000 4.91 251 20:32 28.03.2022
4557 Clouds 22 1008 70 10000 4.65 240 19:47 28.03.2022
4558 Clouds 21 1008 69 10000 5.68 230 19:29 28.03.2022
4559 Clouds 24 1008 69 10000 5.68 230 18:40 28.03.2022
4560 Clouds 23 1008 70 10000 6.43 219 17:40 28.03.2022
4561 Clouds 23 1009 70 10000 6.82 217 16:38 28.03.2022
4562 Clouds 23 1010 65 10000 5.26 210 14:50 28.03.2022
4563 Clouds 22 1011 64 10000 5.07 210 14:22 28.03.2022
4564 Clouds 21 1012 65 10000 4.58 211 12:41 28.03.2022
4565 Clouds 20 1012 68 10000 4.83 213 11:38 28.03.2022
4566 Clear 18 1011 74 10000 4.28 211 09:47 28.03.2022
4567 Clear 18 1011 75 10000 4.08 212 09:20 28.03.2022
4568 Clear 18 1010 75 10000 3.93 211 08:23 28.03.2022
4569 Clear 18 1011 75 10000 3.04 214 07:56 28.03.2022
4570 Clear 18 1011 76 10000 3.99 222 04:27 28.03.2022
4571 Clouds 19 1012 71 10000 3.74 217 23:43 27.03.2022
4572 Clouds 20 1011 66 10000 4.23 222 22:25 27.03.2022
4573 Clouds 20 1011 66 10000 4.23 222 22:25 27.03.2022
4574 Clouds 20 1011 66 10000 4.23 222 22:25 27.03.2022
4575 Clouds 20 1011 66 10000 4.23 222 21:42 27.03.2022
4576 Clouds 20 1011 66 10000 4.23 222 21:42 27.03.2022
4577 Clouds 22 1010 66 10000 5.33 236 20:58 27.03.2022
4578 Clouds 23 1009 66 10000 4.88 245 19:53 27.03.2022
4579 Clouds 23 1009 66 10000 4.88 245 19:30 27.03.2022
4580 Clouds 23 1008 65 10000 4.56 253 18:29 27.03.2022
4581 Clouds 23 1008 65 10000 4.56 253 17:42 27.03.2022
4582 Clouds 24 1008 67 10000 4.61 256 17:23 27.03.2022
4583 Clouds 24 1009 73 10000 4.46 254 15:28 27.03.2022
4584 Clouds 23 1009 76 10000 4.52 248 13:56 27.03.2022
4585 Clouds 22 1009 82 10000 4.1 237 12:41 27.03.2022
4586 Clouds 18 1008 79 10000 5.27 196 11:21 27.03.2022
4587 Clouds 18 1007 73 10000 3.91 198 09:21 27.03.2022
4588 Clouds 16 1007 68 10000 5.11 201 05:56 27.03.2022
4589 Clouds 17 1010 64 10000 3.67 211 00:57 27.03.2022
4590 Clouds 17 1010 64 10000 3.18 192 00:24 27.03.2022
4591 Clouds 18 1010 66 10000 3.38 191 22:42 26.03.2022
4592 Clear 18 1010 68 10000 3.95 189 21:46 26.03.2022
4593 Clear 18 1010 67 10000 3.54 178 21:25 26.03.2022
4594 Clear 19 1010 65 10000 5.34 160 19:29 26.03.2022
4595 Clear 21 1009 68 10000 6.37 149 17:54 26.03.2022
4596 Clear 20 1009 68 10000 6.37 149 17:33 26.03.2022
4597 Clear 20 1009 68 10000 6.37 149 17:33 26.03.2022
4598 Clear 20 1010 66 10000 6.2 143 16:27 26.03.2022
4599 Clear 20 1012 64 10000 5.74 141 15:20 26.03.2022
4600 Clear 21 1012 65 10000 5.33 132 13:53 26.03.2022
4601 Clear 20 1013 66 10000 4.24 129 12:59 26.03.2022
4602 Clear 19 1014 66 10000 3.56 129 11:41 26.03.2022
4603 Clear 19 1014 66 10000 3.56 129 11:41 26.03.2022
4604 Clear 19 1014 66 10000 3.56 129 11:41 26.03.2022
4605 Clear 19 1014 66 10000 3.56 129 11:41 26.03.2022
4606 Clouds 19 1014 69 10000 1.61 144 10:28 26.03.2022
4607 Clouds 14 1013 73 10000 1.04 135 08:35 26.03.2022
4608 Clear 15 1012 79 10000 1.9 82 06:25 26.03.2022
4609 Clear 15 1012 79 10000 1.61 74 05:22 26.03.2022
4610 Clouds 16 1015 77 10000 2.57 359 00:28 26.03.2022
4611 Clouds 18 1015 74 10000 3.39 344 21:49 25.03.2022
4612 Clouds 18 1014 74 10000 3.92 350 20:46 25.03.2022
4613 Clouds 19 1014 73 10000 4.4 345 19:38 25.03.2022
4614 Clouds 19 1014 74 10000 3.67 351 18:47 25.03.2022
4615 Clouds 19 1014 75 10000 3.61 345 17:47 25.03.2022
4616 Clouds 19 1014 75 10000 3.91 341 17:26 25.03.2022
4617 Clouds 19 1014 74 10000 4.53 341 16:18 25.03.2022
4618 Clouds 20 1015 71 10000 4.82 335 14:26 25.03.2022
4619 Clouds 20 1016 68 10000 4.18 334 12:48 25.03.2022
4620 Clouds 18 1016 74 10000 4.74 321 09:57 25.03.2022
4621 Clouds 17 1015 77 10000 5.15 319 09:27 25.03.2022
4622 Clouds 15 1015 79 10000 5.51 320 07:54 25.03.2022
4623 Clouds 16 1014 78 10000 5.95 323 07:27 25.03.2022
4624 Clouds 15 1014 77 10000 6.16 322 05:35 25.03.2022
4625 Clear 17 1017 71 10000 5.21 327 00:46 25.03.2022
4626 Clear 18 1017 69 10000 6.24 330 22:39 24.03.2022
4627 Clear 18 1017 67 10000 6.77 324 21:42 24.03.2022
4628 Clear 19 1016 62 10000 6.97 317 19:51 24.03.2022
4629 Clear 20 1016 62 10000 6.97 317 19:33 24.03.2022
4630 Clear 21 1015 60 10000 5.93 337 17:46 24.03.2022
4631 Clear 21 1015 58 10000 5.92 339 17:19 24.03.2022
4632 Clear 22 1016 57 10000 6.77 337 15:21 24.03.2022
4633 Clear 22 1016 57 10000 6.77 337 14:43 24.03.2022
4634 Clear 22 1017 59 10000 7.44 333 14:18 24.03.2022
4635 Clear 21 1017 58 10000 8.29 329 12:47 24.03.2022
4636 Clear 20 1017 60 10000 7.93 327 11:33 24.03.2022
4637 Clouds 17 1017 63 10000 6.61 321 09:51 24.03.2022
4638 Clouds 17 1016 68 10000 6.41 331 08:40 24.03.2022
4639 Clouds 16 1016 70 10000 9.21 323 06:48 24.03.2022
4640 Clouds 17 1018 70 10000 6.93 340 02:18 24.03.2022
4641 Clouds 17 1019 66 10000 8 349 23:18 23.03.2022
4642 Clouds 18 1019 71 10000 7.44 339 21:25 23.03.2022
4643 Clouds 17 1019 71 10000 7.44 339 20:49 23.03.2022
4644 Clear 20 1018 68 10000 7.99 331 19:45 23.03.2022
4645 Clouds 20 1018 65 10000 8.49 337 18:30 23.03.2022
4646 Clouds 20 1017 64 10000 8.95 337 17:36 23.03.2022
4647 Clouds 22 1018 64 10000 8.87 337 16:20 23.03.2022
4648 Clouds 21 1019 66 10000 9 339 14:50 23.03.2022
4649 Clouds 21 1019 67 10000 9.65 337 14:21 23.03.2022
4650 Clouds 21 1020 66 10000 8.64 329 12:24 23.03.2022
4651 Clouds 18 1019 73 10000 8.19 334 09:38 23.03.2022
4652 Clouds 16 1018 81 10000 8.16 337 06:40 23.03.2022
4653 Clouds 16 1019 84 10000 5.22 321 03:58 23.03.2022
4654 Clear 18 1021 77 10000 5.38 340 00:29 23.03.2022
4655 Clear 18 1021 74 10000 5.87 339 22:26 22.03.2022
4656 Clear 18 1020 74 10000 6.01 340 21:29 22.03.2022
4657 Clear 19 1020 74 10000 6.01 340 20:39 22.03.2022
4658 Clear 20 1019 72 10000 6.55 339 19:39 22.03.2022
4659 Clear 20 1018 67 10000 5.9 350 19:18 22.03.2022
4660 Clear 22 1018 65 10000 6.2 344 17:58 22.03.2022
4661 Clear 21 1019 66 10000 6.76 340 17:25 22.03.2022
4662 Clear 21 1019 65 10000 6.68 345 15:54 22.03.2022
4663 Clear 21 1020 64 10000 5.42 347 15:22 22.03.2022
4664 Clear 21 1020 64 10000 5.42 347 14:46 22.03.2022
4665 Clear 21 1020 65 10000 4.64 350 14:25 22.03.2022
4666 Clouds 20 1021 65 10000 4.69 352 12:55 22.03.2022
4667 Clouds 19 1021 67 10000 4.87 352 11:48 22.03.2022
4668 Clouds 18 1021 67 10000 4.23 355 10:35 22.03.2022
4669 Clouds 17 1020 71 10000 4.51 0 07:57 22.03.2022
4670 Clouds 17 1019 73 10000 4.32 18 05:20 22.03.2022
4671 Clouds 17 1020 74 10000 4.33 24 03:41 22.03.2022
4672 Clouds 18 1021 75 10000 5.19 13 23:49 21.03.2022
4673 Clouds 18 1021 70 10000 5.5 10 22:29 21.03.2022
4674 Clouds 18 1021 70 10000 5.62 7 20:47 21.03.2022
4675 Clouds 18 1020 71 10000 5.51 9 20:27 21.03.2022
4676 Clouds 19 1020 71 10000 5.51 9 19:57 21.03.2022
4677 Clouds 19 1020 69 10000 5.59 16 19:25 21.03.2022
4678 Clouds 20 1019 67 10000 5.31 21 17:53 21.03.2022
4679 Clouds 21 1019 64 10000 4.79 16 17:18 21.03.2022
4680 Clouds 21 1019 64 10000 4.79 16 16:39 21.03.2022
4681 Clouds 21 1020 62 10000 4.55 8 15:47 21.03.2022
4682 Clouds 21 1020 61 10000 4.25 0 14:51 21.03.2022
4683 Clouds 21 1021 60 10000 3.57 356 13:46 21.03.2022
4684 Clouds 20 1021 58 10000 3.31 355 12:34 21.03.2022
4685 Clouds 20 1021 59 10000 3.35 357 11:44 21.03.2022
4686 Clouds 19 1021 61 10000 3.17 5 10:34 21.03.2022
4687 Clouds 16 1020 66 10000 4.31 4 08:29 21.03.2022
4688 Clouds 16 1019 68 10000 4.22 5 06:36 21.03.2022
4689 Clouds 16 1020 67 10000 4.76 8 02:40 21.03.2022
4690 Clouds 17 1021 67 10000 6.29 358 23:41 20.03.2022
4691 Clouds 18 1021 67 10000 6.26 357 22:43 20.03.2022
4692 Clear 17 1020 67 10000 6.34 354 21:50 20.03.2022
4693 Clear 18 1020 66 10000 6.08 351 21:20 20.03.2022
4694 Clear 18 1020 66 10000 6.08 351 20:43 20.03.2022
4695 Clear 19 1019 64 10000 6.46 350 19:57 20.03.2022
4696 Clear 19 1018 62 10000 6.36 350 19:26 20.03.2022
4697 Clear 21 1018 60 10000 6.36 351 17:52 20.03.2022
4698 Clear 21 1018 60 10000 6.36 351 17:30 20.03.2022
4699 Clear 21 1018 59 10000 6.1 352 16:52 20.03.2022
4700 Clear 22 1019 59 10000 5.54 352 15:27 20.03.2022
4701 Clear 21 1020 59 10000 5.72 352 13:49 20.03.2022
4702 Clouds 19 1020 61 10000 6.87 348 12:22 20.03.2022
4703 Clouds 19 1020 62 10000 7.34 346 10:55 20.03.2022
4704 Clouds 17 1018 68 10000 7.69 341 08:42 20.03.2022
4705 Clouds 17 1017 76 10000 8.12 341 06:55 20.03.2022
4706 Clouds 17 1017 74 10000 6.75 330 04:23 20.03.2022
4707 Clouds 18 1019 69 10000 7.06 338 01:29 20.03.2022
4708 Clouds 18 1019 70 10000 7.04 336 00:37 20.03.2022
4709 Clouds 18 1019 69 10000 7.43 335 22:56 19.03.2022
4710 Clouds 19 1018 67 10000 6.67 334 21:27 19.03.2022
4711 Clouds 19 1017 66 10000 6.65 338 20:28 19.03.2022
4712 Clouds 20 1017 68 10000 6.8 339 18:44 19.03.2022
4713 Clouds 20 1016 67 10000 6.44 342 18:23 19.03.2022
4714 Clouds 21 1016 67 10000 6.44 342 17:35 19.03.2022
4715 Clouds 21 1017 65 10000 4.83 346 15:43 19.03.2022
4716 Clouds 21 1018 66 10000 4.99 348 14:30 19.03.2022
4717 Clouds 21 1019 65 10000 4.58 357 12:58 19.03.2022
4718 Clouds 20 1019 67 10000 4.42 1 12:38 19.03.2022
4719 Clouds 19 1019 67 10000 4.08 5 11:51 19.03.2022
4720 Clouds 19 1019 68 10000 3.84 4 10:44 19.03.2022
4721 Clouds 17 1017 72 10000 4.1 22 06:27 19.03.2022
4722 Clouds 18 1018 79 10000 4.79 24 03:21 19.03.2022
4723 Clouds 18 1018 78 10000 4.94 23 01:33 19.03.2022
4724 Clouds 18 1020 76 10000 5.21 18 23:26 18.03.2022
4725 Clouds 18 1020 76 10000 5.24 20 22:26 18.03.2022
4726 Clouds 18 1019 75 10000 5.23 23 21:19 18.03.2022
4727 Clouds 20 1019 73 10000 5.13 24 19:50 18.03.2022
4728 Clouds 20 1018 71 10000 4.75 23 19:21 18.03.2022
4729 Clouds 21 1018 73 10000 4.66 24 17:39 18.03.2022
4730 Clouds 21 1018 71 10000 4.77 28 16:46 18.03.2022
4731 Clouds 21 1019 69 10000 4.35 32 14:45 18.03.2022
4732 Clouds 21 1019 69 10000 3.96 30 14:20 18.03.2022
4733 Clouds 21 1020 71 10000 3.47 27 12:23 18.03.2022
4734 Clouds 18 1020 73 10000 3.58 19 10:39 18.03.2022
4735 Clouds 18 1020 80 10000 3.56 355 09:23 18.03.2022
4736 Clouds 18 1019 80 10000 3.38 355 07:45 18.03.2022
4737 Clouds 17 1019 78 10000 4.24 14 06:34 18.03.2022
4738 Clouds 17 1020 71 10000 5.25 18 02:50 18.03.2022
4739 Clouds 17 1021 69 10000 7 12 00:22 18.03.2022
4740 Clouds 17 1022 67 10000 6.98 13 23:20 17.03.2022
4741 Clouds 17 1022 67 10000 7.1 11 22:23 17.03.2022
4742 Clouds 18 1022 67 10000 7.1 11 21:47 17.03.2022
4743 Clouds 18 1021 67 10000 6.81 10 21:19 17.03.2022
4744 Clouds 18 1021 67 10000 6.81 10 20:41 17.03.2022
4745 Clouds 19 1021 66 10000 7.12 10 19:45 17.03.2022
4746 Clouds 19 1020 67 10000 7.1 12 18:57 17.03.2022
4747 Clouds 19 1020 66 10000 6.82 14 17:56 17.03.2022
4748 Clouds 20 1020 67 10000 6.88 16 16:43 17.03.2022
4749 Clouds 20 1021 69 10000 7.21 17 15:44 17.03.2022
4750 Clouds 21 1022 71 10000 7.3 17 15:22 17.03.2022
4751 Clouds 20 1022 72 10000 7.48 20 13:49 17.03.2022
4752 Clouds 20 1023 75 10000 7.68 22 12:49 17.03.2022
4753 Clouds 19 1023 75 10000 7.73 23 11:53 17.03.2022
4754 Clouds 19 1023 74 10000 7.57 25 11:22 17.03.2022
4755 Clouds 18 1022 76 10000 8 23 09:47 17.03.2022
4756 Clouds 17 1022 78 10000 8.33 17 08:31 17.03.2022
4757 Clouds 18 1021 79 10000 8.22 14 06:25 17.03.2022
4758 Clouds 18 1021 79 10000 8.22 14 05:39 17.03.2022
4759 Clouds 18 1021 79 10000 8.22 14 05:39 17.03.2022
4760 Clouds 18 1022 77 10000 8.06 8 00:42 17.03.2022
4761 Clouds 18 1023 78 10000 8.35 5 22:59 16.03.2022
4762 Clouds 18 1023 78 10000 8.35 5 22:39 16.03.2022
4763 Clouds 18 1022 78 10000 8.41 2 22:19 16.03.2022
4764 Clouds 18 1022 78 10000 8.26 1 21:29 16.03.2022
4765 Clouds 19 1021 76 10000 8 359 19:26 16.03.2022
4766 Clouds 20 1021 76 10000 8 359 18:55 16.03.2022
4767 Clouds 19 1020 74 10000 8.26 354 18:20 16.03.2022
4768 Clouds 20 1020 74 10000 8.26 354 17:37 16.03.2022
4769 Clouds 20 1020 73 10000 8.71 351 16:49 16.03.2022
4770 Clouds 20 1021 71 10000 8.95 350 15:35 16.03.2022
4771 Clouds 21 1021 70 10000 8.64 344 13:44 16.03.2022
4772 Clouds 20 1022 69 10000 8.72 344 12:59 16.03.2022
4773 Clouds 20 1022 69 10000 8.83 343 11:44 16.03.2022
4774 Clouds 19 1022 68 10000 9.13 346 11:18 16.03.2022
4775 Clouds 18 1021 65 10000 9.51 345 09:58 16.03.2022
4776 Clouds 16 1020 66 10000 9.33 339 08:37 16.03.2022
4777 Clouds 16 1020 64 10000 9.42 336 03:30 16.03.2022
4778 Clouds 16 1020 67 10000 8.49 340 23:37 15.03.2022
4779 Clouds 17 1020 65 10000 8.38 339 22:37 15.03.2022
4780 Clouds 16 1020 66 10000 8.78 336 21:33 15.03.2022
4781 Clouds 19 1018 69 10000 9.06 336 19:47 15.03.2022
4782 Clouds 19 1017 68 10000 9.6 336 18:38 15.03.2022
4783 Clouds 20 1016 65 10000 9.31 338 16:45 15.03.2022
4784 Clouds 20 1016 64 10000 9.33 338 15:44 15.03.2022
4785 Clouds 18 1016 64 10000 9.4 336 14:55 15.03.2022
4786 Clouds 20 1016 64 10000 9.4 336 14:30 15.03.2022
4787 Clouds 18 1017 66 10000 9.72 337 13:24 15.03.2022
4788 Clouds 16 1017 68 10000 10.72 327 11:48 15.03.2022
4789 Clouds 16 1016 67 10000 10.74 326 10:56 15.03.2022
4790 Clouds 15 1016 65 10000 11.07 324 09:30 15.03.2022
4791 Clouds 14 1015 61 10000 10.46 319 08:32 15.03.2022
4792 Clouds 14 1015 59 10000 11.18 319 07:39 15.03.2022
4793 Clouds 14 1014 60 10000 11.78 325 06:32 15.03.2022
4794 Clouds 13 1014 64 10000 14.19 327 01:59 15.03.2022
4795 Clouds 14 1015 64 10000 13.77 328 23:32 14.03.2022
4796 Clouds 13 1015 64 10000 13.63 326 22:54 14.03.2022
4797 Clouds 15 1015 65 10000 13.45 325 21:56 14.03.2022
4798 Clouds 15 1014 64 10000 14.19 329 21:18 14.03.2022
4799 Clouds 15 1014 64 10000 14.19 329 20:30 14.03.2022
4800 Clouds 16 1014 62 10000 14.68 326 19:47 14.03.2022
4801 Clouds 16 1013 60 10000 15.44 327 18:20 14.03.2022
4802 Clouds 17 1013 60 10000 15.44 327 17:42 14.03.2022
4803 Clouds 16 1013 59 10000 15.2 326 16:37 14.03.2022
4804 Clouds 17 1015 66 10000 14.89 326 14:58 14.03.2022
4805 Clouds 18 1016 66 10000 15.8 327 13:58 14.03.2022
4806 Clouds 15 1016 68 10000 16.23 317 11:27 14.03.2022
4807 Clouds 18 1016 67 10000 14.26 315 09:58 14.03.2022
4808 Clouds 18 1016 67 10000 14.26 315 09:38 14.03.2022
4809 Clouds 18 1015 69 10000 13.04 313 08:58 14.03.2022
4810 Clouds 18 1015 69 10000 13.04 313 08:30 14.03.2022
4811 Clouds 17 1015 69 10000 11.3 313 06:47 14.03.2022
4812 Clouds 18 1016 81 10000 10.37 323 03:36 14.03.2022
4813 Clouds 18 1017 86 10000 9.58 308 01:42 14.03.2022
4814 Clouds 18 1018 84 10000 8.37 312 00:29 14.03.2022
4815 Clouds 20 1019 80 10000 6.93 314 21:51 13.03.2022
4816 Clouds 20 1019 79 10000 7.63 322 21:22 13.03.2022
4817 Clouds 20 1019 79 10000 7.63 322 20:46 13.03.2022
4818 Clear 20 1018 77 10000 7.63 323 20:22 13.03.2022
4819 Clear 20 1018 77 10000 7.63 323 19:42 13.03.2022
4820 Clouds 21 1018 72 10000 7.48 326 19:22 13.03.2022
4821 Clouds 22 1018 72 10000 7.48 326 18:45 13.03.2022
4822 Clouds 22 1018 69 10000 6.38 326 18:26 13.03.2022
4823 Clouds 22 1018 68 10000 5.84 324 17:38 13.03.2022
4824 Clouds 22 1018 68 10000 5.59 330 16:45 13.03.2022
4825 Clouds 22 1018 69 10000 5.85 339 16:23 13.03.2022
4826 Clouds 22 1018 69 10000 5.85 339 15:42 13.03.2022
4827 Clouds 22 1019 70 10000 5.56 342 14:37 13.03.2022
4828 Clouds 21 1020 71 10000 5.16 349 13:28 13.03.2022
4829 Clouds 18 1020 73 10000 5.24 353 12:23 13.03.2022
4830 Clouds 19 1020 73 10000 5.21 353 11:39 13.03.2022
4831 Clouds 19 1020 76 10000 5.01 354 10:50 13.03.2022
4832 Clouds 19 1020 79 10000 5.12 352 10:28 13.03.2022
4833 Clouds 18 1020 79 10000 5.12 352 09:42 13.03.2022
4834 Clouds 18 1020 81 10000 5.1 350 08:49 13.03.2022
4835 Clouds 18 1020 82 10000 5.13 352 08:29 13.03.2022
4836 Clouds 17 1019 80 10000 4.83 353 06:40 13.03.2022
4837 Clouds 17 1019 80 10000 5.09 358 04:51 13.03.2022
4838 Clouds 18 1021 79 10000 5.21 353 01:46 13.03.2022
4839 Clear 19 1022 80 10000 5.46 348 23:26 12.03.2022
4840 Clear 19 1022 79 10000 5.55 345 21:32 12.03.2022
4841 Clear 19 1021 75 10000 5.57 340 20:19 12.03.2022
4842 Clear 20 1021 75 10000 5.57 340 19:44 12.03.2022
4843 Clouds 22 1020 73 10000 5.3 347 18:38 12.03.2022
4844 Clouds 22 1020 72 10000 5.53 349 17:48 12.03.2022
4845 Clouds 23 1021 73 10000 5.64 354 16:28 12.03.2022
4846 Clouds 23 1021 73 10000 5.64 354 15:48 12.03.2022
4847 Clouds 22 1021 74 10000 4.85 358 15:19 12.03.2022
4848 Clear 22 1022 76 10000 4.27 359 13:53 12.03.2022
4849 Clouds 22 1023 77 10000 3.54 2 12:27 12.03.2022
4850 Clouds 21 1023 77 10000 3.54 2 11:52 12.03.2022
4851 Clouds 21 1023 78 10000 3.04 360 11:21 12.03.2022
4852 Clouds 19 1022 81 10000 2.83 357 10:18 12.03.2022
4853 Clouds 18 1022 81 10000 2.83 357 09:41 12.03.2022
4854 Clouds 18 1021 84 10000 3.73 354 07:52 12.03.2022
4855 Clouds 18 1021 83 10000 3.64 353 05:46 12.03.2022
4856 Clouds 18 1023 82 10000 3.55 3 00:27 12.03.2022
4857 Clouds 18 1023 82 10000 3.55 3 23:37 11.03.2022
4858 Clouds 18 1023 75 10000 4.27 4 21:55 11.03.2022
4859 Clouds 18 1022 73 10000 3.77 360 20:59 11.03.2022
4860 Clouds 19 1022 73 10000 3.77 360 20:40 11.03.2022
4861 Clouds 19 1022 72 10000 3.89 360 20:19 11.03.2022
4862 Clouds 19 1021 69 10000 4.06 6 19:28 11.03.2022
4863 Clear 21 1021 66 10000 3.53 17 17:38 11.03.2022
4864 Clear 21 1021 66 10000 3.84 14 17:19 11.03.2022
4865 Clear 21 1022 66 10000 3.22 18 15:57 11.03.2022
4866 Clear 20 1023 67 10000 4.43 11 15:29 11.03.2022
4867 Clear 20 1023 66 10000 3.8 19 13:27 11.03.2022
4868 Clear 20 1023 66 10000 3.99 15 12:23 11.03.2022
4869 Clear 19 1023 66 10000 3.99 15 11:56 11.03.2022
4870 Clear 17 1022 67 10000 2.46 32 10:24 11.03.2022
4871 Clear 16 1022 67 10000 2.46 32 09:32 11.03.2022
4872 Clear 15 1021 74 10000 3.42 8 08:25 11.03.2022
4873 Clear 15 1021 74 10000 3.42 8 07:46 11.03.2022
4874 Clear 15 1020 73 10000 3.44 16 06:22 11.03.2022
4875 Clear 17 1021 74 10000 3.55 20 04:24 11.03.2022
4876 Clear 17 1022 74 10000 4.67 12 00:21 11.03.2022
4877 Clear 17 1023 73 10000 5.17 9 22:31 10.03.2022
4878 Clear 17 1022 73 10000 4.62 8 21:50 10.03.2022
4879 Clear 18 1022 72 10000 4.76 6 21:23 10.03.2022
4880 Clear 19 1021 70 10000 4.76 10 19:51 10.03.2022
4881 Clear 19 1020 68 10000 3.68 21 18:56 10.03.2022
4882 Clouds 20 1019 67 10000 4.22 19 17:36 10.03.2022
4883 Clouds 20 1019 66 10000 4.07 25 16:37 10.03.2022
4884 Clouds 20 1021 66 10000 4.07 25 15:26 10.03.2022
4885 Clear 20 1021 66 10000 3.65 33 13:30 10.03.2022
4886 Clouds 20 1022 67 10000 3.84 31 12:34 10.03.2022
4887 Clouds 19 1022 71 10000 3.91 32 11:20 10.03.2022
4888 Clouds 16 1021 76 10000 4.25 26 09:27 10.03.2022
4889 Clouds 17 1021 77 10000 4.53 30 07:43 10.03.2022
4890 Clouds 16 1020 77 10000 4.8 21 04:47 10.03.2022
4891 Clouds 18 1021 78 10000 5.14 16 01:50 10.03.2022
4892 Clouds 18 1022 77 10000 5.08 14 23:28 09.03.2022
4893 Clouds 18 1021 77 10000 4.82 15 21:51 09.03.2022
4894 Clouds 18 1021 77 10000 4.82 15 21:32 09.03.2022
4895 Clouds 19 1020 75 10000 4.2 23 19:55 09.03.2022
4896 Clouds 20 1019 76 10000 4.48 23 18:34 09.03.2022
4897 Clouds 20 1019 76 10000 4.04 37 17:27 09.03.2022
4898 Clouds 21 1019 76 10000 4.04 37 16:31 09.03.2022
4899 Clouds 21 1020 76 10000 3.77 48 15:28 09.03.2022
4900 Clouds 21 1020 75 10000 3.7 43 13:54 09.03.2022
4901 Clouds 21 1021 75 10000 3.39 43 12:47 09.03.2022
4902 Clouds 20 1021 75 10000 2.96 24 11:54 09.03.2022
4903 Clouds 20 1021 75 10000 2.96 24 11:35 09.03.2022
4904 Clouds 19 1021 76 10000 2.86 30 10:26 09.03.2022
4905 Clouds 17 1020 76 10000 3.05 32 08:54 09.03.2022
4906 Clouds 17 1020 75 10000 3.43 27 07:38 09.03.2022
4907 Clouds 18 1020 81 10000 3.43 33 02:46 09.03.2022
4908 Clouds 18 1021 80 10000 3.29 37 00:41 09.03.2022
4909 Clouds 18 1021 79 10000 3.86 31 22:47 08.03.2022
4910 Clouds 18 1021 78 10000 3.96 34 21:59 08.03.2022
4911 Clouds 18 1020 77 10000 4.18 33 21:23 08.03.2022
4912 Clouds 18 1020 76 10000 4.19 35 20:29 08.03.2022
4913 Clouds 19 1020 76 10000 4.19 35 19:31 08.03.2022
4914 Clouds 20 1020 73 10000 4.53 35 18:44 08.03.2022
4915 Clouds 20 1020 68 10000 3.91 42 17:26 08.03.2022
4916 Clouds 20 1020 67 10000 3.83 46 15:45 08.03.2022
4917 Clouds 21 1021 69 10000 4.14 49 14:19 08.03.2022
4918 Clear 20 1022 69 10000 4.64 46 12:43 08.03.2022
4919 Clear 19 1022 69 10000 4.37 40 11:45 08.03.2022
4920 Clear 18 1022 69 10000 4.05 35 10:41 08.03.2022
4921 Clear 17 1022 69 10000 3.84 28 09:37 08.03.2022
4922 Clear 16 1020 73 10000 4.12 14 06:43 08.03.2022
4923 Clear 16 1020 73 10000 4.89 11 04:47 08.03.2022
4924 Clouds 17 1022 71 10000 5.22 1 23:36 07.03.2022
4925 Clouds 18 1021 69 10000 5.08 1 21:50 07.03.2022
4926 Clouds 18 1021 69 10000 5.08 1 21:31 07.03.2022
4927 Clouds 18 1021 68 10000 5.38 360 20:39 07.03.2022
4928 Clouds 19 1020 66 10000 5.59 358 19:55 07.03.2022
4929 Clear 19 1020 65 10000 5.71 0 19:29 07.03.2022
4930 Clear 20 1019 66 10000 5.8 358 18:40 07.03.2022
4931 Clear 20 1019 64 10000 5.49 360 17:41 07.03.2022
4932 Clear 21 1019 63 10000 5.14 3 16:55 07.03.2022
4933 Clear 21 1020 62 10000 4.78 1 15:27 07.03.2022
4934 Clear 20 1021 63 10000 5.19 7 12:54 07.03.2022
4935 Clouds 19 1021 64 10000 5.04 4 12:21 07.03.2022
4936 Clouds 18 1021 65 10000 5.14 4 10:36 07.03.2022
4937 Clouds 17 1019 71 10000 5.31 359 08:39 07.03.2022
4938 Clouds 16 1019 76 10000 6.24 353 02:58 07.03.2022
4939 Clear 17 1020 72 10000 6.38 347 00:22 07.03.2022
4940 Clear 18 1020 71 10000 6.74 342 23:29 06.03.2022
4941 Clear 18 1020 71 10000 6.74 342 22:32 06.03.2022
4942 Clear 18 1020 71 10000 7.48 339 21:45 06.03.2022
4943 Clear 20 1019 71 10000 7.66 336 20:30 06.03.2022
4944 Clear 20 1019 69 10000 7.58 345 19:48 06.03.2022
4945 Clouds 21 1018 65 10000 7.27 344 18:51 06.03.2022
4946 Clouds 21 1018 63 10000 7.87 345 17:49 06.03.2022
4947 Clouds 22 1018 63 10000 8.5 341 17:20 06.03.2022
4948 Clouds 22 1018 63 10000 8.5 341 16:40 06.03.2022
4949 Clouds 22 1018 63 10000 8.5 341 16:40 06.03.2022
4950 Clouds 22 1018 64 10000 8.75 335 15:37 06.03.2022
4951 Clouds 22 1019 64 10000 8.32 335 14:48 06.03.2022
4952 Clouds 22 1019 64 10000 8.23 333 14:28 06.03.2022
4953 Clouds 22 1020 65 10000 8.28 331 12:43 06.03.2022
4954 Clouds 21 1020 64 10000 8.21 330 11:56 06.03.2022
4955 Clouds 19 1020 67 10000 8.38 331 10:43 06.03.2022
4956 Clouds 17 1020 73 10000 8.39 336 09:25 06.03.2022
4957 Clouds 17 1020 74 10000 7.84 339 08:28 06.03.2022
4958 Clouds 17 1020 74 10000 7.84 339 07:33 06.03.2022
4959 Clouds 17 1022 74 10000 6.95 356 03:18 06.03.2022
4960 Clouds 17 1023 72 10000 8.13 3 00:42 06.03.2022
4961 Clouds 17 1023 72 10000 7.96 6 00:23 06.03.2022
4962 Clouds 17 1023 78 10000 7.94 8 23:19 05.03.2022
4963 Clouds 18 1023 78 10000 7.94 8 22:38 05.03.2022
4964 Clouds 18 1022 76 10000 8.13 7 21:31 05.03.2022
4965 Clouds 18 1022 76 10000 8.25 6 20:39 05.03.2022
4966 Clouds 19 1021 74 10000 8.8 8 19:23 05.03.2022
4967 Clouds 19 1021 72 10000 9.01 8 18:48 05.03.2022
4968 Clouds 19 1021 75 10000 8.81 10 17:39 05.03.2022
4969 Clouds 20 1022 74 10000 9.39 11 16:20 05.03.2022
4970 Clouds 19 1022 74 10000 9.39 11 15:30 05.03.2022
4971 Clouds 21 1023 75 10000 9.1 10 14:36 05.03.2022
4972 Clouds 19 1023 76 10000 8.95 15 13:46 05.03.2022
4973 Clouds 19 1024 74 10000 8.84 13 12:46 05.03.2022
4974 Clouds 17 1024 75 10000 9.4 16 11:21 05.03.2022
4975 Clouds 18 1024 75 10000 9.4 16 10:53 05.03.2022
4976 Clouds 17 1024 74 10000 9.96 13 09:40 05.03.2022
4977 Clouds 17 1024 75 10000 9.49 13 08:46 05.03.2022
4978 Clouds 16 1023 73 10000 10.26 9 07:23 05.03.2022
4979 Clouds 16 1023 73 10000 10.26 9 07:23 05.03.2022
4980 Clouds 17 1022 70 10000 9.9 9 05:39 05.03.2022
4981 Clouds 17 1024 66 10000 9.54 10 00:51 05.03.2022
4982 Clouds 17 1025 68 10000 9.77 11 23:21 04.03.2022
4983 Clouds 16 1025 68 10000 9.77 11 22:39 04.03.2022
4984 Clouds 16 1025 67 10000 9.41 10 21:45 04.03.2022
4985 Clouds 17 1024 70 10000 9.16 9 20:48 04.03.2022
4986 Clouds 18 1024 70 10000 8.86 10 19:39 04.03.2022
4987 Clouds 19 1024 72 10000 8.81 12 18:59 04.03.2022
4988 Clouds 19 1024 72 10000 8.81 12 18:36 04.03.2022
4989 Clouds 19 1023 68 10000 8.42 17 17:29 04.03.2022
4990 Clouds 19 1024 68 10000 7.91 15 16:26 04.03.2022
4991 Clouds 18 1024 67 10000 8.21 16 15:27 04.03.2022
4992 Clouds 19 1025 65 10000 8.52 16 13:36 04.03.2022
4993 Clouds 18 1026 67 10000 8.72 18 12:48 04.03.2022
4994 Clouds 17 1026 72 10000 8.81 12 11:37 04.03.2022
4995 Clouds 17 1026 80 10000 9.41 17 10:30 04.03.2022
4996 Clouds 17 1024 84 10000 7.96 24 09:28 04.03.2022
4997 Clouds 17 1024 85 10000 6.65 23 07:49 04.03.2022
4998 Clouds 17 1024 83 10000 6.97 18 06:26 04.03.2022
4999 Clouds 17 1026 81 10000 6.79 11 02:26 04.03.2022
5000 Clouds 18 1027 80 10000 6.83 11 23:41 03.03.2022
5001 Clouds 18 1026 80 10000 7.08 6 22:18 03.03.2022
5002 Clouds 18 1026 80 10000 7.08 6 21:36 03.03.2022
5003 Clouds 19 1026 78 10000 6.54 8 20:50 03.03.2022
5004 Clouds 20 1025 77 10000 6.79 11 19:34 03.03.2022
5005 Clouds 21 1025 74 10000 7.12 4 18:33 03.03.2022
5006 Clouds 21 1024 72 10000 6.48 6 17:43 03.03.2022
5007 Clouds 21 1024 71 10000 6.4 8 17:24 03.03.2022
5008 Clear 21 1025 71 10000 6.12 13 15:47 03.03.2022
5009 Clear 22 1025 69 10000 5.84 17 14:51 03.03.2022
5010 Clear 22 1025 69 10000 5.84 17 14:32 03.03.2022
5011 Clouds 21 1027 70 10000 5.95 23 12:44 03.03.2022
5012 Clouds 20 1027 71 10000 6.1 18 11:32 03.03.2022
5013 Clouds 19 1027 73 10000 6.89 13 10:39 03.03.2022
5014 Clouds 18 1027 73 10000 7.01 11 08:44 03.03.2022
5015 Clouds 17 1026 78 10000 6.95 13 06:58 03.03.2022
5016 Clouds 18 1026 76 10000 7.51 15 06:33 03.03.2022
5017 Clouds 18 1027 80 10000 5.93 17 00:43 03.03.2022
5018 Clouds 18 1027 79 10000 6.19 17 23:28 02.03.2022
5019 Clouds 18 1027 79 10000 6.19 17 22:48 02.03.2022
5020 Clouds 19 1026 76 10000 6.32 23 21:23 02.03.2022
5021 Clouds 19 1026 76 10000 6.32 23 20:30 02.03.2022
5022 Clouds 20 1026 76 10000 6.6 21 19:49 02.03.2022
5023 Clouds 20 1026 76 10000 6.6 21 19:30 02.03.2022
5024 Clouds 21 1025 74 10000 6.57 21 18:39 02.03.2022
5025 Clouds 21 1025 74 10000 6.57 21 18:39 02.03.2022
5026 Clouds 21 1025 72 10000 6.35 19 17:45 02.03.2022
5027 Clouds 21 1025 70 10000 6.14 23 16:59 02.03.2022
5028 Clouds 21 1025 70 10000 6.14 23 16:41 02.03.2022
5029 Clouds 22 1025 70 10000 6 31 14:42 02.03.2022
5030 Clouds 21 1027 72 10000 6.28 29 13:24 02.03.2022
5031 Clouds 21 1027 71 10000 6.24 30 12:41 02.03.2022
5032 Clouds 20 1027 73 10000 6.52 28 11:39 02.03.2022
5033 Clouds 20 1027 75 10000 6.45 27 11:18 02.03.2022
5034 Clouds 18 1026 78 10000 6.53 24 09:41 02.03.2022
5035 Clouds 17 1026 80 10000 6.76 19 08:52 02.03.2022
5036 Clouds 18 1025 80 10000 7.06 18 07:28 02.03.2022
5037 Clouds 18 1025 80 10000 7.1 15 05:44 02.03.2022
5038 Clouds 18 1025 80 10000 7.92 15 00:58 02.03.2022
5039 Clouds 18 1025 81 10000 7.67 15 00:58 02.03.2022
5040 Clouds 18 1026 81 10000 7.9 12 23:47 01.03.2022
5041 Clouds 18 1026 80 10000 7.82 12 22:45 01.03.2022
5042 Clouds 18 1025 80 10000 7.8 10 21:57 01.03.2022
5043 Clouds 18 1025 79 10000 7.74 12 21:23 01.03.2022
5044 Clouds 19 1024 78 10000 7.51 11 20:29 01.03.2022
5045 Clouds 21 1024 76 10000 7.7 10 19:24 01.03.2022
5046 Clouds 20 1023 77 10000 7.9 9 18:37 01.03.2022
5047 Clouds 20 1023 76 10000 7.99 10 18:18 01.03.2022
5048 Clouds 21 1023 72 10000 7.5 10 16:54 01.03.2022
5049 Clouds 21 1023 72 10000 7.5 10 16:30 01.03.2022
5050 Clouds 21 1023 72 10000 6.64 16 15:32 01.03.2022
5051 Clouds 21 1023 72 10000 6.72 17 14:34 01.03.2022
5052 Clouds 21 1024 73 10000 7.28 20 13:45 01.03.2022
5053 Clouds 21 1025 74 10000 7.89 16 13:22 01.03.2022
5054 Clouds 21 1025 74 10000 8.75 13 12:27 01.03.2022
5055 Clouds 19 1025 76 10000 9.54 7 10:33 01.03.2022
5056 Clouds 18 1024 76 10000 9.83 5 08:41 01.03.2022
5057 Clouds 18 1023 77 10000 9.16 9 07:40 01.03.2022
5058 Clouds 18 1022 76 10000 9.18 7 04:50 01.03.2022
5059 Clouds 18 1023 75 10000 9.03 7 01:48 01.03.2022
5060 Clouds 18 1024 74 10000 9.66 5 00:24 01.03.2022
5061 Clouds 18 1024 73 10000 9.68 6 23:19 28.02.2022
5062 Clouds 18 1023 72 10000 9.58 7 21:59 28.02.2022
5063 Clouds 19 1023 72 10000 9.32 8 21:24 28.02.2022
5064 Clouds 19 1022 72 10000 9.17 10 19:53 28.02.2022
5065 Clouds 20 1022 70 10000 9.32 11 19:27 28.02.2022
5066 Clouds 20 1021 70 10000 9.23 10 18:38 28.02.2022
5067 Clouds 20 1021 69 10000 9.25 12 17:24 28.02.2022
5068 Clouds 21 1021 69 10000 9.25 12 16:33 28.02.2022
5069 Clouds 21 1022 69 10000 9.07 12 15:23 28.02.2022
5070 Clouds 20 1022 69 10000 9.07 12 14:31 28.02.2022
5071 Clouds 20 1022 69 10000 8.95 14 13:34 28.02.2022
5072 Clouds 19 1023 69 10000 9.05 15 12:41 28.02.2022
5073 Clouds 19 1023 69 10000 9.28 15 11:55 28.02.2022
5074 Clouds 18 1023 70 10000 9.25 14 10:48 28.02.2022
5075 Clouds 18 1022 70 10000 9.15 13 10:20 28.02.2022
5076 Clouds 18 1022 70 10000 9.15 13 09:32 28.02.2022
5077 Clouds 18 1021 72 10000 8.94 13 08:29 28.02.2022
5078 Clouds 17 1021 72 10000 9.03 11 07:28 28.02.2022
5079 Clouds 17 1020 71 10000 9.14 5 04:44 28.02.2022
5080 Clouds 17 1021 70 10000 9.13 7 04:23 28.02.2022
5081 Clouds 17 1022 70 10000 9.28 3 23:27 27.02.2022
5082 Clouds 18 1022 70 10000 9.28 3 22:33 27.02.2022
5083 Clouds 18 1021 70 10000 9.49 3 21:51 27.02.2022
5084 Clouds 18 1021 70 10000 9.39 5 20:59 27.02.2022
5085 Clouds 18 1021 69 10000 9.37 6 20:27 27.02.2022
5086 Clouds 19 1021 69 10000 9.37 6 19:57 27.02.2022
5087 Clouds 19 1020 68 10000 9.7 4 19:26 27.02.2022
5088 Clouds 19 1020 68 10000 9.7 4 18:47 27.02.2022
5089 Clouds 20 1019 67 10000 9.78 4 17:55 27.02.2022
5090 Clouds 20 1019 67 10000 9.85 3 16:54 27.02.2022
5091 Clouds 20 1020 67 10000 9.55 6 16:21 27.02.2022
5092 Clouds 21 1021 72 10000 10.61 8 13:25 27.02.2022
5093 Clouds 20 1021 72 10000 10.28 9 12:32 27.02.2022
5094 Clouds 18 1021 73 10000 10.59 10 10:56 27.02.2022
5095 Clouds 18 1020 75 10000 10.14 10 10:19 27.02.2022
5096 Clouds 18 1020 75 10000 10.14 10 09:49 27.02.2022
5097 Clouds 18 1020 76 10000 10.1 9 09:20 27.02.2022
5098 Clouds 18 1019 77 10000 10.44 10 07:54 27.02.2022
5099 Clouds 17 1019 80 10000 9.14 18 05:38 27.02.2022
5100 Clouds 16 1019 82 10000 7.96 23 02:21 27.02.2022
5101 Clouds 17 1020 77 10000 7.19 1 23:23 26.02.2022
5102 Clouds 17 1020 75 10000 7.19 358 21:58 26.02.2022
5103 Clouds 17 1019 72 10000 7.81 358 20:59 26.02.2022
5104 Clouds 17 1018 72 10000 8 358 20:20 26.02.2022
5105 Clouds 17 1018 72 10000 8 358 19:49 26.02.2022
5106 Clouds 17 1018 71 10000 8.04 356 19:26 26.02.2022
5107 Clouds 17 1017 71 10000 8.07 348 17:52 26.02.2022
5108 Clouds 17 1017 72 10000 8.11 346 17:28 26.02.2022
5109 Clouds 18 1017 72 10000 8.12 344 15:57 26.02.2022
5110 Clouds 19 1018 71 10000 7.87 345 15:25 26.02.2022
5111 Clouds 19 1018 71 10000 7.87 345 14:55 26.02.2022
5112 Clouds 18 1018 71 10000 7.87 345 14:36 26.02.2022
5113 Clouds 18 1019 73 10000 7.44 345 13:27 26.02.2022
5114 Clouds 19 1019 73 10000 7.44 345 12:51 26.02.2022
5115 Clouds 17 1019 73 10000 7.38 344 11:29 26.02.2022
5116 Clouds 17 1019 73 10000 7.38 344 10:55 26.02.2022
5117 Clouds 17 1017 78 10000 7.68 345 09:18 26.02.2022
5118 Clouds 17 1017 79 10000 8.01 344 07:57 26.02.2022
5119 Clouds 17 1017 78 10000 6.32 342 02:53 26.02.2022
5120 Clouds 18 1018 76 10000 5.89 342 23:31 25.02.2022
5121 Clouds 18 1017 77 10000 6.5 342 21:48 25.02.2022
5122 Clouds 18 1017 77 10000 6.86 342 21:29 25.02.2022
5123 Clouds 19 1017 77 10000 6.86 342 20:33 25.02.2022
5124 Clouds 19 1016 76 10000 6.63 341 19:39 25.02.2022
5125 Clouds 20 1016 73 10000 6.9 348 17:33 25.02.2022
5126 Clouds 22 1016 73 10000 6.93 350 16:44 25.02.2022
5127 Clouds 22 1017 75 10000 7.13 348 15:48 25.02.2022
5128 Clouds 22 1017 75 10000 7.04 349 15:23 25.02.2022
5129 Clouds 22 1017 75 10000 7.04 349 14:42 25.02.2022
5130 Clouds 21 1018 75 10000 6.96 355 14:18 25.02.2022
5131 Clouds 21 1019 75 10000 6.75 355 13:20 25.02.2022
5132 Clouds 20 1018 75 10000 6.05 352 11:30 25.02.2022
5133 Clouds 19 1018 76 10000 5.9 350 10:54 25.02.2022
5134 Clouds 19 1018 79 10000 5.86 345 10:23 25.02.2022
5135 Clouds 18 1018 79 10000 5.86 345 09:35 25.02.2022
5136 Clouds 17 1017 82 10000 5.68 344 07:44 25.02.2022
5137 Clouds 17 1016 83 10000 5.99 336 06:20 25.02.2022
5138 Clouds 18 1016 83 10000 5.99 336 05:37 25.02.2022
5139 Clouds 18 1018 81 10000 5.55 332 00:31 25.02.2022
5140 Clouds 18 1018 78 10000 6.12 340 22:29 24.02.2022
5141 Clouds 19 1018 78 10000 6.12 340 21:43 24.02.2022
5142 Clouds 19 1018 78 10000 6.12 340 21:43 24.02.2022
5143 Clouds 19 1017 79 10000 6.31 342 21:21 24.02.2022
5144 Clouds 19 1017 79 10000 6.31 342 20:42 24.02.2022
5145 Clouds 20 1017 79 10000 6.54 346 19:19 24.02.2022
5146 Clouds 22 1016 78 10000 6.85 344 18:20 24.02.2022
5147 Clouds 22 1016 78 10000 6.85 344 17:46 24.02.2022
5148 Clouds 22 1016 76 10000 6.41 342 16:57 24.02.2022
5149 Clouds 22 1017 76 10000 6.44 341 16:25 24.02.2022
5150 Clouds 23 1017 76 10000 6.44 341 15:31 24.02.2022
5151 Clouds 23 1017 76 10000 6.87 344 14:43 24.02.2022
5152 Clouds 23 1018 74 10000 6.41 337 13:45 24.02.2022
5153 Clouds 23 1018 71 10000 5.64 320 13:27 24.02.2022
5154 Clear 20 1018 72 10000 5.09 313 10:48 24.02.2022
5155 Clear 17 1017 75 10000 4.64 318 09:42 24.02.2022
5156 Clear 14 1017 78 10000 4.57 322 08:43 24.02.2022
5157 Clear 14 1017 78 10000 4.57 322 08:43 24.02.2022
5158 Clouds 14 1016 79 10000 3.9 333 06:27 24.02.2022
5159 Clouds 15 1016 79 10000 3.9 333 05:36 24.02.2022
5160 Clear 18 1017 76 10000 3.89 339 00:30 24.02.2022
5161 Clear 18 1017 76 10000 3.89 339 00:30 24.02.2022
5162 Clear 19 1017 74 10000 2.49 339 21:56 23.02.2022
5163 Clear 19 1017 72 10000 1.41 349 20:33 23.02.2022
5164 Clouds 20 1016 70 10000 0.97 40 19:56 23.02.2022
5165 Clouds 20 1016 64 10000 0.77 149 18:59 23.02.2022
5166 Clouds 21 1015 62 10000 0.36 103 17:47 23.02.2022
5167 Clear 21 1016 57 10000 1.46 311 15:47 23.02.2022
5168 Clear 19 1018 57 10000 0.43 231 13:34 23.02.2022
5169 Clear 19 1018 54 10000 1.44 315 12:28 23.02.2022
5170 Clear 18 1018 54 10000 0.61 269 10:55 23.02.2022
5171 Clear 15 1017 56 10000 0.67 194 09:31 23.02.2022
5172 Clear 15 1015 57 10000 1.36 267 08:28 23.02.2022
5173 Clear 15 1015 59 10000 1.75 202 07:19 23.02.2022
5174 Clear 17 1016 73 10000 2.2 273 02:22 23.02.2022
5175 Clear 17 1017 71 10000 1.95 282 23:46 22.02.2022
5176 Clear 18 1017 73 10000 1.95 289 23:28 22.02.2022
5177 Clear 19 1016 73 10000 1.09 335 22:28 22.02.2022
5178 Clear 19 1016 73 10000 1.09 335 21:40 22.02.2022
5179 Clear 19 1016 72 10000 1.07 350 21:19 22.02.2022
5180 Clear 20 1016 72 10000 1.07 350 20:31 22.02.2022
5181 Clear 20 1015 69 10000 2.24 333 19:54 22.02.2022
5182 Clear 21 1015 69 10000 2.24 333 19:33 22.02.2022
5183 Clear 21 1015 60 10000 1.85 2 18:35 22.02.2022
5184 Clear 21 1015 59 10000 2.06 23 17:27 22.02.2022
5185 Clear 21 1015 59 10000 2.06 23 16:55 22.02.2022
5186 Clear 20 1015 58 10000 1.62 13 16:19 22.02.2022
5187 Clear 21 1016 58 10000 1.52 50 15:18 22.02.2022
5188 Clear 21 1017 57 10000 2 44 14:19 22.02.2022
5189 Clouds 18 1018 59 10000 1.68 35 11:18 22.02.2022
5190 Clouds 16 1018 63 10000 1.95 46 09:44 22.02.2022
5191 Clear 15 1018 69 10000 2.34 21 07:29 22.02.2022
5192 Clear 15 1018 69 10000 2.34 21 06:54 22.02.2022
5193 Clear 15 1020 72 10000 3.06 18 02:49 22.02.2022
5194 Clouds 16 1021 72 10000 2.23 77 23:18 21.02.2022
5195 Clouds 17 1021 71 10000 2.17 88 21:56 21.02.2022
5196 Clouds 17 1020 69 10000 2.05 104 20:38 21.02.2022
5197 Clouds 18 1019 71 10000 2.46 118 18:47 21.02.2022
5198 Clouds 19 1019 71 10000 3.05 113 18:19 21.02.2022
5199 Clouds 19 1019 69 10000 3.47 105 15:49 21.02.2022
5200 Clear 19 1021 66 10000 3.65 93 14:22 21.02.2022
5201 Clear 18 1021 66 10000 3.65 93 13:31 21.02.2022
5202 Clear 18 1021 66 10000 3.06 80 12:41 21.02.2022
5203 Clear 18 1022 67 10000 2.42 68 12:20 21.02.2022
5204 Clear 16 1022 68 10000 1.68 21 10:26 21.02.2022
5205 Clouds 15 1021 76 10000 3.57 324 06:25 21.02.2022
5206 Clouds 16 1023 70 10000 5.57 351 00:35 21.02.2022
5207 Clouds 17 1023 67 10000 6.75 354 22:32 20.02.2022
5208 Clouds 17 1023 64 10000 7.59 353 21:43 20.02.2022
5209 Clouds 17 1023 63 10000 8.08 345 21:21 20.02.2022
5210 Clouds 17 1023 63 10000 8.08 345 20:43 20.02.2022
5211 Clouds 18 1022 67 10000 8.28 347 19:48 20.02.2022
5212 Clouds 20 1022 67 10000 8.5 345 18:55 20.02.2022
5213 Clouds 20 1022 67 10000 8.5 345 18:34 20.02.2022
5214 Clouds 20 1022 66 10000 8.31 344 17:55 20.02.2022
5215 Clouds 20 1023 62 10000 7.39 349 16:18 20.02.2022
5216 Clouds 20 1023 59 10000 7.39 360 14:53 20.02.2022
5217 Clouds 19 1024 59 10000 7.04 3 13:58 20.02.2022
5218 Clouds 19 1025 63 10000 7.43 8 12:42 20.02.2022
5219 Clouds 16 1026 64 10000 8.9 11 10:52 20.02.2022
5220 Clouds 16 1025 66 10000 9.85 10 10:20 20.02.2022
5221 Clouds 16 1025 67 10000 9.56 8 08:58 20.02.2022
5222 Clouds 17 1026 77 10000 10.01 26 01:19 20.02.2022
5223 Clouds 17 1026 77 10000 10.05 26 00:30 20.02.2022
5224 Clouds 16 1026 79 10000 10.1 29 23:30 19.02.2022
5225 Clouds 17 1025 80 8477 10.64 35 22:23 19.02.2022
5226 Clouds 17 1025 80 8477 10.64 35 21:45 19.02.2022
5227 Clouds 18 1024 79 10000 8.85 26 19:58 19.02.2022
5228 Clouds 18 1024 79 10000 8.85 26 19:33 19.02.2022
5229 Clouds 20 1023 71 10000 7.13 17 18:38 19.02.2022
5230 Clouds 20 1023 68 10000 6.98 14 17:37 19.02.2022
5231 Clouds 20 1023 69 10000 6.86 15 16:44 19.02.2022
5232 Clouds 20 1024 67 10000 7.5 18 15:20 19.02.2022
5233 Clouds 18 1024 67 10000 7.5 18 14:52 19.02.2022
5234 Clouds 21 1024 65 10000 6.68 14 13:47 19.02.2022
5235 Clouds 19 1025 66 10000 6.99 16 11:39 19.02.2022
5236 Clouds 18 1024 68 10000 7.17 18 10:30 19.02.2022
5237 Clouds 18 1023 76 10000 7.52 15 07:56 19.02.2022
5238 Clouds 18 1022 73 10000 5.91 11 04:32 19.02.2022
5239 Clouds 18 1024 69 10000 6.46 12 23:38 18.02.2022
5240 Clouds 18 1023 69 10000 6.55 14 21:53 18.02.2022
5241 Clouds 18 1023 71 10000 6.76 10 20:57 18.02.2022
5242 Clouds 19 1022 70 10000 6.84 9 19:54 18.02.2022
5243 Clouds 20 1021 69 10000 6.9 11 18:50 18.02.2022
5244 Clouds 20 1021 69 10000 6.86 12 18:22 18.02.2022
5245 Clouds 21 1021 69 10000 6.86 12 17:55 18.02.2022
5246 Clear 21 1022 68 10000 6.03 15 15:22 18.02.2022
5247 Clear 20 1023 68 10000 5.62 17 13:55 18.02.2022
5248 Clouds 20 1024 69 10000 5.26 20 12:54 18.02.2022
5249 Clouds 19 1024 69 10000 5.19 21 12:33 18.02.2022
5250 Clouds 19 1024 73 10000 5.07 20 11:29 18.02.2022
5251 Clouds 18 1023 76 10000 5.23 20 10:23 18.02.2022
5252 Clouds 17 1022 79 10000 5.76 13 06:57 18.02.2022
5253 Clouds 17 1022 79 10000 5.77 9 05:40 18.02.2022
5254 Clouds 18 1024 75 10000 4.36 23 23:31 17.02.2022
5255 Clouds 18 1023 72 10000 4.01 33 21:45 17.02.2022
5256 Clouds 18 1023 73 10000 3.96 40 21:20 17.02.2022
5257 Clouds 18 1023 73 10000 3.96 40 20:38 17.02.2022
5258 Clouds 19 1023 75 10000 3.71 41 19:50 17.02.2022
5259 Clouds 20 1022 72 10000 3.73 42 18:44 17.02.2022
5260 Clouds 21 1022 70 10000 3.77 47 17:50 17.02.2022
5261 Clouds 21 1023 69 10000 4.44 52 16:29 17.02.2022
5262 Clouds 21 1023 69 10000 4.44 52 15:38 17.02.2022
5263 Clear 21 1025 70 10000 4.1 59 14:26 17.02.2022
5264 Clear 21 1026 71 10000 4.23 51 12:38 17.02.2022
5265 Clear 20 1027 76 10000 4.54 36 11:23 17.02.2022
5266 Clear 20 1027 76 10000 4.54 36 11:23 17.02.2022
5267 Clear 16 1026 81 10000 4.45 28 08:53 17.02.2022
5268 Clear 17 1026 79 10000 3.75 35 02:26 17.02.2022
5269 Clouds 18 1027 82 10000 4.82 40 23:21 16.02.2022
5270 Clouds 18 1027 82 10000 5.3 44 21:40 16.02.2022
5271 Clouds 19 1026 80 10000 6.06 39 19:47 16.02.2022
5272 Clouds 20 1026 77 10000 5.68 38 18:38 16.02.2022
5273 Clouds 20 1025 74 10000 5.79 40 17:53 16.02.2022
5274 Clouds 21 1026 71 10000 5.9 51 15:38 16.02.2022
5275 Clear 21 1027 70 10000 6.1 53 15:18 16.02.2022
5276 Clouds 20 1029 67 10000 6.51 58 12:59 16.02.2022
5277 Clouds 20 1029 66 10000 6.61 60 11:58 16.02.2022
5278 Clouds 19 1028 65 10000 6.57 60 11:24 16.02.2022
5279 Clouds 18 1028 65 10000 6.57 60 10:33 16.02.2022
5280 Clouds 17 1027 71 10000 6.79 43 07:21 16.02.2022
5281 Clouds 18 1027 69 10000 7.43 36 05:20 16.02.2022
5282 Clouds 18 1028 69 10000 6.68 42 23:44 15.02.2022
5283 Clouds 18 1027 64 10000 7.38 38 22:28 15.02.2022
5284 Clouds 19 1027 64 10000 7.38 38 21:46 15.02.2022
5285 Clouds 19 1027 64 10000 7.13 32 21:27 15.02.2022
5286 Clouds 19 1027 64 10000 7.13 32 20:56 15.02.2022
5287 Clouds 19 1026 64 10000 7.49 27 19:57 15.02.2022
5288 Clouds 20 1026 65 10000 7.28 27 18:56 15.02.2022
5289 Clouds 20 1025 65 10000 6.91 25 18:21 15.02.2022
5290 Clouds 20 1025 65 10000 6.91 25 17:49 15.02.2022
5291 Clouds 21 1025 65 10000 6.68 28 16:38 15.02.2022
5292 Clouds 21 1026 67 10000 6.38 33 15:26 15.02.2022
5293 Clouds 20 1027 71 10000 7.24 38 13:27 15.02.2022
5294 Clouds 20 1027 70 10000 6.56 46 11:58 15.02.2022
5295 Clouds 20 1027 73 10000 6.08 41 10:59 15.02.2022
5296 Clouds 18 1026 75 10000 6.17 34 09:28 15.02.2022
5297 Clouds 18 1025 76 10000 6.16 32 06:50 15.02.2022
5298 Clouds 18 1025 73 10000 5.39 26 03:55 15.02.2022
5299 Clouds 18 1026 72 10000 5.34 31 22:36 14.02.2022
5300 Clouds 19 1025 73 10000 5.49 33 21:35 14.02.2022
5301 Clouds 19 1025 74 10000 5.62 32 20:30 14.02.2022
5302 Clouds 19 1024 76 10000 5.65 33 19:32 14.02.2022
5303 Clouds 20 1024 77 10000 6.18 35 18:30 14.02.2022
5304 Clouds 20 1023 77 10000 6.77 39 17:58 14.02.2022
5305 Clouds 21 1023 76 10000 6.54 41 17:24 14.02.2022
5306 Clouds 21 1024 74 10000 4.99 47 15:59 14.02.2022
5307 Clouds 21 1025 70 10000 4.32 50 13:53 14.02.2022
5308 Clouds 21 1025 70 10000 4.42 53 13:26 14.02.2022
5309 Clouds 20 1025 69 10000 4.36 52 12:33 14.02.2022
5310 Clouds 20 1025 70 10000 4.6 49 11:54 14.02.2022
5311 Clouds 18 1025 71 10000 4.64 42 10:37 14.02.2022
5312 Clouds 17 1024 75 10000 4.57 38 08:43 14.02.2022
5313 Clouds 17 1023 75 10000 4.36 35 07:30 14.02.2022
5314 Clear 18 1025 76 10000 5.13 17 23:45 13.02.2022
5315 Clear 18 1025 75 10000 5 22 22:42 13.02.2022
5316 Clear 18 1024 75 10000 5.15 23 22:23 13.02.2022
5317 Clear 18 1024 75 10000 5.15 23 21:30 13.02.2022
5318 Clear 19 1023 73 10000 4.42 29 20:33 13.02.2022
5319 Clear 20 1022 69 10000 4.21 28 19:29 13.02.2022
5320 Clear 20 1022 68 10000 4.24 27 18:44 13.02.2022
5321 Clear 20 1022 66 10000 4.32 27 17:57 13.02.2022
5322 Clear 21 1022 64 10000 4.15 39 15:54 13.02.2022
5323 Clear 21 1022 64 10000 4.15 39 15:54 13.02.2022
5324 Clear 21 1022 64 10000 3.99 45 15:20 13.02.2022
5325 Clear 21 1023 65 10000 4.67 50 13:59 13.02.2022
5326 Clear 21 1024 66 10000 4.93 49 12:50 13.02.2022
5327 Clear 19 1024 67 10000 4.99 45 11:35 13.02.2022
5328 Clear 17 1024 69 10000 5.04 40 10:32 13.02.2022
5329 Clear 17 1024 72 10000 4.8 35 09:45 13.02.2022
5330 Clear 16 1023 75 10000 4.34 27 07:48 13.02.2022
5331 Clear 18 1024 71 10000 4.12 28 00:35 13.02.2022
5332 Clouds 18 1024 73 10000 4.27 28 23:42 12.02.2022
5333 Clouds 19 1024 74 10000 4.15 28 22:33 12.02.2022
5334 Clouds 19 1023 76 10000 4.01 22 21:27 12.02.2022
5335 Clouds 19 1023 76 10000 4.01 22 20:34 12.02.2022
5336 Clear 20 1022 75 10000 4.74 7 19:27 12.02.2022
5337 Clear 21 1022 75 10000 4.74 7 18:53 12.02.2022
5338 Clear 21 1022 75 10000 5.02 11 18:35 12.02.2022
5339 Clear 21 1022 72 10000 4.94 12 16:58 12.02.2022
5340 Clear 22 1022 71 10000 4.94 11 16:25 12.02.2022
5341 Clear 21 1022 71 10000 4.94 11 15:50 12.02.2022
5342 Clear 22 1023 70 10000 4.86 14 14:31 12.02.2022
5343 Clear 22 1024 68 10000 4.29 16 13:19 12.02.2022
5344 Clear 21 1024 69 10000 4.16 19 10:41 12.02.2022
5345 Clear 18 1023 72 10000 3.75 18 09:39 12.02.2022
5346 Clear 18 1023 77 10000 3.19 20 09:20 12.02.2022
5347 Clear 19 1023 78 10000 3.83 15 08:18 12.02.2022
5348 Clear 19 1023 78 10000 3.83 15 08:18 12.02.2022
5349 Clear 18 1022 80 10000 4.5 2 05:33 12.02.2022
5350 Clear 18 1022 73 10000 4.32 0 04:27 12.02.2022
5351 Clear 18 1023 62 10000 2.72 350 02:18 12.02.2022
5352 Clear 20 1023 56 10000 3.54 358 22:29 11.02.2022
5353 Clear 20 1023 56 10000 3.54 358 21:55 11.02.2022
5354 Clear 21 1023 54 10000 2.02 344 20:41 11.02.2022
5355 Clear 22 1022 54 10000 1.32 13 19:46 11.02.2022
5356 Clouds 23 1022 52 10000 1.48 43 19:27 11.02.2022
5357 Clouds 22 1022 54 10000 2.49 22 17:55 11.02.2022
5358 Clouds 22 1022 53 10000 2.27 22 17:25 11.02.2022
5359 Clouds 23 1022 52 10000 2.32 26 16:22 11.02.2022
5360 Clouds 22 1023 51 10000 2.33 21 14:43 11.02.2022
5361 Clouds 22 1024 51 10000 2.05 38 14:21 11.02.2022
5362 Clouds 22 1024 51 10000 2.05 38 13:57 11.02.2022
5363 Clouds 22 1024 51 10000 2.05 38 13:39 11.02.2022
5364 Clouds 22 1024 50 10000 1.99 127 11:42 11.02.2022
5365 Clouds 20 1024 52 10000 2.42 139 09:58 11.02.2022
5366 Clouds 20 1023 55 10000 2.67 127 08:49 11.02.2022
5367 Clouds 19 1023 52 10000 3.01 147 08:26 11.02.2022
5368 Clear 20 1023 51 10000 2.67 126 07:18 11.02.2022
5369 Clear 20 1023 45 10000 1.53 70 02:26 11.02.2022
5370 Clear 20 1024 47 10000 0.85 63 00:52 11.02.2022
5371 Clouds 19 1024 49 10000 0.61 60 22:51 10.02.2022
5372 Clouds 20 1024 52 10000 0.11 195 21:46 10.02.2022
5373 Clouds 20 1023 54 10000 0.77 68 20:59 10.02.2022
5374 Clouds 21 1023 54 10000 0.77 68 20:35 10.02.2022
5375 Clouds 23 1022 51 10000 1.68 131 19:26 10.02.2022
5376 Clouds 23 1022 51 10000 1.08 100 18:46 10.02.2022
5377 Clouds 23 1021 50 10000 3.19 152 17:26 10.02.2022
5378 Clouds 23 1021 50 10000 3.19 152 16:50 10.02.2022
5379 Clouds 26 1021 48 10000 4.23 157 15:51 10.02.2022
5380 Clouds 26 1021 48 10000 4.23 157 15:30 10.02.2022
5381 Clouds 26 1022 46 10000 5.63 157 14:48 10.02.2022
5382 Clouds 25 1022 45 10000 6.54 155 14:24 10.02.2022
5383 Clouds 25 1023 45 10000 6.51 157 13:29 10.02.2022
5384 Clouds 25 1023 44 10000 6.41 159 12:45 10.02.2022
5385 Clouds 24 1023 44 10000 6.21 161 11:33 10.02.2022
5386 Clouds 24 1023 45 10000 6.13 162 10:44 10.02.2022
5387 Clouds 22 1023 48 10000 6.33 161 09:57 10.02.2022
5388 Clouds 20 1022 51 10000 6.32 157 09:23 10.02.2022
5389 Clouds 20 1021 54 10000 5.92 141 07:19 10.02.2022
5390 Clouds 22 1021 46 10000 2.74 123 04:55 10.02.2022
5391 Clouds 20 1021 50 10000 0.72 154 01:48 10.02.2022
5392 Clouds 20 1021 50 10000 0.7 44 00:47 10.02.2022
5393 Clouds 20 1021 49 10000 0.94 100 00:27 10.02.2022
5394 Clouds 21 1021 46 10000 1.51 144 23:22 09.02.2022
5395 Clouds 21 1021 46 10000 1.51 144 22:35 09.02.2022
5396 Clouds 21 1021 47 10000 1.37 181 21:50 09.02.2022
5397 Clouds 21 1020 47 10000 1.38 183 21:29 09.02.2022
5398 Clouds 21 1020 47 10000 1.38 183 20:47 09.02.2022
5399 Clouds 21 1020 47 10000 2.05 176 20:24 09.02.2022
5400 Clouds 21 1020 47 10000 2.05 176 19:45 09.02.2022
5401 Clouds 21 1019 46 10000 2.89 161 19:27 09.02.2022
5402 Clouds 22 1018 45 10000 4.16 152 17:37 09.02.2022
5403 Clouds 21 1018 45 10000 5.33 147 16:34 09.02.2022
5404 Clouds 22 1019 46 10000 6.24 146 15:40 09.02.2022
5405 Clouds 22 1020 47 10000 6.78 151 14:28 09.02.2022
5406 Clouds 22 1020 47 10000 6.86 150 12:28 09.02.2022
5407 Clouds 22 1020 46 10000 6.64 154 10:51 09.02.2022
5408 Clouds 22 1019 46 10000 6.48 155 10:26 09.02.2022
5409 Clouds 23 1019 46 10000 6.48 155 09:35 09.02.2022
5410 Clouds 20 1019 46 10000 5.83 158 08:59 09.02.2022
5411 Clouds 20 1018 48 10000 5.2 157 07:47 09.02.2022
5412 Clouds 19 1017 47 10000 3.14 169 05:30 09.02.2022
5413 Clouds 19 1017 47 10000 3.14 169 05:30 09.02.2022
5414 Clouds 18 1017 46 10000 3.27 178 03:50 09.02.2022
5415 Clouds 19 1017 48 10000 1.45 186 00:23 09.02.2022
5416 Clouds 19 1017 48 10000 1.45 186 23:30 08.02.2022
5417 Clouds 20 1017 49 10000 1.56 170 22:46 08.02.2022
5418 Clouds 21 1017 50 10000 1.63 176 22:21 08.02.2022
5419 Clouds 21 1017 50 10000 1.63 176 21:38 08.02.2022
5420 Clouds 21 1016 49 10000 1.68 167 21:19 08.02.2022
5421 Clouds 22 1016 49 10000 1.68 167 20:41 08.02.2022
5422 Clouds 22 1015 46 10000 2.56 173 19:45 08.02.2022
5423 Clouds 23 1015 49 10000 3.29 168 18:34 08.02.2022
5424 Clouds 26 1014 46 10000 4.7 157 17:36 08.02.2022
5425 Clouds 26 1015 47 10000 6.44 151 16:22 08.02.2022
5426 Clouds 25 1015 46 10000 6.87 150 15:29 08.02.2022
5427 Clouds 25 1015 46 10000 6.87 150 15:29 08.02.2022
5428 Clouds 23 1016 46 10000 6.9 152 13:59 08.02.2022
5429 Clouds 23 1017 45 10000 7.09 154 12:41 08.02.2022
5430 Clouds 22 1016 46 10000 6.86 153 11:28 08.02.2022
5431 Clouds 21 1016 51 10000 6.58 149 09:59 08.02.2022
5432 Clouds 20 1015 55 10000 6.38 141 08:56 08.02.2022
5433 Clouds 20 1015 56 10000 5.72 134 07:37 08.02.2022
5434 Clouds 20 1015 59 10000 2.64 96 04:40 08.02.2022
5435 Clouds 20 1015 59 10000 2.9 66 04:22 08.02.2022
5436 Clouds 22 1015 59 10000 2.9 66 03:37 08.02.2022
5437 Clouds 22 1016 55 10000 2.41 53 03:18 08.02.2022
5438 Clouds 21 1016 55 10000 2.41 53 02:59 08.02.2022
5439 Clouds 21 1016 55 10000 2.41 53 02:37 08.02.2022
5440 Clouds 21 1016 57 10000 1.13 54 02:19 08.02.2022
5441 Clouds 21 1016 57 10000 1.13 54 01:55 08.02.2022
5442 Clouds 20 1016 57 10000 1.13 54 01:37 08.02.2022
5443 Clouds 20 1017 61 10000 2.01 63 01:19 08.02.2022
5444 Clouds 20 1017 63 10000 2.14 62 00:44 08.02.2022
5445 Clouds 21 1017 65 10000 2.96 54 23:45 07.02.2022
5446 Clouds 20 1017 66 10000 3.52 50 23:18 07.02.2022
5447 Clouds 19 1017 66 10000 3.52 50 22:59 07.02.2022
5448 Clouds 19 1017 65 10000 3.34 45 22:19 07.02.2022
5449 Clouds 19 1017 65 10000 3.34 45 21:51 07.02.2022
5450 Clouds 20 1016 66 10000 2.87 50 21:28 07.02.2022
5451 Clouds 20 1016 66 10000 2.87 50 20:52 07.02.2022
5452 Clouds 21 1016 66 10000 2.87 50 20:34 07.02.2022
5453 Clouds 21 1016 69 10000 2.95 57 19:47 07.02.2022
5454 Clouds 21 1016 69 10000 2.95 57 19:47 07.02.2022
5455 Clear 22 1016 68 10000 3.47 61 18:58 07.02.2022
5456 Clear 22 1016 66 10000 4.16 63 17:38 07.02.2022
5457 Clear 22 1016 65 10000 4.44 67 16:52 07.02.2022
5458 Clear 22 1016 65 10000 4.89 71 15:48 07.02.2022
5459 Clear 21 1017 68 10000 4.92 73 14:30 07.02.2022
5460 Clouds 21 1019 74 10000 5.49 68 13:27 07.02.2022
5461 Clouds 21 1019 74 10000 5.49 68 12:36 07.02.2022
5462 Clouds 20 1019 77 10000 5.63 61 11:52 07.02.2022
5463 Clouds 19 1019 79 10000 5.84 57 11:24 07.02.2022
5464 Clouds 18 1019 79 10000 5.84 57 10:43 07.02.2022
5465 Clouds 18 1018 82 10000 5.95 56 10:24 07.02.2022
5466 Clouds 17 1018 82 10000 5.95 56 09:52 07.02.2022
5467 Clouds 17 1018 83 10000 5.93 48 09:18 07.02.2022
5468 Clouds 18 1018 82 10000 5.39 44 07:58 07.02.2022
5469 Clouds 18 1017 83 10000 5.23 44 06:34 07.02.2022
5470 Clouds 18 1018 82 10000 5.38 49 05:18 07.02.2022
5471 Clouds 19 1019 84 10000 6.19 51 02:38 07.02.2022
5472 Clouds 19 1019 83 10000 6.16 36 00:24 07.02.2022
5473 Clouds 19 1019 83 10000 5.54 39 23:20 06.02.2022
5474 Clouds 19 1019 83 10000 5.54 39 22:42 06.02.2022
5475 Clouds 19 1019 84 10000 5.52 47 21:47 06.02.2022
5476 Clouds 19 1018 85 10000 6 46 21:21 06.02.2022
5477 Clouds 19 1018 85 10000 6 46 20:48 06.02.2022
5478 Clouds 20 1018 85 10000 5.95 43 20:24 06.02.2022
5479 Clouds 20 1017 81 10000 5.86 44 19:22 06.02.2022
5480 Clouds 21 1017 82 10000 6.27 38 18:33 06.02.2022
5481 Clouds 22 1017 78 10000 6.13 38 17:37 06.02.2022
5482 Clouds 22 1017 77 10000 5.96 39 16:52 06.02.2022
5483 Clouds 23 1017 75 10000 5.81 40 16:20 06.02.2022
5484 Clouds 22 1017 75 10000 5.81 40 15:47 06.02.2022
5485 Clouds 22 1018 75 10000 5.49 44 15:24 06.02.2022
5486 Clouds 22 1019 76 10000 5.67 42 14:19 06.02.2022
5487 Clouds 22 1019 76 10000 5.8 43 13:21 06.02.2022
5488 Clouds 21 1019 77 10000 5.76 39 12:27 06.02.2022
5489 Clouds 19 1019 79 10000 5.5 39 10:37 06.02.2022
5490 Clouds 19 1018 81 10000 5.01 39 09:48 06.02.2022
5491 Clouds 18 1018 79 10000 4.83 34 08:41 06.02.2022
5492 Clouds 18 1017 76 10000 4.32 42 07:31 06.02.2022
5493 Clear 18 1017 61 10000 2.72 57 05:28 06.02.2022
5494 Clear 19 1018 54 10000 2.67 75 02:25 06.02.2022
5495 Clear 20 1018 53 10000 2.6 72 00:49 06.02.2022
5496 Clear 19 1018 50 10000 1.92 68 00:22 06.02.2022
5497 Clear 19 1018 50 10000 1.37 101 21:48 05.02.2022
5498 Clear 19 1017 53 10000 1.64 98 20:47 05.02.2022
5499 Clear 20 1016 55 10000 2.04 103 20:22 05.02.2022
5500 Clear 20 1016 55 10000 2.04 103 19:42 05.02.2022
5501 Clear 21 1016 56 10000 3.61 105 18:37 05.02.2022
5502 Clear 21 1016 54 10000 3.94 106 17:36 05.02.2022
5503 Clear 21 1016 55 10000 4.12 112 16:24 05.02.2022
5504 Clear 21 1016 55 10000 4.12 112 15:31 05.02.2022
5505 Clear 21 1017 55 10000 2.9 104 13:55 05.02.2022
5506 Clear 21 1018 55 10000 1.95 99 12:46 05.02.2022
5507 Clear 21 1018 56 10000 2.12 96 11:47 05.02.2022
5508 Clear 20 1018 56 10000 1.32 77 10:44 05.02.2022
5509 Clear 18 1017 57 10000 1.05 76 09:51 05.02.2022
5510 Clear 18 1017 58 10000 0.82 96 08:47 05.02.2022
5511 Clear 18 1016 55 10000 1.29 72 07:27 05.02.2022
5512 Clear 18 1016 55 10000 1.29 72 06:55 05.02.2022
5513 Clear 18 1018 47 10000 1.3 146 02:43 05.02.2022
5514 Clear 17 1018 52 10000 1.37 125 01:18 05.02.2022
5515 Clear 18 1019 51 10000 1.7 120 00:36 05.02.2022
5516 Clear 18 1019 53 10000 1.36 116 23:33 04.02.2022
5517 Clear 19 1019 55 10000 1.17 130 22:45 04.02.2022
5518 Clear 20 1018 56 10000 1.39 139 21:36 04.02.2022
5519 Clear 20 1018 56 10000 1.83 143 21:18 04.02.2022
5520 Clear 20 1018 56 10000 1.83 143 20:37 04.02.2022
5521 Clouds 20 1017 55 10000 3.87 144 19:19 04.02.2022
5522 Clouds 21 1017 51 10000 4.08 150 16:44 04.02.2022
5523 Clouds 21 1018 50 10000 4.38 156 15:19 04.02.2022
5524 Clouds 21 1018 50 10000 4.38 156 14:40 04.02.2022
5525 Clouds 24 1020 51 10000 3.43 156 12:43 04.02.2022
5526 Clouds 24 1020 51 10000 2.36 167 11:45 04.02.2022
5527 Clouds 24 1019 51 10000 2.55 183 10:55 04.02.2022
5528 Clouds 24 1018 51 10000 2.84 190 09:56 04.02.2022
5529 Clouds 24 1018 50 10000 3.44 196 07:56 04.02.2022
5530 Clouds 19 1017 50 10000 3.06 181 03:47 04.02.2022
5531 Clouds 21 1018 50 10000 2.68 183 02:36 04.02.2022
5532 Clouds 22 1019 60 10000 0.4 206 23:40 03.02.2022
5533 Clouds 22 1019 59 10000 0.52 237 22:50 03.02.2022
5534 Clouds 22 1019 58 10000 0.52 170 21:52 03.02.2022
5535 Clouds 22 1018 56 10000 0.69 157 21:22 03.02.2022
5536 Clouds 22 1017 55 10000 1.73 158 20:22 03.02.2022
5537 Clouds 22 1017 55 10000 1.73 158 19:42 03.02.2022
5538 Clouds 22 1017 54 10000 2.6 155 18:56 03.02.2022
5539 Clouds 22 1018 52 10000 3.81 150 17:55 03.02.2022
5540 Clouds 22 1018 54 10000 3.83 168 16:48 03.02.2022
5541 Clouds 25 1018 58 10000 4.44 153 15:28 03.02.2022
5542 Clouds 25 1019 63 10000 4.92 145 13:45 03.02.2022
5543 Clouds 21 1020 67 10000 4.34 131 11:47 03.02.2022
5544 Clouds 20 1019 80 10000 6.04 94 08:55 03.02.2022
5545 Clouds 20 1019 83 10000 5.55 62 07:41 03.02.2022
5546 Clouds 22 1021 77 10000 5.01 339 00:47 03.02.2022
5547 Clouds 22 1021 74 10000 2.59 360 00:22 03.02.2022
5548 Clouds 21 1021 76 10000 2.64 331 22:38 02.02.2022
5549 Clouds 21 1021 75 10000 4.21 354 21:45 02.02.2022
5550 Clouds 22 1020 75 10000 3.85 346 21:27 02.02.2022
5551 Clouds 22 1020 77 10000 4.56 353 20:20 02.02.2022
5552 Clouds 23 1020 77 10000 4.56 353 19:46 02.02.2022
5553 Clouds 23 1020 59 10000 2.04 8 18:55 02.02.2022
5554 Clouds 24 1019 53 10000 2.32 70 18:23 02.02.2022
5555 Clouds 26 1019 51 10000 3.09 90 17:20 02.02.2022
5556 Clouds 26 1019 51 10000 3.09 90 16:54 02.02.2022
5557 Clouds 27 1020 49 10000 3.47 103 14:42 02.02.2022
5558 Clouds 24 1021 48 10000 4.18 136 12:29 02.02.2022
5559 Clouds 23 1021 48 10000 4.18 136 11:44 02.02.2022
5560 Clouds 21 1021 49 10000 2.92 150 11:24 02.02.2022
5561 Clouds 18 1020 61 10000 2.99 118 08:27 02.02.2022
5562 Clouds 20 1020 63 10000 1.88 116 01:37 02.02.2022
5563 Clouds 18 1021 64 10000 2.92 268 22:29 01.02.2022
5564 Clouds 19 1020 65 10000 2.8 199 20:50 01.02.2022
5565 Clouds 20 1019 64 10000 3.33 111 18:55 01.02.2022
5566 Clouds 20 1018 62 10000 1.04 136 16:46 01.02.2022
5567 Clouds 21 1018 58 10000 2.37 147 15:44 01.02.2022
5568 Clouds 22 1020 53 10000 1.85 156 12:49 01.02.2022
5569 Clouds 21 1021 54 10000 1.22 146 11:51 01.02.2022
5570 Clouds 20 1020 59 10000 0.98 51 08:37 01.02.2022
5571 Clouds 17 1021 59 10000 2.42 12 00:28 01.02.2022
5572 Clouds 18 1021 59 10000 2.42 12 23:36 31.01.2022
5573 Clouds 18 1021 60 10000 1.83 20 22:30 31.01.2022
5574 Clouds 19 1021 62 10000 2.02 12 21:34 31.01.2022
5575 Clouds 19 1021 64 10000 2.03 20 20:34 31.01.2022
5576 Clouds 20 1020 65 10000 2.31 33 19:52 31.01.2022
5577 Clouds 21 1020 61 10000 2.82 43 18:31 31.01.2022
5578 Clear 21 1019 58 10000 3.33 47 17:55 31.01.2022
5579 Clear 21 1019 55 10000 3.12 49 16:58 31.01.2022
5580 Clear 21 1020 55 10000 2.88 59 15:46 31.01.2022
5581 Clear 22 1020 54 10000 2.76 65 14:49 31.01.2022
5582 Clear 20 1022 57 10000 2.42 76 12:57 31.01.2022
5583 Clear 20 1022 57 10000 2.42 76 12:36 31.01.2022
5584 Clear 18 1022 64 10000 1.93 47 10:58 31.01.2022
5585 Clear 17 1022 64 10000 1.93 47 10:37 31.01.2022
5586 Clear 16 1021 67 10000 2.25 34 09:35 31.01.2022
5587 Clear 16 1021 69 10000 2.58 21 08:53 31.01.2022
5588 Clear 15 1020 68 10000 2.49 11 08:20 31.01.2022
5589 Clear 15 1020 68 10000 2.16 350 07:29 31.01.2022
5590 Clear 14 1020 71 10000 1.39 331 05:24 31.01.2022
5591 Clear 17 1021 73 10000 1.57 312 23:37 30.01.2022
5592 Clear 18 1020 73 10000 1.87 308 22:31 30.01.2022
5593 Clear 18 1020 71 10000 1.47 313 21:44 30.01.2022
5594 Clear 18 1020 71 10000 1.47 313 21:44 30.01.2022
5595 Clear 18 1019 69 10000 0.78 264 21:22 30.01.2022
5596 Clear 18 1020 63 10000 0.38 298 20:51 30.01.2022
5597 Clear 18 1020 63 10000 0.38 298 20:30 30.01.2022
5598 Clear 18 1019 62 10000 0.34 16 19:54 30.01.2022
5599 Clear 19 1018 58 10000 0.65 24 18:51 30.01.2022
5600 Clear 19 1018 57 10000 0.76 34 18:21 30.01.2022
5601 Clear 19 1018 57 10000 0.76 34 17:30 30.01.2022
5602 Clear 20 1018 56 10000 0.91 9 16:42 30.01.2022
5603 Clear 20 1018 56 10000 0.88 25 16:22 30.01.2022
5604 Clear 20 1018 56 10000 0.88 25 15:53 30.01.2022
5605 Clear 20 1018 56 10000 0.88 25 15:32 30.01.2022
5606 Clear 20 1018 56 10000 1.23 78 14:47 30.01.2022
5607 Clear 19 1019 56 10000 1.32 84 13:37 30.01.2022
5608 Clear 19 1020 57 10000 0.87 24 12:41 30.01.2022
5609 Clear 16 1019 61 10000 1.3 334 10:38 30.01.2022
5610 Clear 16 1019 64 10000 1.79 320 09:57 30.01.2022
5611 Clear 15 1018 68 10000 1.8 312 09:21 30.01.2022
5612 Clear 15 1018 69 10000 1.69 307 07:57 30.01.2022
5613 Clear 16 1018 72 10000 2.02 18 02:43 30.01.2022
5614 Clear 16 1019 72 10000 2.19 12 01:52 30.01.2022
5615 Clear 17 1020 72 10000 2.79 302 23:45 29.01.2022
5616 Clear 18 1020 72 10000 3.09 293 22:37 29.01.2022
5617 Clear 18 1019 69 10000 5 302 21:27 29.01.2022
5618 Clear 18 1019 69 10000 5 302 20:48 29.01.2022
5619 Clear 19 1018 66 10000 5.58 314 19:47 29.01.2022
5620 Clear 19 1018 63 10000 5.66 321 19:25 29.01.2022
5621 Clouds 20 1019 68 10000 4.44 328 18:32 29.01.2022
5622 Clear 21 1018 68 10000 5.56 325 17:42 29.01.2022
5623 Clear 21 1018 65 10000 4.74 331 16:42 29.01.2022
5624 Clear 22 1019 59 10000 4.12 325 14:52 29.01.2022
5625 Clear 21 1019 59 10000 3.97 324 13:46 29.01.2022
5626 Clear 21 1020 59 10000 4.1 324 13:25 29.01.2022
5627 Clear 20 1020 59 10000 4.1 324 12:40 29.01.2022
5628 Clear 20 1020 61 10000 4.32 325 11:38 29.01.2022
5629 Clear 18 1019 66 10000 4.26 324 10:25 29.01.2022
5630 Clear 18 1017 68 10000 4.03 346 07:24 29.01.2022
5631 Clear 17 1018 66 10000 4.75 6 01:35 29.01.2022
5632 Clear 17 1019 66 10000 4.68 8 00:31 29.01.2022
5633 Clear 18 1019 64 10000 3.6 15 22:53 28.01.2022
5634 Clear 17 1018 64 10000 3.5 22 22:29 28.01.2022
5635 Clear 18 1018 64 10000 3.5 22 21:53 28.01.2022
5636 Clear 18 1018 64 10000 4.41 21 20:40 28.01.2022
5637 Clear 19 1017 65 10000 4.89 17 19:44 28.01.2022
5638 Clouds 20 1017 65 10000 4.68 13 18:48 28.01.2022
5639 Clouds 20 1016 64 10000 4.48 14 17:45 28.01.2022
5640 Clear 20 1016 63 10000 3.8 27 15:45 28.01.2022
5641 Clouds 19 1018 61 10000 2.85 58 14:18 28.01.2022
5642 Clouds 19 1018 62 10000 3.61 64 12:33 28.01.2022
5643 Clouds 18 1018 63 10000 4.34 73 11:38 28.01.2022
5644 Clouds 16 1017 67 10000 4.62 61 10:21 28.01.2022
5645 Clouds 15 1017 67 10000 4.62 61 09:44 28.01.2022
5646 Clouds 14 1017 72 10000 3.85 37 07:39 28.01.2022
5647 Clear 14 1016 74 10000 4.11 15 05:23 28.01.2022
5648 Clear 15 1017 74 10000 3.66 14 03:47 28.01.2022
5649 Clear 15 1017 73 10000 3.18 19 02:23 28.01.2022
5650 Clear 16 1017 73 10000 3.18 19 01:33 28.01.2022
5651 Clear 16 1018 73 10000 4.19 29 23:30 27.01.2022
5652 Clear 16 1018 72 10000 4.45 20 21:49 27.01.2022
5653 Clouds 16 1017 72 10000 4.46 14 21:29 27.01.2022
5654 Clouds 17 1017 72 10000 4.46 14 20:44 27.01.2022
5655 Clouds 18 1016 69 10000 4.49 23 19:21 27.01.2022
5656 Clouds 19 1016 69 10000 4.3 25 17:56 27.01.2022
5657 Clouds 19 1017 67 10000 4.09 20 15:18 27.01.2022
5658 Clouds 19 1018 67 10000 3.74 23 13:36 27.01.2022
5659 Clouds 18 1019 69 10000 3.72 19 12:40 27.01.2022
5660 Clouds 16 1019 76 10000 3.84 15 10:23 27.01.2022
5661 Clouds 15 1018 77 10000 3.71 15 08:56 27.01.2022
5662 Clouds 15 1018 77 10000 3.71 15 08:31 27.01.2022
5663 Clouds 16 1018 76 10000 3.79 18 05:59 27.01.2022
5664 Clouds 16 1019 76 10000 4.78 21 02:36 27.01.2022
5665 Clouds 17 1020 73 10000 5.17 16 23:32 26.01.2022
5666 Clouds 17 1020 74 10000 5.8 8 21:57 26.01.2022
5667 Clouds 17 1020 74 10000 5.8 8 21:33 26.01.2022
5668 Clouds 18 1020 73 10000 6.41 3 20:36 26.01.2022
5669 Clouds 18 1019 72 10000 6.5 359 19:55 26.01.2022
5670 Clouds 18 1019 72 10000 6.47 360 19:20 26.01.2022
5671 Clouds 19 1019 72 10000 6.5 360 18:40 26.01.2022
5672 Clouds 19 1019 73 10000 6.25 5 17:49 26.01.2022
5673 Clouds 19 1019 73 10000 6.25 9 17:21 26.01.2022
5674 Clouds 20 1019 73 10000 6.26 8 16:31 26.01.2022
5675 Clouds 20 1019 72 10000 6.28 11 15:47 26.01.2022
5676 Clouds 20 1021 73 10000 6.37 11 13:58 26.01.2022
5677 Clouds 18 1021 74 10000 7.29 9 11:48 26.01.2022
5678 Clouds 18 1021 76 10000 7.48 3 10:20 26.01.2022
5679 Clouds 17 1021 76 10000 7.48 3 09:43 26.01.2022
5680 Clouds 16 1020 76 10000 7.52 6 07:37 26.01.2022
5681 Clouds 16 1022 74 10000 7.35 342 01:53 26.01.2022
5682 Clouds 17 1023 65 10000 8.47 345 23:54 25.01.2022
5683 Clouds 17 1023 67 10000 8.6 348 22:50 25.01.2022
5684 Clouds 17 1023 66 10000 7.93 346 22:21 25.01.2022
5685 Clouds 17 1023 66 10000 7.93 346 21:41 25.01.2022
5686 Clouds 18 1023 65 10000 7.98 342 20:46 25.01.2022
5687 Clear 18 1023 63 10000 7.9 342 20:22 25.01.2022
5688 Clear 18 1023 63 10000 7.9 342 19:44 25.01.2022
5689 Clouds 19 1022 61 10000 7.93 352 18:22 25.01.2022
5690 Clouds 20 1022 61 10000 7.93 352 17:42 25.01.2022
5691 Clouds 20 1022 61 10000 8.28 355 16:35 25.01.2022
5692 Clouds 19 1022 65 10000 8.21 358 15:44 25.01.2022
5693 Clouds 19 1023 68 10000 7.85 3 15:26 25.01.2022
5694 Clouds 19 1023 68 10000 7.85 3 14:57 25.01.2022
5695 Clouds 19 1023 68 10000 7.85 3 14:57 25.01.2022
5696 Clouds 20 1024 71 10000 6.96 9 13:18 25.01.2022
5697 Clouds 17 1024 76 10000 7.65 10 10:00 25.01.2022
5698 Clouds 17 1024 78 10000 7.27 6 08:33 25.01.2022
5699 Clouds 17 1023 82 10000 7.09 3 07:28 25.01.2022
5700 Clouds 17 1023 83 10000 6.23 6 06:22 25.01.2022
5701 Clouds 18 1024 87 10000 4.28 3 01:36 25.01.2022
5702 Clouds 18 1024 84 10000 3.12 342 23:36 24.01.2022
5703 Clouds 18 1024 84 10000 3.24 346 23:18 24.01.2022
5704 Clouds 19 1024 84 10000 3.24 346 22:59 24.01.2022
5705 Clouds 19 1024 84 10000 3.24 346 22:41 24.01.2022
5706 Clouds 19 1024 84 10000 3.84 348 21:45 24.01.2022
5707 Clouds 19 1023 86 10000 3.49 346 21:27 24.01.2022
5708 Clouds 20 1023 84 10000 3.13 351 20:29 24.01.2022
5709 Clouds 20 1023 84 10000 3.13 351 19:39 24.01.2022
5710 Clouds 20 1023 84 10000 3.13 351 19:39 24.01.2022
5711 Clouds 20 1022 81 10000 2.9 358 19:19 24.01.2022
5712 Clouds 21 1022 77 10000 2.26 13 17:44 24.01.2022
5713 Clouds 20 1022 77 10000 2.49 31 17:23 24.01.2022
5714 Clouds 21 1022 77 10000 2.49 31 16:32 24.01.2022
5715 Clouds 21 1022 75 10000 2.56 33 15:52 24.01.2022
5716 Clouds 21 1023 72 10000 2.87 46 14:27 24.01.2022
5717 Clouds 20 1024 71 10000 2.14 72 12:36 24.01.2022
5718 Clouds 20 1023 72 10000 1.96 77 11:53 24.01.2022
5719 Clouds 18 1023 74 10000 1.85 32 10:24 24.01.2022
5720 Clouds 17 1023 74 10000 1.85 32 09:46 24.01.2022
5721 Clouds 17 1022 74 10000 1.97 20 08:19 24.01.2022
5722 Clouds 17 1022 73 10000 1.84 14 02:33 24.01.2022
5723 Clouds 17 1022 74 10000 0.93 16 01:28 24.01.2022
5724 Clouds 17 1022 70 10000 1.19 65 00:34 24.01.2022
5725 Clouds 18 1022 71 10000 1.34 7 23:47 23.01.2022
5726 Clouds 18 1022 71 10000 1.34 7 23:47 23.01.2022
5727 Clouds 18 1022 72 10000 1.78 326 22:21 23.01.2022
5728 Clouds 18 1022 72 10000 1.78 326 21:42 23.01.2022
5729 Clouds 19 1022 71 10000 1.71 360 21:24 23.01.2022
5730 Clouds 19 1021 71 10000 1.09 352 20:29 23.01.2022
5731 Clouds 19 1020 71 10000 2.06 101 19:21 23.01.2022
5732 Clouds 20 1020 70 10000 1.53 102 18:44 23.01.2022
5733 Clouds 20 1020 68 10000 2.54 102 17:27 23.01.2022
5734 Clouds 20 1020 68 10000 2.35 99 16:27 23.01.2022
5735 Clouds 20 1020 67 10000 1.61 79 14:54 23.01.2022
5736 Clouds 20 1021 68 10000 2.06 74 14:19 23.01.2022
5737 Clouds 20 1022 68 10000 1.83 60 12:47 23.01.2022
5738 Clouds 20 1022 67 10000 0.64 111 12:21 23.01.2022
5739 Clouds 20 1022 69 10000 0.85 132 11:27 23.01.2022
5740 Clouds 18 1022 69 10000 0.85 132 10:59 23.01.2022
5741 Clouds 16 1021 71 10000 1.22 139 10:25 23.01.2022
5742 Clouds 15 1021 71 10000 1.22 139 09:37 23.01.2022
5743 Clouds 15 1020 75 10000 1.19 164 08:51 23.01.2022
5744 Clouds 15 1019 79 10000 0.43 190 04:41 23.01.2022
5745 Clouds 16 1019 82 10000 1.2 270 01:43 23.01.2022
5746 Clouds 17 1019 82 10000 0.7 346 00:56 23.01.2022
5747 Clouds 18 1019 81 10000 0.93 347 00:22 23.01.2022
5748 Clouds 18 1019 82 10000 0.82 340 23:19 22.01.2022
5749 Clouds 18 1019 82 10000 0.82 340 22:34 22.01.2022
5750 Clouds 18 1019 82 10000 0.82 340 22:34 22.01.2022
5751 Clouds 19 1018 81 10000 0.68 328 21:18 22.01.2022
5752 Clouds 20 1018 79 10000 0.55 299 19:49 22.01.2022
5753 Clouds 21 1017 75 10000 0.7 308 18:45 22.01.2022
5754 Clouds 22 1017 74 10000 0.37 77 17:56 22.01.2022
5755 Clouds 22 1017 74 10000 0.37 77 17:35 22.01.2022
5756 Clouds 21 1016 73 10000 0.51 42 16:55 22.01.2022
5757 Clouds 22 1016 73 10000 0.49 57 15:49 22.01.2022
5758 Clouds 22 1017 73 10000 1.18 59 14:57 22.01.2022
5759 Clouds 22 1017 72 10000 1.2 57 13:36 22.01.2022
5760 Clouds 21 1018 71 10000 1.06 51 12:48 22.01.2022
5761 Clear 20 1017 70 10000 0.79 99 12:24 22.01.2022
5762 Clear 19 1017 72 10000 0.3 76 10:55 22.01.2022
5763 Clear 18 1016 74 10000 0.45 311 10:28 22.01.2022
5764 Clear 16 1016 74 10000 0.45 311 09:57 22.01.2022
5765 Clear 16 1015 77 10000 0.63 307 08:51 22.01.2022
5766 Clear 16 1014 77 10000 0.88 295 07:29 22.01.2022
5767 Clear 17 1014 77 10000 0.54 167 04:52 22.01.2022
5768 Clear 17 1015 76 10000 1.13 172 01:34 22.01.2022
5769 Clear 18 1015 77 10000 1.03 124 23:35 21.01.2022
5770 Clear 19 1015 76 10000 1.56 84 22:20 21.01.2022
5771 Clear 19 1013 76 10000 1.65 41 20:20 21.01.2022
5772 Clouds 21 1013 73 10000 1.62 333 18:36 21.01.2022
5773 Clouds 21 1012 69 10000 0.73 257 17:25 21.01.2022
5774 Clouds 21 1013 68 10000 1.48 171 15:28 21.01.2022
5775 Clouds 20 1015 66 10000 1.76 133 13:28 21.01.2022
5776 Clouds 20 1015 68 10000 1.15 131 12:37 21.01.2022
5777 Clouds 19 1014 66 10000 1.02 138 11:27 21.01.2022
5778 Clouds 17 1014 65 10000 0.74 135 10:18 21.01.2022
5779 Clouds 16 1013 63 10000 0.5 199 08:23 21.01.2022
5780 Clouds 16 1013 57 10000 1.59 260 04:49 21.01.2022
5781 Clouds 16 1013 57 10000 1.59 260 04:49 21.01.2022
5782 Clouds 18 1015 51 10000 1.63 213 23:31 20.01.2022
5783 Clouds 18 1015 51 10000 2.98 169 22:21 20.01.2022
5784 Clouds 18 1015 51 10000 2.98 169 21:42 20.01.2022
5785 Clouds 19 1015 51 10000 3.6 158 20:43 20.01.2022
5786 Clouds 19 1014 51 10000 5.56 153 19:19 20.01.2022
5787 Clouds 20 1014 52 10000 4.72 159 18:44 20.01.2022
5788 Clear 21 1014 50 10000 6.93 149 16:58 20.01.2022
5789 Clear 21 1014 50 10000 7.41 148 15:41 20.01.2022
5790 Clear 21 1015 50 10000 7.84 148 14:41 20.01.2022
5791 Clear 21 1016 50 10000 8.37 149 13:41 20.01.2022
5792 Clouds 21 1018 50 10000 7.7 153 12:34 20.01.2022
5793 Clouds 20 1018 51 10000 7.91 154 11:50 20.01.2022
5794 Clouds 19 1018 52 10000 7.75 152 10:39 20.01.2022
5795 Clouds 18 1017 55 10000 7.05 153 09:36 20.01.2022
5796 Clouds 17 1017 59 10000 7.27 155 07:50 20.01.2022
5797 Clouds 20 1019 57 10000 5.78 137 00:44 20.01.2022
5798 Clouds 19 1019 54 10000 4.57 132 22:59 19.01.2022
5799 Clouds 20 1019 52 10000 4.54 134 22:21 19.01.2022
5800 Clouds 20 1019 51 10000 4.34 140 21:23 19.01.2022
5801 Clouds 20 1019 51 10000 4.34 140 20:46 19.01.2022
5802 Clouds 19 1019 51 10000 4.72 143 19:42 19.01.2022
5803 Clouds 18 1018 49 10000 7 139 18:18 19.01.2022
5804 Clouds 19 1018 49 10000 7 139 17:44 19.01.2022
5805 Clouds 19 1018 48 10000 7.48 139 16:46 19.01.2022
5806 Clouds 20 1019 48 10000 7.94 144 14:42 19.01.2022
5807 Clouds 19 1022 51 10000 7.51 147 12:42 19.01.2022
5808 Clouds 19 1022 55 10000 8 148 11:39 19.01.2022
5809 Clouds 18 1021 57 10000 6.94 149 10:20 19.01.2022
5810 Clouds 17 1021 57 10000 6.94 149 09:34 19.01.2022
5811 Clear 17 1019 55 10000 5.54 156 06:35 19.01.2022
5812 Clear 18 1020 62 10000 4.16 152 02:38 19.01.2022
5813 Clear 17 1022 55 10000 4.27 142 23:19 18.01.2022
5814 Clear 17 1022 56 10000 4.36 143 22:19 18.01.2022
5815 Clear 17 1021 58 10000 4.71 144 20:55 18.01.2022
5816 Clear 18 1021 62 10000 5.3 145 19:54 18.01.2022
5817 Clear 18 1020 65 10000 5.29 155 19:36 18.01.2022
5818 Clear 18 1020 65 10000 5.99 153 18:38 18.01.2022
5819 Clear 18 1020 64 10000 6.38 154 17:58 18.01.2022
5820 Clear 18 1020 65 10000 6.64 155 16:40 18.01.2022
5821 Clear 18 1020 65 10000 6.88 156 15:40 18.01.2022
5822 Clear 18 1020 67 10000 7.21 155 15:21 18.01.2022
5823 Clear 18 1020 67 10000 7.21 155 15:21 18.01.2022
5824 Clouds 17 1022 74 10000 7.41 153 12:30 18.01.2022
5825 Clouds 16 1022 77 10000 7.26 158 10:47 18.01.2022
5826 Clouds 16 1021 81 10000 6.52 165 08:49 18.01.2022
5827 Clouds 16 1021 83 10000 6.27 163 07:49 18.01.2022
5828 Clouds 16 1022 86 10000 6.25 151 02:33 18.01.2022
5829 Clouds 16 1022 86 10000 6.25 151 02:33 18.01.2022
5830 Clouds 17 1023 83 10000 6.35 142 23:38 17.01.2022
5831 Clouds 17 1022 77 10000 6 146 22:26 17.01.2022
5832 Clouds 17 1022 77 10000 6 146 21:33 17.01.2022
5833 Clouds 17 1022 78 10000 6.38 151 19:57 17.01.2022
5834 Clouds 18 1021 69 10000 7.75 144 18:29 17.01.2022
5835 Clouds 17 1021 70 10000 8.04 147 17:25 17.01.2022
5836 Clouds 17 1021 70 10000 8.04 147 16:35 17.01.2022
5837 Clouds 17 1021 74 10000 8.59 150 15:18 17.01.2022
5838 Clouds 17 1021 74 10000 8.59 150 14:43 17.01.2022
5839 Clouds 17 1023 87 10000 8.72 148 13:20 17.01.2022
5840 Clouds 17 1023 87 10000 8.72 148 12:55 17.01.2022
5841 Clouds 17 1024 89 10000 9.4 145 11:48 17.01.2022
5842 Clouds 17 1022 92 10000 8 145 10:21 17.01.2022
5843 Clouds 17 1022 92 10000 8 145 09:34 17.01.2022
5844 Clouds 17 1021 76 10000 5.15 203 07:23 17.01.2022
5845 Clouds 20 1021 69 10000 7.07 179 02:55 17.01.2022
5846 Clouds 20 1021 53 10000 6.12 174 00:55 17.01.2022
5847 Clouds 21 1021 48 10000 5.3 150 22:18 16.01.2022
5848 Clouds 19 1020 47 10000 5.61 149 20:34 16.01.2022
5849 Clouds 19 1019 45 10000 6.32 141 18:51 16.01.2022
5850 Clouds 19 1019 45 10000 7.43 141 17:59 16.01.2022
5851 Clouds 20 1019 47 10000 8.32 140 16:59 16.01.2022
5852 Clouds 19 1019 49 10000 8.95 141 16:29 16.01.2022
5853 Clouds 20 1020 49 10000 9.34 142 14:31 16.01.2022
5854 Clouds 20 1020 49 10000 9.34 142 14:30 16.01.2022
5855 Clouds 20 1021 49 10000 9.81 143 13:33 16.01.2022
5856 Clear 19 1021 50 10000 9.63 143 12:26 16.01.2022
5857 Clear 19 1021 50 10000 9.63 143 11:38 16.01.2022
5858 Clear 19 1020 50 10000 9.24 145 10:43 16.01.2022
5859 Clear 16 1020 53 10000 8.8 149 09:58 16.01.2022
5860 Clear 16 1020 53 10000 8.8 149 09:38 16.01.2022
5861 Clear 16 1020 55 10000 8.75 150 09:20 16.01.2022
5862 Clear 16 1019 53 10000 8.38 150 07:21 16.01.2022
5863 Clear 19 1019 59 10000 7.28 135 00:36 16.01.2022
5864 Clear 19 1020 51 10000 5.3 128 22:55 15.01.2022
5865 Clear 20 1020 46 10000 4.96 137 21:22 15.01.2022
5866 Clear 20 1020 46 10000 4.96 137 20:45 15.01.2022
5867 Clear 20 1019 45 10000 5.94 138 20:22 15.01.2022
5868 Clear 19 1019 43 10000 7.21 136 19:27 15.01.2022
5869 Clear 20 1018 45 10000 7.98 134 18:23 15.01.2022
5870 Clear 20 1019 48 10000 9.11 135 16:49 15.01.2022
5871 Clear 20 1019 48 10000 9.11 135 16:49 15.01.2022
5872 Clear 20 1019 50 10000 9.57 133 14:38 15.01.2022
5873 Clouds 20 1021 49 10000 9.2 137 12:52 15.01.2022
5874 Clouds 20 1022 51 10000 9.17 139 11:32 15.01.2022
5875 Clouds 17 1021 55 10000 7.92 145 09:46 15.01.2022
5876 Clouds 18 1020 61 10000 7.28 146 04:46 15.01.2022
5877 Clear 20 1021 59 10000 5.59 122 23:32 14.01.2022
5878 Clear 21 1021 51 10000 3.18 131 21:18 14.01.2022
5879 Clear 21 1020 51 10000 3.69 137 20:25 14.01.2022
5880 Clear 22 1020 51 10000 3.69 137 19:50 14.01.2022
5881 Clear 22 1019 47 10000 4.78 133 18:41 14.01.2022
5882 Clear 22 1019 46 10000 5.91 137 17:36 14.01.2022
5883 Clear 21 1019 48 10000 6.95 140 16:42 14.01.2022
5884 Clear 21 1019 50 10000 7.46 138 15:32 14.01.2022
5885 Clear 22 1020 50 10000 7.31 139 14:26 14.01.2022
5886 Clouds 21 1021 51 10000 7.13 139 12:58 14.01.2022
5887 Clouds 21 1021 50 10000 6.56 142 11:52 14.01.2022
5888 Clouds 19 1020 55 10000 6.28 144 10:39 14.01.2022
5889 Clouds 16 1019 56 10000 4.32 130 08:53 14.01.2022
5890 Clouds 18 1018 56 10000 2.44 113 07:30 14.01.2022
5891 Clear 16 1019 63 10000 2.92 53 02:27 14.01.2022
5892 Clear 17 1020 59 10000 2.01 57 00:22 14.01.2022
5893 Clear 17 1020 61 10000 1.94 92 21:47 13.01.2022
5894 Clear 18 1020 64 10000 2.49 99 21:29 13.01.2022
5895 Clear 20 1019 66 10000 2.86 104 19:47 13.01.2022
5896 Clear 20 1019 63 10000 3.43 103 19:29 13.01.2022
5897 Clear 20 1019 63 10000 3.41 101 18:37 13.01.2022
5898 Clear 21 1018 61 10000 3.97 98 16:53 13.01.2022
5899 Clear 20 1019 60 10000 4.01 94 15:39 13.01.2022
5900 Clear 20 1019 60 10000 3.84 92 15:20 13.01.2022
5901 Clear 20 1021 61 10000 3.2 93 13:29 13.01.2022
5902 Clear 18 1020 63 10000 2.81 116 10:49 13.01.2022
5903 Clear 15 1019 67 10000 2.09 121 09:23 13.01.2022
5904 Clear 16 1019 68 10000 1.85 115 08:29 13.01.2022
5905 Clear 15 1019 68 10000 1.85 115 07:58 13.01.2022
5906 Clear 15 1018 69 10000 2.16 108 07:18 13.01.2022
5907 Clear 16 1019 69 10000 1.92 92 05:20 13.01.2022
5908 Clear 16 1019 69 10000 1.72 99 03:34 13.01.2022
5909 Clear 16 1019 71 10000 1.64 115 01:38 13.01.2022
5910 Clear 17 1020 74 10000 2.56 98 23:53 12.01.2022
5911 Clear 17 1020 74 10000 2.56 98 23:34 12.01.2022
5912 Clear 17 1020 75 10000 2.42 84 22:22 12.01.2022
5913 Clear 17 1020 75 10000 2.42 84 21:43 12.01.2022
5914 Clouds 18 1019 74 10000 2.48 91 21:18 12.01.2022
5915 Clouds 18 1019 74 10000 2.48 91 20:44 12.01.2022
5916 Clear 19 1019 70 10000 2.71 100 18:49 12.01.2022
5917 Clear 19 1018 69 10000 3.01 84 18:18 12.01.2022
5918 Clear 19 1018 68 10000 3.45 89 16:52 12.01.2022
5919 Clear 20 1019 66 10000 3.52 99 14:50 12.01.2022
5920 Clear 20 1020 66 10000 3.45 109 14:19 12.01.2022
5921 Clear 19 1021 66 10000 3.66 110 12:57 12.01.2022
5922 Clear 16 1020 72 10000 2.89 105 09:48 12.01.2022
5923 Clear 16 1019 74 10000 3.32 93 07:57 12.01.2022
5924 Clear 16 1019 74 10000 3.32 93 07:33 12.01.2022
5925 Clear 16 1019 74 10000 3.32 93 07:33 12.01.2022
5926 Clear 16 1020 66 10000 3 82 02:20 12.01.2022
5927 Clear 18 1020 56 10000 2.81 83 23:26 11.01.2022
5928 Clear 18 1020 56 10000 3.07 81 22:26 11.01.2022
5929 Clear 18 1020 56 10000 3.07 81 21:58 11.01.2022
5930 Clear 19 1020 54 10000 3.27 80 20:39 11.01.2022
5931 Clear 20 1019 52 10000 3.32 83 19:31 11.01.2022
5932 Clear 21 1018 46 10000 3.33 86 17:53 11.01.2022
5933 Clear 21 1017 46 10000 3.55 84 16:40 11.01.2022
5934 Clear 21 1018 45 10000 3.64 82 16:18 11.01.2022
5935 Clear 21 1018 45 10000 3.64 82 16:18 11.01.2022
5936 Clear 21 1018 44 10000 3.48 82 14:50 11.01.2022
5937 Clear 21 1018 44 10000 3.48 82 14:32 11.01.2022
5938 Clear 21 1019 44 10000 3.21 85 13:48 11.01.2022
5939 Clear 22 1020 44 10000 2.94 88 13:25 11.01.2022
5940 Clear 21 1020 45 10000 3.19 83 12:34 11.01.2022
5941 Clouds 18 1019 48 10000 2.69 87 10:32 11.01.2022
5942 Clouds 17 1018 53 10000 2.81 62 07:55 11.01.2022
5943 Clouds 16 1018 52 10000 3.99 57 03:51 11.01.2022
5944 Clouds 18 1019 43 10000 1.97 67 00:27 11.01.2022
5945 Clouds 17 1019 43 10000 1.97 67 23:39 10.01.2022
5946 Clouds 18 1019 47 10000 1.87 73 22:39 10.01.2022
5947 Clouds 18 1019 49 10000 1.99 82 22:18 10.01.2022
5948 Clouds 18 1019 49 10000 1.99 82 21:33 10.01.2022
5949 Clouds 18 1019 50 10000 2.43 89 20:59 10.01.2022
5950 Clouds 18 1019 50 10000 2.43 89 20:41 10.01.2022
5951 Clouds 19 1019 50 10000 2.5 93 20:19 10.01.2022
5952 Clouds 19 1019 50 10000 2.5 93 19:38 10.01.2022
5953 Clouds 19 1018 48 10000 4.12 113 19:19 10.01.2022
5954 Clouds 19 1018 50 10000 2.46 101 19:19 10.01.2022
5955 Clouds 20 1018 48 10000 4.12 113 18:46 10.01.2022
5956 Clouds 19 1018 47 10000 4.6 112 16:48 10.01.2022
5957 Clouds 20 1018 46 10000 4.74 112 16:26 10.01.2022
5958 Clouds 20 1019 46 10000 5.04 114 14:43 10.01.2022
5959 Clouds 20 1021 48 10000 4.11 122 13:22 10.01.2022
5960 Clouds 20 1022 52 10000 4.9 128 11:56 10.01.2022
5961 Clouds 19 1021 57 10000 5.32 140 10:49 10.01.2022
5962 Clouds 18 1021 74 10000 5.11 156 09:37 10.01.2022
5963 Clouds 19 1019 59 10000 5.32 127 05:52 10.01.2022
5964 Clouds 18 1021 50 10000 4.7 100 02:32 10.01.2022
5965 Clouds 18 1022 46 10000 3.53 104 01:21 10.01.2022
5966 Clouds 18 1023 43 10000 4.09 118 00:21 10.01.2022
5967 Clouds 19 1023 41 10000 3.81 118 22:47 09.01.2022
5968 Clouds 20 1023 39 10000 3.66 118 22:21 09.01.2022
5969 Clouds 20 1023 39 10000 3.66 118 21:41 09.01.2022
5970 Clouds 20 1023 39 10000 3.23 127 21:22 09.01.2022
5971 Clouds 20 1023 39 10000 3.23 127 20:47 09.01.2022
5972 Clouds 20 1022 42 10000 3.11 127 20:28 09.01.2022
5973 Clouds 19 1022 42 10000 3.11 127 19:41 09.01.2022
5974 Clouds 19 1022 44 10000 4.35 134 19:21 09.01.2022
5975 Clouds 20 1022 44 10000 4.35 134 18:41 09.01.2022
5976 Clouds 20 1021 46 10000 5.66 135 18:23 09.01.2022
5977 Clouds 21 1021 46 10000 5.66 135 17:30 09.01.2022
5978 Clouds 21 1021 46 10000 7.07 123 16:50 09.01.2022
5979 Clouds 21 1021 46 10000 7.73 128 15:51 09.01.2022
5980 Clouds 21 1021 46 10000 7.73 128 15:32 09.01.2022
5981 Clouds 21 1022 45 10000 7.85 135 14:39 09.01.2022
5982 Clouds 21 1023 46 10000 7.84 130 13:49 09.01.2022
5983 Clouds 21 1024 50 10000 7.45 134 12:19 09.01.2022
5984 Clouds 21 1024 50 10000 7.45 134 11:38 09.01.2022
5985 Clouds 20 1023 56 10000 6.07 140 09:55 09.01.2022
5986 Clouds 20 1023 58 10000 5.88 140 09:24 09.01.2022
5987 Clouds 18 1022 58 10000 6.14 141 07:54 09.01.2022
5988 Clouds 18 1022 57 10000 3.02 109 01:30 09.01.2022
5989 Clouds 18 1023 59 10000 2.31 99 00:53 09.01.2022
5990 Clouds 18 1023 59 10000 2.63 80 23:37 08.01.2022
5991 Clouds 18 1022 60 10000 3.03 85 22:56 08.01.2022
5992 Clouds 19 1022 61 10000 3.2 72 21:32 08.01.2022
5993 Clouds 18 1021 64 10000 3.58 60 20:44 08.01.2022
5994 Clear 19 1021 67 10000 3.81 59 20:23 08.01.2022
5995 Clear 20 1021 67 10000 3.81 59 19:46 08.01.2022
5996 Clear 20 1021 67 10000 4.85 53 17:49 08.01.2022
5997 Clear 21 1021 67 10000 4.91 50 16:57 08.01.2022
5998 Clear 20 1021 69 10000 5 52 15:35 08.01.2022
5999 Clear 20 1021 70 10000 5.16 58 14:38 08.01.2022
6000 Clouds 20 1024 73 10000 5.51 67 12:36 08.01.2022
6001 Clouds 19 1023 76 10000 5.49 58 10:46 08.01.2022
6002 Clouds 19 1023 79 10000 5.89 58 10:24 08.01.2022
6003 Clouds 18 1023 79 10000 5.89 58 09:34 08.01.2022
6004 Clouds 18 1023 79 10000 5.89 58 09:34 08.01.2022
6005 Clouds 18 1022 79 10000 6.97 49 07:18 08.01.2022
6006 Clouds 18 1023 74 10000 7.51 41 01:52 08.01.2022
6007 Clouds 19 1023 74 10000 8.1 36 00:25 08.01.2022
6008 Clouds 19 1023 73 10000 8.13 34 22:39 07.01.2022
6009 Clouds 19 1022 73 10000 7.72 33 20:40 07.01.2022
6010 Clouds 19 1022 75 10000 7.82 32 19:39 07.01.2022
6011 Clouds 19 1021 75 10000 7.85 27 18:50 07.01.2022
6012 Clouds 19 1021 75 10000 7.85 27 18:30 07.01.2022
6013 Clouds 20 1021 77 10000 7.34 34 17:25 07.01.2022
6014 Clouds 19 1021 79 10000 7.81 35 16:22 07.01.2022
6015 Clouds 19 1023 78 10000 8.12 32 13:52 07.01.2022
6016 Clouds 19 1024 79 10000 8.3 32 13:18 07.01.2022
6017 Clouds 18 1024 80 10000 8.34 32 12:25 07.01.2022
6018 Clouds 18 1022 83 10000 8.22 24 06:47 07.01.2022
6019 Clouds 17 1023 82 10000 7.9 15 02:54 07.01.2022
6020 Clouds 18 1023 81 10000 8.4 17 01:52 07.01.2022
6021 Clouds 18 1024 81 10000 7.97 16 01:27 07.01.2022
6022 Clouds 18 1024 81 10000 7.97 16 00:55 07.01.2022
6023 Clouds 18 1024 79 10000 8.02 18 22:42 06.01.2022
6024 Clouds 18 1024 77 10000 8.29 14 21:22 06.01.2022
6025 Clouds 18 1023 76 10000 8.48 18 20:19 06.01.2022
6026 Clouds 19 1023 76 10000 8.48 18 19:40 06.01.2022
6027 Clouds 20 1023 75 10000 7.83 18 17:52 06.01.2022
6028 Clouds 20 1023 75 10000 7.83 18 17:31 06.01.2022
6029 Clouds 18 1023 76 10000 7.91 18 16:39 06.01.2022
6030 Clouds 19 1023 77 10000 7.62 18 15:45 06.01.2022
6031 Clouds 21 1023 76 10000 7.88 19 15:23 06.01.2022
6032 Clouds 20 1024 76 10000 7.9 21 14:20 06.01.2022
6033 Clouds 20 1024 76 10000 7.9 21 13:46 06.01.2022
6034 Clouds 20 1025 73 10000 7.95 24 12:40 06.01.2022
6035 Clouds 18 1025 73 10000 8.08 24 11:41 06.01.2022
6036 Clouds 18 1024 74 10000 8.49 25 11:20 06.01.2022
6037 Clouds 18 1024 74 10000 7.6 22 08:31 06.01.2022
6038 Clouds 18 1025 72 10000 7.52 28 00:39 06.01.2022
6039 Clouds 18 1025 70 10000 8.13 29 23:35 05.01.2022
6040 Clouds 18 1025 70 10000 8.13 29 23:35 05.01.2022
6041 Clouds 18 1025 68 10000 7.8 29 22:50 05.01.2022
6042 Clouds 18 1025 69 10000 7.72 29 22:29 05.01.2022
6043 Clouds 19 1025 69 10000 7.72 29 21:45 05.01.2022
6044 Clouds 19 1025 69 10000 6.99 28 20:45 05.01.2022
6045 Clouds 19 1024 66 10000 6.7 27 19:53 05.01.2022
6046 Clouds 20 1023 65 10000 7.22 33 18:27 05.01.2022
6047 Clouds 20 1023 65 10000 7.35 36 16:59 05.01.2022
6048 Clouds 20 1023 65 10000 7.19 37 16:22 05.01.2022
6049 Clouds 21 1023 65 10000 6.65 38 15:20 05.01.2022
6050 Clouds 21 1024 67 10000 7.03 37 13:38 05.01.2022
6051 Clouds 21 1025 68 10000 7.6 36 12:49 05.01.2022
6052 Clouds 18 1024 77 10000 6.19 42 08:57 05.01.2022
6053 Clouds 18 1024 76 10000 6.45 40 07:31 05.01.2022
6054 Clear 19 1024 66 10000 5.32 46 01:59 05.01.2022
6055 Clear 18 1025 67 10000 5.66 39 23:50 04.01.2022
6056 Clear 19 1025 68 10000 5.7 38 23:26 04.01.2022
6057 Clear 19 1024 71 10000 6.22 33 22:27 04.01.2022
6058 Clear 19 1024 73 10000 5.93 28 20:50 04.01.2022
6059 Clear 20 1023 66 10000 4.17 29 19:19 04.01.2022
6060 Clear 21 1022 57 10000 3.11 55 17:38 04.01.2022
6061 Clear 22 1022 54 10000 2.99 69 16:40 04.01.2022
6062 Clear 21 1022 53 10000 3.14 82 16:21 04.01.2022
6063 Clear 22 1023 53 10000 3.16 83 14:51 04.01.2022
6064 Clear 22 1023 53 10000 3.16 83 14:33 04.01.2022
6065 Clear 22 1025 55 10000 3.16 61 13:26 04.01.2022
6066 Clear 19 1023 60 10000 2.7 86 10:29 04.01.2022
6067 Clear 17 1023 64 10000 2.56 93 08:59 04.01.2022
6068 Clear 17 1023 66 10000 2.56 83 08:23 04.01.2022
6069 Clouds 20 1024 69 10000 3.3 67 01:19 04.01.2022
6070 Clouds 20 1024 67 10000 3.17 67 00:40 04.01.2022
6071 Clouds 19 1024 61 10000 2.79 52 22:41 03.01.2022
6072 Clouds 20 1024 57 10000 2.22 64 21:41 03.01.2022
6073 Clouds 20 1024 55 10000 2.24 89 20:51 03.01.2022
6074 Clouds 21 1023 54 10000 2.47 93 19:46 03.01.2022
6075 Clear 23 1023 52 10000 2.28 112 18:33 03.01.2022
6076 Clear 23 1023 51 10000 2.9 114 17:40 03.01.2022
6077 Clear 23 1023 52 10000 4.3 105 16:56 03.01.2022
6078 Clear 22 1024 53 10000 4.26 119 14:54 03.01.2022
6079 Clear 23 1025 54 10000 4.56 124 13:53 03.01.2022
6080 Clear 23 1025 54 10000 4.81 131 12:33 03.01.2022
6081 Clear 22 1025 56 10000 4.19 133 11:31 03.01.2022
6082 Clear 18 1025 57 10000 3.52 137 09:42 03.01.2022
6083 Clear 16 1024 59 10000 3.01 141 08:28 03.01.2022
6084 Clear 17 1024 62 10000 2.69 134 06:31 03.01.2022
6085 Clear 19 1026 57 10000 2.52 53 23:45 02.01.2022
6086 Clear 19 1026 55 10000 2.81 54 22:57 02.01.2022
6087 Clear 20 1026 55 10000 2.81 54 22:38 02.01.2022
6088 Clear 19 1026 48 10000 2.35 83 21:26 02.01.2022
6089 Clear 21 1026 48 10000 2.35 83 20:30 02.01.2022
6090 Clear 21 1025 50 10000 2.15 101 19:49 02.01.2022
6091 Clear 22 1025 50 10000 2.77 114 19:25 02.01.2022
6092 Clear 23 1025 52 10000 2.92 116 18:31 02.01.2022
6093 Clear 23 1024 50 10000 3.8 122 17:43 02.01.2022
6094 Clear 23 1025 49 10000 4.33 124 17:21 02.01.2022
6095 Clear 23 1025 49 10000 4.33 124 16:33 02.01.2022
6096 Clear 23 1025 48 10000 4.67 127 15:49 02.01.2022
6097 Clear 23 1025 48 10000 4.67 127 15:49 02.01.2022
6098 Clear 24 1026 49 10000 5.7 134 13:57 02.01.2022
6099 Clear 24 1026 49 10000 5.92 139 12:34 02.01.2022
6100 Clear 23 1027 49 10000 5.46 141 11:56 02.01.2022
6101 Clear 23 1026 49 10000 4.98 144 10:56 02.01.2022
6102 Clear 21 1026 51 10000 4.46 142 10:22 02.01.2022
6103 Clear 20 1025 52 10000 3.51 128 07:45 02.01.2022
6104 Clear 20 1024 47 10000 2.56 117 02:57 02.01.2022
6105 Clear 20 1025 46 10000 2.3 114 23:54 01.01.2022
6106 Clear 20 1025 46 10000 2.3 114 23:35 01.01.2022
6107 Clear 20 1025 46 10000 2.51 117 22:39 01.01.2022
6108 Clear 20 1025 47 10000 2.72 124 22:18 01.01.2022
6109 Clear 20 1025 47 10000 2.72 124 21:42 01.01.2022
6110 Clear 20 1024 49 10000 2.82 128 20:36 01.01.2022
6111 Clear 21 1024 52 10000 3.06 129 19:45 01.01.2022
6112 Clear 21 1023 53 10000 3.79 126 18:52 01.01.2022
6113 Clear 21 1023 52 10000 4.1 121 17:41 01.01.2022
6114 Clear 23 1022 51 10000 3.9 113 16:35 01.01.2022
6115 Clear 23 1022 51 10000 3.37 110 15:42 01.01.2022
6116 Clear 22 1023 51 10000 3.06 115 14:40 01.01.2022
6117 Clear 22 1023 51 10000 3.16 119 13:42 01.01.2022
6118 Clouds 23 1024 50 10000 3.22 141 12:25 01.01.2022
6119 Clouds 23 1024 49 10000 3.45 149 11:26 01.01.2022
6120 Clouds 23 1024 49 10000 3.45 149 10:59 01.01.2022
6121 Clouds 19 1023 49 10000 3.68 151 09:48 01.01.2022
6122 Clouds 19 1022 48 10000 3.67 146 08:45 01.01.2022
6123 Clouds 18 1022 47 10000 3.48 139 08:18 01.01.2022
6124 Clouds 18 1022 47 10000 3.48 139 07:39 01.01.2022
6125 Clouds 16 1021 46 10000 2.9 135 06:44 01.01.2022
6126 Clouds 19 1021 46 10000 2.25 141 05:24 01.01.2022
6127 Clouds 18 1021 46 10000 2.25 141 04:35 01.01.2022
6128 Clouds 18 1022 50 10000 1.61 166 00:23 01.01.2022
6129 Clear 19 1022 50 10000 2.27 162 22:30 31.12.2021
6130 Clear 19 1022 52 10000 2.67 158 21:47 31.12.2021
6131 Clear 21 1021 54 10000 3.33 154 19:48 31.12.2021
6132 Clear 21 1020 54 10000 3.83 150 19:28 31.12.2021
6133 Clear 22 1019 53 10000 3.35 157 18:18 31.12.2021
6134 Clear 22 1019 53 10000 3.35 157 17:37 31.12.2021
6135 Clear 23 1019 52 10000 3.75 159 16:56 31.12.2021
6136 Clear 22 1019 51 10000 4.78 158 16:18 31.12.2021
6137 Clear 23 1019 51 10000 4.78 158 15:50 31.12.2021
6138 Clear 23 1019 52 10000 4.97 157 15:27 31.12.2021
6139 Clear 24 1019 52 10000 4.97 157 14:41 31.12.2021
6140 Clear 26 1020 52 10000 4.79 156 13:55 31.12.2021
6141 Clear 24 1021 51 10000 4.81 161 12:53 31.12.2021
6142 Clear 27 1021 50 10000 4.65 167 12:26 31.12.2021
6143 Clear 25 1021 50 10000 4.65 167 11:42 31.12.2021
6144 Clear 22 1020 51 10000 4.36 172 10:56 31.12.2021
6145 Clear 20 1020 52 10000 4.16 173 10:28 31.12.2021
6146 Clear 19 1020 52 10000 4.16 173 09:35 31.12.2021
6147 Clouds 18 1019 54 10000 4.13 167 08:54 31.12.2021
6148 Clouds 19 1019 55 10000 4.15 163 07:59 31.12.2021
6149 Clouds 21 1019 50 10000 3.77 158 04:55 31.12.2021
6150 Clouds 20 1020 50 10000 2.52 154 23:18 30.12.2021
6151 Clouds 21 1020 50 10000 2.52 154 22:32 30.12.2021
6152 Clouds 21 1020 54 10000 2.13 159 21:39 30.12.2021
6153 Clear 21 1020 58 10000 1.66 174 21:19 30.12.2021
6154 Clear 23 1020 58 10000 1.66 174 20:40 30.12.2021
6155 Clear 22 1019 59 10000 1.75 176 19:56 30.12.2021
6156 Clear 23 1019 59 10000 1.75 176 19:31 30.12.2021
6157 Clear 23 1018 55 10000 2.66 167 18:28 30.12.2021
6158 Clouds 23 1018 54 10000 3.61 161 16:53 30.12.2021
6159 Clouds 24 1018 54 10000 4.23 160 15:54 30.12.2021
6160 Clouds 24 1018 55 10000 4.72 154 15:21 30.12.2021
6161 Clouds 23 1018 55 10000 4.72 154 14:36 30.12.2021
6162 Clear 24 1020 58 10000 3.2 152 13:26 30.12.2021
6163 Clear 28 1020 57 10000 2.27 173 11:58 30.12.2021
6164 Clear 22 1020 57 10000 2.54 177 10:40 30.12.2021
6165 Clear 19 1019 56 10000 3.45 177 09:49 30.12.2021
6166 Clear 17 1018 60 10000 4.01 148 06:59 30.12.2021
6167 Clear 17 1018 65 10000 2.98 131 05:27 30.12.2021
6168 Clear 18 1019 67 10000 2.3 119 03:41 30.12.2021
6169 Clear 16 1019 67 10000 1.52 100 02:32 30.12.2021
6170 Clear 17 1019 69 10000 0.32 119 23:39 29.12.2021
6171 Clear 18 1019 71 10000 0.81 134 22:55 29.12.2021
6172 Clear 18 1019 73 10000 1.42 135 22:18 29.12.2021
6173 Clear 19 1019 74 10000 1.66 139 20:59 29.12.2021
6174 Clear 19 1019 74 10000 1.66 139 20:30 29.12.2021
6175 Clear 19 1019 74 10000 1.66 139 20:30 29.12.2021
6176 Clear 19 1019 74 10000 1.66 139 20:30 29.12.2021
6177 Clear 19 1019 75 10000 2.03 133 19:38 29.12.2021
6178 Clear 20 1018 75 10000 2.35 124 18:43 29.12.2021
6179 Clear 20 1018 72 10000 2.68 127 17:51 29.12.2021
6180 Clear 20 1018 71 10000 3.11 129 17:27 29.12.2021
6181 Clear 20 1018 70 10000 3.29 132 16:22 29.12.2021
6182 Clear 21 1019 70 10000 3.26 132 15:26 29.12.2021
6183 Clear 20 1020 68 10000 3.06 132 13:42 29.12.2021
6184 Clear 20 1021 66 10000 3.17 136 12:35 29.12.2021
6185 Clear 19 1021 66 10000 2.7 149 11:25 29.12.2021
6186 Clear 17 1021 71 10000 2.76 149 09:38 29.12.2021
6187 Clear 17 1020 79 10000 2.62 127 07:47 29.12.2021
6188 Clear 18 1020 80 10000 2.37 105 06:37 29.12.2021
6189 Clear 18 1020 81 10000 2.25 85 05:57 29.12.2021
6190 Clear 18 1020 81 10000 2.25 85 05:30 29.12.2021
6191 Clear 18 1021 82 10000 2.83 58 01:45 29.12.2021
6192 Clear 19 1022 81 10000 2.51 52 00:00 29.12.2021
6193 Clear 19 1022 82 10000 2.65 52 23:18 28.12.2021
6194 Clear 18 1022 82 10000 2.83 47 22:26 28.12.2021
6195 Clear 19 1022 82 10000 2.83 47 21:57 28.12.2021
6196 Clear 19 1022 82 10000 2.83 47 21:35 28.12.2021
6197 Clear 19 1022 82 10000 2.67 46 20:33 28.12.2021
6198 Clear 20 1021 80 10000 3.03 69 18:59 28.12.2021
6199 Clear 20 1021 77 10000 3.08 75 18:29 28.12.2021
6200 Clear 21 1021 77 10000 3.08 75 17:48 28.12.2021
6201 Clouds 20 1021 76 10000 3.72 97 16:29 28.12.2021
6202 Clouds 21 1021 76 10000 3.72 97 15:45 28.12.2021
6203 Clouds 21 1021 77 10000 3.99 98 15:19 28.12.2021
6204 Clouds 21 1021 77 10000 3.99 98 14:45 28.12.2021
6205 Clear 20 1022 78 10000 4.09 94 14:20 28.12.2021
6206 Clear 20 1022 78 10000 4.09 94 13:38 28.12.2021
6207 Clear 20 1022 78 10000 4.09 94 13:38 28.12.2021
6208 Clouds 20 1023 79 10000 4.29 90 12:57 28.12.2021
6209 Clouds 20 1023 78 10000 4.21 93 12:38 28.12.2021
6210 Clouds 20 1023 83 10000 4.04 87 11:27 28.12.2021
6211 Clear 19 1022 86 10000 3.62 70 07:40 28.12.2021
6212 Clouds 19 1022 87 10000 3.69 63 06:40 28.12.2021
6213 Clouds 19 1023 88 10000 3.66 67 23:42 27.12.2021
6214 Clouds 20 1023 86 10000 3.34 58 22:53 27.12.2021
6215 Clouds 20 1023 84 10000 2.97 56 21:33 27.12.2021
6216 Clouds 20 1022 85 10000 2.74 53 20:46 27.12.2021
6217 Clouds 20 1022 84 10000 2.34 49 19:57 27.12.2021
6218 Clouds 20 1022 84 10000 2.34 49 19:39 27.12.2021
6219 Clouds 21 1021 82 10000 2.68 68 17:55 27.12.2021
6220 Clouds 21 1021 82 10000 2.68 68 17:55 27.12.2021
6221 Clouds 21 1021 82 10000 2.68 68 17:37 27.12.2021
6222 Clouds 21 1021 82 10000 3.29 70 16:36 27.12.2021
6223 Clouds 21 1021 82 10000 3.47 67 15:51 27.12.2021
6224 Clouds 21 1021 81 10000 3.26 63 14:30 27.12.2021
6225 Clouds 21 1022 81 10000 3 66 13:38 27.12.2021
6226 Clouds 19 1023 83 10000 3.21 71 11:41 27.12.2021
6227 Clouds 19 1022 86 10000 3.14 54 10:28 27.12.2021
6228 Clouds 19 1022 86 10000 3.14 54 09:38 27.12.2021
6229 Clouds 19 1021 87 10000 3.06 42 07:35 27.12.2021
6230 Clouds 19 1021 88 10000 3.09 32 06:38 27.12.2021
6231 Clouds 19 1021 84 10000 2.42 35 01:59 27.12.2021
6232 Clouds 19 1022 85 10000 2.72 19 23:52 26.12.2021
6233 Clouds 19 1022 85 10000 2.72 19 23:34 26.12.2021
6234 Clouds 19 1022 84 10000 2.56 8 21:53 26.12.2021
6235 Clouds 20 1022 86 10000 2.35 6 20:42 26.12.2021
6236 Clouds 20 1021 87 10000 2.29 7 19:31 26.12.2021
6237 Clear 21 1020 82 10000 2.63 17 18:23 26.12.2021
6238 Clear 22 1019 78 10000 2.21 16 15:56 26.12.2021
6239 Clear 22 1021 76 10000 2.64 10 13:52 26.12.2021
6240 Clear 23 1021 76 10000 2.64 10 13:32 26.12.2021
6241 Clouds 22 1022 75 10000 2.24 2 12:39 26.12.2021
6242 Clouds 22 1022 76 10000 2.74 0 11:58 26.12.2021
6243 Clouds 18 1021 76 10000 2.38 340 09:52 26.12.2021
6244 Clouds 17 1021 76 10000 2.6 335 09:18 26.12.2021
6245 Clouds 18 1021 76 10000 2.6 335 08:39 26.12.2021
6246 Clouds 17 1020 74 10000 2.17 338 07:25 26.12.2021
6247 Clouds 18 1021 74 10000 2.78 330 00:59 26.12.2021
6248 Clouds 18 1021 75 10000 2.84 332 23:51 25.12.2021
6249 Clouds 18 1021 75 10000 2.29 328 23:26 25.12.2021
6250 Clouds 18 1021 75 10000 2.94 339 22:23 25.12.2021
6251 Clouds 20 1020 74 10000 3.1 346 20:48 25.12.2021
6252 Clouds 21 1020 72 10000 3.28 336 19:22 25.12.2021
6253 Clouds 21 1020 72 10000 3.28 336 18:54 25.12.2021
6254 Clouds 22 1019 70 10000 2.97 342 17:28 25.12.2021
6255 Clouds 22 1019 68 10000 3.01 343 16:18 25.12.2021
6256 Clouds 22 1019 68 10000 3.27 342 14:38 25.12.2021
6257 Clouds 21 1021 69 10000 3.49 346 12:48 25.12.2021
6258 Clouds 21 1021 69 10000 4.05 338 11:37 25.12.2021
6259 Clouds 17 1020 77 10000 4.64 328 09:49 25.12.2021
6260 Clouds 16 1018 81 10000 4.14 329 07:54 25.12.2021
6261 Clouds 17 1018 81 10000 3 336 02:18 25.12.2021
6262 Clouds 18 1019 83 10000 3.41 335 00:33 25.12.2021
6263 Clouds 18 1019 82 10000 3.2 332 23:38 24.12.2021
6264 Clouds 20 1018 77 10000 1.76 344 19:39 24.12.2021
6265 Clouds 20 1017 74 10000 1.7 332 19:20 24.12.2021
6266 Clouds 21 1016 69 10000 1.41 71 16:50 24.12.2021
6267 Clouds 21 1017 68 10000 1.08 63 16:19 24.12.2021
6268 Clouds 21 1017 68 10000 1.08 63 15:45 24.12.2021
6269 Clouds 21 1017 68 10000 1.77 89 14:46 24.12.2021
6270 Clouds 21 1018 68 10000 1.67 80 14:22 24.12.2021
6271 Clouds 21 1018 68 10000 1.67 80 13:37 24.12.2021
6272 Clouds 21 1019 69 10000 1.4 72 12:48 24.12.2021
6273 Clouds 21 1019 69 10000 1.01 66 11:52 24.12.2021
6274 Clouds 20 1019 72 10000 0.93 68 11:26 24.12.2021
6275 Clouds 20 1019 72 10000 0.93 68 10:50 24.12.2021
6276 Clouds 18 1019 77 10000 1.45 53 10:18 24.12.2021
6277 Clear 16 1018 79 10000 2.23 8 08:24 24.12.2021
6278 Clear 16 1018 79 10000 2.23 8 07:48 24.12.2021
6279 Clear 16 1019 69 10000 1.7 323 02:52 24.12.2021
6280 Clouds 17 1019 74 10000 0.88 117 00:19 24.12.2021
6281 Clouds 18 1020 77 10000 1.75 118 23:22 23.12.2021
6282 Clouds 19 1020 77 10000 1.75 118 22:37 23.12.2021
6283 Clouds 19 1020 77 10000 1.75 118 22:37 23.12.2021
6284 Clouds 19 1020 78 10000 1.44 96 22:19 23.12.2021
6285 Clouds 19 1020 77 10000 1.27 74 20:59 23.12.2021
6286 Clouds 19 1019 76 10000 1.05 48 20:19 23.12.2021
6287 Clouds 21 1018 72 10000 1.58 123 18:37 23.12.2021
6288 Clouds 21 1018 70 10000 1.67 122 17:57 23.12.2021
6289 Clouds 22 1018 69 10000 1.78 125 16:47 23.12.2021
6290 Clouds 21 1018 68 10000 2.06 129 16:24 23.12.2021
6291 Clouds 21 1018 68 10000 2.06 129 15:31 23.12.2021
6292 Clouds 21 1019 68 10000 2.66 136 14:52 23.12.2021
6293 Clouds 20 1019 68 10000 2.66 136 14:31 23.12.2021
6294 Clouds 20 1021 69 10000 2.91 135 12:57 23.12.2021
6295 Clear 20 1022 74 10000 2.21 124 10:53 23.12.2021
6296 Clear 18 1021 77 10000 1.48 112 09:47 23.12.2021
6297 Clear 18 1020 79 10000 1.32 106 09:19 23.12.2021
6298 Clear 17 1020 81 10000 1.67 111 06:59 23.12.2021
6299 Clear 17 1020 81 10000 1.19 83 04:35 23.12.2021
6300 Clouds 18 1022 86 10000 1.59 32 23:26 22.12.2021
6301 Clouds 18 1022 86 10000 1.59 32 23:26 22.12.2021
6302 Clouds 18 1022 86 10000 1.59 32 22:47 22.12.2021
6303 Clouds 19 1022 83 10000 1.48 34 21:56 22.12.2021
6304 Clouds 20 1022 84 10000 1.4 37 21:29 22.12.2021
6305 Clouds 20 1022 84 10000 1.4 37 20:47 22.12.2021
6306 Clouds 20 1021 84 10000 1.44 32 20:26 22.12.2021
6307 Clouds 20 1021 82 10000 1.45 8 19:28 22.12.2021
6308 Clouds 21 1020 80 10000 1.81 15 17:50 22.12.2021
6309 Clouds 21 1020 79 10000 1.71 19 16:40 22.12.2021
6310 Clouds 21 1020 76 10000 0.97 51 15:40 22.12.2021
6311 Clouds 21 1021 74 10000 0.82 48 13:37 22.12.2021
6312 Clouds 21 1022 75 10000 1.11 47 12:41 22.12.2021
6313 Clear 19 1022 78 10000 1.4 22 10:36 22.12.2021
6314 Clear 18 1021 79 10000 0.99 10 09:39 22.12.2021
6315 Clear 17 1020 82 10000 1.41 314 07:30 22.12.2021
6316 Clouds 17 1019 81 10000 2.87 324 05:50 22.12.2021
6317 Clouds 18 1019 81 10000 2.45 310 05:26 22.12.2021
6318 Clouds 18 1019 81 10000 2.45 310 04:50 22.12.2021
6319 Clouds 18 1019 81 10000 2.46 298 04:26 22.12.2021
6320 Clouds 18 1019 81 10000 2.46 298 03:32 22.12.2021
6321 Clouds 18 1020 79 10000 0.91 266 00:50 22.12.2021
6322 Clear 19 1020 76 10000 0.08 22 23:25 21.12.2021
6323 Clear 19 1020 74 10000 0.55 66 22:28 21.12.2021
6324 Clear 19 1020 74 10000 0.55 66 21:44 21.12.2021
6325 Clouds 20 1019 73 10000 1.32 54 21:22 21.12.2021
6326 Clear 21 1018 71 10000 1.2 31 20:21 21.12.2021
6327 Clear 21 1018 71 10000 1.2 31 19:42 21.12.2021
6328 Clouds 23 1017 68 10000 1.58 11 18:46 21.12.2021
6329 Clouds 24 1017 64 10000 1.23 358 18:21 21.12.2021
6330 Clouds 24 1017 64 10000 1.23 358 17:41 21.12.2021
6331 Clouds 23 1017 62 10000 0.21 285 16:26 21.12.2021
6332 Clouds 23 1017 63 10000 0.41 68 15:24 21.12.2021
6333 Clouds 22 1018 63 10000 0.68 125 13:50 21.12.2021
6334 Clouds 23 1018 63 10000 0.68 125 13:30 21.12.2021
6335 Clouds 21 1019 66 10000 1.58 184 11:49 21.12.2021
6336 Clouds 19 1018 73 10000 2.95 240 10:24 21.12.2021
6337 Clouds 18 1017 74 10000 3.36 217 09:23 21.12.2021
6338 Clouds 18 1017 72 10000 3.47 224 07:58 21.12.2021
6339 Clouds 18 1016 69 10000 3.49 220 07:27 21.12.2021
6340 Clouds 18 1016 69 10000 3.49 220 06:50 21.12.2021
6341 Clouds 17 1016 67 10000 2.94 224 02:51 21.12.2021
6342 Clouds 19 1018 64 10000 1.96 203 23:59 20.12.2021
6343 Clouds 19 1018 65 10000 1.8 212 23:29 20.12.2021
6344 Clouds 19 1018 67 10000 1.88 227 22:28 20.12.2021
6345 Clouds 19 1018 67 10000 1.88 227 21:47 20.12.2021
6346 Clouds 19 1017 68 10000 1.83 238 21:23 20.12.2021
6347 Clouds 20 1017 68 10000 1.83 238 20:44 20.12.2021
6348 Clouds 20 1017 69 10000 2.08 217 19:53 20.12.2021
6349 Clouds 20 1017 69 10000 2.08 217 19:53 20.12.2021
6350 Clouds 21 1017 69 10000 2.08 217 19:31 20.12.2021
6351 Clouds 21 1016 68 10000 1.87 230 18:54 20.12.2021
6352 Clear 22 1016 69 10000 0.88 215 17:52 20.12.2021
6353 Clear 23 1016 68 10000 1.43 161 17:25 20.12.2021
6354 Clear 23 1016 68 10000 1.43 161 16:40 20.12.2021
6355 Clear 24 1016 67 10000 0.94 169 15:50 20.12.2021
6356 Clear 24 1017 66 10000 1.29 199 14:43 20.12.2021
6357 Clear 22 1018 70 10000 2.1 203 12:51 20.12.2021
6358 Clear 21 1018 75 10000 3.32 210 11:19 20.12.2021
6359 Clear 18 1018 78 10000 3.44 211 09:47 20.12.2021
6360 Clear 18 1017 80 10000 3.19 212 09:28 20.12.2021
6361 Clear 18 1017 80 10000 3.19 212 08:41 20.12.2021
6362 Clear 18 1016 79 10000 3.07 213 07:49 20.12.2021
6363 Clear 18 1016 81 10000 3.36 222 07:25 20.12.2021
6364 Clear 18 1016 82 10000 3.17 204 03:59 20.12.2021
6365 Clear 18 1018 83 10000 2.53 212 23:58 19.12.2021
6366 Clear 19 1018 83 10000 2.72 201 22:45 19.12.2021
6367 Clear 19 1017 83 10000 2.94 208 21:50 19.12.2021
6368 Clear 19 1017 82 10000 3.08 214 21:29 19.12.2021
6369 Clear 20 1017 82 10000 3.08 214 20:30 19.12.2021
6370 Clouds 20 1016 81 10000 3.14 220 19:46 19.12.2021
6371 Clear 21 1016 79 10000 2.36 211 18:58 19.12.2021
6372 Clear 21 1016 76 10000 2.04 209 18:29 19.12.2021
6373 Clear 22 1016 76 10000 2.04 209 17:51 19.12.2021
6374 Clear 22 1015 75 10000 2.07 204 17:18 19.12.2021
6375 Clear 22 1015 74 10000 2.24 194 16:25 19.12.2021
6376 Clear 22 1016 73 10000 1.41 206 15:28 19.12.2021
6377 Clear 22 1016 73 10000 1.41 206 14:57 19.12.2021
6378 Clear 22 1016 73 10000 1.41 206 14:36 19.12.2021
6379 Clear 21 1017 72 10000 1.55 177 13:22 19.12.2021
6380 Clear 22 1017 72 10000 1.55 177 12:33 19.12.2021
6381 Clear 21 1018 73 10000 2.03 155 11:42 19.12.2021
6382 Clear 20 1017 75 10000 1.52 159 10:53 19.12.2021
6383 Clear 18 1017 77 10000 1 240 10:23 19.12.2021
6384 Clear 18 1017 77 10000 1 240 10:23 19.12.2021
6385 Clouds 15 1016 78 10000 1.19 244 09:26 19.12.2021
6386 Clouds 17 1016 78 10000 1.24 211 07:50 19.12.2021
6387 Clear 16 1016 77 10000 0.57 204 04:44 19.12.2021
6388 Clear 17 1017 72 10000 3.64 171 00:55 19.12.2021
6389 Clear 18 1017 70 10000 3.18 183 23:52 18.12.2021
6390 Clear 18 1017 69 10000 2.62 192 22:31 18.12.2021
6391 Clear 19 1017 68 10000 2.77 192 21:54 18.12.2021
6392 Clear 18 1017 68 10000 2.77 192 21:34 18.12.2021
6393 Clear 19 1016 68 10000 2.09 214 20:44 18.12.2021
6394 Clear 19 1015 67 10000 1.15 256 19:51 18.12.2021
6395 Clear 20 1015 64 10000 1.22 262 19:19 18.12.2021
6396 Clear 20 1015 60 10000 0.96 278 18:19 18.12.2021
6397 Clear 21 1015 60 10000 0.96 278 17:47 18.12.2021
6398 Clear 21 1015 54 10000 0.97 265 16:25 18.12.2021
6399 Clear 21 1015 52 10000 1.81 268 15:26 18.12.2021
6400 Clear 21 1015 50 10000 1.54 294 14:22 18.12.2021
6401 Clear 20 1016 49 10000 1.44 302 12:39 18.12.2021
6402 Clear 19 1016 49 10000 2.21 260 10:52 18.12.2021
6403 Clear 15 1016 51 10000 2.35 274 09:33 18.12.2021
6404 Clear 16 1015 52 10000 2.59 283 08:42 18.12.2021
6405 Clear 15 1015 51 10000 2.74 280 08:18 18.12.2021
6406 Clear 17 1015 48 10000 1.01 140 01:48 18.12.2021
6407 Clear 16 1017 56 10000 1.74 107 00:27 18.12.2021
6408 Clear 16 1017 56 10000 1.74 107 23:37 17.12.2021
6409 Clear 17 1017 57 10000 1.66 84 21:55 17.12.2021
6410 Clear 18 1017 57 10000 1.64 86 20:51 17.12.2021
6411 Clear 19 1016 56 10000 1.52 84 20:28 17.12.2021
6412 Clear 19 1016 56 10000 1.87 31 18:58 17.12.2021
6413 Clear 20 1016 56 10000 1.87 31 18:38 17.12.2021
6414 Clear 20 1015 52 10000 2.17 35 17:26 17.12.2021
6415 Clear 20 1015 52 10000 2.17 35 16:44 17.12.2021
6416 Clear 20 1015 50 10000 2.28 33 16:19 17.12.2021
6417 Clear 21 1016 49 10000 2.24 34 15:19 17.12.2021
6418 Clear 21 1016 49 10000 2.24 34 14:34 17.12.2021
6419 Clear 20 1017 48 10000 2.16 31 12:45 17.12.2021
6420 Clear 19 1017 48 10000 1.31 19 11:22 17.12.2021
6421 Clear 16 1017 51 10000 1.1 7 09:55 17.12.2021
6422 Clear 16 1016 54 10000 1.25 18 08:58 17.12.2021
6423 Clear 16 1016 55 10000 1.17 42 08:20 17.12.2021
6424 Clear 14 1016 61 10000 0.62 75 05:25 17.12.2021
6425 Clear 15 1016 64 10000 0.73 129 02:52 17.12.2021
6426 Clouds 16 1016 77 10000 0.89 305 23:20 16.12.2021
6427 Clouds 17 1014 74 10000 0.89 270 22:23 16.12.2021
6428 Clouds 17 1014 74 10000 0.89 270 22:23 16.12.2021
6429 Clouds 17 1014 74 10000 0.89 270 21:47 16.12.2021
6430 Clouds 17 1016 63 10000 1.61 50 21:20 16.12.2021
6431 Clouds 18 1014 74 10000 0.89 270 20:27 16.12.2021
6432 Clouds 19 1014 74 10000 0.89 246 19:35 16.12.2021
6433 Clouds 19 1013 73 10000 0.89 232 18:37 16.12.2021
6434 Clouds 20 1015 64 10000 0.89 282 17:49 16.12.2021
6435 Clouds 20 1014 59 10000 2.62 32 17:19 16.12.2021
6436 Clear 21 1014 58 10000 2.65 25 16:20 16.12.2021
6437 Clear 21 1014 57 10000 2.56 23 14:50 16.12.2021
6438 Clear 20 1015 64 10000 0.89 282 12:48 16.12.2021
6439 Clear 19 1016 62 10000 2.19 6 11:19 16.12.2021
6440 Clear 19 1016 62 10000 2.19 6 10:48 16.12.2021
6441 Clear 16 1016 64 10000 2.15 11 09:59 16.12.2021
6442 Clear 16 1014 70 10000 2.14 20 07:21 16.12.2021
6443 Clear 15 1014 70 10000 1.68 14 06:19 16.12.2021
6444 Clouds 17 1015 70 10000 2.59 19 00:53 16.12.2021
6445 Clouds 16 1016 70 10000 2.72 15 23:21 15.12.2021
6446 Clouds 17 1015 70 10000 3.07 9 22:26 15.12.2021
6447 Clouds 17 1015 70 10000 3.07 9 21:49 15.12.2021
6448 Clouds 18 1015 69 10000 3.48 6 21:26 15.12.2021
6449 Clouds 18 1015 69 10000 3.89 359 19:55 15.12.2021
6450 Clouds 19 1014 69 10000 4.06 356 19:23 15.12.2021
6451 Clouds 19 1013 66 10000 4.25 1 18:26 15.12.2021
6452 Clouds 20 1013 66 10000 4.25 1 17:49 15.12.2021
6453 Clouds 20 1013 66 10000 4.57 1 17:27 15.12.2021
6454 Clouds 21 1013 66 10000 4.9 355 16:25 15.12.2021
6455 Clouds 19 1013 66 10000 4.9 355 15:42 15.12.2021
6456 Clouds 19 1014 66 10000 5.13 346 15:24 15.12.2021
6457 Clouds 19 1014 64 10000 4.7 340 13:58 15.12.2021
6458 Clouds 18 1015 67 10000 4.59 333 11:57 15.12.2021
6459 Clouds 18 1015 71 10000 5.1 329 10:23 15.12.2021
6460 Clouds 16 1014 74 10000 5.53 327 08:34 15.12.2021
6461 Clouds 16 1013 76 10000 5.39 323 05:59 15.12.2021
6462 Clouds 17 1015 77 10000 4.64 329 00:47 15.12.2021
6463 Clouds 17 1015 77 10000 4.56 333 23:41 14.12.2021
6464 Clouds 18 1016 75 10000 3.73 326 22:47 14.12.2021
6465 Clouds 18 1016 74 10000 3.21 326 21:48 14.12.2021
6466 Clouds 19 1015 70 10000 3.01 326 20:24 14.12.2021
6467 Clouds 20 1015 70 10000 3.01 326 19:39 14.12.2021
6468 Clouds 21 1015 65 10000 3.4 353 18:42 14.12.2021
6469 Clouds 21 1014 59 10000 2.02 358 17:58 14.12.2021
6470 Clouds 21 1014 56 10000 0.96 28 16:58 14.12.2021
6471 Clouds 21 1014 56 10000 0.96 28 16:35 14.12.2021
6472 Clouds 22 1015 55 10000 1.24 18 14:39 14.12.2021
6473 Clouds 22 1017 55 10000 1.37 4 13:24 14.12.2021
6474 Clouds 21 1018 55 10000 1.45 350 11:56 14.12.2021
6475 Clouds 21 1018 56 10000 1.76 332 11:22 14.12.2021
6476 Clouds 18 1017 58 10000 1.84 323 09:55 14.12.2021
6477 Clouds 17 1017 59 10000 2.13 326 09:22 14.12.2021
6478 Clouds 17 1017 58 10000 1.22 338 08:23 14.12.2021
6479 Clouds 17 1017 58 10000 1.22 338 07:42 14.12.2021
6480 Clouds 18 1018 57 10000 0.7 33 01:46 14.12.2021
6481 Clouds 18 1019 72 10000 2.34 43 22:49 13.12.2021
6482 Clouds 18 1020 73 10000 2.79 27 21:51 13.12.2021
6483 Clouds 19 1020 73 10000 3.36 21 20:58 13.12.2021
6484 Clear 19 1019 72 10000 3.27 12 20:29 13.12.2021
6485 Clear 19 1019 72 10000 3.27 12 19:51 13.12.2021
6486 Clear 21 1018 72 10000 3.67 1 17:56 13.12.2021
6487 Clear 21 1018 70 10000 3.46 13 17:23 13.12.2021
6488 Clear 21 1018 69 10000 3.38 23 15:49 13.12.2021
6489 Clear 22 1019 69 10000 3.32 33 15:18 13.12.2021
6490 Clear 21 1020 70 10000 3.39 31 13:38 13.12.2021
6491 Clouds 21 1021 71 10000 3.65 27 12:42 13.12.2021
6492 Clouds 21 1021 74 10000 3.6 21 11:54 13.12.2021
6493 Clouds 20 1021 74 10000 3.6 21 11:35 13.12.2021
6494 Clouds 18 1021 76 10000 3.96 16 10:41 13.12.2021
6495 Clouds 18 1020 79 10000 3.93 14 08:52 13.12.2021
6496 Clouds 17 1020 79 10000 3.8 14 07:37 13.12.2021
6497 Clouds 17 1019 80 10000 3.36 12 05:23 13.12.2021
6498 Clouds 18 1020 79 10000 2.8 26 00:42 13.12.2021
6499 Clouds 17 1020 86 10000 0.89 291 21:59 12.12.2021
6500 Clouds 17 1020 86 10000 0.89 291 21:33 12.12.2021
6501 Clouds 19 1020 78 10000 3.54 49 19:38 12.12.2021
6502 Clouds 20 1019 76 10000 3.91 35 18:28 12.12.2021
6503 Clouds 20 1018 76 10000 0.89 281 16:54 12.12.2021
6504 Clouds 20 1018 76 10000 0.89 281 16:26 12.12.2021
6505 Clouds 21 1018 76 10000 0.89 246 15:28 12.12.2021
6506 Clouds 21 1019 73 10000 3.88 33 14:54 12.12.2021
6507 Clouds 21 1019 75 10000 0.89 219 14:22 12.12.2021
6508 Clouds 20 1020 76 10000 0.89 232 12:51 12.12.2021
6509 Clouds 20 1020 76 10000 0.89 345 12:23 12.12.2021
6510 Clouds 20 1021 70 10000 3.91 45 11:43 12.12.2021
6511 Clouds 19 1021 70 10000 4.08 44 10:44 12.12.2021
6512 Clouds 19 1020 72 10000 3.98 39 10:21 12.12.2021
6513 Clouds 19 1020 74 10000 3.92 33 08:50 12.12.2021
6514 Clouds 18 1020 77 10000 4.13 28 07:30 12.12.2021
6515 Clouds 19 1019 79 10000 4.07 18 05:56 12.12.2021
6516 Clouds 19 1019 77 10000 4.41 23 04:55 12.12.2021
6517 Clouds 19 1020 77 10000 4.88 24 02:52 12.12.2021
6518 Clouds 19 1021 72 10000 5.78 37 23:28 11.12.2021
6519 Clouds 19 1021 73 10000 5.87 37 22:21 11.12.2021
6520 Clouds 19 1021 73 10000 5.87 37 21:47 11.12.2021
6521 Clouds 19 1021 72 10000 5.75 38 20:20 11.12.2021
6522 Clouds 20 1020 72 10000 5.75 38 19:21 11.12.2021
6523 Clouds 20 1020 72 10000 5.75 38 18:49 11.12.2021
6524 Clouds 21 1020 71 10000 5.89 36 17:56 11.12.2021
6525 Clouds 22 1020 70 10000 5.82 38 16:39 11.12.2021
6526 Clouds 21 1020 69 10000 5.63 42 15:46 11.12.2021
6527 Clouds 21 1020 68 10000 5.5 46 14:46 11.12.2021
6528 Clouds 21 1022 72 10000 5.7 54 12:41 11.12.2021
6529 Clouds 20 1023 74 10000 6.27 56 11:18 11.12.2021
6530 Clouds 19 1023 76 10000 6.43 54 09:45 11.12.2021
6531 Clouds 17 1022 79 10000 6.64 49 05:36 11.12.2021
6532 Clear 18 1024 78 10000 6.41 51 00:50 11.12.2021
6533 Clear 19 1024 76 10000 6.41 53 23:44 10.12.2021
6534 Clear 19 1024 74 10000 6.59 55 22:50 10.12.2021
6535 Clear 19 1024 73 10000 6.67 55 21:51 10.12.2021
6536 Clear 19 1023 70 10000 6.78 53 20:32 10.12.2021
6537 Clear 20 1022 72 10000 7.55 55 19:19 10.12.2021
6538 Clouds 20 1022 70 10000 7.52 57 17:50 10.12.2021
6539 Clouds 21 1022 69 10000 7.65 58 16:39 10.12.2021
6540 Clouds 21 1022 68 10000 7.07 57 15:45 10.12.2021
6541 Clouds 21 1022 69 10000 6.35 57 15:27 10.12.2021
6542 Clouds 21 1022 69 10000 6.35 57 14:56 10.12.2021
6543 Clouds 21 1023 72 10000 6.62 55 13:50 10.12.2021
6544 Clouds 20 1024 73 10000 6.86 52 13:18 10.12.2021
6545 Clouds 20 1025 75 10000 7.24 51 11:43 10.12.2021
6546 Clouds 20 1025 76 10000 7.88 48 11:19 10.12.2021
6547 Clouds 20 1025 76 10000 7.88 48 11:19 10.12.2021
6548 Clouds 19 1024 75 10000 8.52 45 09:53 10.12.2021
6549 Clouds 19 1023 76 10000 8.67 40 08:23 10.12.2021
6550 Clouds 18 1023 76 10000 8.38 42 04:58 10.12.2021
6551 Clouds 19 1023 74 10000 9.36 39 02:44 10.12.2021
6552 Clouds 19 1024 79 10000 9.79 30 23:43 09.12.2021
6553 Clouds 18 1025 79 10000 9.55 29 22:43 09.12.2021
6554 Clouds 18 1025 77 10000 9.29 29 22:23 09.12.2021
6555 Clouds 18 1025 77 10000 9.29 29 21:40 09.12.2021
6556 Clouds 18 1025 78 10000 8.82 27 20:36 09.12.2021
6557 Clouds 19 1024 76 10000 8.76 27 19:45 09.12.2021
6558 Clouds 18 1024 76 10000 8.96 29 19:20 09.12.2021
6559 Clouds 20 1024 77 10000 8.4 29 18:22 09.12.2021
6560 Clouds 20 1024 77 10000 8.4 29 17:48 09.12.2021
6561 Clouds 19 1024 76 10000 8.55 30 17:24 09.12.2021
6562 Clouds 20 1024 76 10000 8.55 30 16:41 09.12.2021
6563 Clouds 20 1025 75 10000 8.6 31 15:19 09.12.2021
6564 Clouds 20 1024 75 10000 8.5 31 14:36 09.12.2021
6565 Clouds 21 1026 71 10000 9.13 33 12:48 09.12.2021
6566 Clouds 20 1027 75 10000 8.3 35 11:51 09.12.2021
6567 Clouds 19 1027 72 10000 7.61 32 10:40 09.12.2021
6568 Clouds 19 1025 78 10000 8.41 29 07:53 09.12.2021
6569 Clouds 18 1025 83 10000 5.94 28 03:58 09.12.2021
6570 Clouds 19 1027 77 10000 6.31 32 00:26 09.12.2021
6571 Clouds 20 1027 77 10000 6.31 32 23:37 08.12.2021
6572 Clouds 19 1027 75 10000 6.5 32 22:57 08.12.2021
6573 Clouds 19 1027 75 10000 6.5 32 22:36 08.12.2021
6574 Clouds 19 1027 74 10000 7.05 32 21:38 08.12.2021
6575 Clouds 19 1026 76 10000 7.29 33 20:50 08.12.2021
6576 Clouds 20 1026 75 10000 7.09 30 19:57 08.12.2021
6577 Clouds 20 1025 74 10000 6.74 27 19:20 08.12.2021
6578 Clouds 20 1024 73 10000 6.79 29 18:22 08.12.2021
6579 Clouds 21 1024 72 10000 6.7 32 16:55 08.12.2021
6580 Clouds 21 1024 73 10000 6.66 34 15:45 08.12.2021
6581 Clouds 21 1025 72 10000 6.2 36 15:22 08.12.2021
6582 Clouds 21 1026 74 10000 5.35 48 13:27 08.12.2021
6583 Clouds 20 1026 74 10000 5.53 49 10:45 08.12.2021
6584 Clouds 20 1026 74 10000 5.53 49 10:45 08.12.2021
6585 Clouds 18 1026 76 10000 5.57 45 09:58 08.12.2021
6586 Clouds 18 1025 78 10000 6.07 41 08:34 08.12.2021
6587 Clouds 18 1024 79 10000 6.76 37 06:36 08.12.2021
6588 Clouds 18 1024 73 10000 5.02 47 01:20 08.12.2021
6589 Clouds 19 1024 72 10000 5.22 58 23:23 07.12.2021
6590 Clouds 19 1024 69 10000 4.38 50 21:26 07.12.2021
6591 Clouds 19 1024 69 10000 2.84 50 20:26 07.12.2021
6592 Clouds 19 1023 68 10000 2.51 43 19:21 07.12.2021
6593 Clouds 19 1023 68 10000 2.51 43 18:32 07.12.2021
6594 Clouds 19 1023 65 10000 2.96 68 17:27 07.12.2021
6595 Clouds 20 1023 65 10000 2.96 67 16:56 07.12.2021
6596 Clouds 21 1023 63 10000 3.37 72 16:26 07.12.2021
6597 Clouds 20 1023 63 10000 3.71 89 14:38 07.12.2021
6598 Clouds 20 1024 62 10000 3.44 92 13:41 07.12.2021
6599 Clouds 19 1025 67 10000 3.78 74 12:27 07.12.2021
6600 Clouds 19 1025 63 10000 3.03 103 11:23 07.12.2021
6601 Clouds 17 1025 63 10000 2.62 116 09:40 07.12.2021
6602 Clouds 17 1024 70 10000 2.64 107 07:50 07.12.2021
6603 Clouds 17 1022 76 10000 3.93 74 05:52 07.12.2021
6604 Clouds 17 1023 76 10000 3.08 54 05:26 07.12.2021
6605 Clouds 17 1022 77 10000 3.41 55 05:26 07.12.2021
6606 Clouds 19 1024 76 10000 5.12 61 23:38 06.12.2021
6607 Clouds 19 1024 76 10000 5.53 59 22:41 06.12.2021
6608 Clouds 19 1024 76 10000 5.88 55 21:59 06.12.2021
6609 Clouds 19 1024 76 10000 5.88 55 21:36 06.12.2021
6610 Clouds 19 1023 76 10000 6.33 49 20:33 06.12.2021
6611 Clouds 19 1024 76 10000 6.21 53 20:33 06.12.2021
6612 Clouds 20 1023 74 10000 6.3 46 19:25 06.12.2021
6613 Clouds 20 1023 74 10000 6.3 46 18:55 06.12.2021
6614 Clouds 20 1023 71 10000 6.48 49 17:55 06.12.2021
6615 Clouds 21 1023 71 10000 6.48 49 17:34 06.12.2021
6616 Clouds 21 1023 69 10000 6.08 55 15:52 06.12.2021
6617 Clouds 21 1023 69 10000 6.02 57 14:46 06.12.2021
6618 Clouds 21 1025 69 10000 6.16 59 13:35 06.12.2021
6619 Clouds 21 1025 69 10000 6.27 57 12:38 06.12.2021
6620 Clouds 19 1025 71 10000 7.25 55 10:29 06.12.2021
6621 Clouds 19 1025 74 10000 6.93 49 07:41 06.12.2021
6622 Clouds 19 1024 75 10000 7.36 45 03:52 06.12.2021
6623 Clouds 19 1026 73 10000 7.44 46 22:28 05.12.2021
6624 Clouds 19 1026 74 10000 7.27 45 21:26 05.12.2021
6625 Clouds 19 1026 74 10000 7.27 45 20:58 05.12.2021
6626 Clouds 20 1025 71 10000 7.28 46 20:18 05.12.2021
6627 Clouds 20 1025 69 10000 7.01 47 19:26 05.12.2021
6628 Clouds 20 1025 67 10000 7.4 45 18:36 05.12.2021
6629 Clouds 21 1024 69 10000 7.19 46 17:53 05.12.2021
6630 Clouds 21 1024 69 10000 7.19 46 17:34 05.12.2021
6631 Clouds 21 1024 69 10000 7.28 48 16:38 05.12.2021
6632 Clouds 21 1025 67 10000 6.9 51 16:19 05.12.2021
6633 Clouds 21 1025 69 10000 6.69 52 14:48 05.12.2021
6634 Clouds 21 1025 69 10000 6.69 52 14:30 05.12.2021
6635 Clouds 21 1026 69 10000 6.69 54 13:36 05.12.2021
6636 Clouds 21 1027 69 10000 6.73 56 12:47 05.12.2021
6637 Clouds 21 1027 70 10000 6.82 59 12:27 05.12.2